<?xml version='1.0' encoding='UTF-8'?><gpx version="1.1" creator="JPX - https://github.com/jenetics/jpx" xmlns="http://www.topografix.com/GPX/1/1"><trk><trkseg><trkpt lat="46.00168670553509" lon="12.74202940143586"><ele>50.0</ele><time>2026-05-01T07:10:02.999Z</time></trkpt><trkpt lat="46.001678912338335" lon="12.741918892538632"><ele>50.0</ele><time>2026-05-01T07:10:04.999Z</time></trkpt><trkpt lat="46.00169399150371" lon="12.741786494505156"><ele>50.0</ele><time>2026-05-01T07:10:06.999Z</time></trkpt><trkpt lat="46.00170661860204" lon="12.741649594226711"><ele>50.0</ele><time>2026-05-01T07:10:08.999Z</time></trkpt><trkpt lat="46.001912701219545" lon="12.74161500249272"><ele>50.0</ele><time>2026-05-01T07:10:10.999Z</time></trkpt><trkpt lat="46.00195382934385" lon="12.741452821091123"><ele>50.0</ele><time>2026-05-01T07:10:12.999Z</time></trkpt><trkpt lat="46.001982511015285" lon="12.741339719236825"><ele>50.0</ele><time>2026-05-01T07:10:13.999Z</time></trkpt><trkpt lat="46.002012065759196" lon="12.741223761512014"><ele>50.0</ele><time>2026-05-01T07:10:14.999Z</time></trkpt><trkpt lat="46.00204703074598" lon="12.741088712530276"><ele>50.0</ele><time>2026-05-01T07:10:15.999Z</time></trkpt><trkpt lat="46.00207908134722" lon="12.740964917673734"><ele>50.0</ele><time>2026-05-01T07:10:16.999Z</time></trkpt><trkpt lat="46.00210780130018" lon="12.740859707196002"><ele>50.0</ele><time>2026-05-01T07:10:17.999Z</time></trkpt><trkpt lat="46.00213945167193" lon="12.740741922740089"><ele>50.0</ele><time>2026-05-01T07:10:18.999Z</time></trkpt><trkpt lat="46.00217902599775" lon="12.740594650343294"><ele>50.0</ele><time>2026-05-01T07:10:19.999Z</time></trkpt><trkpt lat="46.00221572291649" lon="12.74045808582624"><ele>50.0</ele><time>2026-05-01T07:10:20.999Z</time></trkpt><trkpt lat="46.00205749927039" lon="12.73985057766919"><ele>50.16666666666667</ele><time>2026-05-01T07:10:21.999Z</time></trkpt><trkpt lat="46.00202554965642" lon="12.73975649494105"><ele>50.333333333333336</ele><time>2026-05-01T07:10:22.999Z</time></trkpt><trkpt lat="46.00199877922396" lon="12.739672378556447"><ele>50.5</ele><time>2026-05-01T07:10:23.999Z</time></trkpt><trkpt lat="46.00197359980465" lon="12.73958778312318"><ele>50.66666666666667</ele><time>2026-05-01T07:10:24.999Z</time></trkpt><trkpt lat="46.00193298253237" lon="12.739448203301139"><ele>50.833333333333336</ele><time>2026-05-01T07:10:26.999Z</time></trkpt><trkpt lat="46.00188653178613" lon="12.73928178101954"><ele>51.0</ele><time>2026-05-01T07:10:28.999Z</time></trkpt><trkpt lat="46.00185224173694" lon="12.739155852811598"><ele>51.0</ele><time>2026-05-01T07:10:30.999Z</time></trkpt><trkpt lat="46.001880754326024" lon="12.73926056364302"><ele>51.0</ele><time>2026-05-01T07:10:47.998Z</time></trkpt><trkpt lat="46.0017356572583" lon="12.73941037521987"><ele>51.0</ele><time>2026-05-01T07:10:49.998Z</time></trkpt><trkpt lat="46.00173758699087" lon="12.739526845525756"><ele>51.0</ele><time>2026-05-01T07:10:50.998Z</time></trkpt><trkpt lat="46.00173020532806" lon="12.739627182790082"><ele>51.0</ele><time>2026-05-01T07:10:51.998Z</time></trkpt><trkpt lat="46.001688507537274" lon="12.739805557535885"><ele>51.0</ele><time>2026-05-01T07:10:53.998Z</time></trkpt><trkpt lat="46.002045415033" lon="12.740118189608234"><ele>51.0</ele><time>2026-05-01T07:10:55.998Z</time></trkpt><trkpt lat="46.00207895640068" lon="12.740203271537748"><ele>50.8</ele><time>2026-05-01T07:10:56.998Z</time></trkpt><trkpt lat="46.00216310210169" lon="12.74028544126399"><ele>50.599999999999994</ele><time>2026-05-01T07:10:58.998Z</time></trkpt><trkpt lat="46.00221723518027" lon="12.740451058865862"><ele>50.4</ele><time>2026-05-01T07:11:01Z</time></trkpt><trkpt lat="46.0022615844371" lon="12.74056787521283"><ele>50.2</ele><time>2026-05-01T07:11:02Z</time></trkpt><trkpt lat="46.002298970621865" lon="12.740693525537747"><ele>50.0</ele><time>2026-05-01T07:11:03Z</time></trkpt><trkpt lat="46.00232917108715" lon="12.740830871603888"><ele>50.0</ele><time>2026-05-01T07:11:04Z</time></trkpt><trkpt lat="46.00235947292933" lon="12.740980779718733"><ele>50.0</ele><time>2026-05-01T07:11:05Z</time></trkpt><trkpt lat="46.002393865380974" lon="12.74115445391152"><ele>50.0</ele><time>2026-05-01T07:11:06Z</time></trkpt><trkpt lat="46.00243002746568" lon="12.741337584480453"><ele>50.0</ele><time>2026-05-01T07:11:07Z</time></trkpt><trkpt lat="46.00246543513907" lon="12.741528143018808"><ele>50.5</ele><time>2026-05-01T07:11:08Z</time></trkpt><trkpt lat="46.0025005412007" lon="12.741728805098008"><ele>51.0</ele><time>2026-05-01T07:11:09Z</time></trkpt><trkpt lat="46.00253560826695" lon="12.741929184924732"><ele>51.5</ele><time>2026-05-01T07:11:10Z</time></trkpt><trkpt lat="46.0025680176175" lon="12.742122111841287"><ele>52.0</ele><time>2026-05-01T07:11:11Z</time></trkpt><trkpt lat="46.00260614339203" lon="12.742315423274775"><ele>52.0</ele><time>2026-05-01T07:11:12Z</time></trkpt><trkpt lat="46.00262897860475" lon="12.742516395969961"><ele>52.0</ele><time>2026-05-01T07:11:13Z</time></trkpt><trkpt lat="46.00266311826532" lon="12.742718178994195"><ele>52.0</ele><time>2026-05-01T07:11:14Z</time></trkpt><trkpt lat="46.00269801718588" lon="12.742924449770507"><ele>52.0</ele><time>2026-05-01T07:11:15Z</time></trkpt><trkpt lat="46.002733289970145" lon="12.743132929945315"><ele>51.75</ele><time>2026-05-01T07:11:16Z</time></trkpt><trkpt lat="46.002766457963546" lon="12.74332897008497"><ele>51.5</ele><time>2026-05-01T07:11:17Z</time></trkpt><trkpt lat="46.002798673004634" lon="12.743519377589621"><ele>51.25</ele><time>2026-05-01T07:11:18Z</time></trkpt><trkpt lat="46.0028295880949" lon="12.743702101786175"><ele>51.0</ele><time>2026-05-01T07:11:19Z</time></trkpt><trkpt lat="46.00287422263748" lon="12.743882582531992"><ele>50.5</ele><time>2026-05-01T07:11:20Z</time></trkpt><trkpt lat="46.00290757459522" lon="12.744076289607731"><ele>50.0</ele><time>2026-05-01T07:11:21Z</time></trkpt><trkpt lat="46.00294207235253" lon="12.744275922093765"><ele>49.5</ele><time>2026-05-01T07:11:22Z</time></trkpt><trkpt lat="46.002961827204985" lon="12.744487824641867"><ele>49.0</ele><time>2026-05-01T07:11:23Z</time></trkpt><trkpt lat="46.00300118217802" lon="12.74470476784981"><ele>49.0</ele><time>2026-05-01T07:11:24Z</time></trkpt><trkpt lat="46.00304446277487" lon="12.744915904286197"><ele>49.0</ele><time>2026-05-01T07:11:25Z</time></trkpt><trkpt lat="46.00308997897802" lon="12.745126129211489"><ele>49.0</ele><time>2026-05-01T07:11:26Z</time></trkpt><trkpt lat="46.00315169692329" lon="12.745329585054789"><ele>50.0</ele><time>2026-05-01T07:11:27Z</time></trkpt><trkpt lat="46.0031953937823" lon="12.74554814285675"><ele>51.0</ele><time>2026-05-01T07:11:28Z</time></trkpt><trkpt lat="46.00323754596087" lon="12.745765725611982"><ele>52.0</ele><time>2026-05-01T07:11:29Z</time></trkpt><trkpt lat="46.003277095279515" lon="12.745978312473309"><ele>51.75</ele><time>2026-05-01T07:11:30Z</time></trkpt><trkpt lat="46.00331619641685" lon="12.746173197370673"><ele>51.5</ele><time>2026-05-01T07:11:31Z</time></trkpt><trkpt lat="46.0033398696179" lon="12.746372251969156"><ele>51.25</ele><time>2026-05-01T07:11:32Z</time></trkpt><trkpt lat="46.00338211587528" lon="12.746573200653735"><ele>51.0</ele><time>2026-05-01T07:11:33Z</time></trkpt><trkpt lat="46.003430674145676" lon="12.746774126593072"><ele>51.25</ele><time>2026-05-01T07:11:34Z</time></trkpt><trkpt lat="46.00349793393639" lon="12.74697085941505"><ele>51.5</ele><time>2026-05-01T07:11:35Z</time></trkpt><trkpt lat="46.003546442666284" lon="12.747163952457282"><ele>51.75</ele><time>2026-05-01T07:11:36Z</time></trkpt><trkpt lat="46.003591188304796" lon="12.747339553844101"><ele>52.0</ele><time>2026-05-01T07:11:37Z</time></trkpt><trkpt lat="46.00363150329212" lon="12.74751333712458"><ele>52.0</ele><time>2026-05-01T07:11:38Z</time></trkpt><trkpt lat="46.00366656348575" lon="12.747686879119493"><ele>52.0</ele><time>2026-05-01T07:11:39Z</time></trkpt><trkpt lat="46.003703705570366" lon="12.747865087168863"><ele>52.0</ele><time>2026-05-01T07:11:40Z</time></trkpt><trkpt lat="46.003742965145" lon="12.748051667704928"><ele>52.0</ele><time>2026-05-01T07:11:41Z</time></trkpt><trkpt lat="46.00378239555821" lon="12.748242228018835"><ele>52.0</ele><time>2026-05-01T07:11:42Z</time></trkpt><trkpt lat="46.00382413742706" lon="12.748438051902642"><ele>52.0</ele><time>2026-05-01T07:11:43Z</time></trkpt><trkpt lat="46.0038659842801" lon="12.748639135366417"><ele>52.0</ele><time>2026-05-01T07:11:44Z</time></trkpt><trkpt lat="46.003910010613076" lon="12.748845513627089"><ele>52.0</ele><time>2026-05-01T07:11:45Z</time></trkpt><trkpt lat="46.00395047894584" lon="12.749043363288676"><ele>51.75</ele><time>2026-05-01T07:11:46Z</time></trkpt><trkpt lat="46.00398876877146" lon="12.749229838923624"><ele>51.5</ele><time>2026-05-01T07:11:47Z</time></trkpt><trkpt lat="46.0040212515021" lon="12.74940027949074"><ele>51.25</ele><time>2026-05-01T07:11:48Z</time></trkpt><trkpt lat="46.004050883488986" lon="12.749553983036868"><ele>51.0</ele><time>2026-05-01T07:11:49Z</time></trkpt><trkpt lat="46.00407636168142" lon="12.749694703080406"><ele>50.833333333333336</ele><time>2026-05-01T07:11:50Z</time></trkpt><trkpt lat="46.00409978300053" lon="12.749823305972507"><ele>50.66666666666667</ele><time>2026-05-01T07:11:51Z</time></trkpt><trkpt lat="46.00412134353442" lon="12.74994342239033"><ele>50.5</ele><time>2026-05-01T07:11:52Z</time></trkpt><trkpt lat="46.004140956134776" lon="12.750061180856807"><ele>50.333333333333336</ele><time>2026-05-01T07:11:53Z</time></trkpt><trkpt lat="46.004158026126156" lon="12.750177932262167"><ele>50.16666666666667</ele><time>2026-05-01T07:11:54Z</time></trkpt><trkpt lat="46.00417317239493" lon="12.750295756594774"><ele>50.0</ele><time>2026-05-01T07:11:55Z</time></trkpt><trkpt lat="46.00418739302161" lon="12.75041973791691"><ele>50.4</ele><time>2026-05-01T07:11:56Z</time></trkpt><trkpt lat="46.00420396288878" lon="12.750552557720207"><ele>50.8</ele><time>2026-05-01T07:11:57Z</time></trkpt><trkpt lat="46.00422065619641" lon="12.750691589300464"><ele>51.2</ele><time>2026-05-01T07:11:58Z</time></trkpt><trkpt lat="46.00423536874261" lon="12.750834848204398"><ele>51.6</ele><time>2026-05-01T07:11:59Z</time></trkpt><trkpt lat="46.00425034268386" lon="12.750978957375368"><ele>52.0</ele><time>2026-05-01T07:12:00Z</time></trkpt><trkpt lat="46.004268448120754" lon="12.751113199721692"><ele>52.400000000000006</ele><time>2026-05-01T07:12:01Z</time></trkpt><trkpt lat="46.004287470839756" lon="12.751237369139554"><ele>52.800000000000004</ele><time>2026-05-01T07:12:02Z</time></trkpt><trkpt lat="46.00430586052296" lon="12.75135674817424"><ele>53.2</ele><time>2026-05-01T07:12:02.999Z</time></trkpt><trkpt lat="46.00430047965733" lon="12.75148014815757"><ele>53.6</ele><time>2026-05-01T07:12:03.999Z</time></trkpt><trkpt lat="46.00431928042306" lon="12.751614199117977"><ele>54.0</ele><time>2026-05-01T07:12:04.999Z</time></trkpt><trkpt lat="46.00432391177588" lon="12.751766587129994"><ele>53.800000000000004</ele><time>2026-05-01T07:12:05.999Z</time></trkpt><trkpt lat="46.00432593338126" lon="12.75192323441456"><ele>53.60000000000001</ele><time>2026-05-01T07:12:06.999Z</time></trkpt><trkpt lat="46.00432722751189" lon="12.752076135412347"><ele>53.4</ele><time>2026-05-01T07:12:07.999Z</time></trkpt><trkpt lat="46.00431221942296" lon="12.752226596123988"><ele>53.2</ele><time>2026-05-01T07:12:08.999Z</time></trkpt><trkpt lat="46.004317527790704" lon="12.752368858457617"><ele>53.0</ele><time>2026-05-01T07:12:09.999Z</time></trkpt><trkpt lat="46.004335134790175" lon="12.752499404721418"><ele>53.00000000000001</ele><time>2026-05-01T07:12:10.999Z</time></trkpt><trkpt lat="46.00435471254987" lon="12.752611604488301"><ele>53.0</ele><time>2026-05-01T07:12:11.999Z</time></trkpt><trkpt lat="46.004392199776845" lon="12.75270705223921"><ele>53.0</ele><time>2026-05-01T07:12:12.999Z</time></trkpt><trkpt lat="46.004435857058844" lon="12.752854048785352"><ele>53.0</ele><time>2026-05-01T07:12:14.999Z</time></trkpt><trkpt lat="46.004441321882126" lon="12.752947238482353"><ele>53.00000000000001</ele><time>2026-05-01T07:12:20.999Z</time></trkpt><trkpt lat="46.004444362380006" lon="12.75279208540731"><ele>53.0</ele><time>2026-05-01T07:12:27.999Z</time></trkpt><trkpt lat="46.0044155627337" lon="12.752678466029185"><ele>53.0</ele><time>2026-05-01T07:12:28.999Z</time></trkpt><trkpt lat="46.004392343705675" lon="12.75256712363816"><ele>53.0</ele><time>2026-05-01T07:12:29.999Z</time></trkpt><trkpt lat="46.00437226434986" lon="12.752440796087233"><ele>53.0</ele><time>2026-05-01T07:12:30.999Z</time></trkpt><trkpt lat="46.004359249143945" lon="12.752300510860474"><ele>53.0</ele><time>2026-05-01T07:12:31.999Z</time></trkpt><trkpt lat="46.004351111399785" lon="12.75214976639171"><ele>53.0</ele><time>2026-05-01T07:12:32.999Z</time></trkpt><trkpt lat="46.00434752844732" lon="12.752001293258466"><ele>53.2</ele><time>2026-05-01T07:12:33.999Z</time></trkpt><trkpt lat="46.004346521655656" lon="12.751865903250842"><ele>53.4</ele><time>2026-05-01T07:12:34.999Z</time></trkpt><trkpt lat="46.004343296060014" lon="12.751733925894815"><ele>53.60000000000001</ele><time>2026-05-01T07:12:35.999Z</time></trkpt><trkpt lat="46.00433624507713" lon="12.751603721314861"><ele>53.800000000000004</ele><time>2026-05-01T07:12:36.999Z</time></trkpt><trkpt lat="46.0043244201805" lon="12.75146511985738"><ele>54.0</ele><time>2026-05-01T07:12:37.999Z</time></trkpt><trkpt lat="46.00430983864614" lon="12.751326282856029"><ele>54.0</ele><time>2026-05-01T07:12:38.999Z</time></trkpt><trkpt lat="46.004297949150484" lon="12.751186449243468"><ele>54.0</ele><time>2026-05-01T07:12:39.999Z</time></trkpt><trkpt lat="46.00427017539651" lon="12.750908861746858"><ele>54.0</ele><time>2026-05-01T07:12:41.999Z</time></trkpt><trkpt lat="46.00425339750591" lon="12.750767530680642"><ele>54.0</ele><time>2026-05-01T07:12:42.999Z</time></trkpt><trkpt lat="46.00423852305167" lon="12.750636749736723"><ele>53.666666666666664</ele><time>2026-05-01T07:12:43.999Z</time></trkpt><trkpt lat="46.004227008180024" lon="12.750522017869846"><ele>53.33333333333333</ele><time>2026-05-01T07:12:44.999Z</time></trkpt><trkpt lat="46.00421649161843" lon="12.750417031035505"><ele>53.0</ele><time>2026-05-01T07:12:45.999Z</time></trkpt><trkpt lat="46.00420936451636" lon="12.750322171236007"><ele>52.666666666666664</ele><time>2026-05-01T07:12:46.999Z</time></trkpt><trkpt lat="46.00419893728937" lon="12.750179055947433"><ele>52.33333333333333</ele><time>2026-05-01T07:12:48.999Z</time></trkpt><trkpt lat="46.00419868902279" lon="12.750087753080155"><ele>52.0</ele><time>2026-05-01T07:12:51.998Z</time></trkpt><trkpt lat="46.0041781006979" lon="12.75018119047219"><ele>52.0</ele><time>2026-05-01T07:13:55Z</time></trkpt><trkpt lat="46.00417907581212" lon="12.750296016223732"><ele>52.0</ele><time>2026-05-01T07:13:56Z</time></trkpt><trkpt lat="46.00419417093665" lon="12.75043087941184"><ele>52.0</ele><time>2026-05-01T07:13:57Z</time></trkpt><trkpt lat="46.004209376228864" lon="12.750560579248328"><ele>52.0</ele><time>2026-05-01T07:13:58Z</time></trkpt><trkpt lat="46.00422760183856" lon="12.750707252687722"><ele>52.0</ele><time>2026-05-01T07:13:58.999Z</time></trkpt><trkpt lat="46.00424673997835" lon="12.750866589193551"><ele>52.0</ele><time>2026-05-01T07:13:59.999Z</time></trkpt><trkpt lat="46.004268358182024" lon="12.751038454928208"><ele>52.0</ele><time>2026-05-01T07:14:00.999Z</time></trkpt><trkpt lat="46.00428418591085" lon="12.751202300387208"><ele>52.0</ele><time>2026-05-01T07:14:01.999Z</time></trkpt><trkpt lat="46.004304044744764" lon="12.751388683744159"><ele>52.0</ele><time>2026-05-01T07:14:02.999Z</time></trkpt><trkpt lat="46.004320644732694" lon="12.75158475591489"><ele>52.25</ele><time>2026-05-01T07:14:03.999Z</time></trkpt><trkpt lat="46.00430897302541" lon="12.751789277931348"><ele>52.5</ele><time>2026-05-01T07:14:04.999Z</time></trkpt><trkpt lat="46.004311186706474" lon="12.752002173099253"><ele>52.75</ele><time>2026-05-01T07:14:05.999Z</time></trkpt><trkpt lat="46.00431235046795" lon="12.75220258614873"><ele>53.0</ele><time>2026-05-01T07:14:06.999Z</time></trkpt><trkpt lat="46.004318988826185" lon="12.752388443500498"><ele>53.0</ele><time>2026-05-01T07:14:07.999Z</time></trkpt><trkpt lat="46.00434341837012" lon="12.752548091591697"><ele>53.0</ele><time>2026-05-01T07:14:08.999Z</time></trkpt><trkpt lat="46.00438366006952" lon="12.752716957937567"><ele>53.0</ele><time>2026-05-01T07:14:09.999Z</time></trkpt><trkpt lat="46.0044587276293" lon="12.752875576145907"><ele>53.0</ele><time>2026-05-01T07:14:10.999Z</time></trkpt><trkpt lat="46.004518756122444" lon="12.753043354666893"><ele>53.0</ele><time>2026-05-01T07:14:11.999Z</time></trkpt><trkpt lat="46.00459281964672" lon="12.753207081185456"><ele>53.0</ele><time>2026-05-01T07:14:12.999Z</time></trkpt><trkpt lat="46.00467298820181" lon="12.75337195637528"><ele>53.0</ele><time>2026-05-01T07:14:13.999Z</time></trkpt><trkpt lat="46.00475054388818" lon="12.753528590998993"><ele>53.0</ele><time>2026-05-01T07:14:14.999Z</time></trkpt><trkpt lat="46.004805918768405" lon="12.75366296029486"><ele>53.333333333333336</ele><time>2026-05-01T07:14:15.999Z</time></trkpt><trkpt lat="46.00486006492926" lon="12.753776990426253"><ele>53.66666666666667</ele><time>2026-05-01T07:14:16.999Z</time></trkpt><trkpt lat="46.00489820407855" lon="12.753881677922267"><ele>54.0</ele><time>2026-05-01T07:14:17.999Z</time></trkpt><trkpt lat="46.00492919170341" lon="12.753981258875656"><ele>54.33333333333333</ele><time>2026-05-01T07:14:18.999Z</time></trkpt><trkpt lat="46.00493801013803" lon="12.754081759316202"><ele>54.666666666666664</ele><time>2026-05-01T07:14:19.999Z</time></trkpt><trkpt lat="46.004956442794594" lon="12.754170001913007"><ele>55.0</ele><time>2026-05-01T07:14:20.999Z</time></trkpt><trkpt lat="46.00497697024779" lon="12.754272042311262"><ele>54.99999999999999</ele><time>2026-05-01T07:14:22.999Z</time></trkpt><trkpt lat="46.0049948458749" lon="12.75436702136819"><ele>55.0</ele><time>2026-05-01T07:14:42.999Z</time></trkpt><trkpt lat="46.00501682034655" lon="12.754489050684267"><ele>55.0</ele><time>2026-05-01T07:14:44.999Z</time></trkpt><trkpt lat="46.0050494841341" lon="12.754670440146972"><ele>55.0</ele><time>2026-05-01T07:14:46.999Z</time></trkpt><trkpt lat="46.00506816370817" lon="12.754774172203168"><ele>54.99999999999999</ele><time>2026-05-01T07:14:47.999Z</time></trkpt><trkpt lat="46.00508910971674" lon="12.754890490245186"><ele>55.0</ele><time>2026-05-01T07:14:48.998Z</time></trkpt><trkpt lat="46.005110412773206" lon="12.755014051407391"><ele>55.0</ele><time>2026-05-01T07:14:49.998Z</time></trkpt><trkpt lat="46.00514297752079" lon="12.755160744404176"><ele>55.0</ele><time>2026-05-01T07:14:51.998Z</time></trkpt><trkpt lat="46.00519441526922" lon="12.755519941831661"><ele>55.0</ele><time>2026-05-01T07:14:53.998Z</time></trkpt><trkpt lat="46.00521689918851" lon="12.755644297705564"><ele>54.99999999999999</ele><time>2026-05-01T07:14:54.998Z</time></trkpt><trkpt lat="46.0052553711216" lon="12.755766739824148"><ele>55.0</ele><time>2026-05-01T07:14:55.998Z</time></trkpt><trkpt lat="46.005277135915314" lon="12.755892930404393"><ele>55.0</ele><time>2026-05-01T07:14:56.998Z</time></trkpt><trkpt lat="46.00529619346307" lon="12.756011123702802"><ele>55.0</ele><time>2026-05-01T07:14:57.998Z</time></trkpt><trkpt lat="46.005320695305294" lon="12.756119094878986"><ele>54.99999999999999</ele><time>2026-05-01T07:14:58.998Z</time></trkpt><trkpt lat="46.0053395866604" lon="12.756227292621608"><ele>55.0</ele><time>2026-05-01T07:14:59.998Z</time></trkpt><trkpt lat="46.00534764820064" lon="12.756340609333908"><ele>54.49999999999999</ele><time>2026-05-01T07:15:00.998Z</time></trkpt><trkpt lat="46.0053709531279" lon="12.756455732658825"><ele>54.0</ele><time>2026-05-01T07:15:01.998Z</time></trkpt><trkpt lat="46.0053950853428" lon="12.756574645233274"><ele>53.5</ele><time>2026-05-01T07:15:02.998Z</time></trkpt><trkpt lat="46.005435205527895" lon="12.756688037257224"><ele>53.0</ele><time>2026-05-01T07:15:03.998Z</time></trkpt><trkpt lat="46.00545869967967" lon="12.75680875737578"><ele>52.49999999999999</ele><time>2026-05-01T07:15:04.998Z</time></trkpt><trkpt lat="46.00548084547191" lon="12.75693960590559"><ele>52.0</ele><time>2026-05-01T07:15:05.998Z</time></trkpt><trkpt lat="46.00550720932564" lon="12.757071469117662"><ele>51.8</ele><time>2026-05-01T07:15:06.998Z</time></trkpt><trkpt lat="46.00552976601998" lon="12.757183191182076"><ele>51.6</ele><time>2026-05-01T07:15:07.998Z</time></trkpt><trkpt lat="46.005554769688025" lon="12.757305847296939"><ele>51.4</ele><time>2026-05-01T07:15:08.998Z</time></trkpt><trkpt lat="46.00558501898573" lon="12.757452913843004"><ele>51.199999999999996</ele><time>2026-05-01T07:15:09.998Z</time></trkpt><trkpt lat="46.00561809526989" lon="12.757604545252144"><ele>51.0</ele><time>2026-05-01T07:15:10.998Z</time></trkpt><trkpt lat="46.00564412893714" lon="12.757726061987617"><ele>51.0</ele><time>2026-05-01T07:15:12Z</time></trkpt><trkpt lat="46.00567294998011" lon="12.757843383795205"><ele>51.0</ele><time>2026-05-01T07:15:13Z</time></trkpt><trkpt lat="46.005700013667955" lon="12.75796347029725"><ele>51.0</ele><time>2026-05-01T07:15:14Z</time></trkpt><trkpt lat="46.00572672106768" lon="12.758079574707955"><ele>51.0</ele><time>2026-05-01T07:15:15Z</time></trkpt><trkpt lat="46.00575672252238" lon="12.758214715006218"><ele>51.0</ele><time>2026-05-01T07:15:16Z</time></trkpt><trkpt lat="46.005787687913056" lon="12.758357891061708"><ele>51.0</ele><time>2026-05-01T07:15:17Z</time></trkpt><trkpt lat="46.00581626032037" lon="12.758484679610087"><ele>51.0</ele><time>2026-05-01T07:15:18Z</time></trkpt><trkpt lat="46.00584191287497" lon="12.758597888724966"><ele>51.0</ele><time>2026-05-01T07:15:19Z</time></trkpt><trkpt lat="46.00586778466821" lon="12.75871708545517"><ele>51.0</ele><time>2026-05-01T07:15:20Z</time></trkpt><trkpt lat="46.00590241636195" lon="12.758849253091228"><ele>51.0</ele><time>2026-05-01T07:15:21Z</time></trkpt><trkpt lat="46.005932585985576" lon="12.758980832710389"><ele>51.166666666666664</ele><time>2026-05-01T07:15:22Z</time></trkpt><trkpt lat="46.00595878200191" lon="12.759106333992671"><ele>51.33333333333333</ele><time>2026-05-01T07:15:23Z</time></trkpt><trkpt lat="46.005979669497655" lon="12.759215614960485"><ele>51.5</ele><time>2026-05-01T07:15:24Z</time></trkpt><trkpt lat="46.006005062341686" lon="12.75932892856936"><ele>51.666666666666664</ele><time>2026-05-01T07:15:25Z</time></trkpt><trkpt lat="46.00603433837263" lon="12.75944983497638"><ele>51.83333333333333</ele><time>2026-05-01T07:15:26Z</time></trkpt><trkpt lat="46.00605111068556" lon="12.759577498436308"><ele>52.0</ele><time>2026-05-01T07:15:27Z</time></trkpt><trkpt lat="46.00609680945987" lon="12.759699143533302"><ele>52.0</ele><time>2026-05-01T07:15:28Z</time></trkpt><trkpt lat="46.00612923287833" lon="12.759831255695552"><ele>52.0</ele><time>2026-05-01T07:15:29Z</time></trkpt><trkpt lat="46.006148657175984" lon="12.759982465139297"><ele>52.0</ele><time>2026-05-01T07:15:30Z</time></trkpt><trkpt lat="46.00617900784772" lon="12.760105770887547"><ele>52.0</ele><time>2026-05-01T07:15:31Z</time></trkpt><trkpt lat="46.006225010895584" lon="12.760221056677846"><ele>52.0</ele><time>2026-05-01T07:15:32Z</time></trkpt><trkpt lat="46.00623587859331" lon="12.760334989009918"><ele>52.75</ele><time>2026-05-01T07:15:33Z</time></trkpt><trkpt lat="46.006260517991784" lon="12.760431856651946"><ele>53.5</ele><time>2026-05-01T07:15:34Z</time></trkpt><trkpt lat="46.00629852668494" lon="12.7605812847854"><ele>54.25</ele><time>2026-05-01T07:15:36Z</time></trkpt><trkpt lat="46.00630511898604" lon="12.760684404902292"><ele>55.0</ele><time>2026-05-01T07:15:39Z</time></trkpt><trkpt lat="46.006430219756744" lon="12.761011803006886"><ele>54.99999999999999</ele><time>2026-05-01T07:15:40Z</time></trkpt><trkpt lat="46.00647042039526" lon="12.761140857855972"><ele>55.0</ele><time>2026-05-01T07:15:41Z</time></trkpt><trkpt lat="46.00650263638275" lon="12.761257472050941"><ele>55.0</ele><time>2026-05-01T07:15:42Z</time></trkpt><trkpt lat="46.00653983375564" lon="12.761372167954116"><ele>55.0</ele><time>2026-05-01T07:15:43Z</time></trkpt><trkpt lat="46.00657568360271" lon="12.76147893294525"><ele>54.99999999999999</ele><time>2026-05-01T07:15:44Z</time></trkpt><trkpt lat="46.006606875046835" lon="12.76156856095736"><ele>55.0</ele><time>2026-05-01T07:15:45Z</time></trkpt><trkpt lat="46.006662287003365" lon="12.761724922592935"><ele>55.166666666666664</ele><time>2026-05-01T07:15:47Z</time></trkpt><trkpt lat="46.00668735000789" lon="12.761808867022"><ele>55.33333333333333</ele><time>2026-05-01T07:15:48Z</time></trkpt><trkpt lat="46.00672740302851" lon="12.761938059717822"><ele>55.5</ele><time>2026-05-01T07:15:50Z</time></trkpt><trkpt lat="46.006764721276575" lon="12.76204903229966"><ele>55.66666666666667</ele><time>2026-05-01T07:15:52Z</time></trkpt><trkpt lat="46.006780802797294" lon="12.76213817104344"><ele>55.833333333333336</ele><time>2026-05-01T07:15:54Z</time></trkpt><trkpt lat="46.00688877730238" lon="12.762172701305946"><ele>56.0</ele><time>2026-05-01T07:15:56Z</time></trkpt><trkpt lat="46.006957669714254" lon="12.762219139509954"><ele>56.00000000000001</ele><time>2026-05-01T07:15:57Z</time></trkpt><trkpt lat="46.007049510455126" lon="12.762284294263216"><ele>56.0</ele><time>2026-05-01T07:15:58Z</time></trkpt><trkpt lat="46.007138509653046" lon="12.762353926170094"><ele>56.0</ele><time>2026-05-01T07:15:59Z</time></trkpt><trkpt lat="46.00720552420755" lon="12.762371901687754"><ele>56.0</ele><time>2026-05-01T07:16:00Z</time></trkpt><trkpt lat="46.007280911405225" lon="12.762410833427676"><ele>56.00000000000001</ele><time>2026-05-01T07:16:01Z</time></trkpt><trkpt lat="46.00736871176007" lon="12.762446367498406"><ele>56.0</ele><time>2026-05-01T07:16:01.999Z</time></trkpt><trkpt lat="46.00746170600002" lon="12.762482564129566"><ele>56.00000000000001</ele><time>2026-05-01T07:16:02.999Z</time></trkpt><trkpt lat="46.0075601905188" lon="12.762529663247424"><ele>56.0</ele><time>2026-05-01T07:16:03.999Z</time></trkpt><trkpt lat="46.007653420913854" lon="12.76256449102204"><ele>56.0</ele><time>2026-05-01T07:16:04.999Z</time></trkpt><trkpt lat="46.00773444997392" lon="12.762618798175714"><ele>56.0</ele><time>2026-05-01T07:16:05.999Z</time></trkpt><trkpt lat="46.00780868810597" lon="12.762626326998488"><ele>56.00000000000001</ele><time>2026-05-01T07:16:06.999Z</time></trkpt><trkpt lat="46.007873202087765" lon="12.76267648457492"><ele>56.0</ele><time>2026-05-01T07:16:07.999Z</time></trkpt><trkpt lat="46.00794332813585" lon="12.762704867396469"><ele>56.16666666666667</ele><time>2026-05-01T07:16:08.999Z</time></trkpt><trkpt lat="46.0080185646425" lon="12.762710811863082"><ele>56.333333333333336</ele><time>2026-05-01T07:16:09.999Z</time></trkpt><trkpt lat="46.00808301358155" lon="12.762759101409213"><ele>56.5</ele><time>2026-05-01T07:16:10.999Z</time></trkpt><trkpt lat="46.00815255619402" lon="12.762785032535902"><ele>56.66666666666667</ele><time>2026-05-01T07:16:11.999Z</time></trkpt><trkpt lat="46.008236018791195" lon="12.762815824833536"><ele>56.833333333333336</ele><time>2026-05-01T07:16:12.999Z</time></trkpt><trkpt lat="46.00831788694037" lon="12.762844206019343"><ele>57.0</ele><time>2026-05-01T07:16:13.999Z</time></trkpt><trkpt lat="46.00839681356711" lon="12.762871567514715"><ele>57.166666666666664</ele><time>2026-05-01T07:16:14.999Z</time></trkpt><trkpt lat="46.00847719048893" lon="12.762899431777747"><ele>57.33333333333333</ele><time>2026-05-01T07:16:15.999Z</time></trkpt><trkpt lat="46.008556863165126" lon="12.762927051892488"><ele>57.5</ele><time>2026-05-01T07:16:16.999Z</time></trkpt><trkpt lat="46.00863578465476" lon="12.762954530906848"><ele>57.666666666666664</ele><time>2026-05-01T07:16:17.999Z</time></trkpt><trkpt lat="46.00870904055707" lon="12.762980812918597"><ele>57.83333333333333</ele><time>2026-05-01T07:16:18.999Z</time></trkpt><trkpt lat="46.00878677824822" lon="12.763008702878109"><ele>58.0</ele><time>2026-05-01T07:16:19.999Z</time></trkpt><trkpt lat="46.008859797467444" lon="12.763010478159172"><ele>57.99999999999999</ele><time>2026-05-01T07:16:20.999Z</time></trkpt><trkpt lat="46.00893401356852" lon="12.763045855579"><ele>58.0</ele><time>2026-05-01T07:16:21.999Z</time></trkpt><trkpt lat="46.0090108631473" lon="12.763073935407684"><ele>58.0</ele><time>2026-05-01T07:16:22.999Z</time></trkpt><trkpt lat="46.00909129751475" lon="12.76309632671709"><ele>58.0</ele><time>2026-05-01T07:16:23.999Z</time></trkpt><trkpt lat="46.009172255156095" lon="12.763114336174501"><ele>57.99999999999999</ele><time>2026-05-01T07:16:24.999Z</time></trkpt><trkpt lat="46.009239766901686" lon="12.763137769117309"><ele>58.0</ele><time>2026-05-01T07:16:25.999Z</time></trkpt><trkpt lat="46.00931507294067" lon="12.763150135745189"><ele>58.166666666666664</ele><time>2026-05-01T07:16:26.999Z</time></trkpt><trkpt lat="46.009391659985006" lon="12.763150326551015"><ele>58.33333333333333</ele><time>2026-05-01T07:16:27.999Z</time></trkpt><trkpt lat="46.00947436200338" lon="12.76315855704667"><ele>58.5</ele><time>2026-05-01T07:16:28.999Z</time></trkpt><trkpt lat="46.00956082572957" lon="12.763147127083668"><ele>58.66666666666667</ele><time>2026-05-01T07:16:29.999Z</time></trkpt><trkpt lat="46.00965367871516" lon="12.763145713105269"><ele>58.833333333333336</ele><time>2026-05-01T07:16:30.999Z</time></trkpt><trkpt lat="46.00974214284239" lon="12.763140188015372"><ele>59.0</ele><time>2026-05-01T07:16:31.999Z</time></trkpt><trkpt lat="46.00982712116861" lon="12.76313510520168"><ele>59.00000000000001</ele><time>2026-05-01T07:16:32.999Z</time></trkpt><trkpt lat="46.00991228934796" lon="12.763130121049517"><ele>59.0</ele><time>2026-05-01T07:16:33.999Z</time></trkpt><trkpt lat="46.00999580597864" lon="12.763125312454694"><ele>59.0</ele><time>2026-05-01T07:16:34.999Z</time></trkpt><trkpt lat="46.01006610320745" lon="12.763121466124232"><ele>59.0</ele><time>2026-05-01T07:16:35.999Z</time></trkpt><trkpt lat="46.01020194897045" lon="12.763105557053338"><ele>59.00000000000001</ele><time>2026-05-01T07:16:37.999Z</time></trkpt><trkpt lat="46.01027417586595" lon="12.76312366096484"><ele>59.0</ele><time>2026-05-01T07:16:38.999Z</time></trkpt><trkpt lat="46.01035310129381" lon="12.763095500120192"><ele>59.00000000000001</ele><time>2026-05-01T07:16:39.999Z</time></trkpt><trkpt lat="46.010446074693505" lon="12.76309259669724"><ele>59.0</ele><time>2026-05-01T07:16:40.999Z</time></trkpt><trkpt lat="46.01053031818178" lon="12.763081607673508"><ele>59.0</ele><time>2026-05-01T07:16:41.999Z</time></trkpt><trkpt lat="46.01061734885451" lon="12.763064586970946"><ele>59.0</ele><time>2026-05-01T07:16:42.999Z</time></trkpt><trkpt lat="46.010698634238196" lon="12.7630529762431"><ele>59.00000000000001</ele><time>2026-05-01T07:16:43.999Z</time></trkpt><trkpt lat="46.010775581093505" lon="12.763024126250684"><ele>59.0</ele><time>2026-05-01T07:16:44.999Z</time></trkpt><trkpt lat="46.01084916224676" lon="12.762987735235255"><ele>59.14285714285714</ele><time>2026-05-01T07:16:45.999Z</time></trkpt><trkpt lat="46.01091303555948" lon="12.762923452552133"><ele>59.28571428571429</ele><time>2026-05-01T07:16:46.999Z</time></trkpt><trkpt lat="46.01098730419202" lon="12.762898966342261"><ele>59.42857142857143</ele><time>2026-05-01T07:16:47.999Z</time></trkpt><trkpt lat="46.0110496131984" lon="12.762852674711917"><ele>59.57142857142857</ele><time>2026-05-01T07:16:48.999Z</time></trkpt><trkpt lat="46.011113671331195" lon="12.762808148200016"><ele>59.71428571428571</ele><time>2026-05-01T07:16:49.999Z</time></trkpt><trkpt lat="46.01117938800251" lon="12.762759124048207"><ele>59.85714285714286</ele><time>2026-05-01T07:16:50.999Z</time></trkpt><trkpt lat="46.01125186105102" lon="12.76273283278347"><ele>60.0</ele><time>2026-05-01T07:16:51.999Z</time></trkpt><trkpt lat="46.01131369192498" lon="12.762686387478684"><ele>60.333333333333336</ele><time>2026-05-01T07:16:52.999Z</time></trkpt><trkpt lat="46.01137428895749" lon="12.762640868901878"><ele>60.66666666666667</ele><time>2026-05-01T07:16:53.999Z</time></trkpt><trkpt lat="46.011433207030315" lon="12.76256718112753"><ele>61.0</ele><time>2026-05-01T07:16:54.999Z</time></trkpt><trkpt lat="46.01151025199359" lon="12.76250593948399"><ele>61.333333333333336</ele><time>2026-05-01T07:16:55.998Z</time></trkpt><trkpt lat="46.01157304983397" lon="12.762441762042961"><ele>61.66666666666667</ele><time>2026-05-01T07:16:56.998Z</time></trkpt><trkpt lat="46.01165066197902" lon="12.762370519123149"><ele>62.0</ele><time>2026-05-01T07:16:57.998Z</time></trkpt><trkpt lat="46.011729871744954" lon="12.762326372816336"><ele>62.16666666666667</ele><time>2026-05-01T07:16:58.998Z</time></trkpt><trkpt lat="46.01180100872214" lon="12.762267493683922"><ele>62.333333333333336</ele><time>2026-05-01T07:16:59.998Z</time></trkpt><trkpt lat="46.01187435935472" lon="12.76221261082935"><ele>62.5</ele><time>2026-05-01T07:17:00.998Z</time></trkpt><trkpt lat="46.01194759214771" lon="12.762163513263522"><ele>62.66666666666667</ele><time>2026-05-01T07:17:01.998Z</time></trkpt><trkpt lat="46.01202876941738" lon="12.762109414518527"><ele>62.833333333333336</ele><time>2026-05-01T07:17:02.998Z</time></trkpt><trkpt lat="46.01210981252802" lon="12.762056847892028"><ele>63.0</ele><time>2026-05-01T07:17:03.998Z</time></trkpt><trkpt lat="46.012182994287485" lon="12.762009380412294"><ele>63.0</ele><time>2026-05-01T07:17:04.998Z</time></trkpt><trkpt lat="46.01224909397691" lon="12.761964785342734"><ele>63.0</ele><time>2026-05-01T07:17:05.998Z</time></trkpt><trkpt lat="46.012300351046804" lon="12.761903790292685"><ele>63.0</ele><time>2026-05-01T07:17:06.998Z</time></trkpt><trkpt lat="46.01236545627036" lon="12.761878203084478"><ele>63.0</ele><time>2026-05-01T07:17:07.998Z</time></trkpt><trkpt lat="46.01247407684556" lon="12.761797381184214"><ele>63.0</ele><time>2026-05-01T07:17:09.998Z</time></trkpt><trkpt lat="46.01253423582033" lon="12.761752618319107"><ele>63.0</ele><time>2026-05-01T07:17:10.998Z</time></trkpt><trkpt lat="46.01258610653638" lon="12.761688291049579"><ele>62.833333333333336</ele><time>2026-05-01T07:17:11.998Z</time></trkpt><trkpt lat="46.01270508956203" lon="12.76162276032809"><ele>62.66666666666667</ele><time>2026-05-01T07:17:13.998Z</time></trkpt><trkpt lat="46.01275949821459" lon="12.761568157494215"><ele>62.5</ele><time>2026-05-01T07:17:14.998Z</time></trkpt><trkpt lat="46.012817543001844" lon="12.761520154875049"><ele>62.333333333333336</ele><time>2026-05-01T07:17:15.998Z</time></trkpt><trkpt lat="46.01287439397583" lon="12.76147506791015"><ele>62.16666666666667</ele><time>2026-05-01T07:17:16.998Z</time></trkpt><trkpt lat="46.01293670925047" lon="12.761426482239184"><ele>62.0</ele><time>2026-05-01T07:17:18Z</time></trkpt><trkpt lat="46.01300269190362" lon="12.761375586654989"><ele>62.0</ele><time>2026-05-01T07:17:19Z</time></trkpt><trkpt lat="46.01306641880506" lon="12.761324700594876"><ele>62.00000000000001</ele><time>2026-05-01T07:17:20Z</time></trkpt><trkpt lat="46.013130349918654" lon="12.761274929065419"><ele>62.0</ele><time>2026-05-01T07:17:21Z</time></trkpt><trkpt lat="46.013192497088546" lon="12.761221831206132"><ele>62.0</ele><time>2026-05-01T07:17:22Z</time></trkpt><trkpt lat="46.013255564186025" lon="12.761170294163701"><ele>62.00000000000001</ele><time>2026-05-01T07:17:23Z</time></trkpt><trkpt lat="46.013318473855854" lon="12.761119428431792"><ele>62.0</ele><time>2026-05-01T07:17:24Z</time></trkpt><trkpt lat="46.01338010258226" lon="12.761069600941003"><ele>62.0</ele><time>2026-05-01T07:17:25Z</time></trkpt><trkpt lat="46.01344113597805" lon="12.761016330880674"><ele>62.333333333333336</ele><time>2026-05-01T07:17:26Z</time></trkpt><trkpt lat="46.013502265347476" lon="12.760972791815414"><ele>62.66666666666667</ele><time>2026-05-01T07:17:27Z</time></trkpt><trkpt lat="46.01356755390016" lon="12.760920858305399"><ele>63.0</ele><time>2026-05-01T07:17:28Z</time></trkpt><trkpt lat="46.013634187360296" lon="12.76087474802968"><ele>63.33333333333333</ele><time>2026-05-01T07:17:29Z</time></trkpt><trkpt lat="46.013740566562234" lon="12.76080135933777"><ele>63.666666666666664</ele><time>2026-05-01T07:17:31Z</time></trkpt><trkpt lat="46.013800390468624" lon="12.760754219501107"><ele>64.0</ele><time>2026-05-01T07:17:32Z</time></trkpt><trkpt lat="46.01385863601319" lon="12.760711274558345"><ele>64.0</ele><time>2026-05-01T07:17:33Z</time></trkpt><trkpt lat="46.01392042832227" lon="12.760671796018046"><ele>63.99999999999999</ele><time>2026-05-01T07:17:34Z</time></trkpt><trkpt lat="46.01398710257716" lon="12.760657935878495"><ele>64.0</ele><time>2026-05-01T07:17:35Z</time></trkpt><trkpt lat="46.014041138578555" lon="12.76060353305551"><ele>64.0</ele><time>2026-05-01T07:17:36Z</time></trkpt><trkpt lat="46.01410643456694" lon="12.760570326283284"><ele>63.99999999999999</ele><time>2026-05-01T07:17:37Z</time></trkpt><trkpt lat="46.01417927267694" lon="12.760539433698717"><ele>64.0</ele><time>2026-05-01T07:17:38Z</time></trkpt><trkpt lat="46.01425111126695" lon="12.760503052420452"><ele>64.0</ele><time>2026-05-01T07:17:39Z</time></trkpt><trkpt lat="46.014322275505336" lon="12.760467263399372"><ele>64.33333333333333</ele><time>2026-05-01T07:17:40Z</time></trkpt><trkpt lat="46.01439824283002" lon="12.76043397828056"><ele>64.66666666666666</ele><time>2026-05-01T07:17:41Z</time></trkpt><trkpt lat="46.01448482047459" lon="12.760401754691555"><ele>65.0</ele><time>2026-05-01T07:17:42Z</time></trkpt><trkpt lat="46.014558124366964" lon="12.760370408851912"><ele>65.33333333333333</ele><time>2026-05-01T07:17:43Z</time></trkpt><trkpt lat="46.01463663152461" lon="12.760344733513794"><ele>65.66666666666667</ele><time>2026-05-01T07:17:44Z</time></trkpt><trkpt lat="46.01471406832398" lon="12.760311605664091"><ele>66.0</ele><time>2026-05-01T07:17:45Z</time></trkpt><trkpt lat="46.014784950904755" lon="12.760277531880943"><ele>66.0</ele><time>2026-05-01T07:17:46Z</time></trkpt><trkpt lat="46.01485705564014" lon="12.760248463091981"><ele>66.0</ele><time>2026-05-01T07:17:47Z</time></trkpt><trkpt lat="46.014936354166835" lon="12.760226776056392"><ele>66.0</ele><time>2026-05-01T07:17:48Z</time></trkpt><trkpt lat="46.0150128686965" lon="12.760196994096518"><ele>66.0</ele><time>2026-05-01T07:17:49Z</time></trkpt><trkpt lat="46.01508107076246" lon="12.760184910402359"><ele>66.0</ele><time>2026-05-01T07:17:50Z</time></trkpt><trkpt lat="46.01520245566926" lon="12.760165583548352"><ele>66.0</ele><time>2026-05-01T07:17:52Z</time></trkpt><trkpt lat="46.01530571431621" lon="12.760121370022471"><ele>66.33333333333333</ele><time>2026-05-01T07:17:54Z</time></trkpt><trkpt lat="46.01538153988611" lon="12.760118741334281"><ele>66.66666666666667</ele><time>2026-05-01T07:17:56Z</time></trkpt><trkpt lat="46.01544183744935" lon="12.760085491585677"><ele>67.0</ele><time>2026-05-01T07:17:58Z</time></trkpt><trkpt lat="46.01552043870394" lon="12.760064361872772"><ele>67.33333333333334</ele><time>2026-05-01T07:18:01Z</time></trkpt><trkpt lat="46.01562351329192" lon="12.760045752829967"><ele>67.66666666666667</ele><time>2026-05-01T07:18:03Z</time></trkpt><trkpt lat="46.0156957569683" lon="12.76002622432295"><ele>68.0</ele><time>2026-05-01T07:18:04Z</time></trkpt><trkpt lat="46.01576001120208" lon="12.760011939309805"><ele>68.16666666666667</ele><time>2026-05-01T07:18:05Z</time></trkpt><trkpt lat="46.01582950688333" lon="12.75999794709756"><ele>68.33333333333334</ele><time>2026-05-01T07:18:06Z</time></trkpt><trkpt lat="46.01590224707638" lon="12.759982728936427"><ele>68.5</ele><time>2026-05-01T07:18:07Z</time></trkpt><trkpt lat="46.01598958324849" lon="12.759962884588727"><ele>68.66666666666667</ele><time>2026-05-01T07:18:08Z</time></trkpt><trkpt lat="46.01606609361484" lon="12.759948499335751"><ele>68.83333333333333</ele><time>2026-05-01T07:18:09Z</time></trkpt><trkpt lat="46.01614220236072" lon="12.759932490163138"><ele>69.0</ele><time>2026-05-01T07:18:10Z</time></trkpt><trkpt lat="46.016221245673975" lon="12.759912166381596"><ele>69.0</ele><time>2026-05-01T07:18:11Z</time></trkpt><trkpt lat="46.016292378908446" lon="12.759901701431726"><ele>69.0</ele><time>2026-05-01T07:18:12Z</time></trkpt><trkpt lat="46.01637020042441" lon="12.759889335378837"><ele>69.0</ele><time>2026-05-01T07:18:13Z</time></trkpt><trkpt lat="46.0164449940286" lon="12.759873669161031"><ele>69.0</ele><time>2026-05-01T07:18:13.999Z</time></trkpt><trkpt lat="46.016512782404234" lon="12.75985642486086"><ele>69.0</ele><time>2026-05-01T07:18:14.999Z</time></trkpt><trkpt lat="46.01657666102696" lon="12.759838452102393"><ele>69.0</ele><time>2026-05-01T07:18:15.999Z</time></trkpt><trkpt lat="46.0166492356391" lon="12.759822591005989"><ele>69.0</ele><time>2026-05-01T07:18:16.999Z</time></trkpt><trkpt lat="46.016730635503116" lon="12.759805140473025"><ele>69.16666666666667</ele><time>2026-05-01T07:18:17.999Z</time></trkpt><trkpt lat="46.01680903825102" lon="12.759782843443388"><ele>69.33333333333333</ele><time>2026-05-01T07:18:18.999Z</time></trkpt><trkpt lat="46.016889838598566" lon="12.759767640579105"><ele>69.5</ele><time>2026-05-01T07:18:19.999Z</time></trkpt><trkpt lat="46.016959062700444" lon="12.759747568054136"><ele>69.66666666666666</ele><time>2026-05-01T07:18:20.999Z</time></trkpt><trkpt lat="46.017031926514335" lon="12.759730018693219"><ele>69.83333333333333</ele><time>2026-05-01T07:18:21.999Z</time></trkpt><trkpt lat="46.01714319566979" lon="12.759699643908993"><ele>70.0</ele><time>2026-05-01T07:18:23.999Z</time></trkpt><trkpt lat="46.017253959903925" lon="12.759697770045817"><ele>70.0</ele><time>2026-05-01T07:18:25.999Z</time></trkpt><trkpt lat="46.01733435998298" lon="12.75966453354749"><ele>70.0</ele><time>2026-05-01T07:18:27.999Z</time></trkpt><trkpt lat="46.01743362455792" lon="12.759609301522474"><ele>70.0</ele><time>2026-05-01T07:18:29.999Z</time></trkpt><trkpt lat="46.01750207335857" lon="12.7595543217013"><ele>70.0</ele><time>2026-05-01T07:18:30.999Z</time></trkpt><trkpt lat="46.01756478093146" lon="12.759471850513693"><ele>70.0</ele><time>2026-05-01T07:18:31.999Z</time></trkpt><trkpt lat="46.01764469463716" lon="12.75941083647331"><ele>70.0</ele><time>2026-05-01T07:18:32.999Z</time></trkpt><trkpt lat="46.01770504067522" lon="12.759357055837494"><ele>70.2</ele><time>2026-05-01T07:18:33.999Z</time></trkpt><trkpt lat="46.01779505365602" lon="12.759272705938818"><ele>70.4</ele><time>2026-05-01T07:18:35.999Z</time></trkpt><trkpt lat="46.017908055694306" lon="12.759191738028651"><ele>70.6</ele><time>2026-05-01T07:18:37.999Z</time></trkpt><trkpt lat="46.01796931231528" lon="12.75914113268576"><ele>70.8</ele><time>2026-05-01T07:18:38.999Z</time></trkpt><trkpt lat="46.01807565086781" lon="12.759066104381274"><ele>71.0</ele><time>2026-05-01T07:18:40.999Z</time></trkpt><trkpt lat="46.01817147570451" lon="12.759026039605395"><ele>71.0</ele><time>2026-05-01T07:18:42.999Z</time></trkpt><trkpt lat="46.018233701086956" lon="12.758962433031954"><ele>71.0</ele><time>2026-05-01T07:18:44.999Z</time></trkpt><trkpt lat="46.01830523433899" lon="12.759134655496446"><ele>71.0</ele><time>2026-05-01T07:18:50.999Z</time></trkpt><trkpt lat="46.01824022297971" lon="12.75931035148661"><ele>71.0</ele><time>2026-05-01T07:18:52.999Z</time></trkpt><trkpt lat="46.01819602877709" lon="12.759423235280623"><ele>71.0</ele><time>2026-05-01T07:18:53.999Z</time></trkpt><trkpt lat="46.018149622826776" lon="12.759553677320653"><ele>71.0</ele><time>2026-05-01T07:18:54.999Z</time></trkpt><trkpt lat="46.018108485640816" lon="12.759686723747082"><ele>71.0</ele><time>2026-05-01T07:18:55.999Z</time></trkpt><trkpt lat="46.01807275008083" lon="12.759811249537963"><ele>71.0</ele><time>2026-05-01T07:18:56.999Z</time></trkpt><trkpt lat="46.0180353958124" lon="12.75993236551414"><ele>71.0</ele><time>2026-05-01T07:18:57.999Z</time></trkpt><trkpt lat="46.01800318964574" lon="12.760042694002186"><ele>71.0</ele><time>2026-05-01T07:18:58.999Z</time></trkpt><trkpt lat="46.017969998149454" lon="12.760162893196895"><ele>71.33333333333334</ele><time>2026-05-01T07:18:59.999Z</time></trkpt><trkpt lat="46.01793521496835" lon="12.76029499681909"><ele>71.66666666666667</ele><time>2026-05-01T07:19:00.999Z</time></trkpt><trkpt lat="46.01790584048486" lon="12.760414660596355"><ele>72.0</ele><time>2026-05-01T07:19:01.999Z</time></trkpt><trkpt lat="46.017875704695626" lon="12.760533882512915"><ele>72.33333333333333</ele><time>2026-05-01T07:19:02.999Z</time></trkpt><trkpt lat="46.01785158644722" lon="12.760643926856895"><ele>72.66666666666666</ele><time>2026-05-01T07:19:03.999Z</time></trkpt><trkpt lat="46.017838820008144" lon="12.760733190550496"><ele>73.0</ele><time>2026-05-01T07:19:04.999Z</time></trkpt><trkpt lat="46.01781490396542" lon="12.76088453148365"><ele>72.8</ele><time>2026-05-01T07:19:06.999Z</time></trkpt><trkpt lat="46.01779481730926" lon="12.761054532241795"><ele>72.6</ele><time>2026-05-01T07:19:08.998Z</time></trkpt><trkpt lat="46.01778511959543" lon="12.7611444055728"><ele>72.4</ele><time>2026-05-01T07:19:09.998Z</time></trkpt><trkpt lat="46.017765885402426" lon="12.76129858796263"><ele>72.2</ele><time>2026-05-01T07:19:11.998Z</time></trkpt><trkpt lat="46.01775783209358" lon="12.761422611456059"><ele>72.0</ele><time>2026-05-01T07:19:13.998Z</time></trkpt><trkpt lat="46.017772099998915" lon="12.761531747904396"><ele>72.0</ele><time>2026-05-01T07:19:17.998Z</time></trkpt><trkpt lat="46.017852278933624" lon="12.761482319581118"><ele>72.0</ele><time>2026-05-01T07:19:20.998Z</time></trkpt><trkpt lat="46.017848800697166" lon="12.76138101252996"><ele>72.0</ele><time>2026-05-01T07:19:22.998Z</time></trkpt><trkpt lat="46.01778681982331" lon="12.761263059049343"><ele>72.0</ele><time>2026-05-01T07:19:25Z</time></trkpt><trkpt lat="46.01779230992715" lon="12.761123512920866"><ele>72.0</ele><time>2026-05-01T07:19:28Z</time></trkpt><trkpt lat="46.017818488242696" lon="12.760994528527767"><ele>72.16666666666667</ele><time>2026-05-01T07:19:30Z</time></trkpt><trkpt lat="46.01785887799481" lon="12.760889841229812"><ele>72.33333333333333</ele><time>2026-05-01T07:19:32Z</time></trkpt><trkpt lat="46.01792260720353" lon="12.760835374744056"><ele>72.5</ele><time>2026-05-01T07:19:34Z</time></trkpt><trkpt lat="46.018029739689226" lon="12.760804625376995"><ele>72.66666666666666</ele><time>2026-05-01T07:19:36Z</time></trkpt><trkpt lat="46.01810374442032" lon="12.76083013591566"><ele>72.83333333333333</ele><time>2026-05-01T07:19:38Z</time></trkpt><trkpt lat="46.01817790251443" lon="12.760880900742285"><ele>73.0</ele><time>2026-05-01T07:19:40Z</time></trkpt><trkpt lat="46.01826292193552" lon="12.760942861273387"><ele>73.16666666666666</ele><time>2026-05-01T07:19:43Z</time></trkpt><trkpt lat="46.01832876543841" lon="12.761005936649925"><ele>73.33333333333333</ele><time>2026-05-01T07:19:45Z</time></trkpt><trkpt lat="46.018384445976814" lon="12.76106382490167"><ele>73.5</ele><time>2026-05-01T07:19:47Z</time></trkpt><trkpt lat="46.01844072059865" lon="12.761117406935634"><ele>73.66666666666667</ele><time>2026-05-01T07:19:49Z</time></trkpt><trkpt lat="46.018508254075385" lon="12.761180676723761"><ele>73.83333333333334</ele><time>2026-05-01T07:19:51Z</time></trkpt><trkpt lat="46.01857547726706" lon="12.761254012290959"><ele>74.0</ele><time>2026-05-01T07:19:53Z</time></trkpt><trkpt lat="46.01864186523682" lon="12.76132740775131"><ele>74.0</ele><time>2026-05-01T07:19:55Z</time></trkpt><trkpt lat="46.01872193647768" lon="12.761384014573743"><ele>74.0</ele><time>2026-05-01T07:19:57Z</time></trkpt><trkpt lat="46.01881969429534" lon="12.761380956518954"><ele>74.0</ele><time>2026-05-01T07:20:00Z</time></trkpt><trkpt lat="46.01889252490968" lon="12.761366830938464"><ele>74.0</ele><time>2026-05-01T07:20:02Z</time></trkpt><trkpt lat="46.01896015330541" lon="12.761309901814037"><ele>74.0</ele><time>2026-05-01T07:20:04Z</time></trkpt><trkpt lat="46.01902445008369" lon="12.761239806638319"><ele>74.0</ele><time>2026-05-01T07:20:06Z</time></trkpt><trkpt lat="46.01909292753072" lon="12.761182140013814"><ele>74.0</ele><time>2026-05-01T07:20:08Z</time></trkpt><trkpt lat="46.01921343629529" lon="12.761080759394682"><ele>74.0</ele><time>2026-05-01T07:20:10Z</time></trkpt><trkpt lat="46.019280156349296" lon="12.761027092173224"><ele>74.0</ele><time>2026-05-01T07:20:11Z</time></trkpt><trkpt lat="46.01935617668355" lon="12.760972625946417"><ele>74.0</ele><time>2026-05-01T07:20:12Z</time></trkpt><trkpt lat="46.01942519914175" lon="12.76092320821702"><ele>74.0</ele><time>2026-05-01T07:20:13Z</time></trkpt><trkpt lat="46.019485937306996" lon="12.760873973489401"><ele>74.0</ele><time>2026-05-01T07:20:14Z</time></trkpt><trkpt lat="46.01954752171661" lon="12.7608214787322"><ele>74.16666666666667</ele><time>2026-05-01T07:20:15Z</time></trkpt><trkpt lat="46.01961106664329" lon="12.760773381812413"><ele>74.33333333333334</ele><time>2026-05-01T07:20:16Z</time></trkpt><trkpt lat="46.0196841442325" lon="12.760715572198245"><ele>74.5</ele><time>2026-05-01T07:20:17Z</time></trkpt><trkpt lat="46.01975210950463" lon="12.760656324848068"><ele>74.66666666666667</ele><time>2026-05-01T07:20:18Z</time></trkpt><trkpt lat="46.01980939144304" lon="12.760610017279518"><ele>74.83333333333333</ele><time>2026-05-01T07:20:18.999Z</time></trkpt><trkpt lat="46.019906612252576" lon="12.760532293781372"><ele>75.0</ele><time>2026-05-01T07:20:20.999Z</time></trkpt><trkpt lat="46.019990232283895" lon="12.760470613707252"><ele>75.0</ele><time>2026-05-01T07:20:22.999Z</time></trkpt><trkpt lat="46.02007327369179" lon="12.760387433819153"><ele>75.0</ele><time>2026-05-01T07:20:24.999Z</time></trkpt><trkpt lat="46.020159813568505" lon="12.760322980380908"><ele>75.0</ele><time>2026-05-01T07:20:26.999Z</time></trkpt><trkpt lat="46.02022990547579" lon="12.760266123979603"><ele>75.0</ele><time>2026-05-01T07:20:28.999Z</time></trkpt><trkpt lat="46.020320930690545" lon="12.760191451766262"><ele>75.0</ele><time>2026-05-01T07:20:30.999Z</time></trkpt><trkpt lat="46.02041384331062" lon="12.760118374919333"><ele>75.0</ele><time>2026-05-01T07:20:32.999Z</time></trkpt><trkpt lat="46.02047902806676" lon="12.760069682350109"><ele>75.0</ele><time>2026-05-01T07:20:34.999Z</time></trkpt><trkpt lat="46.02056632672842" lon="12.759998083018017"><ele>75.0</ele><time>2026-05-01T07:20:36.999Z</time></trkpt><trkpt lat="46.02065152803661" lon="12.759933021279615"><ele>75.0</ele><time>2026-05-01T07:20:38.999Z</time></trkpt><trkpt lat="46.020733898803726" lon="12.759863663052677"><ele>75.0</ele><time>2026-05-01T07:20:40.999Z</time></trkpt><trkpt lat="46.02082117984094" lon="12.759794424569508"><ele>75.4</ele><time>2026-05-01T07:20:42.999Z</time></trkpt><trkpt lat="46.02090913845208" lon="12.759730611525004"><ele>75.8</ele><time>2026-05-01T07:20:44.999Z</time></trkpt><trkpt lat="46.02101737384614" lon="12.759650234121667"><ele>76.2</ele><time>2026-05-01T07:20:46.999Z</time></trkpt><trkpt lat="46.0211218869886" lon="12.759573432136097"><ele>76.6</ele><time>2026-05-01T07:20:48.999Z</time></trkpt><trkpt lat="46.02121948382894" lon="12.759504355930307"><ele>77.0</ele><time>2026-05-01T07:20:50.999Z</time></trkpt><trkpt lat="46.02132370424429" lon="12.759433675197757"><ele>77.0</ele><time>2026-05-01T07:20:52.999Z</time></trkpt><trkpt lat="46.02142198289031" lon="12.75936061526313"><ele>77.0</ele><time>2026-05-01T07:20:54.999Z</time></trkpt><trkpt lat="46.02150784293001" lon="12.75930035587799"><ele>77.0</ele><time>2026-05-01T07:20:56.999Z</time></trkpt><trkpt lat="46.02159052817968" lon="12.759237798108337"><ele>77.0</ele><time>2026-05-01T07:20:58.999Z</time></trkpt><trkpt lat="46.02166789045944" lon="12.759179030043377"><ele>77.0</ele><time>2026-05-01T07:21:00.999Z</time></trkpt><trkpt lat="46.02176652922061" lon="12.75911710868355"><ele>77.5</ele><time>2026-05-01T07:21:03.999Z</time></trkpt><trkpt lat="46.02184775173059" lon="12.759051281315898"><ele>78.0</ele><time>2026-05-01T07:21:05.999Z</time></trkpt><trkpt lat="46.02192901039568" lon="12.759000366754357"><ele>78.5</ele><time>2026-05-01T07:21:08.999Z</time></trkpt><trkpt lat="46.02198802721005" lon="12.758928258707707"><ele>79.0</ele><time>2026-05-01T07:21:19.998Z</time></trkpt><trkpt lat="46.022049760281874" lon="12.758830406958724"><ele>79.5</ele><time>2026-05-01T07:21:22.998Z</time></trkpt><trkpt lat="46.022103591144926" lon="12.758778030403677"><ele>80.0</ele><time>2026-05-01T07:21:24.998Z</time></trkpt><trkpt lat="46.022162998762596" lon="12.75874415554203"><ele>80.0</ele><time>2026-05-01T07:21:27.998Z</time></trkpt><trkpt lat="46.02225253729861" lon="12.758719189506955"><ele>80.0</ele><time>2026-05-01T07:21:31Z</time></trkpt><trkpt lat="46.022323022577304" lon="12.758699780214291"><ele>80.0</ele><time>2026-05-01T07:21:34Z</time></trkpt><trkpt lat="46.022392579380835" lon="12.758709663654908"><ele>80.0</ele><time>2026-05-01T07:21:37Z</time></trkpt><trkpt lat="46.022462227213786" lon="12.758669306055307"><ele>80.0</ele><time>2026-05-01T07:21:40Z</time></trkpt><trkpt lat="46.02252445004547" lon="12.758612380945614"><ele>80.0</ele><time>2026-05-01T07:21:42Z</time></trkpt><trkpt lat="46.02261300221645" lon="12.758562243018902"><ele>79.83333333333334</ele><time>2026-05-01T07:21:46Z</time></trkpt><trkpt lat="46.022690286627885" lon="12.758510246849506"><ele>79.66666666666667</ele><time>2026-05-01T07:21:48Z</time></trkpt><trkpt lat="46.022758725127744" lon="12.758470707181438"><ele>79.5</ele><time>2026-05-01T07:22:12Z</time></trkpt><trkpt lat="46.02282797214362" lon="12.758425375471818"><ele>79.33333333333333</ele><time>2026-05-01T07:22:14Z</time></trkpt><trkpt lat="46.022894205137526" lon="12.75838202529024"><ele>79.16666666666666</ele><time>2026-05-01T07:22:16Z</time></trkpt><trkpt lat="46.022955116327" lon="12.758350445110398"><ele>79.0</ele><time>2026-05-01T07:22:18Z</time></trkpt><trkpt lat="46.023032499027245" lon="12.758304877053611"><ele>79.0</ele><time>2026-05-01T07:22:20Z</time></trkpt><trkpt lat="46.023111772434184" lon="12.75825779406705"><ele>79.0</ele><time>2026-05-01T07:22:23Z</time></trkpt><trkpt lat="46.02318417280112" lon="12.758220601642423"><ele>79.0</ele><time>2026-05-01T07:22:25Z</time></trkpt><trkpt lat="46.023268762312405" lon="12.758169960082654"><ele>79.0</ele><time>2026-05-01T07:22:27Z</time></trkpt><trkpt lat="46.02336736924393" lon="12.758123540403503"><ele>79.0</ele><time>2026-05-01T07:22:28.999Z</time></trkpt><trkpt lat="46.02347597342776" lon="12.758070054298946"><ele>79.6</ele><time>2026-05-01T07:22:30.999Z</time></trkpt><trkpt lat="46.02357636240537" lon="12.75801747337844"><ele>80.2</ele><time>2026-05-01T07:22:32.999Z</time></trkpt><trkpt lat="46.02366887590721" lon="12.757973954040622"><ele>80.8</ele><time>2026-05-01T07:22:34.999Z</time></trkpt><trkpt lat="46.02374739452037" lon="12.757941683420572"><ele>81.39999999999999</ele><time>2026-05-01T07:22:36.999Z</time></trkpt><trkpt lat="46.023830068886326" lon="12.757910642218373"><ele>82.0</ele><time>2026-05-01T07:22:38.999Z</time></trkpt><trkpt lat="46.02392702782998" lon="12.757881198114926"><ele>82.0</ele><time>2026-05-01T07:22:40.999Z</time></trkpt><trkpt lat="46.02400941747939" lon="12.75785407116898"><ele>82.0</ele><time>2026-05-01T07:22:42.999Z</time></trkpt><trkpt lat="46.024090662122035" lon="12.757832707283104"><ele>82.0</ele><time>2026-05-01T07:22:44.999Z</time></trkpt><trkpt lat="46.024178532940745" lon="12.75777569472656"><ele>82.0</ele><time>2026-05-01T07:22:46.999Z</time></trkpt><trkpt lat="46.024292494290755" lon="12.757774128356795"><ele>82.0</ele><time>2026-05-01T07:22:48.999Z</time></trkpt><trkpt lat="46.024407814866144" lon="12.757733830221992"><ele>82.39999999999999</ele><time>2026-05-01T07:22:50.999Z</time></trkpt><trkpt lat="46.02447131912887" lon="12.757714115815462"><ele>82.8</ele><time>2026-05-01T07:22:51.999Z</time></trkpt><trkpt lat="46.024585224247204" lon="12.757677908951106"><ele>83.2</ele><time>2026-05-01T07:22:53.999Z</time></trkpt><trkpt lat="46.02468167459529" lon="12.757638764469707"><ele>83.6</ele><time>2026-05-01T07:22:55.999Z</time></trkpt><trkpt lat="46.02478842304762" lon="12.757590246108752"><ele>84.0</ele><time>2026-05-01T07:22:57.999Z</time></trkpt><trkpt lat="46.02490118681436" lon="12.757523992042895"><ele>84.4</ele><time>2026-05-01T07:22:59.999Z</time></trkpt><trkpt lat="46.02501624978296" lon="12.75746300688109"><ele>84.80000000000001</ele><time>2026-05-01T07:23:01.999Z</time></trkpt><trkpt lat="46.02507370495743" lon="12.757420353825733"><ele>85.19999999999999</ele><time>2026-05-01T07:23:02.999Z</time></trkpt><trkpt lat="46.02518483171066" lon="12.757357923990629"><ele>85.6</ele><time>2026-05-01T07:23:04.999Z</time></trkpt><trkpt lat="46.02526020388172" lon="12.757317373014006"><ele>86.0</ele><time>2026-05-01T07:23:05.999Z</time></trkpt><trkpt lat="46.025330803082504" lon="12.757276781018117"><ele>86.0</ele><time>2026-05-01T07:23:06.999Z</time></trkpt><trkpt lat="46.02539383377691" lon="12.757238813566527"><ele>86.0</ele><time>2026-05-01T07:23:07.999Z</time></trkpt><trkpt lat="46.02545124174246" lon="12.757201328460434"><ele>86.0</ele><time>2026-05-01T07:23:08.999Z</time></trkpt><trkpt lat="46.02551948837979" lon="12.757165076842313"><ele>86.0</ele><time>2026-05-01T07:23:09.999Z</time></trkpt><trkpt lat="46.02558739002035" lon="12.757127859177828"><ele>86.0</ele><time>2026-05-01T07:23:10.999Z</time></trkpt><trkpt lat="46.02564820778245" lon="12.757090368121267"><ele>86.0</ele><time>2026-05-01T07:23:11.999Z</time></trkpt><trkpt lat="46.02575916463574" lon="12.75701954649347"><ele>86.19999999999999</ele><time>2026-05-01T07:23:13.999Z</time></trkpt><trkpt lat="46.025859335863885" lon="12.756938501000734"><ele>86.39999999999999</ele><time>2026-05-01T07:23:15.999Z</time></trkpt><trkpt lat="46.025964346008834" lon="12.756836570360509"><ele>86.6</ele><time>2026-05-01T07:23:17.999Z</time></trkpt><trkpt lat="46.026030109624685" lon="12.756786358504874"><ele>86.8</ele><time>2026-05-01T07:23:18.999Z</time></trkpt><trkpt lat="46.02612408780244" lon="12.756715420995594"><ele>87.0</ele><time>2026-05-01T07:23:20.999Z</time></trkpt><trkpt lat="46.02621400905886" lon="12.756645057540121"><ele>87.19999999999999</ele><time>2026-05-01T07:23:22.999Z</time></trkpt><trkpt lat="46.02630349328677" lon="12.756596388370632"><ele>87.4</ele><time>2026-05-01T07:23:24.999Z</time></trkpt><trkpt lat="46.02639438747891" lon="12.756558167729901"><ele>87.6</ele><time>2026-05-01T07:23:26.999Z</time></trkpt><trkpt lat="46.026493718250734" lon="12.756521894658325"><ele>87.80000000000001</ele><time>2026-05-01T07:23:28.998Z</time></trkpt><trkpt lat="46.02658813085964" lon="12.756493717180648"><ele>88.0</ele><time>2026-05-01T07:23:30.998Z</time></trkpt><trkpt lat="46.026687127796095" lon="12.756458479974468"><ele>88.4</ele><time>2026-05-01T07:23:32.998Z</time></trkpt><trkpt lat="46.026785009003866" lon="12.756420863856615"><ele>88.80000000000001</ele><time>2026-05-01T07:23:35Z</time></trkpt><trkpt lat="46.02689239316637" lon="12.75637251198952"><ele>89.2</ele><time>2026-05-01T07:23:37Z</time></trkpt><trkpt lat="46.0269858183791" lon="12.756324939908826"><ele>89.6</ele><time>2026-05-01T07:23:39Z</time></trkpt><trkpt lat="46.027085852198546" lon="12.75627040274992"><ele>90.0</ele><time>2026-05-01T07:23:41Z</time></trkpt><trkpt lat="46.02718700016487" lon="12.756211432560217"><ele>90.0</ele><time>2026-05-01T07:23:43Z</time></trkpt><trkpt lat="46.02727951932264" lon="12.756148673657455"><ele>90.0</ele><time>2026-05-01T07:23:45Z</time></trkpt><trkpt lat="46.02739339007973" lon="12.756076205020715"><ele>90.0</ele><time>2026-05-01T07:23:47Z</time></trkpt><trkpt lat="46.02745332818184" lon="12.756034785897793"><ele>90.0</ele><time>2026-05-01T07:23:48Z</time></trkpt><trkpt lat="46.02754092906749" lon="12.755976342266239"><ele>90.0</ele><time>2026-05-01T07:23:50Z</time></trkpt><trkpt lat="46.02762612933767" lon="12.755919358981702"><ele>90.0</ele><time>2026-05-01T07:23:52Z</time></trkpt><trkpt lat="46.02773135626882" lon="12.755855801215004"><ele>90.0</ele><time>2026-05-01T07:23:54Z</time></trkpt><trkpt lat="46.02779118400182" lon="12.755817196428099"><ele>90.0</ele><time>2026-05-01T07:23:55Z</time></trkpt><trkpt lat="46.027888996520936" lon="12.75575644025686"><ele>90.0</ele><time>2026-05-01T07:23:57Z</time></trkpt><trkpt lat="46.0279747641193" lon="12.75569230410472"><ele>90.0</ele><time>2026-05-01T07:23:59Z</time></trkpt><trkpt lat="46.02806097379287" lon="12.755634105506989"><ele>90.0</ele><time>2026-05-01T07:24:01Z</time></trkpt><trkpt lat="46.02816516984432" lon="12.755563302676704"><ele>90.0</ele><time>2026-05-01T07:24:03Z</time></trkpt><trkpt lat="46.028235034505045" lon="12.755519316913514"><ele>90.0</ele><time>2026-05-01T07:24:04Z</time></trkpt><trkpt lat="46.02829795364655" lon="12.75547299998911"><ele>90.0</ele><time>2026-05-01T07:24:05Z</time></trkpt><trkpt lat="46.02841172354152" lon="12.755386533263794"><ele>90.0</ele><time>2026-05-01T07:24:07Z</time></trkpt><trkpt lat="46.028490705588055" lon="12.755336656181285"><ele>90.16666666666667</ele><time>2026-05-01T07:24:08Z</time></trkpt><trkpt lat="46.028567962070795" lon="12.755283578609173"><ele>90.33333333333333</ele><time>2026-05-01T07:24:09Z</time></trkpt><trkpt lat="46.028626226720874" lon="12.755234301427832"><ele>90.5</ele><time>2026-05-01T07:24:10Z</time></trkpt><trkpt lat="46.02868875784251" lon="12.755184566073405"><ele>90.66666666666666</ele><time>2026-05-01T07:24:11Z</time></trkpt><trkpt lat="46.028748566033045" lon="12.755139053821315"><ele>90.83333333333333</ele><time>2026-05-01T07:24:12Z</time></trkpt><trkpt lat="46.02886188803938" lon="12.75505722045553"><ele>91.0</ele><time>2026-05-01T07:24:14Z</time></trkpt><trkpt lat="46.02895693473534" lon="12.754979815052364"><ele>91.19999999999999</ele><time>2026-05-01T07:24:16Z</time></trkpt><trkpt lat="46.02905935811747" lon="12.754912348009341"><ele>91.39999999999999</ele><time>2026-05-01T07:24:18Z</time></trkpt><trkpt lat="46.02915490921539" lon="12.754844259559302"><ele>91.6</ele><time>2026-05-01T07:24:20Z</time></trkpt><trkpt lat="46.02922630386349" lon="12.754793157382403"><ele>91.8</ele><time>2026-05-01T07:24:22Z</time></trkpt><trkpt lat="46.029291497122564" lon="12.754740522418329"><ele>92.0</ele><time>2026-05-01T07:24:24Z</time></trkpt><trkpt lat="46.02937302605459" lon="12.754704948438436"><ele>92.19999999999999</ele><time>2026-05-01T07:24:26Z</time></trkpt><trkpt lat="46.02946712140417" lon="12.754639519117426"><ele>92.4</ele><time>2026-05-01T07:24:28Z</time></trkpt><trkpt lat="46.02954616901118" lon="12.75458945208159"><ele>92.6</ele><time>2026-05-01T07:24:30Z</time></trkpt><trkpt lat="46.029614399458396" lon="12.754554796538475"><ele>92.80000000000001</ele><time>2026-05-01T07:24:32Z</time></trkpt><trkpt lat="46.029701532219654" lon="12.754500155173774"><ele>93.0</ele><time>2026-05-01T07:24:33.999Z</time></trkpt><trkpt lat="46.02979499941783" lon="12.754447476593917"><ele>93.0</ele><time>2026-05-01T07:24:35.999Z</time></trkpt><trkpt lat="46.02988967121247" lon="12.754377882440524"><ele>93.0</ele><time>2026-05-01T07:24:37.999Z</time></trkpt><trkpt lat="46.02997596049275" lon="12.75431708618801"><ele>93.0</ele><time>2026-05-01T07:24:39.999Z</time></trkpt><trkpt lat="46.03007292631018" lon="12.754254831465026"><ele>93.0</ele><time>2026-05-01T07:24:41.999Z</time></trkpt><trkpt lat="46.030163053368064" lon="12.75419617742235"><ele>93.0</ele><time>2026-05-01T07:24:43.999Z</time></trkpt><trkpt lat="46.03025273010664" lon="12.754132132342423"><ele>93.33333333333333</ele><time>2026-05-01T07:24:45.999Z</time></trkpt><trkpt lat="46.03032990918706" lon="12.754076416553358"><ele>93.66666666666667</ele><time>2026-05-01T07:24:47.999Z</time></trkpt><trkpt lat="46.0304059084495" lon="12.754020595292767"><ele>94.0</ele><time>2026-05-01T07:24:49.999Z</time></trkpt><trkpt lat="46.030501571505845" lon="12.753956504767581"><ele>94.33333333333334</ele><time>2026-05-01T07:24:51.999Z</time></trkpt><trkpt lat="46.0305602774628" lon="12.753914062351297"><ele>94.66666666666667</ele><time>2026-05-01T07:24:52.999Z</time></trkpt><trkpt lat="46.03063341373497" lon="12.753855322878596"><ele>95.0</ele><time>2026-05-01T07:24:53.999Z</time></trkpt><trkpt lat="46.030695013652334" lon="12.753808941944081"><ele>95.0</ele><time>2026-05-01T07:24:54.999Z</time></trkpt><trkpt lat="46.03077712049434" lon="12.753731611247408"><ele>95.0</ele><time>2026-05-01T07:24:56.999Z</time></trkpt><trkpt lat="46.03086706084504" lon="12.75364940275766"><ele>95.0</ele><time>2026-05-01T07:24:58.999Z</time></trkpt><trkpt lat="46.030961023035694" lon="12.753565350351765"><ele>95.0</ele><time>2026-05-01T07:25:00.999Z</time></trkpt><trkpt lat="46.03104582031749" lon="12.753499214682504"><ele>95.0</ele><time>2026-05-01T07:25:02.999Z</time></trkpt><trkpt lat="46.031131783875864" lon="12.753448781753756"><ele>95.6</ele><time>2026-05-01T07:25:04.999Z</time></trkpt><trkpt lat="46.03121725948123" lon="12.753405592600295"><ele>96.2</ele><time>2026-05-01T07:25:06.999Z</time></trkpt><trkpt lat="46.03131143552873" lon="12.753356579468512"><ele>96.80000000000001</ele><time>2026-05-01T07:25:08.999Z</time></trkpt><trkpt lat="46.031411001194506" lon="12.753295970327025"><ele>97.4</ele><time>2026-05-01T07:25:10.999Z</time></trkpt><trkpt lat="46.03149278562804" lon="12.75325574000179"><ele>98.0</ele><time>2026-05-01T07:25:12.999Z</time></trkpt><trkpt lat="46.03156159300232" lon="12.753220211944129"><ele>97.99999999999999</ele><time>2026-05-01T07:25:14.999Z</time></trkpt><trkpt lat="46.031635810812304" lon="12.753180059566665"><ele>98.0</ele><time>2026-05-01T07:25:16.999Z</time></trkpt><trkpt lat="46.03172125547893" lon="12.753133140376443"><ele>98.0</ele><time>2026-05-01T07:25:18.999Z</time></trkpt><trkpt lat="46.031807694149606" lon="12.753082954639066"><ele>98.0</ele><time>2026-05-01T07:25:20.999Z</time></trkpt><trkpt lat="46.031876629354244" lon="12.753043577337705"><ele>97.99999999999999</ele><time>2026-05-01T07:25:22.999Z</time></trkpt><trkpt lat="46.031942819985346" lon="12.753008776594417"><ele>98.0</ele><time>2026-05-01T07:25:24.999Z</time></trkpt><trkpt lat="46.03201977520537" lon="12.752953717622526"><ele>98.28571428571429</ele><time>2026-05-01T07:25:59Z</time></trkpt><trkpt lat="46.0320865041841" lon="12.752910792237468"><ele>98.57142857142857</ele><time>2026-05-01T07:26:01Z</time></trkpt><trkpt lat="46.032147921116135" lon="12.752882123221438"><ele>98.85714285714286</ele><time>2026-05-01T07:26:08Z</time></trkpt><trkpt lat="46.03221805222269" lon="12.752837571608076"><ele>99.14285714285714</ele><time>2026-05-01T07:26:15Z</time></trkpt><trkpt lat="46.032281367065046" lon="12.752796772006493"><ele>99.42857142857143</ele><time>2026-05-01T07:26:17Z</time></trkpt><trkpt lat="46.03235682500667" lon="12.752744759748113"><ele>99.71428571428572</ele><time>2026-05-01T07:26:20Z</time></trkpt><trkpt lat="46.032419193576516" lon="12.75271234756078"><ele>100.0</ele><time>2026-05-01T07:26:22Z</time></trkpt><trkpt lat="46.03249596482216" lon="12.752651303362898"><ele>100.16666666666667</ele><time>2026-05-01T07:26:25Z</time></trkpt><trkpt lat="46.03255495033884" lon="12.752608245660888"><ele>100.33333333333334</ele><time>2026-05-01T07:26:27Z</time></trkpt><trkpt lat="46.03262364266516" lon="12.75257441686696"><ele>100.5</ele><time>2026-05-01T07:26:29Z</time></trkpt><trkpt lat="46.03270191250033" lon="12.752527809615456"><ele>100.66666666666666</ele><time>2026-05-01T07:26:31Z</time></trkpt><trkpt lat="46.03278884720453" lon="12.752483387024837"><ele>100.83333333333333</ele><time>2026-05-01T07:26:33Z</time></trkpt><trkpt lat="46.032869871173965" lon="12.752425506132996"><ele>101.0</ele><time>2026-05-01T07:26:35Z</time></trkpt><trkpt lat="46.03295074460665" lon="12.752365714077243"><ele>101.0</ele><time>2026-05-01T07:26:37Z</time></trkpt><trkpt lat="46.033037790238765" lon="12.752284873662793"><ele>101.0</ele><time>2026-05-01T07:26:39Z</time></trkpt><trkpt lat="46.03312426408708" lon="12.752221645961793"><ele>101.0</ele><time>2026-05-01T07:26:40.999Z</time></trkpt><trkpt lat="46.03321525609783" lon="12.752150097426926"><ele>101.0</ele><time>2026-05-01T07:26:42.999Z</time></trkpt><trkpt lat="46.033303049397986" lon="12.752083336964207"><ele>101.0</ele><time>2026-05-01T07:26:44.999Z</time></trkpt><trkpt lat="46.03340117628588" lon="12.752020147938786"><ele>101.19999999999999</ele><time>2026-05-01T07:26:46.999Z</time></trkpt><trkpt lat="46.03350275555992" lon="12.75195983673313"><ele>101.39999999999999</ele><time>2026-05-01T07:26:48.999Z</time></trkpt><trkpt lat="46.03358990216406" lon="12.751916973963988"><ele>101.6</ele><time>2026-05-01T07:26:50.999Z</time></trkpt><trkpt lat="46.033694225840016" lon="12.751865456227836"><ele>101.8</ele><time>2026-05-01T07:26:52.999Z</time></trkpt><trkpt lat="46.03378282080206" lon="12.751799023965788"><ele>102.0</ele><time>2026-05-01T07:26:54.999Z</time></trkpt><trkpt lat="46.03388343178745" lon="12.751745053052536"><ele>102.39999999999999</ele><time>2026-05-01T07:26:56.999Z</time></trkpt><trkpt lat="46.033977754219784" lon="12.751682783138616"><ele>102.8</ele><time>2026-05-01T07:26:58.999Z</time></trkpt><trkpt lat="46.03406857597881" lon="12.751630392311759"><ele>103.2</ele><time>2026-05-01T07:27:00.999Z</time></trkpt><trkpt lat="46.03416456456148" lon="12.751570895641155"><ele>103.6</ele><time>2026-05-01T07:27:02.999Z</time></trkpt><trkpt lat="46.03426030990534" lon="12.751512002855565"><ele>104.0</ele><time>2026-05-01T07:27:04.999Z</time></trkpt><trkpt lat="46.034359594302614" lon="12.751448541678716"><ele>104.0</ele><time>2026-05-01T07:27:06.999Z</time></trkpt><trkpt lat="46.03445157556513" lon="12.751399203735783"><ele>104.0</ele><time>2026-05-01T07:27:08.999Z</time></trkpt><trkpt lat="46.03455877535891" lon="12.751332710595705"><ele>104.0</ele><time>2026-05-01T07:27:10.999Z</time></trkpt><trkpt lat="46.034666584679115" lon="12.751266460408209"><ele>104.0</ele><time>2026-05-01T07:27:12.999Z</time></trkpt><trkpt lat="46.034770195395424" lon="12.751201701460724"><ele>104.0</ele><time>2026-05-01T07:27:14.999Z</time></trkpt><trkpt lat="46.034866268934586" lon="12.751150386144232"><ele>104.0</ele><time>2026-05-01T07:27:16.999Z</time></trkpt><trkpt lat="46.0349694102113" lon="12.751087661106581"><ele>104.0</ele><time>2026-05-01T07:27:18.999Z</time></trkpt><trkpt lat="46.035078995176406" lon="12.751017191934409"><ele>104.0</ele><time>2026-05-01T07:27:20.999Z</time></trkpt><trkpt lat="46.03514369051982" lon="12.750983318685073"><ele>104.0</ele><time>2026-05-01T07:27:21.999Z</time></trkpt><trkpt lat="46.03520876213567" lon="12.75094248923548"><ele>104.0</ele><time>2026-05-01T07:27:22.999Z</time></trkpt><trkpt lat="46.03531039433064" lon="12.750876760329765"><ele>104.4</ele><time>2026-05-01T07:27:24.999Z</time></trkpt><trkpt lat="46.03542218159095" lon="12.750810139810731"><ele>104.80000000000001</ele><time>2026-05-01T07:27:26.999Z</time></trkpt><trkpt lat="46.03548748336175" lon="12.750773444640071"><ele>105.19999999999999</ele><time>2026-05-01T07:27:27.999Z</time></trkpt><trkpt lat="46.03555874779805" lon="12.750731884116872"><ele>105.6</ele><time>2026-05-01T07:27:28.999Z</time></trkpt><trkpt lat="46.03562614612693" lon="12.75068495279393"><ele>106.0</ele><time>2026-05-01T07:27:29.999Z</time></trkpt><trkpt lat="46.03573642493985" lon="12.750606052289433"><ele>106.19999999999999</ele><time>2026-05-01T07:27:31.999Z</time></trkpt><trkpt lat="46.035835149918064" lon="12.750533130990904"><ele>106.39999999999999</ele><time>2026-05-01T07:27:33.999Z</time></trkpt><trkpt lat="46.035894216142864" lon="12.750484320092273"><ele>106.6</ele><time>2026-05-01T07:27:34.999Z</time></trkpt><trkpt lat="46.03599596008877" lon="12.750403559927566"><ele>106.8</ele><time>2026-05-01T07:27:36.999Z</time></trkpt><trkpt lat="46.036081150454216" lon="12.75034599943749"><ele>107.0</ele><time>2026-05-01T07:27:38.999Z</time></trkpt><trkpt lat="46.03618584105624" lon="12.750262856040107"><ele>106.8</ele><time>2026-05-01T07:27:40.999Z</time></trkpt><trkpt lat="46.03630248542805" lon="12.750184380772376"><ele>106.6</ele><time>2026-05-01T07:27:42.999Z</time></trkpt><trkpt lat="46.03636765791192" lon="12.750141191801415"><ele>106.39999999999999</ele><time>2026-05-01T07:27:43.999Z</time></trkpt><trkpt lat="46.03646519824896" lon="12.750073892315134"><ele>106.19999999999999</ele><time>2026-05-01T07:27:45.999Z</time></trkpt><trkpt lat="46.036564007248316" lon="12.750012600402755"><ele>106.0</ele><time>2026-05-01T07:27:48Z</time></trkpt><trkpt lat="46.036644508311916" lon="12.749973584721653"><ele>106.6</ele><time>2026-05-01T07:27:50Z</time></trkpt><trkpt lat="46.03671446160599" lon="12.749934027234106"><ele>107.19999999999999</ele><time>2026-05-01T07:27:52Z</time></trkpt><trkpt lat="46.03681557224158" lon="12.749874794708228"><ele>107.80000000000001</ele><time>2026-05-01T07:27:54Z</time></trkpt><trkpt lat="46.03692285391385" lon="12.749808432823876"><ele>108.4</ele><time>2026-05-01T07:27:56Z</time></trkpt><trkpt lat="46.037034225753466" lon="12.74973961073333"><ele>109.0</ele><time>2026-05-01T07:27:58Z</time></trkpt><trkpt lat="46.03709362804791" lon="12.74970231785957"><ele>109.0</ele><time>2026-05-01T07:27:59Z</time></trkpt><trkpt lat="46.037196499450104" lon="12.749637068389436"><ele>109.0</ele><time>2026-05-01T07:28:01Z</time></trkpt><trkpt lat="46.03731723869044" lon="12.74956508979666"><ele>109.0</ele><time>2026-05-01T07:28:03Z</time></trkpt><trkpt lat="46.037381665867365" lon="12.749527964194874"><ele>109.0</ele><time>2026-05-01T07:28:04Z</time></trkpt><trkpt lat="46.03748984804544" lon="12.749463254787388"><ele>109.0</ele><time>2026-05-01T07:28:06Z</time></trkpt><trkpt lat="46.03759678743811" lon="12.749404074959287"><ele>109.2</ele><time>2026-05-01T07:28:08Z</time></trkpt><trkpt lat="46.0376885232273" lon="12.74935648561362"><ele>109.4</ele><time>2026-05-01T07:28:10Z</time></trkpt><trkpt lat="46.03777328672961" lon="12.749312126372834"><ele>109.6</ele><time>2026-05-01T07:28:12Z</time></trkpt><trkpt lat="46.03785324820067" lon="12.749269446958179"><ele>109.8</ele><time>2026-05-01T07:28:14Z</time></trkpt><trkpt lat="46.03794755956015" lon="12.749224859779384"><ele>110.0</ele><time>2026-05-01T07:28:16Z</time></trkpt><trkpt lat="46.038048599257884" lon="12.74917390378117"><ele>110.0</ele><time>2026-05-01T07:28:18Z</time></trkpt><trkpt lat="46.038151483357396" lon="12.749112126904876"><ele>110.0</ele><time>2026-05-01T07:28:20Z</time></trkpt><trkpt lat="46.03826496802939" lon="12.749032355400672"><ele>110.0</ele><time>2026-05-01T07:28:22Z</time></trkpt><trkpt lat="46.03832579343211" lon="12.74898350272042"><ele>110.0</ele><time>2026-05-01T07:28:23Z</time></trkpt><trkpt lat="46.03843709863847" lon="12.748887537646766"><ele>110.0</ele><time>2026-05-01T07:28:25Z</time></trkpt><trkpt lat="46.038491069525335" lon="12.74883633220478"><ele>110.2</ele><time>2026-05-01T07:28:26Z</time></trkpt><trkpt lat="46.038545302649666" lon="12.748784371604623"><ele>110.4</ele><time>2026-05-01T07:28:27Z</time></trkpt><trkpt lat="46.03863510263011" lon="12.748688290303075"><ele>110.6</ele><time>2026-05-01T07:28:29Z</time></trkpt><trkpt lat="46.03873775779978" lon="12.748587279952273"><ele>110.8</ele><time>2026-05-01T07:28:31Z</time></trkpt><trkpt lat="46.03880953859525" lon="12.74851443587296"><ele>111.0</ele><time>2026-05-01T07:28:32Z</time></trkpt><trkpt lat="46.03888285255064" lon="12.748438622727122"><ele>111.0</ele><time>2026-05-01T07:28:33Z</time></trkpt><trkpt lat="46.038939111152395" lon="12.748382774345824"><ele>111.0</ele><time>2026-05-01T07:28:34Z</time></trkpt><trkpt lat="46.03903618744485" lon="12.74830442504652"><ele>111.0</ele><time>2026-05-01T07:28:36Z</time></trkpt><trkpt lat="46.039132636315635" lon="12.748239693335679"><ele>111.0</ele><time>2026-05-01T07:28:38Z</time></trkpt><trkpt lat="46.03922210858394" lon="12.748181258846543"><ele>111.0</ele><time>2026-05-01T07:28:40Z</time></trkpt><trkpt lat="46.03931947285487" lon="12.748125802083042"><ele>111.19999999999999</ele><time>2026-05-01T07:28:42Z</time></trkpt><trkpt lat="46.039426865048554" lon="12.748065518983289"><ele>111.39999999999999</ele><time>2026-05-01T07:28:44Z</time></trkpt><trkpt lat="46.03953821199323" lon="12.747991838478478"><ele>111.6</ele><time>2026-05-01T07:28:46Z</time></trkpt><trkpt lat="46.03959697461468" lon="12.747958213598729"><ele>111.8</ele><time>2026-05-01T07:28:46.999Z</time></trkpt><trkpt lat="46.03970422942423" lon="12.747896083628877"><ele>112.0</ele><time>2026-05-01T07:28:48.999Z</time></trkpt><trkpt lat="46.039810873233925" lon="12.7478321878856"><ele>112.0</ele><time>2026-05-01T07:28:50.999Z</time></trkpt><trkpt lat="46.0398711194073" lon="12.74779560171099"><ele>112.0</ele><time>2026-05-01T07:28:51.999Z</time></trkpt><trkpt lat="46.03993459361797" lon="12.747763155120575"><ele>112.0</ele><time>2026-05-01T07:28:52.999Z</time></trkpt><trkpt lat="46.03999632431252" lon="12.747732131578008"><ele>112.0</ele><time>2026-05-01T07:28:53.999Z</time></trkpt><trkpt lat="46.04006222983258" lon="12.7477033354667"><ele>112.0</ele><time>2026-05-01T07:28:54.999Z</time></trkpt><trkpt lat="46.04013894489121" lon="12.747663981197153"><ele>112.0</ele><time>2026-05-01T07:28:55.999Z</time></trkpt><trkpt lat="46.04022084485216" lon="12.74761188534843"><ele>112.0</ele><time>2026-05-01T07:28:56.999Z</time></trkpt><trkpt lat="46.04028820778263" lon="12.74756813974518"><ele>112.19999999999999</ele><time>2026-05-01T07:28:57.999Z</time></trkpt><trkpt lat="46.04034711524681" lon="12.747520417984571"><ele>112.39999999999999</ele><time>2026-05-01T07:28:58.999Z</time></trkpt><trkpt lat="46.04040714975649" lon="12.74747266471782"><ele>112.60000000000001</ele><time>2026-05-01T07:28:59.999Z</time></trkpt><trkpt lat="46.04050113934689" lon="12.747406374357926"><ele>112.80000000000001</ele><time>2026-05-01T07:29:01.999Z</time></trkpt><trkpt lat="46.040590001037444" lon="12.747347210974732"><ele>113.0</ele><time>2026-05-01T07:29:03.999Z</time></trkpt><trkpt lat="46.040693215197685" lon="12.747282925526388"><ele>113.0</ele><time>2026-05-01T07:29:05.999Z</time></trkpt><trkpt lat="46.04082472096856" lon="12.74721051062174"><ele>113.00000000000001</ele><time>2026-05-01T07:29:07.999Z</time></trkpt><trkpt lat="46.0409163253795" lon="12.747167031545926"><ele>113.00000000000001</ele><time>2026-05-01T07:29:08.999Z</time></trkpt><trkpt lat="46.040997692699456" lon="12.747116982843234"><ele>113.0</ele><time>2026-05-01T07:29:09.999Z</time></trkpt><trkpt lat="46.041067405006416" lon="12.747079703335087"><ele>113.0</ele><time>2026-05-01T07:29:10.999Z</time></trkpt><trkpt lat="46.041175199603614" lon="12.747019482555526"><ele>112.99999999999999</ele><time>2026-05-01T07:29:12.999Z</time></trkpt><trkpt lat="46.041236014512116" lon="12.746980042095624"><ele>113.0</ele><time>2026-05-01T07:29:13.999Z</time></trkpt><trkpt lat="46.04130561079821" lon="12.746940440147794"><ele>113.0</ele><time>2026-05-01T07:29:14.999Z</time></trkpt><trkpt lat="46.04139360654302" lon="12.746889807601622"><ele>113.0</ele><time>2026-05-01T07:29:16.999Z</time></trkpt><trkpt lat="46.0415035074684" lon="12.746827944376978"><ele>112.99999999999999</ele><time>2026-05-01T07:29:18.999Z</time></trkpt><trkpt lat="46.041569666116516" lon="12.746789212931438"><ele>113.0</ele><time>2026-05-01T07:29:19.999Z</time></trkpt><trkpt lat="46.041633937305065" lon="12.746754185318128"><ele>113.57142857142858</ele><time>2026-05-01T07:29:20.999Z</time></trkpt><trkpt lat="46.041696904906715" lon="12.746716232111195"><ele>114.14285714285714</ele><time>2026-05-01T07:29:21.999Z</time></trkpt><trkpt lat="46.04175860466627" lon="12.746675361583717"><ele>114.71428571428572</ele><time>2026-05-01T07:29:22.999Z</time></trkpt><trkpt lat="46.04182444586395" lon="12.746642439779002"><ele>115.28571428571429</ele><time>2026-05-01T07:29:23.999Z</time></trkpt><trkpt lat="46.04189920776419" lon="12.746596286223026"><ele>115.85714285714286</ele><time>2026-05-01T07:29:24.999Z</time></trkpt><trkpt lat="46.041969888977924" lon="12.746551454580155"><ele>116.42857142857143</ele><time>2026-05-01T07:29:25.999Z</time></trkpt><trkpt lat="46.04203773655158" lon="12.7465178864888"><ele>117.0</ele><time>2026-05-01T07:29:26.999Z</time></trkpt><trkpt lat="46.04209842583982" lon="12.74648562475633"><ele>117.0</ele><time>2026-05-01T07:29:27.999Z</time></trkpt><trkpt lat="46.04215907861623" lon="12.746446162702854"><ele>117.0</ele><time>2026-05-01T07:29:28.999Z</time></trkpt><trkpt lat="46.04226486940903" lon="12.746387803247247"><ele>117.0</ele><time>2026-05-01T07:29:30.999Z</time></trkpt><trkpt lat="46.042334769794095" lon="12.746351616014099"><ele>117.0</ele><time>2026-05-01T07:29:31.999Z</time></trkpt><trkpt lat="46.042397746797555" lon="12.746314331562088"><ele>117.0</ele><time>2026-05-01T07:29:32.999Z</time></trkpt><trkpt lat="46.04250172424526" lon="12.746231447262113"><ele>117.0</ele><time>2026-05-01T07:29:34.999Z</time></trkpt><trkpt lat="46.04259053241846" lon="12.746154938480082"><ele>117.19999999999999</ele><time>2026-05-01T07:29:36.999Z</time></trkpt><trkpt lat="46.04268096371939" lon="12.746054449187698"><ele>117.39999999999999</ele><time>2026-05-01T07:29:38.999Z</time></trkpt><trkpt lat="46.04277255536029" lon="12.74593340023207"><ele>117.60000000000001</ele><time>2026-05-01T07:29:40.999Z</time></trkpt><trkpt lat="46.04284875907107" lon="12.74580881179166"><ele>117.80000000000001</ele><time>2026-05-01T07:29:42.999Z</time></trkpt><trkpt lat="46.04289915278293" lon="12.745731765617444"><ele>118.0</ele><time>2026-05-01T07:29:43.999Z</time></trkpt><trkpt lat="46.04294885228782" lon="12.745668030744458"><ele>118.0</ele><time>2026-05-01T07:29:44.999Z</time></trkpt><trkpt lat="46.04299953790204" lon="12.745613185367064"><ele>118.00000000000001</ele><time>2026-05-01T07:29:45.999Z</time></trkpt><trkpt lat="46.04308330517714" lon="12.745537637130965"><ele>118.00000000000001</ele><time>2026-05-01T07:29:47.999Z</time></trkpt><trkpt lat="46.04318884319921" lon="12.745474339481408"><ele>118.0</ele><time>2026-05-01T07:29:49.999Z</time></trkpt><trkpt lat="46.0432979167769" lon="12.745432977200862"><ele>118.0</ele><time>2026-05-01T07:29:51.999Z</time></trkpt><trkpt lat="46.043407664262915" lon="12.745416899659075"><ele>118.0</ele><time>2026-05-01T07:29:54Z</time></trkpt><trkpt lat="46.04352622870172" lon="12.745401796250054"><ele>118.00000000000001</ele><time>2026-05-01T07:29:56Z</time></trkpt><trkpt lat="46.043589938462034" lon="12.745390286266641"><ele>118.00000000000001</ele><time>2026-05-01T07:29:57Z</time></trkpt><trkpt lat="46.04369983207396" lon="12.745349867265269"><ele>118.0</ele><time>2026-05-01T07:29:59Z</time></trkpt><trkpt lat="46.043813000166864" lon="12.74529145019149"><ele>118.0</ele><time>2026-05-01T07:30:01Z</time></trkpt><trkpt lat="46.04391349995223" lon="12.745208658649501"><ele>118.00000000000001</ele><time>2026-05-01T07:30:03Z</time></trkpt><trkpt lat="46.04396939273936" lon="12.745159128818859"><ele>118.0</ele><time>2026-05-01T07:30:04Z</time></trkpt><trkpt lat="46.04402194694558" lon="12.745094582890262"><ele>118.0</ele><time>2026-05-01T07:30:05Z</time></trkpt><trkpt lat="46.04409836831058" lon="12.745007293625076"><ele>118.0</ele><time>2026-05-01T07:30:07Z</time></trkpt><trkpt lat="46.04415171107489" lon="12.744948762426818"><ele>118.00000000000001</ele><time>2026-05-01T07:30:09Z</time></trkpt><trkpt lat="46.04420752129714" lon="12.744885498319602"><ele>118.0</ele><time>2026-05-01T07:39:48.999Z</time></trkpt><trkpt lat="46.04427297293664" lon="12.744813722840455"><ele>118.28571428571428</ele><time>2026-05-01T07:39:50.999Z</time></trkpt><trkpt lat="46.04432483892768" lon="12.744752113044193"><ele>118.57142857142858</ele><time>2026-05-01T07:39:52.999Z</time></trkpt><trkpt lat="46.044379205284976" lon="12.744691270148317"><ele>118.85714285714286</ele><time>2026-05-01T07:39:54.999Z</time></trkpt><trkpt lat="46.044450233721896" lon="12.744606520513763"><ele>119.14285714285714</ele><time>2026-05-01T07:39:57.999Z</time></trkpt><trkpt lat="46.044509107853756" lon="12.74455490447602"><ele>119.42857142857142</ele><time>2026-05-01T07:39:59.999Z</time></trkpt><trkpt lat="46.04457177264743" lon="12.744507259487468"><ele>119.71428571428572</ele><time>2026-05-01T07:40:01.999Z</time></trkpt><trkpt lat="46.04464489464513" lon="12.744463684453846"><ele>120.0</ele><time>2026-05-01T07:41:06Z</time></trkpt><trkpt lat="46.04471825797255" lon="12.744412796154325"><ele>120.0</ele><time>2026-05-01T07:41:09Z</time></trkpt><trkpt lat="46.044798626178505" lon="12.744369852390458"><ele>120.0</ele><time>2026-05-01T07:41:11Z</time></trkpt><trkpt lat="46.04490231416805" lon="12.744307601619077"><ele>120.0</ele><time>2026-05-01T07:41:13Z</time></trkpt><trkpt lat="46.04499883629058" lon="12.744250702264328"><ele>120.0</ele><time>2026-05-01T07:41:15Z</time></trkpt><trkpt lat="46.045080777489794" lon="12.744201914277602"><ele>120.0</ele><time>2026-05-01T07:41:17Z</time></trkpt><trkpt lat="46.04516600032269" lon="12.7441458792655"><ele>120.6</ele><time>2026-05-01T07:41:19Z</time></trkpt><trkpt lat="46.04526840437371" lon="12.74408176673515"><ele>121.2</ele><time>2026-05-01T07:41:21Z</time></trkpt><trkpt lat="46.04535609045169" lon="12.744033388294875"><ele>121.80000000000001</ele><time>2026-05-01T07:41:23Z</time></trkpt><trkpt lat="46.04546236074717" lon="12.74396978825308"><ele>122.4</ele><time>2026-05-01T07:41:25Z</time></trkpt><trkpt lat="46.045558311769526" lon="12.74392349975051"><ele>123.0</ele><time>2026-05-01T07:41:27Z</time></trkpt><trkpt lat="46.04566913309227" lon="12.743868223801822"><ele>123.0</ele><time>2026-05-01T07:41:29Z</time></trkpt><trkpt lat="46.04574690237917" lon="12.743826466565602"><ele>123.00000000000001</ele><time>2026-05-01T07:41:30Z</time></trkpt><trkpt lat="46.0458505337772" lon="12.743775308575225"><ele>123.00000000000001</ele><time>2026-05-01T07:41:31Z</time></trkpt><trkpt lat="46.04593117808732" lon="12.743745158416088"><ele>123.0</ele><time>2026-05-01T07:41:32Z</time></trkpt><trkpt lat="46.046042362432765" lon="12.743705767866128"><ele>123.0</ele><time>2026-05-01T07:41:34Z</time></trkpt><trkpt lat="46.04615526752256" lon="12.74368665038053"><ele>123.16666666666667</ele><time>2026-05-01T07:41:36Z</time></trkpt><trkpt lat="46.04626778824805" lon="12.743674651194537"><ele>123.33333333333334</ele><time>2026-05-01T07:41:38Z</time></trkpt><trkpt lat="46.046331640096504" lon="12.743669600044162"><ele>123.5</ele><time>2026-05-01T07:41:39Z</time></trkpt><trkpt lat="46.046397543665215" lon="12.743667116322246"><ele>123.66666666666667</ele><time>2026-05-01T07:41:40Z</time></trkpt><trkpt lat="46.04646704448406" lon="12.74366615322998"><ele>123.83333333333334</ele><time>2026-05-01T07:41:41Z</time></trkpt><trkpt lat="46.046580356866855" lon="12.743657789848788"><ele>124.0</ele><time>2026-05-01T07:41:43Z</time></trkpt><trkpt lat="46.04668061579947" lon="12.743637618313313"><ele>124.00000000000001</ele><time>2026-05-01T07:41:45Z</time></trkpt><trkpt lat="46.046746418126695" lon="12.743615147913674"><ele>124.0</ele><time>2026-05-01T07:41:46Z</time></trkpt><trkpt lat="46.04681484085812" lon="12.743588905208004"><ele>124.0</ele><time>2026-05-01T07:41:47Z</time></trkpt><trkpt lat="46.04688693031278" lon="12.743551236091484"><ele>124.0</ele><time>2026-05-01T07:41:48Z</time></trkpt><trkpt lat="46.04699681511058" lon="12.743483072568436"><ele>124.00000000000001</ele><time>2026-05-01T07:41:50Z</time></trkpt><trkpt lat="46.04706184890464" lon="12.743439114080363"><ele>124.0</ele><time>2026-05-01T07:41:51Z</time></trkpt><trkpt lat="46.04712509940857" lon="12.74340114000066"><ele>124.16666666666667</ele><time>2026-05-01T07:41:52Z</time></trkpt><trkpt lat="46.04718505076944" lon="12.743361702368167"><ele>124.33333333333334</ele><time>2026-05-01T07:41:52.999Z</time></trkpt><trkpt lat="46.0472508349219" lon="12.743320463527969"><ele>124.5</ele><time>2026-05-01T07:41:53.999Z</time></trkpt><trkpt lat="46.04732437598515" lon="12.743274253779285"><ele>124.66666666666666</ele><time>2026-05-01T07:41:54.999Z</time></trkpt><trkpt lat="46.04740390512352" lon="12.74321962748673"><ele>124.83333333333333</ele><time>2026-05-01T07:41:55.999Z</time></trkpt><trkpt lat="46.047479230455004" lon="12.743171322618439"><ele>125.0</ele><time>2026-05-01T07:41:56.999Z</time></trkpt><trkpt lat="46.04759605886043" lon="12.743101422190577"><ele>125.25</ele><time>2026-05-01T07:41:58.999Z</time></trkpt><trkpt lat="46.04770706928532" lon="12.74303157970887"><ele>125.5</ele><time>2026-05-01T07:42:00.999Z</time></trkpt><trkpt lat="46.04782466045929" lon="12.742959541355313"><ele>125.75</ele><time>2026-05-01T07:42:02.999Z</time></trkpt><trkpt lat="46.047943265231694" lon="12.7428904752488"><ele>126.0</ele><time>2026-05-01T07:42:04.999Z</time></trkpt><trkpt lat="46.048030207457614" lon="12.742839663421819"><ele>126.0</ele><time>2026-05-01T07:42:05.999Z</time></trkpt><trkpt lat="46.04810236162919" lon="12.74278900497434"><ele>126.0</ele><time>2026-05-01T07:42:06.999Z</time></trkpt><trkpt lat="46.04820893336848" lon="12.742710946930972"><ele>126.0</ele><time>2026-05-01T07:42:08.999Z</time></trkpt><trkpt lat="46.048265959431404" lon="12.742666401017491"><ele>126.0</ele><time>2026-05-01T07:42:09.999Z</time></trkpt><trkpt lat="46.048357978243" lon="12.742579206699011"><ele>126.0</ele><time>2026-05-01T07:42:11.999Z</time></trkpt><trkpt lat="46.04845966095523" lon="12.742461373235136"><ele>126.33333333333333</ele><time>2026-05-01T07:42:13.999Z</time></trkpt><trkpt lat="46.048510166337984" lon="12.742393270676283"><ele>126.66666666666666</ele><time>2026-05-01T07:42:14.999Z</time></trkpt><trkpt lat="46.0485608878738" lon="12.742328747067354"><ele>127.0</ele><time>2026-05-01T07:42:15.999Z</time></trkpt><trkpt lat="46.0486467575561" lon="12.742224586675517"><ele>127.33333333333333</ele><time>2026-05-01T07:42:17.999Z</time></trkpt><trkpt lat="46.048694869796776" lon="12.74215285264218"><ele>127.66666666666666</ele><time>2026-05-01T07:43:00Z</time></trkpt><trkpt lat="46.04874826565994" lon="12.742090395774865"><ele>128.0</ele><time>2026-05-01T07:43:02Z</time></trkpt><trkpt lat="46.04880373214427" lon="12.742011610694188"><ele>127.99999999999999</ele><time>2026-05-01T07:43:04Z</time></trkpt><trkpt lat="46.04886678740142" lon="12.741923308189719"><ele>128.0</ele><time>2026-05-01T07:43:06Z</time></trkpt><trkpt lat="46.04891503367577" lon="12.741858944246808"><ele>128.0</ele><time>2026-05-01T07:43:08Z</time></trkpt><trkpt lat="46.04896005953679" lon="12.741795073227456"><ele>128.0</ele><time>2026-05-01T07:43:20Z</time></trkpt><trkpt lat="46.04902830101329" lon="12.741706975914814"><ele>127.99999999999999</ele><time>2026-05-01T07:43:22Z</time></trkpt><trkpt lat="46.04910756599956" lon="12.74159343091392"><ele>128.0</ele><time>2026-05-01T07:43:24Z</time></trkpt><trkpt lat="46.04918473996447" lon="12.741510543192799"><ele>128.4</ele><time>2026-05-01T07:43:26Z</time></trkpt><trkpt lat="46.04926160501198" lon="12.741473078854222"><ele>128.8</ele><time>2026-05-01T07:43:28Z</time></trkpt><trkpt lat="46.0493625588703" lon="12.741432319516646"><ele>129.2</ele><time>2026-05-01T07:43:30Z</time></trkpt><trkpt lat="46.04945879675769" lon="12.741424015570006"><ele>129.6</ele><time>2026-05-01T07:43:32Z</time></trkpt><trkpt lat="46.04954514892407" lon="12.741426775089625"><ele>130.0</ele><time>2026-05-01T07:43:34Z</time></trkpt><trkpt lat="46.04965251362615" lon="12.741431444767722"><ele>130.0</ele><time>2026-05-01T07:43:36Z</time></trkpt><trkpt lat="46.04978789483642" lon="12.74143627399427"><ele>130.0</ele><time>2026-05-01T07:43:38Z</time></trkpt><trkpt lat="46.04986750194016" lon="12.741440312173001"><ele>130.0</ele><time>2026-05-01T07:43:38.999Z</time></trkpt><trkpt lat="46.049991674770375" lon="12.741448936827867"><ele>130.0</ele><time>2026-05-01T07:43:40.999Z</time></trkpt><trkpt lat="46.050061540475916" lon="12.7414511938532"><ele>130.0</ele><time>2026-05-01T07:43:41.999Z</time></trkpt><trkpt lat="46.050132535142794" lon="12.741444957748888"><ele>130.2</ele><time>2026-05-01T07:43:42.999Z</time></trkpt><trkpt lat="46.05024812723299" lon="12.741417874809153"><ele>130.4</ele><time>2026-05-01T07:43:44.999Z</time></trkpt><trkpt lat="46.05035150753936" lon="12.74137268419675"><ele>130.6</ele><time>2026-05-01T07:43:46.999Z</time></trkpt><trkpt lat="46.05044903096167" lon="12.74130983246389"><ele>130.8</ele><time>2026-05-01T07:43:48.999Z</time></trkpt><trkpt lat="46.050531530376404" lon="12.741251256848496"><ele>131.0</ele><time>2026-05-01T07:43:50.999Z</time></trkpt><trkpt lat="46.05062099028011" lon="12.741183869822986"><ele>131.0</ele><time>2026-05-01T07:43:52.999Z</time></trkpt><trkpt lat="46.05071854876276" lon="12.741099033723453"><ele>131.0</ele><time>2026-05-01T07:43:54.999Z</time></trkpt><trkpt lat="46.050773901782684" lon="12.741054389039846"><ele>131.0</ele><time>2026-05-01T07:43:55.999Z</time></trkpt><trkpt lat="46.050834253524606" lon="12.741006098489969"><ele>131.0</ele><time>2026-05-01T07:43:56.999Z</time></trkpt><trkpt lat="46.05089670916737" lon="12.740962938846609"><ele>131.0</ele><time>2026-05-01T07:43:57.999Z</time></trkpt><trkpt lat="46.05098076177602" lon="12.740899493676238"><ele>131.0</ele><time>2026-05-01T07:43:58.999Z</time></trkpt><trkpt lat="46.05106097760238" lon="12.740837911058083"><ele>131.0</ele><time>2026-05-01T07:43:59.999Z</time></trkpt><trkpt lat="46.051129538509066" lon="12.740782262078996"><ele>131.0</ele><time>2026-05-01T07:44:00.999Z</time></trkpt><trkpt lat="46.05118858131252" lon="12.740733745086718"><ele>131.0</ele><time>2026-05-01T07:44:01.999Z</time></trkpt><trkpt lat="46.051249939884556" lon="12.740676071752963"><ele>131.0</ele><time>2026-05-01T07:44:02.999Z</time></trkpt><trkpt lat="46.05130871922319" lon="12.740621733710613"><ele>131.0</ele><time>2026-05-01T07:44:03.999Z</time></trkpt><trkpt lat="46.051368612157795" lon="12.740564718048727"><ele>131.0</ele><time>2026-05-01T07:44:04.999Z</time></trkpt><trkpt lat="46.05147061766992" lon="12.740457637283319"><ele>131.0</ele><time>2026-05-01T07:44:06.999Z</time></trkpt><trkpt lat="46.051571661819324" lon="12.740368432293428"><ele>131.0</ele><time>2026-05-01T07:44:08.999Z</time></trkpt><trkpt lat="46.051626100617575" lon="12.740311875964503"><ele>131.0</ele><time>2026-05-01T07:44:09.999Z</time></trkpt><trkpt lat="46.05173180553802" lon="12.740213135228899"><ele>131.0</ele><time>2026-05-01T07:44:11.999Z</time></trkpt><trkpt lat="46.051790438788345" lon="12.740157673231641"><ele>131.0</ele><time>2026-05-01T07:44:12.999Z</time></trkpt><trkpt lat="46.05188342755693" lon="12.740063682311845"><ele>131.42857142857144</ele><time>2026-05-01T07:44:14.999Z</time></trkpt><trkpt lat="46.05193658512147" lon="12.740002770879466"><ele>131.85714285714286</ele><time>2026-05-01T07:44:15.999Z</time></trkpt><trkpt lat="46.051989394507274" lon="12.739950512966457"><ele>132.28571428571428</ele><time>2026-05-01T07:44:16.999Z</time></trkpt><trkpt lat="46.05205395489738" lon="12.739880465227039"><ele>132.71428571428572</ele><time>2026-05-01T07:44:17.999Z</time></trkpt><trkpt lat="46.052115789408944" lon="12.73980863105899"><ele>133.14285714285714</ele><time>2026-05-01T07:44:18.999Z</time></trkpt><trkpt lat="46.05217444240864" lon="12.73974317734885"><ele>133.57142857142858</ele><time>2026-05-01T07:44:19.999Z</time></trkpt><trkpt lat="46.05222617816418" lon="12.739684580614384"><ele>134.0</ele><time>2026-05-01T07:44:20.999Z</time></trkpt><trkpt lat="46.052278431590025" lon="12.739625544175624"><ele>134.0</ele><time>2026-05-01T07:44:21.999Z</time></trkpt><trkpt lat="46.05233227072084" lon="12.739560193669625"><ele>134.0</ele><time>2026-05-01T07:44:22.999Z</time></trkpt><trkpt lat="46.052394466957615" lon="12.739493037240432"><ele>134.0</ele><time>2026-05-01T07:44:23.999Z</time></trkpt><trkpt lat="46.05245292452541" lon="12.73942038010282"><ele>134.0</ele><time>2026-05-01T07:44:24.999Z</time></trkpt><trkpt lat="46.05250609346846" lon="12.73935290008325"><ele>134.0</ele><time>2026-05-01T07:44:25.999Z</time></trkpt><trkpt lat="46.05256067242492" lon="12.739284016165989"><ele>134.0</ele><time>2026-05-01T07:44:26.999Z</time></trkpt><trkpt lat="46.05261291411908" lon="12.739212788752937"><ele>134.0</ele><time>2026-05-01T07:44:27.999Z</time></trkpt><trkpt lat="46.05266846495436" lon="12.739144039301985"><ele>134.2</ele><time>2026-05-01T07:44:28.999Z</time></trkpt><trkpt lat="46.05273643587935" lon="12.739062398862325"><ele>134.4</ele><time>2026-05-01T07:44:29.999Z</time></trkpt><trkpt lat="46.052795376068985" lon="12.738987153910065"><ele>134.6</ele><time>2026-05-01T07:44:30.999Z</time></trkpt><trkpt lat="46.052881783934154" lon="12.738884517275242"><ele>134.8</ele><time>2026-05-01T07:44:32.999Z</time></trkpt><trkpt lat="46.05297413206811" lon="12.738775057166503"><ele>135.0</ele><time>2026-05-01T07:44:35Z</time></trkpt><trkpt lat="46.05308292083358" lon="12.738687770209594"><ele>135.0</ele><time>2026-05-01T07:44:37Z</time></trkpt><trkpt lat="46.05316412213711" lon="12.738612361788107"><ele>135.0</ele><time>2026-05-01T07:44:38Z</time></trkpt><trkpt lat="46.053231009255065" lon="12.73854474893309"><ele>135.0</ele><time>2026-05-01T07:44:39Z</time></trkpt><trkpt lat="46.05333368400618" lon="12.738439057519779"><ele>135.0</ele><time>2026-05-01T07:44:41Z</time></trkpt><trkpt lat="46.05343217636073" lon="12.73832340529007"><ele>135.0</ele><time>2026-05-01T07:44:43Z</time></trkpt><trkpt lat="46.05353263980776" lon="12.738192681284076"><ele>135.16666666666666</ele><time>2026-05-01T07:44:45Z</time></trkpt><trkpt lat="46.05360321557905" lon="12.738103502212727"><ele>135.33333333333334</ele><time>2026-05-01T07:44:46Z</time></trkpt><trkpt lat="46.053673660126094" lon="12.7380147642676"><ele>135.5</ele><time>2026-05-01T07:44:47Z</time></trkpt><trkpt lat="46.05372408611625" lon="12.737946669952116"><ele>135.66666666666669</ele><time>2026-05-01T07:44:48Z</time></trkpt><trkpt lat="46.053773696426894" lon="12.737881101617896"><ele>135.83333333333334</ele><time>2026-05-01T07:44:49Z</time></trkpt><trkpt lat="46.05382689344603" lon="12.737808665630908"><ele>136.0</ele><time>2026-05-01T07:44:50Z</time></trkpt><trkpt lat="46.05387679514713" lon="12.737739947820364"><ele>136.16666666666669</ele><time>2026-05-01T07:44:51Z</time></trkpt><trkpt lat="46.05393101943535" lon="12.737670650772024"><ele>136.33333333333334</ele><time>2026-05-01T07:44:52Z</time></trkpt><trkpt lat="46.053988194217936" lon="12.737592821380428"><ele>136.5</ele><time>2026-05-01T07:44:53Z</time></trkpt><trkpt lat="46.05404121292072" lon="12.737522105234136"><ele>136.66666666666666</ele><time>2026-05-01T07:44:54Z</time></trkpt><trkpt lat="46.05413107218807" lon="12.737403001761944"><ele>136.83333333333331</ele><time>2026-05-01T07:44:56Z</time></trkpt><trkpt lat="46.054178251437335" lon="12.737338782092976"><ele>137.0</ele><time>2026-05-01T07:44:57Z</time></trkpt><trkpt lat="46.05427307940545" lon="12.737220273982672"><ele>137.2</ele><time>2026-05-01T07:44:59Z</time></trkpt><trkpt lat="46.05432206217208" lon="12.737160072225448"><ele>137.39999999999998</ele><time>2026-05-01T07:45:00Z</time></trkpt><trkpt lat="46.05441299621181" lon="12.737053102361415"><ele>137.60000000000002</ele><time>2026-05-01T07:45:02Z</time></trkpt><trkpt lat="46.05449942023064" lon="12.736957488947287"><ele>137.8</ele><time>2026-05-01T07:45:04Z</time></trkpt><trkpt lat="46.05459977157071" lon="12.736850150207744"><ele>138.0</ele><time>2026-05-01T07:45:06Z</time></trkpt><trkpt lat="46.054664512899826" lon="12.736778975495223"><ele>138.0</ele><time>2026-05-01T07:45:07Z</time></trkpt><trkpt lat="46.054739312953764" lon="12.736699715022588"><ele>138.0</ele><time>2026-05-01T07:45:08Z</time></trkpt><trkpt lat="46.05480047342245" lon="12.736636072302435"><ele>138.0</ele><time>2026-05-01T07:45:09Z</time></trkpt><trkpt lat="46.05491012179804" lon="12.73652327575267"><ele>138.0</ele><time>2026-05-01T07:45:11Z</time></trkpt><trkpt lat="46.054962628486045" lon="12.736472135350882"><ele>138.0</ele><time>2026-05-01T07:45:12Z</time></trkpt><trkpt lat="46.05506425035454" lon="12.736372893755334"><ele>138.14285714285714</ele><time>2026-05-01T07:45:14Z</time></trkpt><trkpt lat="46.05512301101813" lon="12.736315636225736"><ele>138.2857142857143</ele><time>2026-05-01T07:45:15Z</time></trkpt><trkpt lat="46.05518207230859" lon="12.736256773034508"><ele>138.42857142857144</ele><time>2026-05-01T07:45:16Z</time></trkpt><trkpt lat="46.0552387451511" lon="12.73619863183009"><ele>138.57142857142858</ele><time>2026-05-01T07:45:17Z</time></trkpt><trkpt lat="46.05529399336255" lon="12.736140507791395"><ele>138.71428571428572</ele><time>2026-05-01T07:45:18Z</time></trkpt><trkpt lat="46.05535624838038" lon="12.736077960558042"><ele>138.85714285714286</ele><time>2026-05-01T07:45:19Z</time></trkpt><trkpt lat="46.05541934023829" lon="12.73601711660545"><ele>139.0</ele><time>2026-05-01T07:45:20Z</time></trkpt><trkpt lat="46.05547555705697" lon="12.735956443443198"><ele>139.16666666666669</ele><time>2026-05-01T07:45:21Z</time></trkpt><trkpt lat="46.05553473754319" lon="12.735888230819189"><ele>139.33333333333334</ele><time>2026-05-01T07:45:22Z</time></trkpt><trkpt lat="46.055591338585984" lon="12.735822100101334"><ele>139.5</ele><time>2026-05-01T07:45:23Z</time></trkpt><trkpt lat="46.0556527296038" lon="12.735744808579355"><ele>139.66666666666666</ele><time>2026-05-01T07:45:24Z</time></trkpt><trkpt lat="46.05571089616385" lon="12.735670575565335"><ele>139.83333333333331</ele><time>2026-05-01T07:45:25Z</time></trkpt><trkpt lat="46.055763663548234" lon="12.735598551798061"><ele>140.0</ele><time>2026-05-01T07:45:26Z</time></trkpt><trkpt lat="46.05581807421096" lon="12.735529548830748"><ele>140.14285714285714</ele><time>2026-05-01T07:45:27Z</time></trkpt><trkpt lat="46.05588010197176" lon="12.73545713804461"><ele>140.28571428571428</ele><time>2026-05-01T07:45:28Z</time></trkpt><trkpt lat="46.055934184989944" lon="12.735391728225807"><ele>140.42857142857144</ele><time>2026-05-01T07:45:29Z</time></trkpt><trkpt lat="46.05598287422268" lon="12.73533104762656"><ele>140.57142857142856</ele><time>2026-05-01T07:45:30Z</time></trkpt><trkpt lat="46.05603617976451" lon="12.735269541317546"><ele>140.71428571428572</ele><time>2026-05-01T07:45:31Z</time></trkpt><trkpt lat="46.05609422803481" lon="12.735203384405969"><ele>140.85714285714286</ele><time>2026-05-01T07:45:32Z</time></trkpt><trkpt lat="46.05615114583764" lon="12.735138134667354"><ele>141.0</ele><time>2026-05-01T07:45:33Z</time></trkpt><trkpt lat="46.0562122416677" lon="12.73506906507466"><ele>141.0</ele><time>2026-05-01T07:45:33.999Z</time></trkpt><trkpt lat="46.05628239787662" lon="12.734995613358501"><ele>141.0</ele><time>2026-05-01T07:45:34.999Z</time></trkpt><trkpt lat="46.056350822463365" lon="12.73490195418735"><ele>141.0</ele><time>2026-05-01T07:45:35.999Z</time></trkpt><trkpt lat="46.056427424443235" lon="12.73483641098824"><ele>141.0</ele><time>2026-05-01T07:45:36.999Z</time></trkpt><trkpt lat="46.05648567177633" lon="12.734776325841192"><ele>141.0</ele><time>2026-05-01T07:45:37.999Z</time></trkpt><trkpt lat="46.056557121441124" lon="12.734695989303518"><ele>141.0</ele><time>2026-05-01T07:45:38.999Z</time></trkpt><trkpt lat="46.056618389633044" lon="12.734622223835023"><ele>141.0</ele><time>2026-05-01T07:45:39.999Z</time></trkpt><trkpt lat="46.0566778863196" lon="12.734551234713326"><ele>141.0</ele><time>2026-05-01T07:45:40.999Z</time></trkpt><trkpt lat="46.056758886296954" lon="12.734459475208787"><ele>141.0</ele><time>2026-05-01T07:45:41.999Z</time></trkpt><trkpt lat="46.05683643186266" lon="12.734365001596526"><ele>141.0</ele><time>2026-05-01T07:45:42.999Z</time></trkpt><trkpt lat="46.0568878490482" lon="12.734299467579422"><ele>141.0</ele><time>2026-05-01T07:45:43.999Z</time></trkpt><trkpt lat="46.056938287603" lon="12.734233866588383"><ele>141.0</ele><time>2026-05-01T07:45:44.999Z</time></trkpt><trkpt lat="46.05705139124435" lon="12.734101480917102"><ele>141.0</ele><time>2026-05-01T07:45:46.999Z</time></trkpt><trkpt lat="46.0571053992261" lon="12.734030948965398"><ele>141.0</ele><time>2026-05-01T07:45:47.999Z</time></trkpt><trkpt lat="46.05717067011795" lon="12.733955783497128"><ele>141.0</ele><time>2026-05-01T07:45:48.999Z</time></trkpt><trkpt lat="46.057223637168335" lon="12.733894444121374"><ele>141.0</ele><time>2026-05-01T07:45:49.999Z</time></trkpt><trkpt lat="46.05727368384754" lon="12.73383295704659"><ele>141.0</ele><time>2026-05-01T07:45:50.999Z</time></trkpt><trkpt lat="46.05734897124574" lon="12.733757369042607"><ele>141.0</ele><time>2026-05-01T07:45:52.999Z</time></trkpt></trkseg><trkseg><trkpt lat="46.05742096123209" lon="12.733688832493574"><ele>141.0</ele><time>2026-05-01T08:08:05.999Z</time></trkpt><trkpt lat="46.05750537570265" lon="12.733594382506105"><ele>141.0</ele><time>2026-05-01T08:08:07.999Z</time></trkpt><trkpt lat="46.05759364922894" lon="12.73349318142598"><ele>141.0</ele><time>2026-05-01T08:08:09.999Z</time></trkpt><trkpt lat="46.05765593520147" lon="12.733423571676468"><ele>141.0</ele><time>2026-05-01T08:08:10.999Z</time></trkpt><trkpt lat="46.05771864437312" lon="12.733350411536268"><ele>141.0</ele><time>2026-05-01T08:08:11.999Z</time></trkpt><trkpt lat="46.057824769299955" lon="12.733250810389324"><ele>141.0</ele><time>2026-05-01T08:08:13.999Z</time></trkpt><trkpt lat="46.05789225844422" lon="12.733199022856228"><ele>141.0</ele><time>2026-05-01T08:08:14.999Z</time></trkpt><trkpt lat="46.05796012122127" lon="12.733131081902199"><ele>141.0</ele><time>2026-05-01T08:08:15.999Z</time></trkpt><trkpt lat="46.0580197920484" lon="12.733068772233048"><ele>141.0</ele><time>2026-05-01T08:08:16.999Z</time></trkpt><trkpt lat="46.05810705388938" lon="12.732968637312196"><ele>141.0</ele><time>2026-05-01T08:08:18.999Z</time></trkpt><trkpt lat="46.058165225718106" lon="12.73290898165864"><ele>141.0</ele><time>2026-05-01T08:08:19.999Z</time></trkpt><trkpt lat="46.058222313670676" lon="12.732835221990602"><ele>141.0</ele><time>2026-05-01T08:08:20.999Z</time></trkpt><trkpt lat="46.05827732690752" lon="12.732765615138993"><ele>141.0</ele><time>2026-05-01T08:08:21.999Z</time></trkpt><trkpt lat="46.05835460845529" lon="12.732669660597027"><ele>141.0</ele><time>2026-05-01T08:08:23.999Z</time></trkpt><trkpt lat="46.05843858708147" lon="12.732566052459223"><ele>141.0</ele><time>2026-05-01T08:08:25.999Z</time></trkpt><trkpt lat="46.05851252735359" lon="12.73248137445433"><ele>141.0</ele><time>2026-05-01T08:08:27.999Z</time></trkpt><trkpt lat="46.058581718094196" lon="12.732434105586576"><ele>141.66666666666666</ele><time>2026-05-01T08:08:28.999Z</time></trkpt><trkpt lat="46.05864709042559" lon="12.73239231325069"><ele>142.33333333333334</ele><time>2026-05-01T08:08:29.999Z</time></trkpt><trkpt lat="46.05874217857636" lon="12.732292993444025"><ele>143.0</ele><time>2026-05-01T08:08:31.999Z</time></trkpt><trkpt lat="46.05879899986506" lon="12.732226713188107"><ele>143.66666666666669</ele><time>2026-05-01T08:08:32.999Z</time></trkpt><trkpt lat="46.058859929714785" lon="12.732156182801713"><ele>144.33333333333334</ele><time>2026-05-01T08:08:33.999Z</time></trkpt><trkpt lat="46.058915997287315" lon="12.732082247747568"><ele>145.0</ele><time>2026-05-01T08:08:34.999Z</time></trkpt><trkpt lat="46.05899204034412" lon="12.731956690231462"><ele>145.16666666666669</ele><time>2026-05-01T08:08:36.999Z</time></trkpt><trkpt lat="46.059044511098115" lon="12.731880290068542"><ele>145.33333333333334</ele><time>2026-05-01T08:08:38Z</time></trkpt><trkpt lat="46.059140280794246" lon="12.731760696219508"><ele>145.5</ele><time>2026-05-01T08:08:40Z</time></trkpt><trkpt lat="46.0592038578886" lon="12.731687900613268"><ele>145.66666666666666</ele><time>2026-05-01T08:08:41Z</time></trkpt><trkpt lat="46.05926847272872" lon="12.731620250392817"><ele>145.83333333333331</ele><time>2026-05-01T08:08:42Z</time></trkpt><trkpt lat="46.059332209209" lon="12.731540729005314"><ele>146.0</ele><time>2026-05-01T08:08:43Z</time></trkpt><trkpt lat="46.05938501413237" lon="12.731468260388771"><ele>146.0</ele><time>2026-05-01T08:08:44Z</time></trkpt><trkpt lat="46.05944848701896" lon="12.731398049703897"><ele>146.0</ele><time>2026-05-01T08:08:45Z</time></trkpt><trkpt lat="46.05951038222868" lon="12.731320351138013"><ele>146.0</ele><time>2026-05-01T08:08:46Z</time></trkpt><trkpt lat="46.05956957731208" lon="12.731243637217666"><ele>146.0</ele><time>2026-05-01T08:08:47Z</time></trkpt><trkpt lat="46.05964564545347" lon="12.731146851887509"><ele>146.0</ele><time>2026-05-01T08:08:48Z</time></trkpt><trkpt lat="46.05969974994994" lon="12.731077535536489"><ele>146.0</ele><time>2026-05-01T08:08:49Z</time></trkpt><trkpt lat="46.05978508151687" lon="12.730949681261272"><ele>146.2</ele><time>2026-05-01T08:08:51Z</time></trkpt><trkpt lat="46.05986096362963" lon="12.730839018853453"><ele>146.39999999999998</ele><time>2026-05-01T08:08:53Z</time></trkpt><trkpt lat="46.059912217492155" lon="12.730696864540205"><ele>146.6</ele><time>2026-05-01T08:08:55Z</time></trkpt><trkpt lat="46.05993073103596" lon="12.73054299962867"><ele>146.79999999999998</ele><time>2026-05-01T08:08:57Z</time></trkpt><trkpt lat="46.05992996323937" lon="12.73044092261471"><ele>147.0</ele><time>2026-05-01T08:08:58Z</time></trkpt><trkpt lat="46.05992288046232" lon="12.730342680031812"><ele>146.79999999999998</ele><time>2026-05-01T08:08:59Z</time></trkpt><trkpt lat="46.05988998688266" lon="12.730188731712671"><ele>146.6</ele><time>2026-05-01T08:09:01Z</time></trkpt><trkpt lat="46.05986485550778" lon="12.730096626933237"><ele>146.39999999999998</ele><time>2026-05-01T08:09:02Z</time></trkpt><trkpt lat="46.059832954620326" lon="12.729997228299947"><ele>146.2</ele><time>2026-05-01T08:09:03Z</time></trkpt><trkpt lat="46.059762818516184" lon="12.729837862499538"><ele>146.0</ele><time>2026-05-01T08:09:05Z</time></trkpt><trkpt lat="46.0597256532103" lon="12.729743781325055"><ele>146.0</ele><time>2026-05-01T08:09:06Z</time></trkpt><trkpt lat="46.05970980183359" lon="12.729655901764227"><ele>146.0</ele><time>2026-05-01T08:09:07Z</time></trkpt><trkpt lat="46.05969801117187" lon="12.729497832916763"><ele>146.0</ele><time>2026-05-01T08:09:09Z</time></trkpt><trkpt lat="46.05974283636663" lon="12.729335884581158"><ele>146.0</ele><time>2026-05-01T08:09:11Z</time></trkpt><trkpt lat="46.059815186226466" lon="12.729256139383113"><ele>146.0</ele><time>2026-05-01T08:09:13Z</time></trkpt><trkpt lat="46.059891035898666" lon="12.729245733821056"><ele>146.33333333333331</ele><time>2026-05-01T08:09:15Z</time></trkpt><trkpt lat="46.059965166102835" lon="12.72929156700985"><ele>146.66666666666666</ele><time>2026-05-01T08:09:17Z</time></trkpt><trkpt lat="46.06006570472578" lon="12.729278908402001"><ele>147.0</ele><time>2026-05-01T08:09:19Z</time></trkpt><trkpt lat="46.06012934108203" lon="12.729266151132547"><ele>147.33333333333334</ele><time>2026-05-01T08:09:20Z</time></trkpt><trkpt lat="46.060197675632075" lon="12.729256131539382"><ele>147.66666666666669</ele><time>2026-05-01T08:09:21Z</time></trkpt><trkpt lat="46.06032426486468" lon="12.729260691366822"><ele>148.0</ele><time>2026-05-01T08:09:23Z</time></trkpt><trkpt lat="46.06039313634023" lon="12.729234343777298"><ele>148.0</ele><time>2026-05-01T08:09:24Z</time></trkpt><trkpt lat="46.06046490951697" lon="12.729214952806487"><ele>148.0</ele><time>2026-05-01T08:09:25Z</time></trkpt><trkpt lat="46.0605375362479" lon="12.729203344341256"><ele>148.0</ele><time>2026-05-01T08:09:26Z</time></trkpt><trkpt lat="46.06060527762873" lon="12.72918605655849"><ele>148.0</ele><time>2026-05-01T08:09:27Z</time></trkpt><trkpt lat="46.06067360858566" lon="12.729172140113803"><ele>148.0</ele><time>2026-05-01T08:09:28Z</time></trkpt><trkpt lat="46.0607466588974" lon="12.729158642703787"><ele>148.0</ele><time>2026-05-01T08:09:29Z</time></trkpt><trkpt lat="46.060812084834566" lon="12.729140085851853"><ele>148.0</ele><time>2026-05-01T08:09:30Z</time></trkpt><trkpt lat="46.06088035038173" lon="12.72914401792124"><ele>148.66666666666669</ele><time>2026-05-01T08:09:31Z</time></trkpt><trkpt lat="46.06095019907394" lon="12.729102978921954"><ele>149.33333333333334</ele><time>2026-05-01T08:09:32Z</time></trkpt><trkpt lat="46.06102063169334" lon="12.729091402585647"><ele>150.0</ele><time>2026-05-01T08:09:33Z</time></trkpt><trkpt lat="46.06113030038547" lon="12.729059667728725"><ele>150.66666666666666</ele><time>2026-05-01T08:09:35Z</time></trkpt><trkpt lat="46.061224735486945" lon="12.729025203962156"><ele>151.33333333333331</ele><time>2026-05-01T08:09:37Z</time></trkpt><trkpt lat="46.061286684110456" lon="12.729005908109048"><ele>152.0</ele><time>2026-05-01T08:09:39Z</time></trkpt><trkpt lat="46.06136489879964" lon="12.72919941400155"><ele>152.0</ele><time>2026-05-01T08:09:42Z</time></trkpt><trkpt lat="46.06138929658557" lon="12.729316663599915"><ele>152.0</ele><time>2026-05-01T08:09:43Z</time></trkpt><trkpt lat="46.06141499683902" lon="12.729418459394958"><ele>152.0</ele><time>2026-05-01T08:09:44Z</time></trkpt><trkpt lat="46.06144771043159" lon="12.729531977902292"><ele>152.0</ele><time>2026-05-01T08:09:45Z</time></trkpt><trkpt lat="46.061499354074634" lon="12.729705458757813"><ele>152.0</ele><time>2026-05-01T08:09:46.999Z</time></trkpt><trkpt lat="46.061523082131686" lon="12.729790846512728"><ele>152.0</ele><time>2026-05-01T08:09:47.999Z</time></trkpt><trkpt lat="46.06155247255268" lon="12.729896711649792"><ele>151.83333333333331</ele><time>2026-05-01T08:09:49.999Z</time></trkpt><trkpt lat="46.061593330672295" lon="12.73000848238066"><ele>151.66666666666666</ele><time>2026-05-01T08:09:51.999Z</time></trkpt><trkpt lat="46.0616376142575" lon="12.730180750465067"><ele>151.5</ele><time>2026-05-01T08:09:53.999Z</time></trkpt><trkpt lat="46.06165575439275" lon="12.73027990175638"><ele>151.33333333333334</ele><time>2026-05-01T08:09:54.999Z</time></trkpt><trkpt lat="46.0616861645103" lon="12.730380046574561"><ele>151.16666666666669</ele><time>2026-05-01T08:09:55.999Z</time></trkpt><trkpt lat="46.06171958202151" lon="12.730485956561107"><ele>151.0</ele><time>2026-05-01T08:09:56.999Z</time></trkpt><trkpt lat="46.061746582385524" lon="12.730584621439403"><ele>151.0</ele><time>2026-05-01T08:09:57.999Z</time></trkpt><trkpt lat="46.06178492201088" lon="12.730749377773202"><ele>151.0</ele><time>2026-05-01T08:09:59.999Z</time></trkpt><trkpt lat="46.06183431932566" lon="12.730912006831419"><ele>151.0</ele><time>2026-05-01T08:10:01.999Z</time></trkpt><trkpt lat="46.06188596901461" lon="12.731073693647472"><ele>151.0</ele><time>2026-05-01T08:10:03.999Z</time></trkpt><trkpt lat="46.06192531217962" lon="12.731242721313377"><ele>150.71428571428572</ele><time>2026-05-01T08:10:05.999Z</time></trkpt><trkpt lat="46.06194428458642" lon="12.731348564814114"><ele>150.42857142857144</ele><time>2026-05-01T08:10:07.999Z</time></trkpt><trkpt lat="46.06196349466374" lon="12.731459788809502"><ele>150.14285714285714</ele><time>2026-05-01T08:10:10.999Z</time></trkpt><trkpt lat="46.061993765674025" lon="12.731545255824882"><ele>149.85714285714286</ele><time>2026-05-01T08:10:13.999Z</time></trkpt><trkpt lat="46.062040560506254" lon="12.731615445720163"><ele>149.57142857142856</ele><time>2026-05-01T08:10:32.999Z</time></trkpt><trkpt lat="46.06196694641059" lon="12.731624998808801"><ele>149.28571428571428</ele><time>2026-05-01T08:10:37.999Z</time></trkpt><trkpt lat="46.06193594995589" lon="12.731521834743203"><ele>149.0</ele><time>2026-05-01T08:10:40.999Z</time></trkpt><trkpt lat="46.06193802269276" lon="12.731362282269606"><ele>149.0</ele><time>2026-05-01T08:10:42.999Z</time></trkpt><trkpt lat="46.0619158482078" lon="12.731199799140672"><ele>149.0</ele><time>2026-05-01T08:10:44Z</time></trkpt><trkpt lat="46.06188279749981" lon="12.73103859351916"><ele>149.0</ele><time>2026-05-01T08:10:45Z</time></trkpt><trkpt lat="46.061835046545795" lon="12.730867224776516"><ele>149.0</ele><time>2026-05-01T08:10:46Z</time></trkpt><trkpt lat="46.061784877330844" lon="12.730705210283157"><ele>149.5</ele><time>2026-05-01T08:10:47Z</time></trkpt><trkpt lat="46.06173950846721" lon="12.730558550265162"><ele>150.0</ele><time>2026-05-01T08:10:48Z</time></trkpt><trkpt lat="46.061695786250525" lon="12.730405353194357"><ele>150.5</ele><time>2026-05-01T08:10:49Z</time></trkpt><trkpt lat="46.061655495167955" lon="12.730257933386746"><ele>151.0</ele><time>2026-05-01T08:10:50Z</time></trkpt><trkpt lat="46.061879571876815" lon="12.72996363070131"><ele>151.4</ele><time>2026-05-01T08:10:51Z</time></trkpt><trkpt lat="46.06183618085499" lon="12.729813035974427"><ele>151.8</ele><time>2026-05-01T08:10:52Z</time></trkpt><trkpt lat="46.06179072000991" lon="12.729655257640113"><ele>152.20000000000002</ele><time>2026-05-01T08:10:53Z</time></trkpt><trkpt lat="46.06175129876183" lon="12.729518440571656"><ele>152.6</ele><time>2026-05-01T08:10:54Z</time></trkpt><trkpt lat="46.061717305559" lon="12.729400462275741"><ele>153.0</ele><time>2026-05-01T08:10:55Z</time></trkpt><trkpt lat="46.061685718519094" lon="12.729290834973483"><ele>153.0</ele><time>2026-05-01T08:10:56Z</time></trkpt><trkpt lat="46.06165170117917" lon="12.729172772934522"><ele>153.0</ele><time>2026-05-01T08:10:57Z</time></trkpt><trkpt lat="46.06161431272133" lon="12.7290435805095"><ele>153.0</ele><time>2026-05-01T08:10:58Z</time></trkpt><trkpt lat="46.06158132652546" lon="12.72893004361857"><ele>153.0</ele><time>2026-05-01T08:10:59Z</time></trkpt><trkpt lat="46.06155449724104" lon="12.728837698354603"><ele>153.0</ele><time>2026-05-01T08:11:00Z</time></trkpt><trkpt lat="46.06152770844169" lon="12.728745492521654"><ele>153.0</ele><time>2026-05-01T08:11:01Z</time></trkpt><trkpt lat="46.061497649455994" lon="12.72864203080891"><ele>152.0</ele><time>2026-05-01T08:11:02Z</time></trkpt><trkpt lat="46.06146313469634" lon="12.728523232553139"><ele>151.0</ele><time>2026-05-01T08:11:03Z</time></trkpt><trkpt lat="46.06142492245169" lon="12.728389569321205"><ele>150.0</ele><time>2026-05-01T08:11:04Z</time></trkpt><trkpt lat="46.061379864066474" lon="12.728227004905891"><ele>149.0</ele><time>2026-05-01T08:11:05Z</time></trkpt><trkpt lat="46.06133516149944" lon="12.728065724366493"><ele>148.0</ele><time>2026-05-01T08:11:06Z</time></trkpt><trkpt lat="46.06128409487536" lon="12.727875213264648"><ele>148.25</ele><time>2026-05-01T08:11:07Z</time></trkpt><trkpt lat="46.061233369849106" lon="12.727684114690383"><ele>148.5</ele><time>2026-05-01T08:11:08Z</time></trkpt><trkpt lat="46.06119168063799" lon="12.727525662991367"><ele>148.75</ele><time>2026-05-01T08:11:09Z</time></trkpt><trkpt lat="46.061149678444345" lon="12.727363119854717"><ele>149.0</ele><time>2026-05-01T08:11:10Z</time></trkpt><trkpt lat="46.06111044422236" lon="12.72720673874086"><ele>149.0</ele><time>2026-05-01T08:11:11Z</time></trkpt><trkpt lat="46.06107555623705" lon="12.727065448512464"><ele>149.0</ele><time>2026-05-01T08:11:12Z</time></trkpt><trkpt lat="46.06104492234979" lon="12.72693466305034"><ele>149.0</ele><time>2026-05-01T08:11:13Z</time></trkpt><trkpt lat="46.061021434124484" lon="12.726834450942565"><ele>149.0</ele><time>2026-05-01T08:11:14Z</time></trkpt><trkpt lat="46.0610016355163" lon="12.726743441237202"><ele>149.0</ele><time>2026-05-01T08:11:15Z</time></trkpt><trkpt lat="46.06097318673986" lon="12.726612668541511"><ele>149.0</ele><time>2026-05-01T08:11:17Z</time></trkpt><trkpt lat="46.06093407831179" lon="12.726472746375615"><ele>149.0</ele><time>2026-05-01T08:12:31.999Z</time></trkpt><trkpt lat="46.06096369496093" lon="12.726583666063169"><ele>149.0</ele><time>2026-05-01T08:12:33.999Z</time></trkpt><trkpt lat="46.0609643580444" lon="12.726734502791597"><ele>149.0</ele><time>2026-05-01T08:12:34.999Z</time></trkpt><trkpt lat="46.06099184849986" lon="12.726883688233197"><ele>149.0</ele><time>2026-05-01T08:12:35.999Z</time></trkpt><trkpt lat="46.06101805655971" lon="12.72705174819435"><ele>149.0</ele><time>2026-05-01T08:12:36.999Z</time></trkpt><trkpt lat="46.06107836496192" lon="12.727268452092357"><ele>149.0</ele><time>2026-05-01T08:12:37.999Z</time></trkpt><trkpt lat="46.0611323349612" lon="12.727500384240905"><ele>149.0</ele><time>2026-05-01T08:12:38.999Z</time></trkpt><trkpt lat="46.06120207551165" lon="12.727745112945062"><ele>149.0</ele><time>2026-05-01T08:12:39.999Z</time></trkpt><trkpt lat="46.06128057440951" lon="12.728015115790516"><ele>148.66666666666666</ele><time>2026-05-01T08:12:40.999Z</time></trkpt><trkpt lat="46.06136033493062" lon="12.728291120000701"><ele>148.33333333333334</ele><time>2026-05-01T08:12:41.999Z</time></trkpt><trkpt lat="46.061440586789494" lon="12.728571177536157"><ele>148.0</ele><time>2026-05-01T08:12:42.999Z</time></trkpt><trkpt lat="46.06152117225498" lon="12.728869391036008"><ele>150.0</ele><time>2026-05-01T08:12:43.999Z</time></trkpt><trkpt lat="46.061610352612874" lon="12.729173180340917"><ele>152.0</ele><time>2026-05-01T08:12:44.999Z</time></trkpt><trkpt lat="46.06178716526547" lon="12.729767335349205"><ele>152.5</ele><time>2026-05-01T08:12:46.999Z</time></trkpt><trkpt lat="46.06187081903873" lon="12.730071466610356"><ele>153.0</ele><time>2026-05-01T08:12:47.998Z</time></trkpt><trkpt lat="46.06196263847076" lon="12.730376853146165"><ele>152.0</ele><time>2026-05-01T08:12:48.998Z</time></trkpt><trkpt lat="46.06204927432294" lon="12.730680548807946"><ele>151.0</ele><time>2026-05-01T08:12:50Z</time></trkpt><trkpt lat="46.062140963016866" lon="12.730992974712983"><ele>150.0</ele><time>2026-05-01T08:12:51Z</time></trkpt><trkpt lat="46.06223050602747" lon="12.731315500789458"><ele>149.0</ele><time>2026-05-01T08:12:52Z</time></trkpt><trkpt lat="46.062316941776864" lon="12.73163078198489"><ele>149.0</ele><time>2026-05-01T08:12:53Z</time></trkpt><trkpt lat="46.06240524303219" lon="12.731935330058347"><ele>149.0</ele><time>2026-05-01T08:12:54Z</time></trkpt><trkpt lat="46.06249044189208" lon="12.732239406973704"><ele>148.66666666666666</ele><time>2026-05-01T08:12:55Z</time></trkpt><trkpt lat="46.06257747020361" lon="12.732546803053824"><ele>148.33333333333334</ele><time>2026-05-01T08:12:55.999Z</time></trkpt><trkpt lat="46.0626591744839" lon="12.732827565263037"><ele>148.0</ele><time>2026-05-01T08:12:56.999Z</time></trkpt><trkpt lat="46.06273940438867" lon="12.7331153843428"><ele>148.0</ele><time>2026-05-01T08:12:57.999Z</time></trkpt><trkpt lat="46.06282247253768" lon="12.73339702275642"><ele>148.0</ele><time>2026-05-01T08:12:58.999Z</time></trkpt><trkpt lat="46.06290534052723" lon="12.73368035083647"><ele>148.0</ele><time>2026-05-01T08:12:59.999Z</time></trkpt><trkpt lat="46.06298506172008" lon="12.733966888121179"><ele>148.0</ele><time>2026-05-01T08:13:00.999Z</time></trkpt><trkpt lat="46.06307339071174" lon="12.73426109905422"><ele>148.0</ele><time>2026-05-01T08:13:01.999Z</time></trkpt><trkpt lat="46.06316307641327" lon="12.734567023963104"><ele>148.0</ele><time>2026-05-01T08:13:02.999Z</time></trkpt><trkpt lat="46.063251642676185" lon="12.734856453596304"><ele>148.0</ele><time>2026-05-01T08:13:03.999Z</time></trkpt><trkpt lat="46.06333527661745" lon="12.735144006682901"><ele>148.0</ele><time>2026-05-01T08:13:04.999Z</time></trkpt><trkpt lat="46.06341284681761" lon="12.735423744920821"><ele>148.0</ele><time>2026-05-01T08:13:05.999Z</time></trkpt><trkpt lat="46.063493652353415" lon="12.735705566395927"><ele>148.0</ele><time>2026-05-01T08:13:06.999Z</time></trkpt><trkpt lat="46.06357130422717" lon="12.735994940289359"><ele>148.0</ele><time>2026-05-01T08:13:07.999Z</time></trkpt><trkpt lat="46.063655482491065" lon="12.736290673202351"><ele>148.0</ele><time>2026-05-01T08:13:08.999Z</time></trkpt><trkpt lat="46.06374782783276" lon="12.736596030300102"><ele>148.0</ele><time>2026-05-01T08:13:09.999Z</time></trkpt><trkpt lat="46.063832511004414" lon="12.736890785256453"><ele>148.0</ele><time>2026-05-01T08:13:10.999Z</time></trkpt><trkpt lat="46.063920819362174" lon="12.73719431272604"><ele>148.0</ele><time>2026-05-01T08:13:11.999Z</time></trkpt><trkpt lat="46.064010935512464" lon="12.73751281250851"><ele>148.5</ele><time>2026-05-01T08:13:12.999Z</time></trkpt><trkpt lat="46.064102241620056" lon="12.737831825707588"><ele>149.0</ele><time>2026-05-01T08:13:13.999Z</time></trkpt><trkpt lat="46.06419736666672" lon="12.738161062749473"><ele>149.0</ele><time>2026-05-01T08:13:14.999Z</time></trkpt><trkpt lat="46.0642906242744" lon="12.738486255781556"><ele>149.0</ele><time>2026-05-01T08:13:15.999Z</time></trkpt><trkpt lat="46.06438465705291" lon="12.738810305241849"><ele>149.0</ele><time>2026-05-01T08:13:16.999Z</time></trkpt><trkpt lat="46.064476524284316" lon="12.739129995551684"><ele>149.0</ele><time>2026-05-01T08:13:17.999Z</time></trkpt><trkpt lat="46.0645693943362" lon="12.739456124239675"><ele>148.5</ele><time>2026-05-01T08:13:19Z</time></trkpt><trkpt lat="46.064662453849074" lon="12.739779134495228"><ele>148.0</ele><time>2026-05-01T08:13:19.999Z</time></trkpt><trkpt lat="46.06475416586134" lon="12.740098055600315"><ele>147.5</ele><time>2026-05-01T08:13:20.999Z</time></trkpt><trkpt lat="46.06484253261604" lon="12.740407302600126"><ele>147.0</ele><time>2026-05-01T08:13:21.999Z</time></trkpt><trkpt lat="46.06492885700345" lon="12.740705582081269"><ele>147.0</ele><time>2026-05-01T08:13:22.999Z</time></trkpt><trkpt lat="46.06501559554057" lon="12.741007642497753"><ele>147.0</ele><time>2026-05-01T08:13:23.999Z</time></trkpt><trkpt lat="46.065103642023615" lon="12.74130637504968"><ele>147.0</ele><time>2026-05-01T08:13:24.999Z</time></trkpt><trkpt lat="46.06518264848693" lon="12.741581151120366"><ele>147.0</ele><time>2026-05-01T08:13:25.999Z</time></trkpt><trkpt lat="46.06525578576709" lon="12.741838755049002"><ele>147.0</ele><time>2026-05-01T08:13:26.999Z</time></trkpt><trkpt lat="46.065326462832715" lon="12.74208503692291"><ele>147.33333333333334</ele><time>2026-05-01T08:13:27.999Z</time></trkpt><trkpt lat="46.065389123400884" lon="12.742315942660051"><ele>147.66666666666669</ele><time>2026-05-01T08:13:28.999Z</time></trkpt><trkpt lat="46.06544456244693" lon="12.742517204056458"><ele>148.0</ele><time>2026-05-01T08:13:29.999Z</time></trkpt><trkpt lat="46.06549708127127" lon="12.742708926592437"><ele>148.25</ele><time>2026-05-01T08:13:30.999Z</time></trkpt><trkpt lat="46.06554914476188" lon="12.742894512341612"><ele>148.5</ele><time>2026-05-01T08:13:31.999Z</time></trkpt><trkpt lat="46.0656054084915" lon="12.743096998540794"><ele>148.75</ele><time>2026-05-01T08:13:32.999Z</time></trkpt><trkpt lat="46.06566564541886" lon="12.74330669567964"><ele>149.0</ele><time>2026-05-01T08:13:33.999Z</time></trkpt><trkpt lat="46.06572318258296" lon="12.743506223390403"><ele>150.0</ele><time>2026-05-01T08:13:34.999Z</time></trkpt><trkpt lat="46.06577899362293" lon="12.743700351048872"><ele>151.0</ele><time>2026-05-01T08:13:35.999Z</time></trkpt><trkpt lat="46.06583456358897" lon="12.743904649009464"><ele>152.0</ele><time>2026-05-01T08:13:36.999Z</time></trkpt><trkpt lat="46.06589425218781" lon="12.744119307849534"><ele>152.0</ele><time>2026-05-01T08:13:37.999Z</time></trkpt><trkpt lat="46.06595420511711" lon="12.744332630133012"><ele>152.0</ele><time>2026-05-01T08:13:38.999Z</time></trkpt><trkpt lat="46.06601991222475" lon="12.744555380447887"><ele>152.0</ele><time>2026-05-01T08:13:39.999Z</time></trkpt><trkpt lat="46.06608044393912" lon="12.744768883311501"><ele>151.5</ele><time>2026-05-01T08:13:40.999Z</time></trkpt><trkpt lat="46.06613854349503" lon="12.744970874196119"><ele>151.0</ele><time>2026-05-01T08:13:41.999Z</time></trkpt><trkpt lat="46.06619119660766" lon="12.745152694506128"><ele>150.5</ele><time>2026-05-01T08:13:42.999Z</time></trkpt><trkpt lat="46.06624105852551" lon="12.745320846261263"><ele>150.0</ele><time>2026-05-01T08:13:43.999Z</time></trkpt><trkpt lat="46.06628627223828" lon="12.745482303636111"><ele>149.75</ele><time>2026-05-01T08:13:44.999Z</time></trkpt><trkpt lat="46.06633204532717" lon="12.74564699637153"><ele>149.5</ele><time>2026-05-01T08:13:45.999Z</time></trkpt><trkpt lat="46.06638279375003" lon="12.745820997858788"><ele>149.25</ele><time>2026-05-01T08:13:46.999Z</time></trkpt><trkpt lat="46.06643601613439" lon="12.746003351630911"><ele>149.0</ele><time>2026-05-01T08:13:47.999Z</time></trkpt><trkpt lat="46.06649059018269" lon="12.74619561053582"><ele>149.0</ele><time>2026-05-01T08:13:48.999Z</time></trkpt><trkpt lat="46.06654837707951" lon="12.746397638976367"><ele>149.0</ele><time>2026-05-01T08:13:49.999Z</time></trkpt><trkpt lat="46.06661022519772" lon="12.746609235375926"><ele>149.0</ele><time>2026-05-01T08:13:50.999Z</time></trkpt><trkpt lat="46.06667026259288" lon="12.746812789803919"><ele>149.25</ele><time>2026-05-01T08:13:51.999Z</time></trkpt><trkpt lat="46.066727798295275" lon="12.747005854658513"><ele>149.5</ele><time>2026-05-01T08:13:53Z</time></trkpt><trkpt lat="46.06678085878657" lon="12.747198222360309"><ele>149.75</ele><time>2026-05-01T08:13:53.999Z</time></trkpt><trkpt lat="46.06683491558965" lon="12.74739298524694"><ele>150.0</ele><time>2026-05-01T08:13:54.999Z</time></trkpt><trkpt lat="46.06689289895159" lon="12.747597820634036"><ele>149.66666666666666</ele><time>2026-05-01T08:13:55.999Z</time></trkpt><trkpt lat="46.06695366795896" lon="12.747803171969181"><ele>149.33333333333331</ele><time>2026-05-01T08:13:56.999Z</time></trkpt><trkpt lat="46.067018252233474" lon="12.748017979429893"><ele>149.0</ele><time>2026-05-01T08:13:57.999Z</time></trkpt><trkpt lat="46.06708601572783" lon="12.748250967265339"><ele>149.0</ele><time>2026-05-01T08:13:58.999Z</time></trkpt><trkpt lat="46.06714893551461" lon="12.748479723671842"><ele>149.0</ele><time>2026-05-01T08:13:59.999Z</time></trkpt><trkpt lat="46.0672076843341" lon="12.74869616847005"><ele>149.0</ele><time>2026-05-01T08:14:00.999Z</time></trkpt><trkpt lat="46.067262119628424" lon="12.748883920488069"><ele>149.0</ele><time>2026-05-01T08:14:01.999Z</time></trkpt><trkpt lat="46.067305104683605" lon="12.749023726703761"><ele>149.0</ele><time>2026-05-01T08:14:02.999Z</time></trkpt><trkpt lat="46.06733412759878" lon="12.749116945595985"><ele>149.0</ele><time>2026-05-01T08:14:03.999Z</time></trkpt><trkpt lat="46.06736018946765" lon="12.749203272104058"><ele>149.0</ele><time>2026-05-01T08:14:06.999Z</time></trkpt><trkpt lat="46.06742882186365" lon="12.74914377445436"><ele>149.0</ele><time>2026-05-01T08:14:09.999Z</time></trkpt><trkpt lat="46.06752892353432" lon="12.74907698478051"><ele>149.0</ele><time>2026-05-01T08:14:11.999Z</time></trkpt><trkpt lat="46.067602502294" lon="12.74905167816794"><ele>149.28571428571428</ele><time>2026-05-01T08:14:12.999Z</time></trkpt><trkpt lat="46.0676826818244" lon="12.749028685931505"><ele>149.57142857142856</ele><time>2026-05-01T08:14:13.999Z</time></trkpt><trkpt lat="46.067753491473006" lon="12.749011674140618"><ele>149.85714285714286</ele><time>2026-05-01T08:14:14.999Z</time></trkpt><trkpt lat="46.067835602100445" lon="12.748994869778748"><ele>150.14285714285714</ele><time>2026-05-01T08:14:16.999Z</time></trkpt><trkpt lat="46.067899968542456" lon="12.748962003500113"><ele>150.42857142857144</ele><time>2026-05-01T08:14:19.999Z</time></trkpt><trkpt lat="46.06796186262988" lon="12.748935450006426"><ele>150.71428571428572</ele><time>2026-05-01T08:14:20.999Z</time></trkpt><trkpt lat="46.06803311826936" lon="12.74890192253172"><ele>151.0</ele><time>2026-05-01T08:14:21.999Z</time></trkpt><trkpt lat="46.06810603458177" lon="12.74886975968376"><ele>151.0</ele><time>2026-05-01T08:14:22.999Z</time></trkpt><trkpt lat="46.06817554015513" lon="12.748838733213097"><ele>151.0</ele><time>2026-05-01T08:14:23.999Z</time></trkpt><trkpt lat="46.06825481817291" lon="12.748801037892273"><ele>151.0</ele><time>2026-05-01T08:14:24.999Z</time></trkpt><trkpt lat="46.06836526157593" lon="12.74875537911075"><ele>151.0</ele><time>2026-05-01T08:14:25.999Z</time></trkpt><trkpt lat="46.06846281120533" lon="12.748706352759875"><ele>151.0</ele><time>2026-05-01T08:14:26.999Z</time></trkpt><trkpt lat="46.0685642259664" lon="12.748641628269763"><ele>151.0</ele><time>2026-05-01T08:14:27.999Z</time></trkpt><trkpt lat="46.06865544434443" lon="12.748575536992822"><ele>151.0</ele><time>2026-05-01T08:14:28.999Z</time></trkpt><trkpt lat="46.06873553820152" lon="12.748502944231188"><ele>151.0</ele><time>2026-05-01T08:14:29.999Z</time></trkpt><trkpt lat="46.068811626702356" lon="12.748428135679506"><ele>151.0</ele><time>2026-05-01T08:14:30.999Z</time></trkpt><trkpt lat="46.06889245087027" lon="12.748348858130443"><ele>151.0</ele><time>2026-05-01T08:14:31.999Z</time></trkpt><trkpt lat="46.068981226809576" lon="12.748259093330375"><ele>151.0</ele><time>2026-05-01T08:14:32.999Z</time></trkpt><trkpt lat="46.06907751161602" lon="12.748161588843491"><ele>151.0</ele><time>2026-05-01T08:14:33.999Z</time></trkpt><trkpt lat="46.06916538629109" lon="12.748075740236946"><ele>151.0</ele><time>2026-05-01T08:14:34.999Z</time></trkpt><trkpt lat="46.0692529353729" lon="12.747994166337563"><ele>151.0</ele><time>2026-05-01T08:14:35.999Z</time></trkpt><trkpt lat="46.06934783622393" lon="12.74790657869751"><ele>151.0</ele><time>2026-05-01T08:14:36.999Z</time></trkpt><trkpt lat="46.069430626526454" lon="12.747831298142922"><ele>151.4</ele><time>2026-05-01T08:14:37.999Z</time></trkpt><trkpt lat="46.069511814572266" lon="12.747761531886493"><ele>151.8</ele><time>2026-05-01T08:14:38.999Z</time></trkpt><trkpt lat="46.06959294152608" lon="12.747691418653032"><ele>152.20000000000002</ele><time>2026-05-01T08:14:39.999Z</time></trkpt><trkpt lat="46.069671836500575" lon="12.7476268619772"><ele>152.6</ele><time>2026-05-01T08:14:40.999Z</time></trkpt><trkpt lat="46.06975158968003" lon="12.747560759039235"><ele>153.0</ele><time>2026-05-01T08:14:41.999Z</time></trkpt><trkpt lat="46.06983739259353" lon="12.74749185562322"><ele>153.20000000000002</ele><time>2026-05-01T08:14:42.999Z</time></trkpt><trkpt lat="46.06992550181862" lon="12.747423749818148"><ele>153.4</ele><time>2026-05-01T08:14:43.999Z</time></trkpt><trkpt lat="46.070001312869614" lon="12.747360027585371"><ele>153.60000000000002</ele><time>2026-05-01T08:14:44.999Z</time></trkpt><trkpt lat="46.070078341398776" lon="12.747295422186998"><ele>153.8</ele><time>2026-05-01T08:14:45.999Z</time></trkpt><trkpt lat="46.07016389884099" lon="12.747219462665297"><ele>154.0</ele><time>2026-05-01T08:14:46.999Z</time></trkpt><trkpt lat="46.07025304106468" lon="12.747130942478629"><ele>154.0</ele><time>2026-05-01T08:14:47.999Z</time></trkpt><trkpt lat="46.070346302177576" lon="12.747035726089203"><ele>154.0</ele><time>2026-05-01T08:14:48.999Z</time></trkpt><trkpt lat="46.0704251362045" lon="12.746958109847045"><ele>154.0</ele><time>2026-05-01T08:14:49.999Z</time></trkpt><trkpt lat="46.07050810041643" lon="12.746871941115147"><ele>154.0</ele><time>2026-05-01T08:14:50.999Z</time></trkpt><trkpt lat="46.07059510599113" lon="12.746779454287632"><ele>154.0</ele><time>2026-05-01T08:14:51.999Z</time></trkpt><trkpt lat="46.07067287325414" lon="12.746691555818115"><ele>154.2</ele><time>2026-05-01T08:14:52.999Z</time></trkpt><trkpt lat="46.07074599281521" lon="12.746609631420913"><ele>154.4</ele><time>2026-05-01T08:14:53.999Z</time></trkpt><trkpt lat="46.07081908448192" lon="12.746527705538966"><ele>154.6</ele><time>2026-05-01T08:14:54.999Z</time></trkpt><trkpt lat="46.0708959288894" lon="12.746444766731262"><ele>154.8</ele><time>2026-05-01T08:14:55.999Z</time></trkpt><trkpt lat="46.07096898045877" lon="12.746365854208161"><ele>155.0</ele><time>2026-05-01T08:14:56.999Z</time></trkpt><trkpt lat="46.071048108429366" lon="12.746282940420588"><ele>155.0</ele><time>2026-05-01T08:14:57.999Z</time></trkpt><trkpt lat="46.07113191502965" lon="12.74619128064487"><ele>155.0</ele><time>2026-05-01T08:14:58.999Z</time></trkpt><trkpt lat="46.07121054132747" lon="12.746105140386504"><ele>155.0</ele><time>2026-05-01T08:14:59.999Z</time></trkpt><trkpt lat="46.07127781070443" lon="12.746027550541005"><ele>155.0</ele><time>2026-05-01T08:15:00.999Z</time></trkpt><trkpt lat="46.07134195325812" lon="12.74596255179175"><ele>155.0</ele><time>2026-05-01T08:15:01.999Z</time></trkpt><trkpt lat="46.07139794576598" lon="12.74590795401756"><ele>155.0</ele><time>2026-05-01T08:15:02.999Z</time></trkpt><trkpt lat="46.071491412514156" lon="12.745804319086632"><ele>155.0</ele><time>2026-05-01T08:15:04.999Z</time></trkpt><trkpt lat="46.07156565942053" lon="12.74572446876299"><ele>155.0</ele><time>2026-05-01T08:15:06.999Z</time></trkpt><trkpt lat="46.07156301173514" lon="12.745616861081603"><ele>155.0</ele><time>2026-05-01T08:15:09Z</time></trkpt><trkpt lat="46.07151509656445" lon="12.745532659126928"><ele>155.0</ele><time>2026-05-01T08:15:11Z</time></trkpt><trkpt lat="46.07138441425977" lon="12.745511725793714"><ele>155.0</ele><time>2026-05-01T08:15:13Z</time></trkpt><trkpt lat="46.07127427446884" lon="12.745490503107172"><ele>155.0</ele><time>2026-05-01T08:15:14Z</time></trkpt><trkpt lat="46.0711821383209" lon="12.745468674242405"><ele>155.0</ele><time>2026-05-01T08:15:15Z</time></trkpt><trkpt lat="46.071094710644815" lon="12.74546396670009"><ele>155.0</ele><time>2026-05-01T08:15:16Z</time></trkpt><trkpt lat="46.07100014417129" lon="12.745467961523062"><ele>155.0</ele><time>2026-05-01T08:15:17Z</time></trkpt><trkpt lat="46.070923157288746" lon="12.74546663054838"><ele>155.0</ele><time>2026-05-01T08:15:18Z</time></trkpt><trkpt lat="46.07080721137181" lon="12.745460642607538"><ele>155.2</ele><time>2026-05-01T08:15:20Z</time></trkpt><trkpt lat="46.07066526527244" lon="12.745424757298931"><ele>155.4</ele><time>2026-05-01T08:15:22Z</time></trkpt><trkpt lat="46.070572747156525" lon="12.745400836919368"><ele>155.6</ele><time>2026-05-01T08:15:23Z</time></trkpt><trkpt lat="46.07047784236352" lon="12.74537611479464"><ele>155.8</ele><time>2026-05-01T08:15:24Z</time></trkpt><trkpt lat="46.07037440325831" lon="12.745358790901594"><ele>156.0</ele><time>2026-05-01T08:15:25Z</time></trkpt><trkpt lat="46.070284762162494" lon="12.74534274344985"><ele>156.0</ele><time>2026-05-01T08:15:26Z</time></trkpt><trkpt lat="46.07017125490447" lon="12.745335464292205"><ele>156.0</ele><time>2026-05-01T08:15:28Z</time></trkpt><trkpt lat="46.07003941916405" lon="12.745287487972645"><ele>156.0</ele><time>2026-05-01T08:15:30Z</time></trkpt><trkpt lat="46.06993746469501" lon="12.745228985901477"><ele>156.0</ele><time>2026-05-01T08:15:30.999Z</time></trkpt><trkpt lat="46.069834279875536" lon="12.74517994338876"><ele>155.8</ele><time>2026-05-01T08:15:31.999Z</time></trkpt><trkpt lat="46.069746591570606" lon="12.745147786574961"><ele>155.6</ele><time>2026-05-01T08:15:32.999Z</time></trkpt><trkpt lat="46.06966009700899" lon="12.745118251915025"><ele>155.4</ele><time>2026-05-01T08:15:33.999Z</time></trkpt><trkpt lat="46.069576821438496" lon="12.745092481964962"><ele>155.2</ele><time>2026-05-01T08:15:34.999Z</time></trkpt><trkpt lat="46.0694869788017" lon="12.745059781921249"><ele>155.0</ele><time>2026-05-01T08:15:35.999Z</time></trkpt><trkpt lat="46.06939709356219" lon="12.745022911899598"><ele>155.0</ele><time>2026-05-01T08:15:36.999Z</time></trkpt><trkpt lat="46.069320632260656" lon="12.7450002718152"><ele>155.0</ele><time>2026-05-01T08:15:37.999Z</time></trkpt><trkpt lat="46.069250831849985" lon="12.744981861415942"><ele>155.0</ele><time>2026-05-01T08:15:38.999Z</time></trkpt><trkpt lat="46.06918416346609" lon="12.744967894885606"><ele>155.0</ele><time>2026-05-01T08:15:39.999Z</time></trkpt><trkpt lat="46.06911156255051" lon="12.744950956679991"><ele>155.0</ele><time>2026-05-01T08:15:40.999Z</time></trkpt><trkpt lat="46.06902457381911" lon="12.744923146599024"><ele>155.0</ele><time>2026-05-01T08:15:41.999Z</time></trkpt><trkpt lat="46.06892032834049" lon="12.744884832783109"><ele>154.6</ele><time>2026-05-01T08:15:42.999Z</time></trkpt><trkpt lat="46.068825324264424" lon="12.744856036752223"><ele>154.2</ele><time>2026-05-01T08:15:43.999Z</time></trkpt><trkpt lat="46.06874222692511" lon="12.744832812935503"><ele>153.8</ele><time>2026-05-01T08:15:44.999Z</time></trkpt><trkpt lat="46.068647830780925" lon="12.74480734506753"><ele>153.4</ele><time>2026-05-01T08:15:45.999Z</time></trkpt><trkpt lat="46.06855649274194" lon="12.744780417406444"><ele>153.0</ele><time>2026-05-01T08:15:46.999Z</time></trkpt><trkpt lat="46.068470161565244" lon="12.74475713369937"><ele>153.0</ele><time>2026-05-01T08:15:47.999Z</time></trkpt><trkpt lat="46.068395499245526" lon="12.744740073326554"><ele>153.0</ele><time>2026-05-01T08:15:48.999Z</time></trkpt><trkpt lat="46.06831379019529" lon="12.744713076012244"><ele>153.0</ele><time>2026-05-01T08:15:49.999Z</time></trkpt><trkpt lat="46.06823354410705" lon="12.744675266194543"><ele>153.0</ele><time>2026-05-01T08:15:50.999Z</time></trkpt><trkpt lat="46.06815661290376" lon="12.744634370433033"><ele>153.0</ele><time>2026-05-01T08:15:51.999Z</time></trkpt><trkpt lat="46.068064409006226" lon="12.744585986495302"><ele>153.0</ele><time>2026-05-01T08:15:52.999Z</time></trkpt><trkpt lat="46.06797340708551" lon="12.744546513316411"><ele>153.0</ele><time>2026-05-01T08:15:53.999Z</time></trkpt><trkpt lat="46.067890359506386" lon="12.744507980926926"><ele>153.0</ele><time>2026-05-01T08:15:54.999Z</time></trkpt><trkpt lat="46.067808431867185" lon="12.744469238987179"><ele>153.0</ele><time>2026-05-01T08:15:55.999Z</time></trkpt><trkpt lat="46.06771699349504" lon="12.744429402501444"><ele>153.0</ele><time>2026-05-01T08:15:56.999Z</time></trkpt><trkpt lat="46.067634483070584" lon="12.744397787415238"><ele>153.0</ele><time>2026-05-01T08:15:57.999Z</time></trkpt><trkpt lat="46.067561627596525" lon="12.744370344808972"><ele>153.0</ele><time>2026-05-01T08:15:58.999Z</time></trkpt><trkpt lat="46.06748711543664" lon="12.744347765040372"><ele>152.6</ele><time>2026-05-01T08:15:59.999Z</time></trkpt><trkpt lat="46.067412531128234" lon="12.744325408457383"><ele>152.20000000000002</ele><time>2026-05-01T08:16:00.999Z</time></trkpt><trkpt lat="46.0673421180861" lon="12.744306654352634"><ele>151.8</ele><time>2026-05-01T08:16:01.999Z</time></trkpt><trkpt lat="46.067231447729064" lon="12.744283333996679"><ele>151.4</ele><time>2026-05-01T08:16:03.999Z</time></trkpt><trkpt lat="46.067133805411586" lon="12.744241622019624"><ele>151.0</ele><time>2026-05-01T08:16:05.999Z</time></trkpt><trkpt lat="46.06706667375032" lon="12.744148993336102"><ele>151.00000000000003</ele><time>2026-05-01T08:16:07.999Z</time></trkpt><trkpt lat="46.06704049346109" lon="12.744034247391737"><ele>151.0</ele><time>2026-05-01T08:16:09.999Z</time></trkpt><trkpt lat="46.06706513157479" lon="12.743936952291937"><ele>151.0</ele><time>2026-05-01T08:16:11.999Z</time></trkpt><trkpt lat="46.0671316156388" lon="12.743851822199309"><ele>151.0</ele><time>2026-05-01T08:16:13.999Z</time></trkpt><trkpt lat="46.06718652192966" lon="12.7438061064795"><ele>151.0</ele><time>2026-05-01T08:16:14.999Z</time></trkpt><trkpt lat="46.067247890630426" lon="12.743760706891626"><ele>151.00000000000003</ele><time>2026-05-01T08:16:15.999Z</time></trkpt><trkpt lat="46.06731360692934" lon="12.743724085343944"><ele>151.0</ele><time>2026-05-01T08:16:16.999Z</time></trkpt><trkpt lat="46.06738782783099" lon="12.743684700065772"><ele>151.2</ele><time>2026-05-01T08:16:17.999Z</time></trkpt><trkpt lat="46.06747271603249" lon="12.743638533054018"><ele>151.39999999999998</ele><time>2026-05-01T08:16:18.999Z</time></trkpt><trkpt lat="46.06758208842483" lon="12.743579033257356"><ele>151.6</ele><time>2026-05-01T08:16:19.999Z</time></trkpt><trkpt lat="46.06768784047423" lon="12.743521706754107"><ele>151.79999999999998</ele><time>2026-05-01T08:16:20.999Z</time></trkpt><trkpt lat="46.06776865894369" lon="12.743467103421752"><ele>152.0</ele><time>2026-05-01T08:16:21.999Z</time></trkpt><trkpt lat="46.067857669060395" lon="12.743406448183901"><ele>152.0</ele><time>2026-05-01T08:16:22.999Z</time></trkpt><trkpt lat="46.06794233844092" lon="12.743353757171727"><ele>152.0</ele><time>2026-05-01T08:16:23.999Z</time></trkpt><trkpt lat="46.06803922550016" lon="12.74329737315581"><ele>152.0</ele><time>2026-05-01T08:16:24.999Z</time></trkpt><trkpt lat="46.06812570587441" lon="12.743242989971714"><ele>152.0</ele><time>2026-05-01T08:16:25.999Z</time></trkpt><trkpt lat="46.06820553780153" lon="12.743189073255541"><ele>152.0</ele><time>2026-05-01T08:16:26.999Z</time></trkpt><trkpt lat="46.06828395137076" lon="12.743142255099695"><ele>152.2</ele><time>2026-05-01T08:16:27.999Z</time></trkpt><trkpt lat="46.068360386295595" lon="12.743099020256556"><ele>152.39999999999998</ele><time>2026-05-01T08:16:28.999Z</time></trkpt><trkpt lat="46.06843620548394" lon="12.743059441481492"><ele>152.60000000000002</ele><time>2026-05-01T08:16:29.999Z</time></trkpt><trkpt lat="46.068520036987884" lon="12.743006565172148"><ele>152.8</ele><time>2026-05-01T08:16:30.999Z</time></trkpt><trkpt lat="46.06861324443163" lon="12.74294824096514"><ele>153.0</ele><time>2026-05-01T08:16:31.999Z</time></trkpt><trkpt lat="46.06870878229481" lon="12.742879704202762"><ele>153.0</ele><time>2026-05-01T08:16:32.999Z</time></trkpt><trkpt lat="46.06880185273363" lon="12.742813203462227"><ele>153.0</ele><time>2026-05-01T08:16:33.999Z</time></trkpt><trkpt lat="46.06888707182518" lon="12.742751039197136"><ele>153.0</ele><time>2026-05-01T08:16:34.999Z</time></trkpt><trkpt lat="46.06897662354501" lon="12.742678517328763"><ele>153.0</ele><time>2026-05-01T08:16:35.999Z</time></trkpt><trkpt lat="46.06907333436169" lon="12.742594839175796"><ele>153.0</ele><time>2026-05-01T08:16:36.999Z</time></trkpt><trkpt lat="46.069156987721904" lon="12.742525989777086"><ele>153.4</ele><time>2026-05-01T08:16:37.999Z</time></trkpt><trkpt lat="46.069238366618826" lon="12.742464840214629"><ele>153.8</ele><time>2026-05-01T08:16:38.999Z</time></trkpt><trkpt lat="46.069323855319226" lon="12.742401005539774"><ele>154.2</ele><time>2026-05-01T08:16:39.999Z</time></trkpt><trkpt lat="46.069411948782076" lon="12.742337895588927"><ele>154.6</ele><time>2026-05-01T08:16:40.999Z</time></trkpt><trkpt lat="46.069503143302946" lon="12.742281904829554"><ele>155.0</ele><time>2026-05-01T08:16:41.999Z</time></trkpt><trkpt lat="46.069603875269415" lon="12.742220157692804"><ele>155.0</ele><time>2026-05-01T08:16:42.999Z</time></trkpt><trkpt lat="46.06969241862538" lon="12.742166820465998"><ele>155.0</ele><time>2026-05-01T08:16:43.999Z</time></trkpt><trkpt lat="46.06978264348543" lon="12.742120966270841"><ele>155.0</ele><time>2026-05-01T08:16:44.999Z</time></trkpt><trkpt lat="46.06986947997942" lon="12.742076903711574"><ele>155.0</ele><time>2026-05-01T08:16:45.999Z</time></trkpt><trkpt lat="46.06995399010107" lon="12.742039028505094"><ele>155.0</ele><time>2026-05-01T08:16:46.999Z</time></trkpt><trkpt lat="46.070035924405516" lon="12.741999153283754"><ele>155.2</ele><time>2026-05-01T08:16:47.999Z</time></trkpt><trkpt lat="46.07011684646906" lon="12.741951782523548"><ele>155.4</ele><time>2026-05-01T08:16:48.999Z</time></trkpt><trkpt lat="46.070208454348716" lon="12.7418945738492"><ele>155.6</ele><time>2026-05-01T08:16:49.999Z</time></trkpt><trkpt lat="46.07030871065269" lon="12.74181741645826"><ele>155.8</ele><time>2026-05-01T08:16:50.999Z</time></trkpt><trkpt lat="46.07040737004202" lon="12.74174711553851"><ele>156.0</ele><time>2026-05-01T08:16:51.999Z</time></trkpt><trkpt lat="46.07049516793651" lon="12.74168664731947"><ele>156.0</ele><time>2026-05-01T08:16:52.999Z</time></trkpt><trkpt lat="46.07058132673512" lon="12.74162608572551"><ele>156.0</ele><time>2026-05-01T08:16:53.999Z</time></trkpt><trkpt lat="46.070682402778566" lon="12.741562513290923"><ele>156.0</ele><time>2026-05-01T08:16:54.999Z</time></trkpt><trkpt lat="46.07079058489851" lon="12.74149277234814"><ele>156.0</ele><time>2026-05-01T08:16:55.999Z</time></trkpt><trkpt lat="46.070878178846286" lon="12.741432221991321"><ele>156.0</ele><time>2026-05-01T08:16:56.999Z</time></trkpt><trkpt lat="46.07094916225244" lon="12.74138052995926"><ele>156.4</ele><time>2026-05-01T08:16:57.999Z</time></trkpt><trkpt lat="46.07102524705798" lon="12.74132722317981"><ele>156.8</ele><time>2026-05-01T08:16:58.999Z</time></trkpt><trkpt lat="46.07111857257975" lon="12.741266197769589"><ele>157.20000000000002</ele><time>2026-05-01T08:16:59.999Z</time></trkpt><trkpt lat="46.071207107571965" lon="12.74120672715626"><ele>157.6</ele><time>2026-05-01T08:17:01Z</time></trkpt><trkpt lat="46.07129712060364" lon="12.741143379206727"><ele>158.0</ele><time>2026-05-01T08:17:02Z</time></trkpt><trkpt lat="46.07138001218763" lon="12.741079114519453"><ele>157.8</ele><time>2026-05-01T08:17:03Z</time></trkpt><trkpt lat="46.07146429714625" lon="12.741020194017823"><ele>157.60000000000002</ele><time>2026-05-01T08:17:04Z</time></trkpt><trkpt lat="46.07154427260655" lon="12.740970479583728"><ele>157.39999999999998</ele><time>2026-05-01T08:17:05Z</time></trkpt><trkpt lat="46.07162671385303" lon="12.74091084350174"><ele>157.2</ele><time>2026-05-01T08:17:06Z</time></trkpt><trkpt lat="46.071716133346996" lon="12.74084734139452"><ele>157.0</ele><time>2026-05-01T08:17:07Z</time></trkpt><trkpt lat="46.07181493808739" lon="12.740785632846466"><ele>157.6</ele><time>2026-05-01T08:17:08Z</time></trkpt><trkpt lat="46.07190794850297" lon="12.7407297574764"><ele>158.2</ele><time>2026-05-01T08:17:09Z</time></trkpt><trkpt lat="46.071995662401356" lon="12.740680664046796"><ele>158.8</ele><time>2026-05-01T08:17:10Z</time></trkpt><trkpt lat="46.072083734648004" lon="12.740630704950117"><ele>159.4</ele><time>2026-05-01T08:17:11Z</time></trkpt><trkpt lat="46.0721658704296" lon="12.740583256291753"><ele>160.0</ele><time>2026-05-01T08:17:12Z</time></trkpt><trkpt lat="46.07223979182541" lon="12.74053546581839"><ele>160.0</ele><time>2026-05-01T08:17:13Z</time></trkpt><trkpt lat="46.07230463164645" lon="12.740488017404685"><ele>160.0</ele><time>2026-05-01T08:17:14Z</time></trkpt><trkpt lat="46.072378832935144" lon="12.740420017753824"><ele>160.0</ele><time>2026-05-01T08:17:15Z</time></trkpt><trkpt lat="46.07245526887358" lon="12.740346033943869"><ele>160.0</ele><time>2026-05-01T08:17:16Z</time></trkpt><trkpt lat="46.07253941132468" lon="12.740272367222767"><ele>160.0</ele><time>2026-05-01T08:17:17Z</time></trkpt><trkpt lat="46.07261761498316" lon="12.740209318840526"><ele>160.0</ele><time>2026-05-01T08:17:18Z</time></trkpt><trkpt lat="46.07269386907387" lon="12.740149123166223"><ele>159.66666666666669</ele><time>2026-05-01T08:17:19Z</time></trkpt><trkpt lat="46.0727718775246" lon="12.740093471450368"><ele>159.33333333333334</ele><time>2026-05-01T08:17:20Z</time></trkpt><trkpt lat="46.07285136463595" lon="12.74003864961697"><ele>159.0</ele><time>2026-05-01T08:17:21Z</time></trkpt><trkpt lat="46.072934797462835" lon="12.739977822653103"><ele>158.66666666666666</ele><time>2026-05-01T08:17:22Z</time></trkpt><trkpt lat="46.073006588646685" lon="12.739924576612097"><ele>158.33333333333331</ele><time>2026-05-01T08:17:23Z</time></trkpt><trkpt lat="46.073064414593375" lon="12.739883174594613"><ele>158.0</ele><time>2026-05-01T08:17:24Z</time></trkpt><trkpt lat="46.073185584147154" lon="12.739795613204008"><ele>158.00000000000003</ele><time>2026-05-01T08:17:26Z</time></trkpt><trkpt lat="46.073256919151845" lon="12.739745748076254"><ele>158.0</ele><time>2026-05-01T08:17:27Z</time></trkpt><trkpt lat="46.07332493969053" lon="12.739700888724837"><ele>158.0</ele><time>2026-05-01T08:17:28Z</time></trkpt><trkpt lat="46.073385083762524" lon="12.739657139950593"><ele>158.0</ele><time>2026-05-01T08:17:29Z</time></trkpt><trkpt lat="46.07344103635268" lon="12.739614316408412"><ele>158.0</ele><time>2026-05-01T08:17:30Z</time></trkpt><trkpt lat="46.07349885098966" lon="12.73956935210961"><ele>158.00000000000003</ele><time>2026-05-01T08:17:31Z</time></trkpt><trkpt lat="46.073557524893204" lon="12.73952413531465"><ele>158.0</ele><time>2026-05-01T08:17:32Z</time></trkpt><trkpt lat="46.07362248088616" lon="12.739470923429796"><ele>158.8</ele><time>2026-05-01T08:17:33Z</time></trkpt><trkpt lat="46.07367477123861" lon="12.739418538839034"><ele>159.60000000000002</ele><time>2026-05-01T08:17:34Z</time></trkpt><trkpt lat="46.07377837640763" lon="12.739338248002012"><ele>160.39999999999998</ele><time>2026-05-01T08:17:36Z</time></trkpt><trkpt lat="46.07388248682993" lon="12.739259831328285"><ele>161.2</ele><time>2026-05-01T08:17:38Z</time></trkpt><trkpt lat="46.073939904376566" lon="12.739218166303358"><ele>162.0</ele><time>2026-05-01T08:17:39Z</time></trkpt><trkpt lat="46.07405462768687" lon="12.739128704721987"><ele>161.85714285714286</ele><time>2026-05-01T08:17:41Z</time></trkpt><trkpt lat="46.074112070822636" lon="12.73909154410724"><ele>161.71428571428572</ele><time>2026-05-01T08:17:42Z</time></trkpt><trkpt lat="46.07417380442517" lon="12.739050726390383"><ele>161.57142857142856</ele><time>2026-05-01T08:17:43Z</time></trkpt><trkpt lat="46.07423330391464" lon="12.739010442447082"><ele>161.42857142857144</ele><time>2026-05-01T08:17:44Z</time></trkpt><trkpt lat="46.07429075343139" lon="12.738965711383841"><ele>161.28571428571428</ele><time>2026-05-01T08:17:45Z</time></trkpt><trkpt lat="46.07434979664846" lon="12.738920917309574"><ele>161.14285714285714</ele><time>2026-05-01T08:17:46Z</time></trkpt><trkpt lat="46.07441158370098" lon="12.738880517819862"><ele>161.0</ele><time>2026-05-01T08:17:47Z</time></trkpt><trkpt lat="46.074476962056345" lon="12.738841523541412"><ele>161.0</ele><time>2026-05-01T08:17:48Z</time></trkpt><trkpt lat="46.07454283647028" lon="12.738805604071592"><ele>161.0</ele><time>2026-05-01T08:17:49Z</time></trkpt><trkpt lat="46.074607763939504" lon="12.738766847149252"><ele>161.0</ele><time>2026-05-01T08:17:50Z</time></trkpt><trkpt lat="46.074669792172614" lon="12.738731837922428"><ele>161.0</ele><time>2026-05-01T08:17:51Z</time></trkpt><trkpt lat="46.074730542611015" lon="12.738693292464182"><ele>161.0</ele><time>2026-05-01T08:17:52Z</time></trkpt><trkpt lat="46.07479506340744" lon="12.738650457320226"><ele>161.0</ele><time>2026-05-01T08:17:53Z</time></trkpt><trkpt lat="46.07486580174017" lon="12.738605452359106"><ele>161.0</ele><time>2026-05-01T08:17:54Z</time></trkpt><trkpt lat="46.07493695588147" lon="12.738560630071328"><ele>161.8</ele><time>2026-05-01T08:17:55Z</time></trkpt><trkpt lat="46.07501411743843" lon="12.738508538297303"><ele>162.60000000000002</ele><time>2026-05-01T08:17:56Z</time></trkpt><trkpt lat="46.075091664652035" lon="12.738456868559814"><ele>163.4</ele><time>2026-05-01T08:17:57Z</time></trkpt><trkpt lat="46.07515272450383" lon="12.73841096042912"><ele>164.2</ele><time>2026-05-01T08:17:57.999Z</time></trkpt><trkpt lat="46.07522388655767" lon="12.738358795728345"><ele>165.0</ele><time>2026-05-01T08:17:58.999Z</time></trkpt><trkpt lat="46.0753425889873" lon="12.7382501871904"><ele>165.0</ele><time>2026-05-01T08:18:00.999Z</time></trkpt><trkpt lat="46.07541017487091" lon="12.738194782266106"><ele>165.0</ele><time>2026-05-01T08:18:01.999Z</time></trkpt><trkpt lat="46.07548001117264" lon="12.73813729253908"><ele>165.0</ele><time>2026-05-01T08:18:02.999Z</time></trkpt><trkpt lat="46.07555095434601" lon="12.738078358978504"><ele>165.0</ele><time>2026-05-01T08:18:03.999Z</time></trkpt><trkpt lat="46.075616777410865" lon="12.738025095237594"><ele>165.0</ele><time>2026-05-01T08:18:04.999Z</time></trkpt><trkpt lat="46.075682716893915" lon="12.737974532062603"><ele>165.0</ele><time>2026-05-01T08:18:05.999Z</time></trkpt><trkpt lat="46.075776756462794" lon="12.737877832555611"><ele>165.0</ele><time>2026-05-01T08:18:07.999Z</time></trkpt><trkpt lat="46.07589170289271" lon="12.737795263713187"><ele>165.0</ele><time>2026-05-01T08:18:09.999Z</time></trkpt><trkpt lat="46.07596688939354" lon="12.737741753964798"><ele>165.0</ele><time>2026-05-01T08:18:10.999Z</time></trkpt><trkpt lat="46.07605086756587" lon="12.7376803860112"><ele>165.0</ele><time>2026-05-01T08:18:11.999Z</time></trkpt><trkpt lat="46.076122478346775" lon="12.737625383206023"><ele>165.0</ele><time>2026-05-01T08:18:12.999Z</time></trkpt><trkpt lat="46.07619691947239" lon="12.737572023802075"><ele>165.0</ele><time>2026-05-01T08:18:13.999Z</time></trkpt><trkpt lat="46.07627495076408" lon="12.737513305414168"><ele>165.0</ele><time>2026-05-01T08:18:14.999Z</time></trkpt><trkpt lat="46.07634676066896" lon="12.737454147188943"><ele>165.0</ele><time>2026-05-01T08:18:15.999Z</time></trkpt><trkpt lat="46.076429740618416" lon="12.737383422770398"><ele>165.0</ele><time>2026-05-01T08:18:16.999Z</time></trkpt><trkpt lat="46.07650929146643" lon="12.737315941117789"><ele>165.0</ele><time>2026-05-01T08:18:17.999Z</time></trkpt><trkpt lat="46.0765778856433" lon="12.73726152655445"><ele>165.0</ele><time>2026-05-01T08:18:18.999Z</time></trkpt><trkpt lat="46.07664018422312" lon="12.73720892527007"><ele>165.16666666666666</ele><time>2026-05-01T08:18:19.999Z</time></trkpt><trkpt lat="46.07670703659007" lon="12.73715100211748"><ele>165.33333333333334</ele><time>2026-05-01T08:18:20.999Z</time></trkpt><trkpt lat="46.07676894942035" lon="12.737095378048915"><ele>165.5</ele><time>2026-05-01T08:18:21.999Z</time></trkpt><trkpt lat="46.07686669101552" lon="12.73700802682638"><ele>165.66666666666669</ele><time>2026-05-01T08:18:23.999Z</time></trkpt><trkpt lat="46.07694152010668" lon="12.736949211650895"><ele>165.83333333333334</ele><time>2026-05-01T08:18:24.999Z</time></trkpt><trkpt lat="46.077026640691514" lon="12.736881544708048"><ele>166.0</ele><time>2026-05-01T08:18:25.999Z</time></trkpt><trkpt lat="46.07710392071941" lon="12.736820664395234"><ele>166.33333333333334</ele><time>2026-05-01T08:18:26.999Z</time></trkpt><trkpt lat="46.07717619781244" lon="12.736760832122334"><ele>166.66666666666669</ele><time>2026-05-01T08:18:27.999Z</time></trkpt><trkpt lat="46.07726092824398" lon="12.736695992446908"><ele>167.0</ele><time>2026-05-01T08:18:28.999Z</time></trkpt><trkpt lat="46.07735073230403" lon="12.736633467334"><ele>167.33333333333334</ele><time>2026-05-01T08:18:29.999Z</time></trkpt><trkpt lat="46.077426083481434" lon="12.736572191247042"><ele>167.66666666666666</ele><time>2026-05-01T08:18:30.999Z</time></trkpt><trkpt lat="46.077495398928754" lon="12.736508953326029"><ele>168.0</ele><time>2026-05-01T08:18:31.999Z</time></trkpt><trkpt lat="46.07756534150868" lon="12.736440052672846"><ele>168.0</ele><time>2026-05-01T08:18:32.999Z</time></trkpt><trkpt lat="46.077629347118176" lon="12.736381697985768"><ele>168.0</ele><time>2026-05-01T08:18:33.999Z</time></trkpt><trkpt lat="46.07768839282237" lon="12.73630988518117"><ele>168.0</ele><time>2026-05-01T08:18:34.999Z</time></trkpt><trkpt lat="46.07775146450623" lon="12.736228360880101"><ele>168.0</ele><time>2026-05-01T08:18:35.999Z</time></trkpt><trkpt lat="46.077818246100385" lon="12.736147233320578"><ele>168.0</ele><time>2026-05-01T08:18:36.999Z</time></trkpt><trkpt lat="46.07788540458322" lon="12.736066200403119"><ele>168.0</ele><time>2026-05-01T08:18:37.999Z</time></trkpt><trkpt lat="46.07796063037372" lon="12.7359872508746"><ele>168.2</ele><time>2026-05-01T08:18:38.999Z</time></trkpt><trkpt lat="46.07803960915848" lon="12.735910047623053"><ele>168.4</ele><time>2026-05-01T08:18:39.999Z</time></trkpt><trkpt lat="46.07812530781379" lon="12.735823779800848"><ele>168.6</ele><time>2026-05-01T08:18:40.999Z</time></trkpt><trkpt lat="46.07820933568624" lon="12.735747701121154"><ele>168.79999999999998</ele><time>2026-05-01T08:18:41.999Z</time></trkpt><trkpt lat="46.07829616607624" lon="12.735669130368406"><ele>169.0</ele><time>2026-05-01T08:18:42.999Z</time></trkpt><trkpt lat="46.078374203659884" lon="12.735601748564475"><ele>169.0</ele><time>2026-05-01T08:18:43.999Z</time></trkpt><trkpt lat="46.078462895770464" lon="12.735528697807782"><ele>169.0</ele><time>2026-05-01T08:18:44.999Z</time></trkpt><trkpt lat="46.078553204620704" lon="12.735462085481279"><ele>169.0</ele><time>2026-05-01T08:18:45.999Z</time></trkpt><trkpt lat="46.078635581734375" lon="12.735401579496749"><ele>169.0</ele><time>2026-05-01T08:18:46.999Z</time></trkpt><trkpt lat="46.078713267799984" lon="12.735347617436707"><ele>169.0</ele><time>2026-05-01T08:18:47.999Z</time></trkpt><trkpt lat="46.07879105115511" lon="12.735294221540789"><ele>169.0</ele><time>2026-05-01T08:18:48.999Z</time></trkpt><trkpt lat="46.07887059221189" lon="12.735237332558638"><ele>169.0</ele><time>2026-05-01T08:18:49.999Z</time></trkpt><trkpt lat="46.07894069665887" lon="12.73518196023797"><ele>169.0</ele><time>2026-05-01T08:18:50.999Z</time></trkpt><trkpt lat="46.079017747683345" lon="12.735124211825676"><ele>169.0</ele><time>2026-05-01T08:18:51.999Z</time></trkpt><trkpt lat="46.07910590118222" lon="12.735056957217898"><ele>169.0</ele><time>2026-05-01T08:18:52.999Z</time></trkpt><trkpt lat="46.07919283307982" lon="12.734987662056076"><ele>169.16666666666669</ele><time>2026-05-01T08:18:53.999Z</time></trkpt><trkpt lat="46.07926582011493" lon="12.734929258751992"><ele>169.33333333333334</ele><time>2026-05-01T08:18:54.999Z</time></trkpt><trkpt lat="46.079327705181676" lon="12.734878993522306"><ele>169.5</ele><time>2026-05-01T08:18:55.999Z</time></trkpt><trkpt lat="46.07939518563492" lon="12.734827090638635"><ele>169.66666666666666</ele><time>2026-05-01T08:18:56.999Z</time></trkpt><trkpt lat="46.07946151475302" lon="12.734774410515794"><ele>169.83333333333331</ele><time>2026-05-01T08:18:57.999Z</time></trkpt><trkpt lat="46.07953446890447" lon="12.734710926154559"><ele>170.0</ele><time>2026-05-01T08:18:58.999Z</time></trkpt><trkpt lat="46.07961068383104" lon="12.7346434067582"><ele>170.0</ele><time>2026-05-01T08:18:59.999Z</time></trkpt><trkpt lat="46.079682377836505" lon="12.734575168498552"><ele>170.0</ele><time>2026-05-01T08:19:00.999Z</time></trkpt><trkpt lat="46.079754646952296" lon="12.734507836532885"><ele>170.0</ele><time>2026-05-01T08:19:01.999Z</time></trkpt><trkpt lat="46.07983053703842" lon="12.734435500743524"><ele>170.0</ele><time>2026-05-01T08:19:02.999Z</time></trkpt><trkpt lat="46.07990159323073" lon="12.734360417838458"><ele>170.0</ele><time>2026-05-01T08:19:03.999Z</time></trkpt><trkpt lat="46.07996769373999" lon="12.734284965935043"><ele>170.0</ele><time>2026-05-01T08:19:04.999Z</time></trkpt><trkpt lat="46.080043750134486" lon="12.734198119834543"><ele>170.4</ele><time>2026-05-01T08:19:05.999Z</time></trkpt><trkpt lat="46.080129897452956" lon="12.734106298499471"><ele>170.8</ele><time>2026-05-01T08:19:07Z</time></trkpt><trkpt lat="46.08020807763756" lon="12.734018760910331"><ele>171.2</ele><time>2026-05-01T08:19:08Z</time></trkpt><trkpt lat="46.08027304496405" lon="12.733942068560282"><ele>171.6</ele><time>2026-05-01T08:19:09Z</time></trkpt><trkpt lat="46.08033829933455" lon="12.733857131307158"><ele>172.0</ele><time>2026-05-01T08:19:10Z</time></trkpt><trkpt lat="46.08040384129681" lon="12.733763993004157"><ele>172.0</ele><time>2026-05-01T08:19:11Z</time></trkpt><trkpt lat="46.08047906180851" lon="12.733657331098826"><ele>172.0</ele><time>2026-05-01T08:19:12Z</time></trkpt><trkpt lat="46.0805558596136" lon="12.733547871259338"><ele>172.0</ele><time>2026-05-01T08:19:13Z</time></trkpt><trkpt lat="46.0806229233058" lon="12.733443906864496"><ele>172.0</ele><time>2026-05-01T08:19:14Z</time></trkpt><trkpt lat="46.08068211816448" lon="12.733353965751979"><ele>172.0</ele><time>2026-05-01T08:19:15Z</time></trkpt><trkpt lat="46.080746143755974" lon="12.733256937660585"><ele>172.0</ele><time>2026-05-01T08:19:16Z</time></trkpt><trkpt lat="46.08080599193472" lon="12.733163438257911"><ele>172.0</ele><time>2026-05-01T08:19:17Z</time></trkpt><trkpt lat="46.08086641431325" lon="12.733070958826893"><ele>172.0</ele><time>2026-05-01T08:19:18Z</time></trkpt><trkpt lat="46.08093081587413" lon="12.732979244653947"><ele>172.0</ele><time>2026-05-01T08:19:19Z</time></trkpt><trkpt lat="46.08098508528878" lon="12.732896817742231"><ele>172.0</ele><time>2026-05-01T08:19:20Z</time></trkpt><trkpt lat="46.08103621326487" lon="12.732823014193679"><ele>172.0</ele><time>2026-05-01T08:19:21Z</time></trkpt><trkpt lat="46.0811038118152" lon="12.732727495283196"><ele>172.16666666666669</ele><time>2026-05-01T08:19:22Z</time></trkpt><trkpt lat="46.081174721322945" lon="12.732631049138517"><ele>172.33333333333334</ele><time>2026-05-01T08:19:23Z</time></trkpt><trkpt lat="46.08124097857178" lon="12.732550037950208"><ele>172.5</ele><time>2026-05-01T08:19:24Z</time></trkpt><trkpt lat="46.081307232001244" lon="12.732469202711087"><ele>172.66666666666666</ele><time>2026-05-01T08:19:25Z</time></trkpt><trkpt lat="46.081363645914706" lon="12.732402133671178"><ele>172.83333333333331</ele><time>2026-05-01T08:19:26Z</time></trkpt><trkpt lat="46.081425384514596" lon="12.732327519392294"><ele>173.0</ele><time>2026-05-01T08:19:27Z</time></trkpt><trkpt lat="46.08149231756909" lon="12.732255312884941"><ele>173.0</ele><time>2026-05-01T08:19:28Z</time></trkpt><trkpt lat="46.08155849857957" lon="12.732192408375147"><ele>173.0</ele><time>2026-05-01T08:19:29Z</time></trkpt><trkpt lat="46.08162512378082" lon="12.732129766398353"><ele>173.0</ele><time>2026-05-01T08:19:30Z</time></trkpt><trkpt lat="46.08169231388921" lon="12.73208126430966"><ele>173.0</ele><time>2026-05-01T08:19:31Z</time></trkpt><trkpt lat="46.08176812587462" lon="12.732027069742049"><ele>173.0</ele><time>2026-05-01T08:19:32Z</time></trkpt><trkpt lat="46.08184725956616" lon="12.731969721008403"><ele>173.0</ele><time>2026-05-01T08:19:33Z</time></trkpt><trkpt lat="46.08192759954407" lon="12.731923647031543"><ele>173.16666666666666</ele><time>2026-05-01T08:19:34Z</time></trkpt><trkpt lat="46.08200979570233" lon="12.731874947806393"><ele>173.33333333333331</ele><time>2026-05-01T08:19:35Z</time></trkpt><trkpt lat="46.08209080407273" lon="12.731830542157795"><ele>173.5</ele><time>2026-05-01T08:19:36Z</time></trkpt><trkpt lat="46.08216920094559" lon="12.731783025984763"><ele>173.66666666666666</ele><time>2026-05-01T08:19:37Z</time></trkpt><trkpt lat="46.08224970235944" lon="12.731739413457717"><ele>173.83333333333334</ele><time>2026-05-01T08:19:38Z</time></trkpt><trkpt lat="46.08232764359931" lon="12.731694498524202"><ele>174.0</ele><time>2026-05-01T08:19:39Z</time></trkpt><trkpt lat="46.08239468256864" lon="12.731659155404182"><ele>174.2</ele><time>2026-05-01T08:19:40Z</time></trkpt><trkpt lat="46.08250003248956" lon="12.731598083569247"><ele>174.39999999999998</ele><time>2026-05-01T08:19:42Z</time></trkpt><trkpt lat="46.0826123399196" lon="12.731538845756985"><ele>174.6</ele><time>2026-05-01T08:19:44Z</time></trkpt><trkpt lat="46.08268105010044" lon="12.731499960786874"><ele>174.8</ele><time>2026-05-01T08:19:45Z</time></trkpt><trkpt lat="46.082752917152945" lon="12.73145536235516"><ele>175.0</ele><time>2026-05-01T08:19:46Z</time></trkpt><trkpt lat="46.08283189289244" lon="12.731406874739008"><ele>175.0</ele><time>2026-05-01T08:19:47Z</time></trkpt><trkpt lat="46.08292360750791" lon="12.731340254322774"><ele>175.0</ele><time>2026-05-01T08:19:48Z</time></trkpt><trkpt lat="46.08301537504401" lon="12.731271100041887"><ele>175.0</ele><time>2026-05-01T08:19:49Z</time></trkpt><trkpt lat="46.08311094261636" lon="12.73118864724632"><ele>175.0</ele><time>2026-05-01T08:19:50Z</time></trkpt><trkpt lat="46.083193061478234" lon="12.731117472830535"><ele>175.0</ele><time>2026-05-01T08:19:51Z</time></trkpt><trkpt lat="46.08326346305528" lon="12.731055510556276"><ele>175.0</ele><time>2026-05-01T08:19:52Z</time></trkpt><trkpt lat="46.08334053888382" lon="12.730983052335931"><ele>175.0</ele><time>2026-05-01T08:19:53Z</time></trkpt><trkpt lat="46.08342919136129" lon="12.730896340340077"><ele>175.0</ele><time>2026-05-01T08:19:54Z</time></trkpt><trkpt lat="46.08351325356695" lon="12.730815749583497"><ele>175.0</ele><time>2026-05-01T08:19:55Z</time></trkpt><trkpt lat="46.0835944468572" lon="12.730739878604181"><ele>175.0</ele><time>2026-05-01T08:19:56Z</time></trkpt><trkpt lat="46.08367668799717" lon="12.730662028215166"><ele>175.0</ele><time>2026-05-01T08:19:57Z</time></trkpt><trkpt lat="46.083760474505645" lon="12.7305804912778"><ele>175.0</ele><time>2026-05-01T08:19:58Z</time></trkpt><trkpt lat="46.083843899482076" lon="12.73049905860136"><ele>175.0</ele><time>2026-05-01T08:19:59Z</time></trkpt><trkpt lat="46.083929468667996" lon="12.730422499529004"><ele>175.0</ele><time>2026-05-01T08:20:00Z</time></trkpt><trkpt lat="46.0840092403679" lon="12.730349784978316"><ele>175.0</ele><time>2026-05-01T08:20:01Z</time></trkpt><trkpt lat="46.08407580174658" lon="12.730289153571603"><ele>175.2</ele><time>2026-05-01T08:20:02Z</time></trkpt><trkpt lat="46.08415648428677" lon="12.730220817792462"><ele>175.4</ele><time>2026-05-01T08:20:03Z</time></trkpt><trkpt lat="46.08425397435194" lon="12.730146872535055"><ele>175.60000000000002</ele><time>2026-05-01T08:20:03.999Z</time></trkpt><trkpt lat="46.08434559755195" lon="12.730074945736948"><ele>175.8</ele><time>2026-05-01T08:20:04.999Z</time></trkpt><trkpt lat="46.084427456021125" lon="12.730011342359136"><ele>176.0</ele><time>2026-05-01T08:20:05.999Z</time></trkpt><trkpt lat="46.084516251058496" lon="12.729946193885562"><ele>176.0</ele><time>2026-05-01T08:20:06.999Z</time></trkpt><trkpt lat="46.0846001710858" lon="12.729884495160968"><ele>176.0</ele><time>2026-05-01T08:20:07.999Z</time></trkpt><trkpt lat="46.08469126145575" lon="12.72982117959797"><ele>176.0</ele><time>2026-05-01T08:20:08.999Z</time></trkpt><trkpt lat="46.08479083191912" lon="12.729752813629378"><ele>176.0</ele><time>2026-05-01T08:20:09.999Z</time></trkpt><trkpt lat="46.0848789952811" lon="12.729694970642337"><ele>176.0</ele><time>2026-05-01T08:20:10.999Z</time></trkpt><trkpt lat="46.08495136231519" lon="12.729649210748658"><ele>176.20000000000002</ele><time>2026-05-01T08:20:11.999Z</time></trkpt><trkpt lat="46.085028230658395" lon="12.729597230275083"><ele>176.4</ele><time>2026-05-01T08:20:12.999Z</time></trkpt><trkpt lat="46.08512095965185" lon="12.72953969273485"><ele>176.6</ele><time>2026-05-01T08:20:13.999Z</time></trkpt><trkpt lat="46.08520738756246" lon="12.729477429509712"><ele>176.8</ele><time>2026-05-01T08:20:14.999Z</time></trkpt><trkpt lat="46.085281274565645" lon="12.729435994778154"><ele>177.0</ele><time>2026-05-01T08:20:15.999Z</time></trkpt><trkpt lat="46.0853643770277" lon="12.729387170044431"><ele>177.39999999999998</ele><time>2026-05-01T08:20:16.999Z</time></trkpt><trkpt lat="46.08545334447041" lon="12.729333159776298"><ele>177.79999999999998</ele><time>2026-05-01T08:20:17.999Z</time></trkpt><trkpt lat="46.085545743650684" lon="12.729273561226089"><ele>178.2</ele><time>2026-05-01T08:20:18.999Z</time></trkpt><trkpt lat="46.08564188221689" lon="12.729220301690855"><ele>178.6</ele><time>2026-05-01T08:20:19.999Z</time></trkpt><trkpt lat="46.085731939695144" lon="12.729170906980606"><ele>179.0</ele><time>2026-05-01T08:20:20.999Z</time></trkpt><trkpt lat="46.085829105579464" lon="12.729121736131585"><ele>179.33333333333331</ele><time>2026-05-01T08:20:21.999Z</time></trkpt><trkpt lat="46.08591355034255" lon="12.729078419233536"><ele>179.66666666666666</ele><time>2026-05-01T08:20:22.999Z</time></trkpt><trkpt lat="46.08600094686624" lon="12.729036632121607"><ele>180.0</ele><time>2026-05-01T08:20:23.999Z</time></trkpt><trkpt lat="46.086074875230025" lon="12.729000689751835"><ele>180.33333333333334</ele><time>2026-05-01T08:20:24.999Z</time></trkpt><trkpt lat="46.08614839900396" lon="12.728963116646563"><ele>180.66666666666669</ele><time>2026-05-01T08:20:25.999Z</time></trkpt><trkpt lat="46.08621619905645" lon="12.728934882938397"><ele>181.0</ele><time>2026-05-01T08:20:26.999Z</time></trkpt><trkpt lat="46.08630647965379" lon="12.728889718671766"><ele>181.0</ele><time>2026-05-01T08:20:27.999Z</time></trkpt><trkpt lat="46.0864158028195" lon="12.72883787470404"><ele>181.0</ele><time>2026-05-01T08:20:28.999Z</time></trkpt><trkpt lat="46.086543633576845" lon="12.728785885775052"><ele>181.0</ele><time>2026-05-01T08:20:29.999Z</time></trkpt><trkpt lat="46.08664766234266" lon="12.728741267093973"><ele>181.0</ele><time>2026-05-01T08:20:30.999Z</time></trkpt><trkpt lat="46.086739527686525" lon="12.728696560823241"><ele>181.4</ele><time>2026-05-01T08:20:31.999Z</time></trkpt><trkpt lat="46.08682747283075" lon="12.728654873110237"><ele>181.8</ele><time>2026-05-01T08:20:32.999Z</time></trkpt><trkpt lat="46.08692173260552" lon="12.728610088276906"><ele>182.20000000000002</ele><time>2026-05-01T08:20:33.999Z</time></trkpt><trkpt lat="46.08701455563462" lon="12.728563984967895"><ele>182.60000000000002</ele><time>2026-05-01T08:20:34.999Z</time></trkpt><trkpt lat="46.0871132951989" lon="12.72851946837617"><ele>183.0</ele><time>2026-05-01T08:20:35.999Z</time></trkpt><trkpt lat="46.08721514124438" lon="12.728472852671857"><ele>182.8</ele><time>2026-05-01T08:20:36.999Z</time></trkpt><trkpt lat="46.08731723485474" lon="12.728428185646456"><ele>182.60000000000002</ele><time>2026-05-01T08:20:37.999Z</time></trkpt><trkpt lat="46.0874223229382" lon="12.728374654319802"><ele>182.39999999999998</ele><time>2026-05-01T08:20:38.999Z</time></trkpt><trkpt lat="46.08751945750888" lon="12.728326953309454"><ele>182.2</ele><time>2026-05-01T08:20:39.999Z</time></trkpt><trkpt lat="46.08761238905125" lon="12.72828085681717"><ele>182.0</ele><time>2026-05-01T08:20:40.999Z</time></trkpt><trkpt lat="46.08771047637566" lon="12.728227911576447"><ele>182.0</ele><time>2026-05-01T08:20:41.999Z</time></trkpt><trkpt lat="46.08781443820936" lon="12.728168010922289"><ele>182.0</ele><time>2026-05-01T08:20:42.999Z</time></trkpt><trkpt lat="46.08791816414103" lon="12.72810635258429"><ele>182.0</ele><time>2026-05-01T08:20:43.999Z</time></trkpt><trkpt lat="46.08801852605254" lon="12.728048160282423"><ele>182.0</ele><time>2026-05-01T08:20:44.999Z</time></trkpt><trkpt lat="46.08811630872372" lon="12.727993287596027"><ele>182.0</ele><time>2026-05-01T08:20:45.999Z</time></trkpt><trkpt lat="46.08821436327055" lon="12.72793633905336"><ele>182.2</ele><time>2026-05-01T08:20:46.999Z</time></trkpt><trkpt lat="46.08831451221382" lon="12.727877474941586"><ele>182.39999999999998</ele><time>2026-05-01T08:20:47.999Z</time></trkpt><trkpt lat="46.08841046290032" lon="12.727813412957747"><ele>182.60000000000002</ele><time>2026-05-01T08:20:48.999Z</time></trkpt><trkpt lat="46.088502794043556" lon="12.727743331294656"><ele>182.8</ele><time>2026-05-01T08:20:49.999Z</time></trkpt><trkpt lat="46.08859462743857" lon="12.727675592351698"><ele>183.0</ele><time>2026-05-01T08:20:50.999Z</time></trkpt><trkpt lat="46.088684417090676" lon="12.727606773397433"><ele>183.0</ele><time>2026-05-01T08:20:51.999Z</time></trkpt><trkpt lat="46.088773055439276" lon="12.727536499186758"><ele>183.0</ele><time>2026-05-01T08:20:52.999Z</time></trkpt><trkpt lat="46.08885327412739" lon="12.72747723126871"><ele>183.0</ele><time>2026-05-01T08:20:53.999Z</time></trkpt><trkpt lat="46.08892855960127" lon="12.727418650473822"><ele>183.0</ele><time>2026-05-01T08:20:54.999Z</time></trkpt><trkpt lat="46.089013099662324" lon="12.727356353187474"><ele>183.0</ele><time>2026-05-01T08:20:55.999Z</time></trkpt><trkpt lat="46.08909604275899" lon="12.727294833961865"><ele>183.60000000000002</ele><time>2026-05-01T08:20:56.999Z</time></trkpt><trkpt lat="46.089176342933726" lon="12.727238844832138"><ele>184.20000000000002</ele><time>2026-05-01T08:20:57.999Z</time></trkpt><trkpt lat="46.08925977456076" lon="12.727178998279046"><ele>184.8</ele><time>2026-05-01T08:20:58.999Z</time></trkpt><trkpt lat="46.089347532660376" lon="12.727113934020196"><ele>185.4</ele><time>2026-05-01T08:20:59.999Z</time></trkpt><trkpt lat="46.089437385848676" lon="12.727045401267809"><ele>186.0</ele><time>2026-05-01T08:21:00.999Z</time></trkpt><trkpt lat="46.089510561950284" lon="12.726987046962284"><ele>186.0</ele><time>2026-05-01T08:21:01.999Z</time></trkpt><trkpt lat="46.08957618840768" lon="12.726917806651283"><ele>186.0</ele><time>2026-05-01T08:21:02.999Z</time></trkpt><trkpt lat="46.08964159519579" lon="12.72683276460991"><ele>186.0</ele><time>2026-05-01T08:21:03.999Z</time></trkpt><trkpt lat="46.08972502171693" lon="12.726743739622808"><ele>186.0</ele><time>2026-05-01T08:21:04.999Z</time></trkpt><trkpt lat="46.089821490810465" lon="12.726659994646528"><ele>186.0</ele><time>2026-05-01T08:21:05.999Z</time></trkpt><trkpt lat="46.08991138128953" lon="12.72657656572567"><ele>186.8</ele><time>2026-05-01T08:21:06.999Z</time></trkpt><trkpt lat="46.090005643179765" lon="12.726499373171185"><ele>187.60000000000002</ele><time>2026-05-01T08:21:07.999Z</time></trkpt><trkpt lat="46.09011082129843" lon="12.726423049962394"><ele>188.4</ele><time>2026-05-01T08:21:08.999Z</time></trkpt><trkpt lat="46.090220758249906" lon="12.726347499217306"><ele>189.2</ele><time>2026-05-01T08:21:09.999Z</time></trkpt><trkpt lat="46.09031166304725" lon="12.726283321233256"><ele>190.0</ele><time>2026-05-01T08:21:10.999Z</time></trkpt><trkpt lat="46.09039141211447" lon="12.726227553964117"><ele>190.0</ele><time>2026-05-01T08:21:11.999Z</time></trkpt><trkpt lat="46.09047778893807" lon="12.726164778367254"><ele>190.0</ele><time>2026-05-01T08:21:13Z</time></trkpt><trkpt lat="46.09055956128379" lon="12.726106183092902"><ele>190.0</ele><time>2026-05-01T08:21:14Z</time></trkpt><trkpt lat="46.09062758300987" lon="12.726059505100318"><ele>190.0</ele><time>2026-05-01T08:21:15Z</time></trkpt><trkpt lat="46.09069212140911" lon="12.726015640074829"><ele>190.0</ele><time>2026-05-01T08:21:16Z</time></trkpt><trkpt lat="46.09076560585322" lon="12.725963845931338"><ele>190.0</ele><time>2026-05-01T08:21:17Z</time></trkpt><trkpt lat="46.09084185024575" lon="12.725906972722719"><ele>189.66666666666669</ele><time>2026-05-01T08:21:18Z</time></trkpt><trkpt lat="46.090916759643804" lon="12.725851213070683"><ele>189.33333333333334</ele><time>2026-05-01T08:21:19Z</time></trkpt><trkpt lat="46.09099569222961" lon="12.725790790988638"><ele>189.0</ele><time>2026-05-01T08:21:20Z</time></trkpt><trkpt lat="46.09106160811227" lon="12.725739207894108"><ele>188.66666666666666</ele><time>2026-05-01T08:21:21Z</time></trkpt><trkpt lat="46.09114413395658" lon="12.725674667810951"><ele>188.33333333333331</ele><time>2026-05-01T08:21:22Z</time></trkpt><trkpt lat="46.09123061709284" lon="12.725611232039729"><ele>188.0</ele><time>2026-05-01T08:21:23Z</time></trkpt><trkpt lat="46.09130814526327" lon="12.725556565364172"><ele>188.0</ele><time>2026-05-01T08:21:24Z</time></trkpt><trkpt lat="46.091397554783306" lon="12.725503340073452"><ele>188.0</ele><time>2026-05-01T08:21:25Z</time></trkpt><trkpt lat="46.09149889675866" lon="12.725445708874151"><ele>188.0</ele><time>2026-05-01T08:21:26Z</time></trkpt><trkpt lat="46.091606927708796" lon="12.725394277314713"><ele>188.0</ele><time>2026-05-01T08:21:27Z</time></trkpt><trkpt lat="46.09171272776876" lon="12.725354292661121"><ele>188.0</ele><time>2026-05-01T08:21:28Z</time></trkpt><trkpt lat="46.0918122467455" lon="12.725316726536251"><ele>188.0</ele><time>2026-05-01T08:21:29Z</time></trkpt><trkpt lat="46.09190373436579" lon="12.725282155374346"><ele>188.0</ele><time>2026-05-01T08:21:30Z</time></trkpt><trkpt lat="46.09198769689289" lon="12.72525277995626"><ele>188.0</ele><time>2026-05-01T08:21:31Z</time></trkpt><trkpt lat="46.09208364118477" lon="12.725218021434078"><ele>188.0</ele><time>2026-05-01T08:21:32Z</time></trkpt><trkpt lat="46.09218087217988" lon="12.725185253699081"><ele>188.0</ele><time>2026-05-01T08:21:33Z</time></trkpt><trkpt lat="46.092281196836836" lon="12.725146506834696"><ele>188.0</ele><time>2026-05-01T08:21:34Z</time></trkpt><trkpt lat="46.09237947840062" lon="12.725106582639189"><ele>188.0</ele><time>2026-05-01T08:21:35Z</time></trkpt><trkpt lat="46.092466005515355" lon="12.725068899605077"><ele>188.0</ele><time>2026-05-01T08:21:36Z</time></trkpt><trkpt lat="46.09253388223328" lon="12.725035593081227"><ele>188.0</ele><time>2026-05-01T08:21:37Z</time></trkpt><trkpt lat="46.09261342630514" lon="12.724997710159343"><ele>188.0</ele><time>2026-05-01T08:21:38Z</time></trkpt><trkpt lat="46.09270604388474" lon="12.7249547515967"><ele>188.0</ele><time>2026-05-01T08:21:39Z</time></trkpt><trkpt lat="46.09279131111139" lon="12.724907675443703"><ele>188.2</ele><time>2026-05-01T08:21:40Z</time></trkpt><trkpt lat="46.092889108949244" lon="12.7248498383342"><ele>188.4</ele><time>2026-05-01T08:21:41Z</time></trkpt><trkpt lat="46.09298024122376" lon="12.724792878349076"><ele>188.6</ele><time>2026-05-01T08:21:42Z</time></trkpt><trkpt lat="46.09306608053036" lon="12.724737363778114"><ele>188.79999999999998</ele><time>2026-05-01T08:21:43Z</time></trkpt><trkpt lat="46.093155277413274" lon="12.724681732539693"><ele>189.0</ele><time>2026-05-01T08:21:44Z</time></trkpt><trkpt lat="46.09324173056752" lon="12.724630601372896"><ele>189.0</ele><time>2026-05-01T08:21:45Z</time></trkpt><trkpt lat="46.09332881715163" lon="12.724575251045072"><ele>189.0</ele><time>2026-05-01T08:21:46Z</time></trkpt><trkpt lat="46.09341540859468" lon="12.724523751830926"><ele>189.0</ele><time>2026-05-01T08:21:47Z</time></trkpt><trkpt lat="46.09349860799416" lon="12.724472565856745"><ele>189.0</ele><time>2026-05-01T08:21:48Z</time></trkpt><trkpt lat="46.093590318744134" lon="12.724412893121503"><ele>189.0</ele><time>2026-05-01T08:21:49Z</time></trkpt><trkpt lat="46.09367728047246" lon="12.724347257066418"><ele>189.0</ele><time>2026-05-01T08:21:50Z</time></trkpt><trkpt lat="46.09376148653924" lon="12.724282684783455"><ele>189.0</ele><time>2026-05-01T08:21:51Z</time></trkpt><trkpt lat="46.09384120749204" lon="12.72422086822218"><ele>189.0</ele><time>2026-05-01T08:21:52Z</time></trkpt><trkpt lat="46.09390909126981" lon="12.724162599576044"><ele>189.0</ele><time>2026-05-01T08:21:53Z</time></trkpt><trkpt lat="46.093973435339976" lon="12.724112918283872"><ele>189.0</ele><time>2026-05-01T08:21:54Z</time></trkpt><trkpt lat="46.09403045481136" lon="12.72406615727345"><ele>189.0</ele><time>2026-05-01T08:21:55Z</time></trkpt><trkpt lat="46.09412916085658" lon="12.723983557335536"><ele>189.5</ele><time>2026-05-01T08:21:57Z</time></trkpt><trkpt lat="46.09418902963307" lon="12.723933749125253"><ele>190.0</ele><time>2026-05-01T08:21:58Z</time></trkpt><trkpt lat="46.09425188145819" lon="12.7238846416337"><ele>190.5</ele><time>2026-05-01T08:21:59Z</time></trkpt><trkpt lat="46.094321856079844" lon="12.723830282585192"><ele>191.0</ele><time>2026-05-01T08:22:00Z</time></trkpt><trkpt lat="46.09440771796045" lon="12.723758749265654"><ele>191.5</ele><time>2026-05-01T08:22:01Z</time></trkpt><trkpt lat="46.094491201643166" lon="12.72370068620387"><ele>192.0</ele><time>2026-05-01T08:22:02Z</time></trkpt><trkpt lat="46.09458295331593" lon="12.7236500222509"><ele>192.0</ele><time>2026-05-01T08:22:03Z</time></trkpt><trkpt lat="46.09467946621684" lon="12.723601307840138"><ele>192.0</ele><time>2026-05-01T08:22:04Z</time></trkpt><trkpt lat="46.094775882851415" lon="12.723554408442768"><ele>192.0</ele><time>2026-05-01T08:22:05Z</time></trkpt><trkpt lat="46.094877647715805" lon="12.723502079013148"><ele>192.0</ele><time>2026-05-01T08:22:06Z</time></trkpt><trkpt lat="46.09496988303839" lon="12.723454597357026"><ele>192.0</ele><time>2026-05-01T08:22:07Z</time></trkpt><trkpt lat="46.09505720269817" lon="12.723408071674692"><ele>192.2</ele><time>2026-05-01T08:22:08Z</time></trkpt><trkpt lat="46.09514038335448" lon="12.72336718824676"><ele>192.39999999999998</ele><time>2026-05-01T08:22:09Z</time></trkpt><trkpt lat="46.095219128369195" lon="12.72332419699995"><ele>192.60000000000002</ele><time>2026-05-01T08:22:10Z</time></trkpt><trkpt lat="46.09530970886745" lon="12.723273690625069"><ele>192.8</ele><time>2026-05-01T08:22:11Z</time></trkpt><trkpt lat="46.09539619986272" lon="12.723221529727507"><ele>193.0</ele><time>2026-05-01T08:22:12Z</time></trkpt><trkpt lat="46.09548287458605" lon="12.723176176121017"><ele>193.0</ele><time>2026-05-01T08:22:13Z</time></trkpt><trkpt lat="46.0955748268291" lon="12.723128065401754"><ele>193.0</ele><time>2026-05-01T08:22:14Z</time></trkpt><trkpt lat="46.09566322151556" lon="12.723079103827496"><ele>193.0</ele><time>2026-05-01T08:22:14.999Z</time></trkpt><trkpt lat="46.09575122249154" lon="12.723022981561787"><ele>193.0</ele><time>2026-05-01T08:22:15.999Z</time></trkpt><trkpt lat="46.09583816330027" lon="12.72296286318737"><ele>193.0</ele><time>2026-05-01T08:22:16.999Z</time></trkpt><trkpt lat="46.09592779290903" lon="12.722896229780186"><ele>192.99999999999997</ele><time>2026-05-01T08:22:17.999Z</time></trkpt><trkpt lat="46.09599583333679" lon="12.722842820909234"><ele>193.0</ele><time>2026-05-01T08:22:18.999Z</time></trkpt><trkpt lat="46.0960623190418" lon="12.72279781455075"><ele>193.0</ele><time>2026-05-01T08:22:19.999Z</time></trkpt><trkpt lat="46.096135472773135" lon="12.722739639606809"><ele>193.0</ele><time>2026-05-01T08:22:20.999Z</time></trkpt><trkpt lat="46.09622133326454" lon="12.722678242509026"><ele>192.99999999999997</ele><time>2026-05-01T08:22:21.999Z</time></trkpt><trkpt lat="46.09631283195372" lon="12.722611933823472"><ele>193.0</ele><time>2026-05-01T08:22:22.999Z</time></trkpt><trkpt lat="46.09640295896795" lon="12.722540590880897"><ele>193.0</ele><time>2026-05-01T08:22:23.999Z</time></trkpt><trkpt lat="46.096492609006" lon="12.722467119857177"><ele>193.0</ele><time>2026-05-01T08:22:24.999Z</time></trkpt><trkpt lat="46.096579614406274" lon="12.722399297698214"><ele>193.0</ele><time>2026-05-01T08:22:25.999Z</time></trkpt><trkpt lat="46.096659789660286" lon="12.72233877585486"><ele>193.0</ele><time>2026-05-01T08:22:26.999Z</time></trkpt><trkpt lat="46.0967410571921" lon="12.722277600364672"><ele>193.0</ele><time>2026-05-01T08:22:27.999Z</time></trkpt><trkpt lat="46.09682620084525" lon="12.722210157163234"><ele>193.0</ele><time>2026-05-01T08:22:28.999Z</time></trkpt><trkpt lat="46.0969209272788" lon="12.722134573835808"><ele>193.0</ele><time>2026-05-01T08:22:29.999Z</time></trkpt><trkpt lat="46.09702498940595" lon="12.722049225319193"><ele>193.0</ele><time>2026-05-01T08:22:30.999Z</time></trkpt><trkpt lat="46.097115431342054" lon="12.721974037723122"><ele>193.0</ele><time>2026-05-01T08:22:31.999Z</time></trkpt><trkpt lat="46.09720319991123" lon="12.721900657002294"><ele>193.0</ele><time>2026-05-01T08:22:32.999Z</time></trkpt><trkpt lat="46.09728908804519" lon="12.721824667944508"><ele>193.0</ele><time>2026-05-01T08:22:33.999Z</time></trkpt><trkpt lat="46.097372819971575" lon="12.721743630790623"><ele>193.0</ele><time>2026-05-01T08:22:34.999Z</time></trkpt><trkpt lat="46.09745546956021" lon="12.721664197635501"><ele>193.0</ele><time>2026-05-01T08:22:35.999Z</time></trkpt><trkpt lat="46.09752691689768" lon="12.721590166949683"><ele>193.0</ele><time>2026-05-01T08:22:36.999Z</time></trkpt><trkpt lat="46.097594371728995" lon="12.721512432188446"><ele>193.0</ele><time>2026-05-01T08:22:37.999Z</time></trkpt><trkpt lat="46.09767144031173" lon="12.721437444899289"><ele>193.2</ele><time>2026-05-01T08:22:38.999Z</time></trkpt><trkpt lat="46.0977551791819" lon="12.72136983687987"><ele>193.4</ele><time>2026-05-01T08:22:39.999Z</time></trkpt><trkpt lat="46.09783677138425" lon="12.721302077797704"><ele>193.6</ele><time>2026-05-01T08:22:40.999Z</time></trkpt><trkpt lat="46.09791839454983" lon="12.721220764275829"><ele>193.79999999999998</ele><time>2026-05-01T08:22:41.999Z</time></trkpt><trkpt lat="46.09800113679225" lon="12.721144136199168"><ele>194.0</ele><time>2026-05-01T08:22:42.999Z</time></trkpt><trkpt lat="46.09808566235215" lon="12.721065958132455"><ele>194.0</ele><time>2026-05-01T08:22:43.999Z</time></trkpt><trkpt lat="46.09817826754498" lon="12.72099070853823"><ele>194.0</ele><time>2026-05-01T08:22:44.999Z</time></trkpt><trkpt lat="46.09826863388461" lon="12.720914255255762"><ele>194.0</ele><time>2026-05-01T08:22:45.999Z</time></trkpt><trkpt lat="46.09834664080445" lon="12.720843263817407"><ele>194.0</ele><time>2026-05-01T08:22:46.999Z</time></trkpt><trkpt lat="46.09843272873374" lon="12.720766420182764"><ele>194.0</ele><time>2026-05-01T08:22:47.999Z</time></trkpt><trkpt lat="46.09852525299134" lon="12.720685321174365"><ele>194.5</ele><time>2026-05-01T08:22:48.999Z</time></trkpt><trkpt lat="46.0986251448729" lon="12.720600073952818"><ele>195.0</ele><time>2026-05-01T08:22:49.999Z</time></trkpt><trkpt lat="46.09872727381591" lon="12.72051440142719"><ele>195.5</ele><time>2026-05-01T08:22:50.999Z</time></trkpt><trkpt lat="46.098824530074225" lon="12.720434140105624"><ele>196.0</ele><time>2026-05-01T08:22:51.999Z</time></trkpt><trkpt lat="46.09891308377534" lon="12.720354874602124"><ele>196.0</ele><time>2026-05-01T08:22:52.999Z</time></trkpt><trkpt lat="46.0989984662861" lon="12.720274325474103"><ele>196.0</ele><time>2026-05-01T08:22:53.999Z</time></trkpt><trkpt lat="46.099086145827265" lon="12.720196496550265"><ele>196.0</ele><time>2026-05-01T08:22:54.999Z</time></trkpt><trkpt lat="46.09917191886834" lon="12.72011742869464"><ele>196.0</ele><time>2026-05-01T08:22:55.999Z</time></trkpt><trkpt lat="46.099252892777415" lon="12.720034074653944"><ele>196.0</ele><time>2026-05-01T08:22:56.999Z</time></trkpt><trkpt lat="46.0993329303953" lon="12.719955603967946"><ele>196.20000000000002</ele><time>2026-05-01T08:22:57.999Z</time></trkpt><trkpt lat="46.09941574083786" lon="12.719873013757137"><ele>196.4</ele><time>2026-05-01T08:22:58.999Z</time></trkpt><trkpt lat="46.09950611803685" lon="12.719789180056981"><ele>196.6</ele><time>2026-05-01T08:22:59.999Z</time></trkpt><trkpt lat="46.09959629264065" lon="12.719707797460917"><ele>196.8</ele><time>2026-05-01T08:23:00.999Z</time></trkpt><trkpt lat="46.09967223824527" lon="12.719629664465847"><ele>197.0</ele><time>2026-05-01T08:23:01.999Z</time></trkpt><trkpt lat="46.09974849545952" lon="12.719561095843744"><ele>197.0</ele><time>2026-05-01T08:23:02.999Z</time></trkpt><trkpt lat="46.09983427706373" lon="12.719489973024109"><ele>197.0</ele><time>2026-05-01T08:23:03.999Z</time></trkpt><trkpt lat="46.09992215403234" lon="12.719418020738475"><ele>197.0</ele><time>2026-05-01T08:23:04.999Z</time></trkpt><trkpt lat="46.10000522637119" lon="12.71935303002154"><ele>197.0</ele><time>2026-05-01T08:23:05.999Z</time></trkpt><trkpt lat="46.100090079609494" lon="12.719280547991584"><ele>197.0</ele><time>2026-05-01T08:23:06.999Z</time></trkpt><trkpt lat="46.10017021564518" lon="12.719216502914316"><ele>197.39999999999998</ele><time>2026-05-01T08:23:07.999Z</time></trkpt><trkpt lat="46.100256137142566" lon="12.719153263134846"><ele>197.79999999999998</ele><time>2026-05-01T08:23:08.999Z</time></trkpt><trkpt lat="46.10034168688635" lon="12.719088063502896"><ele>198.2</ele><time>2026-05-01T08:23:09.999Z</time></trkpt><trkpt lat="46.100432871675345" lon="12.719016617136878"><ele>198.6</ele><time>2026-05-01T08:23:10.999Z</time></trkpt><trkpt lat="46.10053332923414" lon="12.718940175899858"><ele>199.0</ele><time>2026-05-01T08:23:11.999Z</time></trkpt><trkpt lat="46.100625954776454" lon="12.718868025536379"><ele>199.0</ele><time>2026-05-01T08:23:12.999Z</time></trkpt><trkpt lat="46.100712160671314" lon="12.718797554900632"><ele>199.0</ele><time>2026-05-01T08:23:13.999Z</time></trkpt><trkpt lat="46.10079973440379" lon="12.718725331122265"><ele>199.0</ele><time>2026-05-01T08:23:14.999Z</time></trkpt><trkpt lat="46.10087462143679" lon="12.718653598835461"><ele>199.0</ele><time>2026-05-01T08:23:15.999Z</time></trkpt><trkpt lat="46.10095033784876" lon="12.718579331777342"><ele>199.0</ele><time>2026-05-01T08:23:16.999Z</time></trkpt><trkpt lat="46.10101657182336" lon="12.718511474736836"><ele>198.99999999999997</ele><time>2026-05-01T08:23:17.999Z</time></trkpt><trkpt lat="46.101091835051115" lon="12.718435768372533"><ele>199.0</ele><time>2026-05-01T08:23:19Z</time></trkpt><trkpt lat="46.101165977958225" lon="12.718363257579556"><ele>199.0</ele><time>2026-05-01T08:23:20Z</time></trkpt><trkpt lat="46.1012262608645" lon="12.718291804104668"><ele>199.0</ele><time>2026-05-01T08:23:21Z</time></trkpt><trkpt lat="46.101280413411246" lon="12.718225313285014"><ele>198.99999999999997</ele><time>2026-05-01T08:23:22Z</time></trkpt><trkpt lat="46.10133954439013" lon="12.718142585605415"><ele>199.0</ele><time>2026-05-01T08:23:23Z</time></trkpt><trkpt lat="46.10139485267626" lon="12.718065293577707"><ele>199.0</ele><time>2026-05-01T08:23:24Z</time></trkpt><trkpt lat="46.1014471637781" lon="12.717978104145573"><ele>199.0</ele><time>2026-05-01T08:23:25Z</time></trkpt><trkpt lat="46.10151050218103" lon="12.717870635342615"><ele>199.0</ele><time>2026-05-01T08:23:26Z</time></trkpt><trkpt lat="46.10157853640371" lon="12.717752983015172"><ele>199.0</ele><time>2026-05-01T08:23:27Z</time></trkpt><trkpt lat="46.10164460289858" lon="12.717643448313142"><ele>199.0</ele><time>2026-05-01T08:23:28Z</time></trkpt><trkpt lat="46.10170504572627" lon="12.717532962771344"><ele>199.2</ele><time>2026-05-01T08:23:29Z</time></trkpt><trkpt lat="46.10175925450961" lon="12.717434069297157"><ele>199.39999999999998</ele><time>2026-05-01T08:23:30Z</time></trkpt><trkpt lat="46.101823304325954" lon="12.717323739291201"><ele>199.6</ele><time>2026-05-01T08:23:31Z</time></trkpt><trkpt lat="46.10188251254349" lon="12.717212982226405"><ele>199.8</ele><time>2026-05-01T08:23:32Z</time></trkpt><trkpt lat="46.101944638288984" lon="12.717105056711457"><ele>200.0</ele><time>2026-05-01T08:23:33Z</time></trkpt><trkpt lat="46.10199439627405" lon="12.717009408947353"><ele>200.0</ele><time>2026-05-01T08:23:34Z</time></trkpt><trkpt lat="46.10204983777847" lon="12.716914924940868"><ele>200.0</ele><time>2026-05-01T08:23:35Z</time></trkpt><trkpt lat="46.10211051307103" lon="12.716820798746186"><ele>200.0</ele><time>2026-05-01T08:23:36Z</time></trkpt><trkpt lat="46.10217317955627" lon="12.716720434513698"><ele>200.0</ele><time>2026-05-01T08:23:37Z</time></trkpt><trkpt lat="46.10223456388941" lon="12.7166292823094"><ele>200.0</ele><time>2026-05-01T08:23:38Z</time></trkpt><trkpt lat="46.10230265934173" lon="12.71653326993969"><ele>200.2</ele><time>2026-05-01T08:23:39Z</time></trkpt><trkpt lat="46.102379862220104" lon="12.71643617294343"><ele>200.4</ele><time>2026-05-01T08:23:40Z</time></trkpt><trkpt lat="46.10245675238209" lon="12.716351265936567"><ele>200.60000000000002</ele><time>2026-05-01T08:23:41Z</time></trkpt><trkpt lat="46.10254712391908" lon="12.716255108505207"><ele>200.8</ele><time>2026-05-01T08:23:42Z</time></trkpt><trkpt lat="46.102638085557906" lon="12.716172447526656"><ele>201.0</ele><time>2026-05-01T08:23:43Z</time></trkpt><trkpt lat="46.102720476891534" lon="12.716092317228687"><ele>201.20000000000002</ele><time>2026-05-01T08:23:44Z</time></trkpt><trkpt lat="46.10278712785106" lon="12.716027616549823"><ele>201.4</ele><time>2026-05-01T08:23:45Z</time></trkpt><trkpt lat="46.102868757636735" lon="12.715957572951234"><ele>201.6</ele><time>2026-05-01T08:23:46Z</time></trkpt><trkpt lat="46.10295537604906" lon="12.71588361523595"><ele>201.8</ele><time>2026-05-01T08:23:47Z</time></trkpt><trkpt lat="46.10304620471518" lon="12.715806768486177"><ele>202.0</ele><time>2026-05-01T08:23:48Z</time></trkpt><trkpt lat="46.10312663731898" lon="12.715737449774547"><ele>202.0</ele><time>2026-05-01T08:23:49Z</time></trkpt><trkpt lat="46.103206550173404" lon="12.715665611411913"><ele>202.0</ele><time>2026-05-01T08:23:50Z</time></trkpt><trkpt lat="46.103292990353424" lon="12.715588578581462"><ele>202.0</ele><time>2026-05-01T08:23:51Z</time></trkpt><trkpt lat="46.103386672771514" lon="12.715506388856697"><ele>202.0</ele><time>2026-05-01T08:23:52Z</time></trkpt><trkpt lat="46.10347901285377" lon="12.715423761135519"><ele>202.0</ele><time>2026-05-01T08:23:53Z</time></trkpt><trkpt lat="46.10356325553181" lon="12.715354579773072"><ele>202.39999999999998</ele><time>2026-05-01T08:23:54Z</time></trkpt><trkpt lat="46.10364694986163" lon="12.715282945409808"><ele>202.79999999999998</ele><time>2026-05-01T08:23:55Z</time></trkpt><trkpt lat="46.103726031431" lon="12.715211384186038"><ele>203.2</ele><time>2026-05-01T08:23:56Z</time></trkpt><trkpt lat="46.10380659351263" lon="12.715143582564195"><ele>203.6</ele><time>2026-05-01T08:23:57Z</time></trkpt><trkpt lat="46.10389066927028" lon="12.715070003480973"><ele>204.0</ele><time>2026-05-01T08:23:58Z</time></trkpt><trkpt lat="46.10396719466867" lon="12.714999748496844"><ele>204.0</ele><time>2026-05-01T08:23:59Z</time></trkpt><trkpt lat="46.10403052381775" lon="12.714934451601964"><ele>204.0</ele><time>2026-05-01T08:24:00Z</time></trkpt><trkpt lat="46.10411580236603" lon="12.714852796163706"><ele>204.0</ele><time>2026-05-01T08:24:01Z</time></trkpt><trkpt lat="46.10420827214841" lon="12.714770999916473"><ele>204.0</ele><time>2026-05-01T08:24:02Z</time></trkpt><trkpt lat="46.1043073029493" lon="12.714685715248084"><ele>204.0</ele><time>2026-05-01T08:24:03Z</time></trkpt><trkpt lat="46.10440958547913" lon="12.714603159626318"><ele>204.25</ele><time>2026-05-01T08:24:04Z</time></trkpt><trkpt lat="46.10450926580193" lon="12.714524526338598"><ele>204.5</ele><time>2026-05-01T08:24:05Z</time></trkpt><trkpt lat="46.10461399748892" lon="12.714444147407251"><ele>204.75</ele><time>2026-05-01T08:24:06Z</time></trkpt><trkpt lat="46.10471321113078" lon="12.714369508607488"><ele>205.0</ele><time>2026-05-01T08:24:07Z</time></trkpt><trkpt lat="46.104808607692945" lon="12.714290191493303"><ele>205.0</ele><time>2026-05-01T08:24:08Z</time></trkpt><trkpt lat="46.104910884849325" lon="12.714205395319391"><ele>205.0</ele><time>2026-05-01T08:24:09Z</time></trkpt><trkpt lat="46.10500677883614" lon="12.714125660226978"><ele>205.0</ele><time>2026-05-01T08:24:10Z</time></trkpt><trkpt lat="46.105098741671945" lon="12.71405026948013"><ele>205.0</ele><time>2026-05-01T08:24:11Z</time></trkpt><trkpt lat="46.105179930792225" lon="12.713980505222654"><ele>205.0</ele><time>2026-05-01T08:24:12Z</time></trkpt><trkpt lat="46.10526515381964" lon="12.713906580384817"><ele>205.16666666666666</ele><time>2026-05-01T08:24:13Z</time></trkpt><trkpt lat="46.105336866995614" lon="12.71383594135655"><ele>205.33333333333331</ele><time>2026-05-01T08:24:14Z</time></trkpt><trkpt lat="46.105408596941444" lon="12.713765723507127"><ele>205.5</ele><time>2026-05-01T08:24:15Z</time></trkpt><trkpt lat="46.105480459491936" lon="12.71370221401816"><ele>205.66666666666669</ele><time>2026-05-01T08:24:16Z</time></trkpt><trkpt lat="46.105548169973176" lon="12.713636649242613"><ele>205.83333333333334</ele><time>2026-05-01T08:24:17Z</time></trkpt><trkpt lat="46.105624016660975" lon="12.713567555239303"><ele>206.0</ele><time>2026-05-01T08:24:18Z</time></trkpt><trkpt lat="46.105694832764144" lon="12.713508308275069"><ele>206.00000000000003</ele><time>2026-05-01T08:24:19Z</time></trkpt><trkpt lat="46.10575440072054" lon="12.713465698541206"><ele>206.0</ele><time>2026-05-01T08:24:20Z</time></trkpt><trkpt lat="46.10581904914633" lon="12.71341804849893"><ele>206.0</ele><time>2026-05-01T08:24:21Z</time></trkpt><trkpt lat="46.10589063278631" lon="12.713381856465995"><ele>206.0</ele><time>2026-05-01T08:24:22Z</time></trkpt><trkpt lat="46.105966190098584" lon="12.713350603020746"><ele>206.00000000000003</ele><time>2026-05-01T08:24:23Z</time></trkpt><trkpt lat="46.10604735931438" lon="12.713326366973691"><ele>206.0</ele><time>2026-05-01T08:24:24Z</time></trkpt><trkpt lat="46.1061293687107" lon="12.713311866527816"><ele>206.00000000000003</ele><time>2026-05-01T08:24:25Z</time></trkpt><trkpt lat="46.10621564647518" lon="12.713309364082656"><ele>206.0</ele><time>2026-05-01T08:24:26Z</time></trkpt><trkpt lat="46.10628747879619" lon="12.713314149630186"><ele>206.0</ele><time>2026-05-01T08:24:27Z</time></trkpt><trkpt lat="46.10636804603665" lon="12.713320359313537"><ele>206.0</ele><time>2026-05-01T08:24:28Z</time></trkpt><trkpt lat="46.10646178807246" lon="12.713332904010606"><ele>206.00000000000003</ele><time>2026-05-01T08:24:29Z</time></trkpt><trkpt lat="46.10655083811472" lon="12.713349165826024"><ele>206.0</ele><time>2026-05-01T08:24:30Z</time></trkpt><trkpt lat="46.106638358203774" lon="12.71337109061717"><ele>206.60000000000002</ele><time>2026-05-01T08:24:31Z</time></trkpt><trkpt lat="46.10673746169649" lon="12.713399130076212"><ele>207.2</ele><time>2026-05-01T08:24:32Z</time></trkpt><trkpt lat="46.106850203143004" lon="12.713438964043396"><ele>207.8</ele><time>2026-05-01T08:24:33Z</time></trkpt><trkpt lat="46.10694383207999" lon="12.713475092860808"><ele>208.39999999999998</ele><time>2026-05-01T08:24:34Z</time></trkpt><trkpt lat="46.107030852064234" lon="12.713496470163575"><ele>209.0</ele><time>2026-05-01T08:24:35Z</time></trkpt><trkpt lat="46.107121183276675" lon="12.71350921191254"><ele>209.00000000000003</ele><time>2026-05-01T08:24:35.999Z</time></trkpt><trkpt lat="46.107214235637976" lon="12.71351962608477"><ele>209.0</ele><time>2026-05-01T08:24:36.999Z</time></trkpt><trkpt lat="46.107304311441446" lon="12.713518064665601"><ele>209.0</ele><time>2026-05-01T08:24:37.999Z</time></trkpt><trkpt lat="46.10739239155314" lon="12.713503576396072"><ele>209.0</ele><time>2026-05-01T08:24:38.999Z</time></trkpt><trkpt lat="46.107477665103666" lon="12.713479282722494"><ele>209.00000000000003</ele><time>2026-05-01T08:24:39.999Z</time></trkpt><trkpt lat="46.10755783193081" lon="12.713444401625475"><ele>209.0</ele><time>2026-05-01T08:24:40.999Z</time></trkpt><trkpt lat="46.1076396293731" lon="12.713405226466858"><ele>209.2</ele><time>2026-05-01T08:24:41.999Z</time></trkpt><trkpt lat="46.10772000270901" lon="12.71335840811984"><ele>209.39999999999998</ele><time>2026-05-01T08:24:42.999Z</time></trkpt><trkpt lat="46.10780811029329" lon="12.713305015917713"><ele>209.6</ele><time>2026-05-01T08:24:43.999Z</time></trkpt><trkpt lat="46.107896381732104" lon="12.713254096022713"><ele>209.8</ele><time>2026-05-01T08:24:44.999Z</time></trkpt><trkpt lat="46.10798034686857" lon="12.71319939019459"><ele>210.0</ele><time>2026-05-01T08:24:45.999Z</time></trkpt><trkpt lat="46.10806506284583" lon="12.713147746496311"><ele>210.0</ele><time>2026-05-01T08:24:46.999Z</time></trkpt><trkpt lat="46.10813829058887" lon="12.713107583811079"><ele>210.0</ele><time>2026-05-01T08:24:47.999Z</time></trkpt><trkpt lat="46.10820994592077" lon="12.713067604552334"><ele>210.0</ele><time>2026-05-01T08:24:48.999Z</time></trkpt><trkpt lat="46.108287298383324" lon="12.713022021243903"><ele>210.0</ele><time>2026-05-01T08:24:49.999Z</time></trkpt><trkpt lat="46.108363333590205" lon="12.712977774314552"><ele>210.0</ele><time>2026-05-01T08:24:50.999Z</time></trkpt><trkpt lat="46.10844043567968" lon="12.712932464971503"><ele>210.0</ele><time>2026-05-01T08:24:51.999Z</time></trkpt><trkpt lat="46.10852070044872" lon="12.712883695713218"><ele>210.2</ele><time>2026-05-01T08:24:52.999Z</time></trkpt><trkpt lat="46.10860225582102" lon="12.712835085569392"><ele>210.4</ele><time>2026-05-01T08:24:53.999Z</time></trkpt><trkpt lat="46.10868497282693" lon="12.712790211754703"><ele>210.60000000000002</ele><time>2026-05-01T08:24:54.999Z</time></trkpt><trkpt lat="46.10877248324861" lon="12.712740195844745"><ele>210.8</ele><time>2026-05-01T08:24:55.999Z</time></trkpt><trkpt lat="46.1088619689767" lon="12.712683478889499"><ele>211.0</ele><time>2026-05-01T08:24:56.999Z</time></trkpt><trkpt lat="46.10895430995414" lon="12.712630124435963"><ele>211.0</ele><time>2026-05-01T08:24:57.999Z</time></trkpt><trkpt lat="46.10905850061623" lon="12.712576662600533"><ele>211.0</ele><time>2026-05-01T08:24:58.999Z</time></trkpt><trkpt lat="46.109154109296924" lon="12.712524082679701"><ele>211.0</ele><time>2026-05-01T08:24:59.999Z</time></trkpt><trkpt lat="46.10923390634498" lon="12.712477502904635"><ele>211.0</ele><time>2026-05-01T08:25:00.999Z</time></trkpt><trkpt lat="46.10931263862916" lon="12.71242770754644"><ele>211.0</ele><time>2026-05-01T08:25:01.999Z</time></trkpt><trkpt lat="46.109393426760576" lon="12.71237856806928"><ele>211.0</ele><time>2026-05-01T08:25:02.999Z</time></trkpt><trkpt lat="46.109486455099635" lon="12.712328172225636"><ele>211.0</ele><time>2026-05-01T08:25:03.999Z</time></trkpt><trkpt lat="46.10958044461516" lon="12.71227620359981"><ele>211.0</ele><time>2026-05-01T08:25:04.999Z</time></trkpt><trkpt lat="46.109668098707125" lon="12.712223739935645"><ele>211.0</ele><time>2026-05-01T08:25:05.999Z</time></trkpt><trkpt lat="46.109752255022656" lon="12.71216139977597"><ele>211.0</ele><time>2026-05-01T08:25:06.999Z</time></trkpt><trkpt lat="46.109825035013074" lon="12.712102848988378"><ele>210.99999999999997</ele><time>2026-05-01T08:25:07.999Z</time></trkpt><trkpt lat="46.10989200912665" lon="12.712060337981741"><ele>211.0</ele><time>2026-05-01T08:25:08.999Z</time></trkpt><trkpt lat="46.110011810124384" lon="12.711976467989835"><ele>211.0</ele><time>2026-05-01T08:25:10.999Z</time></trkpt><trkpt lat="46.11007437498852" lon="12.711952395244861"><ele>211.0</ele><time>2026-05-01T08:25:11.999Z</time></trkpt><trkpt lat="46.11015256622586" lon="12.711935465155426"><ele>210.99999999999997</ele><time>2026-05-01T08:25:12.999Z</time></trkpt><trkpt lat="46.110243126383395" lon="12.71193324740478"><ele>211.0</ele><time>2026-05-01T08:25:13.999Z</time></trkpt><trkpt lat="46.11033329308595" lon="12.711936836884703"><ele>211.16666666666666</ele><time>2026-05-01T08:25:14.999Z</time></trkpt><trkpt lat="46.11040551956042" lon="12.71194363352969"><ele>211.33333333333331</ele><time>2026-05-01T08:25:15.999Z</time></trkpt><trkpt lat="46.11051836948673" lon="12.711960243867228"><ele>211.5</ele><time>2026-05-01T08:25:17.999Z</time></trkpt><trkpt lat="46.11060577947003" lon="12.71199680561813"><ele>211.66666666666669</ele><time>2026-05-01T08:25:19.999Z</time></trkpt><trkpt lat="46.11067286169011" lon="12.712069242378528"><ele>211.83333333333334</ele><time>2026-05-01T08:25:21.999Z</time></trkpt><trkpt lat="46.11072389602066" lon="12.712136091713619"><ele>212.0</ele><time>2026-05-01T08:25:22.999Z</time></trkpt><trkpt lat="46.1107897921203" lon="12.712214433963904"><ele>212.16666666666669</ele><time>2026-05-01T08:25:23.999Z</time></trkpt><trkpt lat="46.11086472050974" lon="12.712295233083877"><ele>212.33333333333334</ele><time>2026-05-01T08:25:25Z</time></trkpt><trkpt lat="46.11092809520925" lon="12.712354413302254"><ele>212.5</ele><time>2026-05-01T08:25:26Z</time></trkpt><trkpt lat="46.11098335269178" lon="12.712408195140995"><ele>212.66666666666669</ele><time>2026-05-01T08:25:27Z</time></trkpt><trkpt lat="46.11104451209306" lon="12.712471140930118"><ele>212.83333333333334</ele><time>2026-05-01T08:25:28Z</time></trkpt><trkpt lat="46.11110533107645" lon="12.712537690047998"><ele>213.0</ele><time>2026-05-01T08:25:29Z</time></trkpt><trkpt lat="46.111184569463134" lon="12.71261445831254"><ele>213.0</ele><time>2026-05-01T08:25:30Z</time></trkpt><trkpt lat="46.11125367577763" lon="12.712683576449292"><ele>213.0</ele><time>2026-05-01T08:25:31Z</time></trkpt><trkpt lat="46.11131009096122" lon="12.71273962577745"><ele>213.0</ele><time>2026-05-01T08:25:32Z</time></trkpt><trkpt lat="46.111374340127725" lon="12.712790757798894"><ele>213.0</ele><time>2026-05-01T08:25:33Z</time></trkpt><trkpt lat="46.11144841959457" lon="12.712851064925607"><ele>213.0</ele><time>2026-05-01T08:25:34Z</time></trkpt><trkpt lat="46.111519565779005" lon="12.712912441058956"><ele>213.0</ele><time>2026-05-01T08:25:35Z</time></trkpt><trkpt lat="46.11158044233531" lon="12.712966580178087"><ele>213.33333333333334</ele><time>2026-05-01T08:25:36Z</time></trkpt><trkpt lat="46.1116359772774" lon="12.713030970922578"><ele>213.66666666666669</ele><time>2026-05-01T08:25:37Z</time></trkpt><trkpt lat="46.11168852179203" lon="12.713096345484008"><ele>214.0</ele><time>2026-05-01T08:25:38Z</time></trkpt><trkpt lat="46.111754048245835" lon="12.71319574685973"><ele>214.33333333333334</ele><time>2026-05-01T08:25:40Z</time></trkpt><trkpt lat="46.11178850702138" lon="12.713302683036567"><ele>214.66666666666669</ele><time>2026-05-01T08:25:42Z</time></trkpt><trkpt lat="46.1118135638691" lon="12.71340728859901"><ele>215.0</ele><time>2026-05-01T08:25:44Z</time></trkpt><trkpt lat="46.11183460216747" lon="12.713522924785325"><ele>215.6</ele><time>2026-05-01T08:25:47Z</time></trkpt><trkpt lat="46.11187167278626" lon="12.713681833916432"><ele>216.2</ele><time>2026-05-01T08:25:49Z</time></trkpt><trkpt lat="46.11188682118582" lon="12.713780264223486"><ele>216.8</ele><time>2026-05-01T08:25:51Z</time></trkpt><trkpt lat="46.11191031599964" lon="12.713888138485183"><ele>217.4</ele><time>2026-05-01T08:25:53Z</time></trkpt><trkpt lat="46.111974067495716" lon="12.714003734137917"><ele>218.0</ele><time>2026-05-01T08:25:55Z</time></trkpt><trkpt lat="46.1120527542516" lon="12.714099820756507"><ele>218.0</ele><time>2026-05-01T08:25:57Z</time></trkpt><trkpt lat="46.11215130410099" lon="12.714142170114865"><ele>218.0</ele><time>2026-05-01T08:25:59Z</time></trkpt><trkpt lat="46.11223699590462" lon="12.71418711062036"><ele>218.0</ele><time>2026-05-01T08:26:01Z</time></trkpt><trkpt lat="46.112308935197674" lon="12.71424509385043"><ele>218.0</ele><time>2026-05-01T08:26:03Z</time></trkpt><trkpt lat="46.11237017668801" lon="12.714341735546862"><ele>218.0</ele><time>2026-05-01T08:26:06Z</time></trkpt><trkpt lat="46.11242622982429" lon="12.71444054273876"><ele>219.60000000000002</ele><time>2026-05-01T08:26:08Z</time></trkpt><trkpt lat="46.11248603600007" lon="12.714582375345948"><ele>221.20000000000002</ele><time>2026-05-01T08:26:10Z</time></trkpt><trkpt lat="46.11253419727338" lon="12.714717529353297"><ele>222.8</ele><time>2026-05-01T08:26:12Z</time></trkpt><trkpt lat="46.112577462071606" lon="12.714830223104444"><ele>224.4</ele><time>2026-05-01T08:26:14Z</time></trkpt><trkpt lat="46.11263533363667" lon="12.714914396397898"><ele>226.0</ele><time>2026-05-01T08:26:16Z</time></trkpt><trkpt lat="46.11269506819852" lon="12.714952933255672"><ele>225.99999999999997</ele><time>2026-05-01T08:26:18Z</time></trkpt><trkpt lat="46.112801075378904" lon="12.714885009946494"><ele>226.0</ele><time>2026-05-01T08:26:21Z</time></trkpt><trkpt lat="46.11285596974944" lon="12.714828654140073"><ele>226.0</ele><time>2026-05-01T08:26:22Z</time></trkpt><trkpt lat="46.1129122956296" lon="12.714771780650798"><ele>226.0</ele><time>2026-05-01T08:26:23Z</time></trkpt><trkpt lat="46.11297676142736" lon="12.714711958813886"><ele>225.99999999999997</ele><time>2026-05-01T08:26:24Z</time></trkpt><trkpt lat="46.11304554451324" lon="12.7146534013859"><ele>226.0</ele><time>2026-05-01T08:26:25Z</time></trkpt><trkpt lat="46.113127151681326" lon="12.714587646633596"><ele>225.99999999999997</ele><time>2026-05-01T08:26:26Z</time></trkpt><trkpt lat="46.113209568051296" lon="12.714521813915537"><ele>226.0</ele><time>2026-05-01T08:26:27Z</time></trkpt><trkpt lat="46.11328389939032" lon="12.714463163246348"><ele>226.0</ele><time>2026-05-01T08:26:28Z</time></trkpt><trkpt lat="46.11335385919659" lon="12.714411974565772"><ele>226.0</ele><time>2026-05-01T08:26:29Z</time></trkpt><trkpt lat="46.11342035926776" lon="12.714363188364466"><ele>225.99999999999997</ele><time>2026-05-01T08:26:30Z</time></trkpt><trkpt lat="46.1134826577046" lon="12.714310818968682"><ele>226.0</ele><time>2026-05-01T08:26:31Z</time></trkpt><trkpt lat="46.11354618230346" lon="12.714257004582167"><ele>225.83333333333331</ele><time>2026-05-01T08:26:32Z</time></trkpt><trkpt lat="46.113608882870125" lon="12.71420848566059"><ele>225.66666666666666</ele><time>2026-05-01T08:26:33Z</time></trkpt><trkpt lat="46.11367527708805" lon="12.714155602942935"><ele>225.5</ele><time>2026-05-01T08:26:34Z</time></trkpt><trkpt lat="46.11374047455262" lon="12.714107315411157"><ele>225.33333333333331</ele><time>2026-05-01T08:26:35Z</time></trkpt><trkpt lat="46.11381771009163" lon="12.714048338490189"><ele>225.16666666666666</ele><time>2026-05-01T08:26:35.999Z</time></trkpt><trkpt lat="46.11389720270051" lon="12.713984953163518"><ele>225.0</ele><time>2026-05-01T08:26:36.999Z</time></trkpt><trkpt lat="46.113980018742325" lon="12.71391899747594"><ele>225.00000000000003</ele><time>2026-05-01T08:26:37.999Z</time></trkpt><trkpt lat="46.1140467895965" lon="12.713862118691175"><ele>225.0</ele><time>2026-05-01T08:26:38.999Z</time></trkpt><trkpt lat="46.11410879442335" lon="12.713815473273714"><ele>225.00000000000003</ele><time>2026-05-01T08:26:39.999Z</time></trkpt><trkpt lat="46.1141767356067" lon="12.713765243626959"><ele>225.00000000000003</ele><time>2026-05-01T08:26:40.999Z</time></trkpt><trkpt lat="46.11423957798734" lon="12.713716260967674"><ele>225.0</ele><time>2026-05-01T08:26:41.999Z</time></trkpt><trkpt lat="46.11430270229001" lon="12.71366821788217"><ele>225.00000000000003</ele><time>2026-05-01T08:26:42.999Z</time></trkpt><trkpt lat="46.114364472556865" lon="12.713629767349122"><ele>225.00000000000003</ele><time>2026-05-01T08:26:43.999Z</time></trkpt><trkpt lat="46.11442950896386" lon="12.713591967227867"><ele>225.16666666666666</ele><time>2026-05-01T08:26:44.999Z</time></trkpt><trkpt lat="46.114496687796645" lon="12.713548029214083"><ele>225.33333333333331</ele><time>2026-05-01T08:26:45.999Z</time></trkpt><trkpt lat="46.11457042927912" lon="12.713499932516918"><ele>225.5</ele><time>2026-05-01T08:26:46.999Z</time></trkpt><trkpt lat="46.11464376028699" lon="12.7134493625432"><ele>225.66666666666666</ele><time>2026-05-01T08:26:47.999Z</time></trkpt><trkpt lat="46.11472229266582" lon="12.713385743143196"><ele>225.83333333333331</ele><time>2026-05-01T08:26:48.999Z</time></trkpt><trkpt lat="46.11479743695285" lon="12.713327247326175"><ele>226.0</ele><time>2026-05-01T08:26:49.999Z</time></trkpt><trkpt lat="46.11487726530397" lon="12.713273198819605"><ele>226.49999999999997</ele><time>2026-05-01T08:26:50.999Z</time></trkpt><trkpt lat="46.11496182155202" lon="12.713219500745874"><ele>227.0</ele><time>2026-05-01T08:26:51.999Z</time></trkpt><trkpt lat="46.115044014678666" lon="12.71316587819759"><ele>227.5</ele><time>2026-05-01T08:26:52.999Z</time></trkpt><trkpt lat="46.1151246651062" lon="12.71311305581534"><ele>228.0</ele><time>2026-05-01T08:26:53.999Z</time></trkpt><trkpt lat="46.11520075391828" lon="12.713065651823511"><ele>228.49999999999997</ele><time>2026-05-01T08:26:54.999Z</time></trkpt><trkpt lat="46.11527591179942" lon="12.713015172737919"><ele>229.0</ele><time>2026-05-01T08:26:55.999Z</time></trkpt><trkpt lat="46.115359382388846" lon="12.712956898221602"><ele>229.0</ele><time>2026-05-01T08:26:56.999Z</time></trkpt><trkpt lat="46.11544335097408" lon="12.7128942456665"><ele>228.99999999999997</ele><time>2026-05-01T08:26:57.999Z</time></trkpt><trkpt lat="46.1155413332006" lon="12.712817955213378"><ele>228.99999999999997</ele><time>2026-05-01T08:26:58.999Z</time></trkpt><trkpt lat="46.115641571041756" lon="12.712738802174192"><ele>229.0</ele><time>2026-05-01T08:26:59.999Z</time></trkpt><trkpt lat="46.11573929254798" lon="12.712659170197155"><ele>229.0</ele><time>2026-05-01T08:27:00.999Z</time></trkpt><trkpt lat="46.115832625729475" lon="12.712583321177751"><ele>228.79999999999998</ele><time>2026-05-01T08:27:01.999Z</time></trkpt><trkpt lat="46.11592692169355" lon="12.712514922550715"><ele>228.59999999999997</ele><time>2026-05-01T08:27:02.999Z</time></trkpt><trkpt lat="46.11602182828875" lon="12.712447202652358"><ele>228.4</ele><time>2026-05-01T08:27:03.999Z</time></trkpt><trkpt lat="46.11611651164252" lon="12.712377938284716"><ele>228.2</ele><time>2026-05-01T08:27:04.999Z</time></trkpt><trkpt lat="46.11621071695788" lon="12.712314154312217"><ele>228.0</ele><time>2026-05-01T08:27:05.999Z</time></trkpt><trkpt lat="46.11630222645823" lon="12.712249572452476"><ele>228.0</ele><time>2026-05-01T08:27:06.999Z</time></trkpt><trkpt lat="46.11639420358796" lon="12.71218227735139"><ele>228.0</ele><time>2026-05-01T08:27:07.999Z</time></trkpt><trkpt lat="46.11648171429025" lon="12.712116312426241"><ele>228.0</ele><time>2026-05-01T08:27:08.999Z</time></trkpt><trkpt lat="46.116568206604846" lon="12.712053918061711"><ele>228.0</ele><time>2026-05-01T08:27:09.999Z</time></trkpt><trkpt lat="46.11665653609912" lon="12.711984554884838"><ele>228.0</ele><time>2026-05-01T08:27:10.999Z</time></trkpt><trkpt lat="46.11674513895894" lon="12.711915963154043"><ele>228.2</ele><time>2026-05-01T08:27:11.999Z</time></trkpt><trkpt lat="46.1168300400558" lon="12.711854046574208"><ele>228.4</ele><time>2026-05-01T08:27:12.999Z</time></trkpt><trkpt lat="46.116910629795846" lon="12.711792205743409"><ele>228.59999999999997</ele><time>2026-05-01T08:27:13.999Z</time></trkpt><trkpt lat="46.11698569554677" lon="12.711737105435002"><ele>228.79999999999998</ele><time>2026-05-01T08:27:14.999Z</time></trkpt><trkpt lat="46.11706372781817" lon="12.711676581031139"><ele>229.0</ele><time>2026-05-01T08:27:15.999Z</time></trkpt><trkpt lat="46.11714503183126" lon="12.711617796052778"><ele>229.0</ele><time>2026-05-01T08:27:16.999Z</time></trkpt><trkpt lat="46.11722964745075" lon="12.71155115025339"><ele>228.99999999999997</ele><time>2026-05-01T08:27:17.999Z</time></trkpt><trkpt lat="46.11731080772347" lon="12.711485672070518"><ele>228.99999999999997</ele><time>2026-05-01T08:27:18.999Z</time></trkpt><trkpt lat="46.11738940294697" lon="12.711421737691513"><ele>229.0</ele><time>2026-05-01T08:27:19.999Z</time></trkpt><trkpt lat="46.11746804737068" lon="12.711361574734465"><ele>229.0</ele><time>2026-05-01T08:27:20.999Z</time></trkpt><trkpt lat="46.11754208730865" lon="12.711301983097934"><ele>229.2</ele><time>2026-05-01T08:27:21.999Z</time></trkpt><trkpt lat="46.11760529929914" lon="12.711248801112566"><ele>229.39999999999998</ele><time>2026-05-01T08:27:22.999Z</time></trkpt><trkpt lat="46.117661621926295" lon="12.711203146716276"><ele>229.6</ele><time>2026-05-01T08:27:23.999Z</time></trkpt><trkpt lat="46.11775550153347" lon="12.711121145148676"><ele>229.8</ele><time>2026-05-01T08:27:25.999Z</time></trkpt><trkpt lat="46.117852007396664" lon="12.711020051945871"><ele>230.0</ele><time>2026-05-01T08:27:27.999Z</time></trkpt><trkpt lat="46.117937894725316" lon="12.710981601872177"><ele>230.0</ele><time>2026-05-01T08:27:29.999Z</time></trkpt><trkpt lat="46.11801575023072" lon="12.710929297289644"><ele>230.0</ele><time>2026-05-01T08:27:32Z</time></trkpt><trkpt lat="46.11807192286189" lon="12.710838427782019"><ele>230.0</ele><time>2026-05-01T08:27:34Z</time></trkpt><trkpt lat="46.11813599892797" lon="12.710732714018325"><ele>230.0</ele><time>2026-05-01T08:27:36Z</time></trkpt><trkpt lat="46.118252909761765" lon="12.71064046416829"><ele>230.0</ele><time>2026-05-01T08:27:38Z</time></trkpt><trkpt lat="46.1183184288635" lon="12.710584177060168"><ele>230.50000000000003</ele><time>2026-05-01T08:27:39Z</time></trkpt><trkpt lat="46.11838932915264" lon="12.710530244675493"><ele>231.0</ele><time>2026-05-01T08:27:40Z</time></trkpt><trkpt lat="46.11846606732359" lon="12.71047292908264"><ele>231.5</ele><time>2026-05-01T08:27:41Z</time></trkpt><trkpt lat="46.11853552911739" lon="12.710417464945332"><ele>232.0</ele><time>2026-05-01T08:27:42Z</time></trkpt><trkpt lat="46.11860524210935" lon="12.71036158502608"><ele>232.50000000000003</ele><time>2026-05-01T08:27:43Z</time></trkpt><trkpt lat="46.11866724921017" lon="12.710311179880422"><ele>233.0</ele><time>2026-05-01T08:27:44Z</time></trkpt><trkpt lat="46.118728068155086" lon="12.710260531792953"><ele>233.00000000000003</ele><time>2026-05-01T08:27:45Z</time></trkpt><trkpt lat="46.11879263043114" lon="12.710213350385843"><ele>233.0</ele><time>2026-05-01T08:27:46Z</time></trkpt><trkpt lat="46.11886937131889" lon="12.710158530160808"><ele>233.0</ele><time>2026-05-01T08:27:47Z</time></trkpt><trkpt lat="46.118950017925535" lon="12.710099157848854"><ele>233.0</ele><time>2026-05-01T08:27:48Z</time></trkpt><trkpt lat="46.11901675833252" lon="12.710049634048412"><ele>233.00000000000003</ele><time>2026-05-01T08:27:49Z</time></trkpt><trkpt lat="46.119082923551325" lon="12.709998281453508"><ele>233.0</ele><time>2026-05-01T08:27:50Z</time></trkpt><trkpt lat="46.11915826968668" lon="12.70993929815458"><ele>233.0</ele><time>2026-05-01T08:27:51Z</time></trkpt><trkpt lat="46.11923474834575" lon="12.709886880526952"><ele>233.0</ele><time>2026-05-01T08:27:52Z</time></trkpt><trkpt lat="46.11932069302925" lon="12.709831322608226"><ele>233.0</ele><time>2026-05-01T08:27:53Z</time></trkpt><trkpt lat="46.11939324598043" lon="12.709772116936534"><ele>233.0</ele><time>2026-05-01T08:27:54Z</time></trkpt><trkpt lat="46.119450148830666" lon="12.709724154223855"><ele>233.0</ele><time>2026-05-01T08:27:55Z</time></trkpt><trkpt lat="46.11956553161769" lon="12.709647343740043"><ele>233.00000000000003</ele><time>2026-05-01T08:27:57Z</time></trkpt><trkpt lat="46.11962877098249" lon="12.709594218872244"><ele>233.0</ele><time>2026-05-01T08:27:58Z</time></trkpt><trkpt lat="46.119706186657695" lon="12.709521033461304"><ele>233.0</ele><time>2026-05-01T08:27:59Z</time></trkpt><trkpt lat="46.1197851782705" lon="12.709458502811803"><ele>233.0</ele><time>2026-05-01T08:28:00Z</time></trkpt><trkpt lat="46.119852515149745" lon="12.709408943184055"><ele>233.00000000000003</ele><time>2026-05-01T08:28:01Z</time></trkpt><trkpt lat="46.1199217903808" lon="12.709362014339424"><ele>233.0</ele><time>2026-05-01T08:28:02Z</time></trkpt><trkpt lat="46.11998744021116" lon="12.70931375092733"><ele>233.00000000000003</ele><time>2026-05-01T08:28:03Z</time></trkpt><trkpt lat="46.12006524045786" lon="12.709255587099072"><ele>233.0</ele><time>2026-05-01T08:28:04Z</time></trkpt><trkpt lat="46.12013699129135" lon="12.709199630795458"><ele>233.0</ele><time>2026-05-01T08:28:05Z</time></trkpt><trkpt lat="46.12020486468937" lon="12.709150832198011"><ele>233.0</ele><time>2026-05-01T08:28:06Z</time></trkpt><trkpt lat="46.12027040516389" lon="12.709101186969198"><ele>233.00000000000003</ele><time>2026-05-01T08:28:07Z</time></trkpt><trkpt lat="46.12033808046196" lon="12.709040878284545"><ele>233.0</ele><time>2026-05-01T08:28:08Z</time></trkpt><trkpt lat="46.120414306837766" lon="12.70898044397924"><ele>233.00000000000003</ele><time>2026-05-01T08:28:09Z</time></trkpt><trkpt lat="46.12049477957472" lon="12.708919903443016"><ele>233.0</ele><time>2026-05-01T08:28:10Z</time></trkpt><trkpt lat="46.120577409972725" lon="12.708864518732865"><ele>233.0</ele><time>2026-05-01T08:28:11Z</time></trkpt><trkpt lat="46.12065067198449" lon="12.708802747209019"><ele>233.0</ele><time>2026-05-01T08:28:12Z</time></trkpt><trkpt lat="46.12071681866637" lon="12.708757226696338"><ele>233.00000000000003</ele><time>2026-05-01T08:28:13Z</time></trkpt><trkpt lat="46.120781070673026" lon="12.70871109932173"><ele>233.0</ele><time>2026-05-01T08:28:14Z</time></trkpt><trkpt lat="46.120841757583236" lon="12.708659070704291"><ele>233.2</ele><time>2026-05-01T08:28:15Z</time></trkpt><trkpt lat="46.120917326723244" lon="12.708594442558839"><ele>233.4</ele><time>2026-05-01T08:28:16Z</time></trkpt><trkpt lat="46.12100018424603" lon="12.70853038868011"><ele>233.59999999999997</ele><time>2026-05-01T08:28:17Z</time></trkpt><trkpt lat="46.12108324043305" lon="12.708466018565076"><ele>233.79999999999998</ele><time>2026-05-01T08:28:18Z</time></trkpt><trkpt lat="46.12117311457609" lon="12.708400194389794"><ele>234.0</ele><time>2026-05-01T08:28:19Z</time></trkpt><trkpt lat="46.121262068201176" lon="12.708329139515413"><ele>234.0</ele><time>2026-05-01T08:28:20Z</time></trkpt><trkpt lat="46.12135153562073" lon="12.708255687733924"><ele>233.99999999999997</ele><time>2026-05-01T08:28:21Z</time></trkpt><trkpt lat="46.12144431838019" lon="12.70818412821052"><ele>233.99999999999997</ele><time>2026-05-01T08:28:22Z</time></trkpt><trkpt lat="46.12152868770497" lon="12.70812169362767"><ele>234.0</ele><time>2026-05-01T08:28:23Z</time></trkpt><trkpt lat="46.121601021527866" lon="12.70806454643756"><ele>234.0</ele><time>2026-05-01T08:28:24Z</time></trkpt><trkpt lat="46.12167854239131" lon="12.708005617943437"><ele>234.33333333333334</ele><time>2026-05-01T08:28:25Z</time></trkpt><trkpt lat="46.12176097622425" lon="12.70793981809333"><ele>234.66666666666669</ele><time>2026-05-01T08:28:26Z</time></trkpt><trkpt lat="46.121839449547224" lon="12.707873954935279"><ele>235.0</ele><time>2026-05-01T08:28:27Z</time></trkpt><trkpt lat="46.12190765058935" lon="12.707826162096834"><ele>235.33333333333334</ele><time>2026-05-01T08:28:28Z</time></trkpt><trkpt lat="46.121973386675926" lon="12.707788278534935"><ele>235.66666666666669</ele><time>2026-05-01T08:28:29Z</time></trkpt><trkpt lat="46.12204322401261" lon="12.707737521376279"><ele>236.0</ele><time>2026-05-01T08:28:30Z</time></trkpt><trkpt lat="46.122124260726025" lon="12.707671212554846"><ele>236.00000000000003</ele><time>2026-05-01T08:28:31Z</time></trkpt><trkpt lat="46.12221112105575" lon="12.707600452721614"><ele>236.0</ele><time>2026-05-01T08:28:32Z</time></trkpt><trkpt lat="46.122283266181704" lon="12.707544382443185"><ele>236.0</ele><time>2026-05-01T08:28:33Z</time></trkpt><trkpt lat="46.12235956536989" lon="12.707483344961894"><ele>236.0</ele><time>2026-05-01T08:28:34Z</time></trkpt><trkpt lat="46.12243633847233" lon="12.70742659356144"><ele>236.00000000000003</ele><time>2026-05-01T08:28:35Z</time></trkpt><trkpt lat="46.12251249626682" lon="12.707365729843929"><ele>236.0</ele><time>2026-05-01T08:28:36Z</time></trkpt><trkpt lat="46.1225883364346" lon="12.707307901812392"><ele>236.16666666666669</ele><time>2026-05-01T08:28:37Z</time></trkpt><trkpt lat="46.122663559025966" lon="12.707251056077194"><ele>236.33333333333334</ele><time>2026-05-01T08:28:38Z</time></trkpt><trkpt lat="46.1227316775399" lon="12.707195004737454"><ele>236.5</ele><time>2026-05-01T08:28:39Z</time></trkpt><trkpt lat="46.12279854627346" lon="12.707143240254052"><ele>236.66666666666669</ele><time>2026-05-01T08:28:40Z</time></trkpt><trkpt lat="46.12286176471668" lon="12.707095954693388"><ele>236.83333333333334</ele><time>2026-05-01T08:28:41Z</time></trkpt><trkpt lat="46.12292171057067" lon="12.707049851592119"><ele>237.0</ele><time>2026-05-01T08:28:42Z</time></trkpt><trkpt lat="46.12302096266272" lon="12.706980603526196"><ele>237.0</ele><time>2026-05-01T08:28:44Z</time></trkpt><trkpt lat="46.12311864243307" lon="12.706922641191074"><ele>237.0</ele><time>2026-05-01T08:28:46Z</time></trkpt><trkpt lat="46.123191579278306" lon="12.70688450141071"><ele>237.0</ele><time>2026-05-01T08:28:49Z</time></trkpt><trkpt lat="46.12328406308445" lon="12.706773181829545"><ele>237.0</ele><time>2026-05-01T08:28:53Z</time></trkpt><trkpt lat="46.123347496571796" lon="12.706707532089245"><ele>237.0</ele><time>2026-05-01T08:28:54Z</time></trkpt><trkpt lat="46.12342679294476" lon="12.70665807138688"><ele>237.33333333333334</ele><time>2026-05-01T08:28:55Z</time></trkpt><trkpt lat="46.12348928531815" lon="12.706623439126849"><ele>237.66666666666669</ele><time>2026-05-01T08:28:56Z</time></trkpt><trkpt lat="46.123584663839964" lon="12.706566881371137"><ele>238.0</ele><time>2026-05-01T08:28:58Z</time></trkpt><trkpt lat="46.12364586286397" lon="12.706532850644452"><ele>238.33333333333334</ele><time>2026-05-01T08:29:00Z</time></trkpt><trkpt lat="46.12370877603651" lon="12.706463426836576"><ele>238.66666666666669</ele><time>2026-05-01T08:29:02Z</time></trkpt><trkpt lat="46.12376272208543" lon="12.706401625018339"><ele>239.0</ele><time>2026-05-01T08:29:03Z</time></trkpt><trkpt lat="46.12383943658713" lon="12.706338061197053"><ele>239.00000000000003</ele><time>2026-05-01T08:29:04Z</time></trkpt><trkpt lat="46.123922384678615" lon="12.706285055686148"><ele>239.0</ele><time>2026-05-01T08:29:04.999Z</time></trkpt><trkpt lat="46.12402682374467" lon="12.706228938567591"><ele>239.0</ele><time>2026-05-01T08:29:06.999Z</time></trkpt><trkpt lat="46.12408888278407" lon="12.706197299071677"><ele>239.0</ele><time>2026-05-01T08:29:08.999Z</time></trkpt><trkpt lat="46.12415304600844" lon="12.70610509204224"><ele>239.00000000000003</ele><time>2026-05-01T08:29:10.999Z</time></trkpt><trkpt lat="46.12422566947017" lon="12.706033367451838"><ele>239.0</ele><time>2026-05-01T08:29:11.999Z</time></trkpt><trkpt lat="46.12430052798626" lon="12.70597135333218"><ele>239.39999999999998</ele><time>2026-05-01T08:29:12.999Z</time></trkpt><trkpt lat="46.12439352432732" lon="12.705883620381691"><ele>239.79999999999998</ele><time>2026-05-01T08:29:14.999Z</time></trkpt><trkpt lat="46.12448053649207" lon="12.70579113711775"><ele>240.20000000000002</ele><time>2026-05-01T08:29:16.999Z</time></trkpt><trkpt lat="46.12460311597167" lon="12.705723975053338"><ele>240.60000000000002</ele><time>2026-05-01T08:29:18.999Z</time></trkpt><trkpt lat="46.12467689277452" lon="12.705688522976562"><ele>241.0</ele><time>2026-05-01T08:29:19.999Z</time></trkpt><trkpt lat="46.12473444033638" lon="12.705603346535359"><ele>240.99999999999997</ele><time>2026-05-01T08:29:21.999Z</time></trkpt><trkpt lat="46.12471642680338" lon="12.705496643985585"><ele>241.0</ele><time>2026-05-01T08:29:23.999Z</time></trkpt><trkpt lat="46.124680038090105" lon="12.70538163582435"><ele>241.0</ele><time>2026-05-01T08:29:25.999Z</time></trkpt><trkpt lat="46.12461534212858" lon="12.705266923831518"><ele>241.0</ele><time>2026-05-01T08:29:27.999Z</time></trkpt><trkpt lat="46.124574399105896" lon="12.705181951843969"><ele>240.99999999999997</ele><time>2026-05-01T08:29:28.999Z</time></trkpt><trkpt lat="46.12453590654744" lon="12.705106807840798"><ele>241.0</ele><time>2026-05-01T08:29:29.999Z</time></trkpt><trkpt lat="46.12449670005226" lon="12.70503111582473"><ele>240.8</ele><time>2026-05-01T08:29:30.999Z</time></trkpt><trkpt lat="46.124453125700754" lon="12.704933672177287"><ele>240.60000000000002</ele><time>2026-05-01T08:29:31.999Z</time></trkpt><trkpt lat="46.12439764317766" lon="12.704793013753116"><ele>240.4</ele><time>2026-05-01T08:29:32.999Z</time></trkpt><trkpt lat="46.12434983771434" lon="12.704660554455772"><ele>240.2</ele><time>2026-05-01T08:29:33.999Z</time></trkpt><trkpt lat="46.12431327159223" lon="12.704552862293585"><ele>240.0</ele><time>2026-05-01T08:29:34.999Z</time></trkpt><trkpt lat="46.124272405514475" lon="12.704441299641543"><ele>239.66666666666666</ele><time>2026-05-01T08:29:35.999Z</time></trkpt><trkpt lat="46.12423095921858" lon="12.704324719678814"><ele>239.33333333333331</ele><time>2026-05-01T08:29:37Z</time></trkpt><trkpt lat="46.124192128353855" lon="12.704215220288857"><ele>239.0</ele><time>2026-05-01T08:29:38Z</time></trkpt><trkpt lat="46.12415302980343" lon="12.70410578266498"><ele>238.66666666666666</ele><time>2026-05-01T08:29:39Z</time></trkpt><trkpt lat="46.12411151055963" lon="12.703991247324902"><ele>238.33333333333331</ele><time>2026-05-01T08:29:40Z</time></trkpt><trkpt lat="46.12407066832283" lon="12.703878272591396"><ele>238.0</ele><time>2026-05-01T08:29:41Z</time></trkpt><trkpt lat="46.12403371856026" lon="12.703782613840161"><ele>237.4</ele><time>2026-05-01T08:29:42Z</time></trkpt><trkpt lat="46.12397902606967" lon="12.703643220899082"><ele>236.8</ele><time>2026-05-01T08:29:44Z</time></trkpt><trkpt lat="46.12395280654117" lon="12.703523340922537"><ele>236.2</ele><time>2026-05-01T08:29:46Z</time></trkpt><trkpt lat="46.1240037567767" lon="12.703438066948355"><ele>235.6</ele><time>2026-05-01T08:29:48Z</time></trkpt><trkpt lat="46.12413316732953" lon="12.703339888412046"><ele>235.0</ele><time>2026-05-01T08:29:50Z</time></trkpt><trkpt lat="46.12421279081833" lon="12.703273846783995"><ele>235.0</ele><time>2026-05-01T08:29:51Z</time></trkpt><trkpt lat="46.12428260126186" lon="12.703210905708115"><ele>235.0</ele><time>2026-05-01T08:29:52Z</time></trkpt><trkpt lat="46.12435536753279" lon="12.703157346608913"><ele>235.0</ele><time>2026-05-01T08:29:53Z</time></trkpt><trkpt lat="46.12444561602242" lon="12.70309590555702"><ele>235.0</ele><time>2026-05-01T08:29:54Z</time></trkpt><trkpt lat="46.12453037941976" lon="12.703028587208955"><ele>235.0</ele><time>2026-05-01T08:29:55Z</time></trkpt><trkpt lat="46.12461270032637" lon="12.702960541138381"><ele>235.0</ele><time>2026-05-01T08:29:56Z</time></trkpt><trkpt lat="46.12468094049846" lon="12.702904082158328"><ele>235.0</ele><time>2026-05-01T08:29:57Z</time></trkpt><trkpt lat="46.12476016246443" lon="12.702849222756006"><ele>235.0</ele><time>2026-05-01T08:29:58Z</time></trkpt><trkpt lat="46.12483709207955" lon="12.702796154309507"><ele>235.0</ele><time>2026-05-01T08:29:59Z</time></trkpt><trkpt lat="46.12491249010634" lon="12.70274735436284"><ele>235.0</ele><time>2026-05-01T08:30:00Z</time></trkpt><trkpt lat="46.12503516956838" lon="12.702644927142401"><ele>234.99999999999997</ele><time>2026-05-01T08:30:02Z</time></trkpt><trkpt lat="46.125100083095695" lon="12.702585297963418"><ele>235.0</ele><time>2026-05-01T08:30:03Z</time></trkpt><trkpt lat="46.12516415923955" lon="12.702522308324935"><ele>235.0</ele><time>2026-05-01T08:30:04Z</time></trkpt><trkpt lat="46.12523634299672" lon="12.702445510624694"><ele>235.0</ele><time>2026-05-01T08:30:05Z</time></trkpt><trkpt lat="46.125307687561346" lon="12.702371927259387"><ele>234.99999999999997</ele><time>2026-05-01T08:30:06Z</time></trkpt><trkpt lat="46.12536681585353" lon="12.702307574648861"><ele>235.0</ele><time>2026-05-01T08:30:07Z</time></trkpt><trkpt lat="46.12543074611715" lon="12.702245169846275"><ele>234.99999999999997</ele><time>2026-05-01T08:30:08Z</time></trkpt><trkpt lat="46.12548847324415" lon="12.702192214261528"><ele>235.0</ele><time>2026-05-01T08:30:09Z</time></trkpt><trkpt lat="46.12555297700072" lon="12.702135682343672"><ele>235.0</ele><time>2026-05-01T08:30:10Z</time></trkpt><trkpt lat="46.1256250853364" lon="12.702076586257766"><ele>235.0</ele><time>2026-05-01T08:30:11Z</time></trkpt><trkpt lat="46.125698020402645" lon="12.702019721923328"><ele>234.99999999999997</ele><time>2026-05-01T08:30:12Z</time></trkpt><trkpt lat="46.12576718704341" lon="12.701968354597662"><ele>235.0</ele><time>2026-05-01T08:30:13Z</time></trkpt><trkpt lat="46.125829103069066" lon="12.701925108255852"><ele>234.66666666666666</ele><time>2026-05-01T08:30:14Z</time></trkpt><trkpt lat="46.125910721512845" lon="12.701867236784302"><ele>234.33333333333331</ele><time>2026-05-01T08:30:15Z</time></trkpt><trkpt lat="46.125972290311026" lon="12.701824032817232"><ele>234.0</ele><time>2026-05-01T08:30:16Z</time></trkpt><trkpt lat="46.12602906128972" lon="12.701777581400618"><ele>233.66666666666669</ele><time>2026-05-01T08:30:17Z</time></trkpt><trkpt lat="46.12613092418232" lon="12.701694373067115"><ele>233.33333333333334</ele><time>2026-05-01T08:30:19Z</time></trkpt><trkpt lat="46.126196411392776" lon="12.701654265327129"><ele>233.0</ele><time>2026-05-01T08:30:20Z</time></trkpt><trkpt lat="46.12628200556027" lon="12.701613207589023"><ele>233.00000000000003</ele><time>2026-05-01T08:30:21Z</time></trkpt><trkpt lat="46.12635256630545" lon="12.701579695021442"><ele>233.0</ele><time>2026-05-01T08:30:22Z</time></trkpt><trkpt lat="46.12641940837429" lon="12.701545564833214"><ele>233.0</ele><time>2026-05-01T08:30:23Z</time></trkpt><trkpt lat="46.126532423211096" lon="12.70152912025728"><ele>233.0</ele><time>2026-05-01T08:30:25Z</time></trkpt><trkpt lat="46.12662517297544" lon="12.701505462008512"><ele>233.00000000000003</ele><time>2026-05-01T08:30:27Z</time></trkpt><trkpt lat="46.12668616770418" lon="12.70143734012977"><ele>233.0</ele><time>2026-05-01T08:30:29Z</time></trkpt><trkpt lat="46.12674307262389" lon="12.701338802129227"><ele>233.33333333333334</ele><time>2026-05-01T08:30:31Z</time></trkpt><trkpt lat="46.12676879294003" lon="12.70124649561512"><ele>233.66666666666669</ele><time>2026-05-01T08:30:33Z</time></trkpt><trkpt lat="46.126824483777554" lon="12.701156118785859"><ele>234.0</ele><time>2026-05-01T08:30:35Z</time></trkpt><trkpt lat="46.126930037876754" lon="12.701067851349354"><ele>234.33333333333331</ele><time>2026-05-01T08:30:37Z</time></trkpt><trkpt lat="46.12698416138596" lon="12.701016891892161"><ele>234.66666666666666</ele><time>2026-05-01T08:30:38Z</time></trkpt><trkpt lat="46.127040919208795" lon="12.700963233979218"><ele>235.0</ele><time>2026-05-01T08:30:39Z</time></trkpt><trkpt lat="46.12709678350174" lon="12.700892519756582"><ele>235.0</ele><time>2026-05-01T08:30:40Z</time></trkpt><trkpt lat="46.12718843662694" lon="12.70075067449436"><ele>235.0</ele><time>2026-05-01T08:30:42Z</time></trkpt><trkpt lat="46.1272398242015" lon="12.700685436283878"><ele>235.0</ele><time>2026-05-01T08:30:43Z</time></trkpt><trkpt lat="46.12729916169169" lon="12.70061790806098"><ele>235.0</ele><time>2026-05-01T08:30:44Z</time></trkpt><trkpt lat="46.12737067388767" lon="12.700535194419249"><ele>235.0</ele><time>2026-05-01T08:30:45Z</time></trkpt><trkpt lat="46.127442684158325" lon="12.700446143969302"><ele>235.16666666666666</ele><time>2026-05-01T08:30:46Z</time></trkpt><trkpt lat="46.12750390776792" lon="12.700379375518645"><ele>235.33333333333331</ele><time>2026-05-01T08:30:47Z</time></trkpt><trkpt lat="46.127566176366976" lon="12.700330590422514"><ele>235.5</ele><time>2026-05-01T08:30:48Z</time></trkpt><trkpt lat="46.127640320006094" lon="12.700266356096684"><ele>235.66666666666669</ele><time>2026-05-01T08:30:49Z</time></trkpt><trkpt lat="46.127719487857206" lon="12.70020561343208"><ele>235.83333333333334</ele><time>2026-05-01T08:30:50Z</time></trkpt><trkpt lat="46.12780458238329" lon="12.700144862364615"><ele>236.0</ele><time>2026-05-01T08:30:51Z</time></trkpt><trkpt lat="46.127874219725896" lon="12.700101436124067"><ele>236.00000000000003</ele><time>2026-05-01T08:30:52Z</time></trkpt><trkpt lat="46.127948591903134" lon="12.700057618749259"><ele>236.0</ele><time>2026-05-01T08:30:53Z</time></trkpt><trkpt lat="46.12804011605285" lon="12.700005110845407"><ele>236.0</ele><time>2026-05-01T08:30:54Z</time></trkpt><trkpt lat="46.1281189575462" lon="12.699960093706238"><ele>236.0</ele><time>2026-05-01T08:30:55Z</time></trkpt><trkpt lat="46.12820362955835" lon="12.699910905912757"><ele>236.00000000000003</ele><time>2026-05-01T08:30:56Z</time></trkpt><trkpt lat="46.128276523707925" lon="12.699872782192708"><ele>236.0</ele><time>2026-05-01T08:30:57Z</time></trkpt><trkpt lat="46.128358676552246" lon="12.699830939223734"><ele>236.85714285714283</ele><time>2026-05-01T08:30:58Z</time></trkpt><trkpt lat="46.12842819267573" lon="12.699789104960221"><ele>237.71428571428572</ele><time>2026-05-01T08:30:59Z</time></trkpt><trkpt lat="46.12849005499421" lon="12.699733247471297"><ele>238.57142857142856</ele><time>2026-05-01T08:31:00Z</time></trkpt><trkpt lat="46.1285594711249" lon="12.699661930011994"><ele>239.42857142857142</ele><time>2026-05-01T08:31:01Z</time></trkpt><trkpt lat="46.12861766312605" lon="12.699597228395383"><ele>240.28571428571428</ele><time>2026-05-01T08:31:02Z</time></trkpt><trkpt lat="46.12866950140659" lon="12.699540029513066"><ele>241.14285714285714</ele><time>2026-05-01T08:31:03Z</time></trkpt><trkpt lat="46.12872718033111" lon="12.699500497442845"><ele>242.0</ele><time>2026-05-01T08:31:04Z</time></trkpt><trkpt lat="46.128853479775245" lon="12.699459680022267"><ele>242.0</ele><time>2026-05-01T08:31:06Z</time></trkpt><trkpt lat="46.128921262672655" lon="12.699454687543216"><ele>241.99999999999997</ele><time>2026-05-01T08:31:07Z</time></trkpt><trkpt lat="46.12898576633683" lon="12.699462959900066"><ele>242.0</ele><time>2026-05-01T08:31:08Z</time></trkpt><trkpt lat="46.12907142275988" lon="12.699451765596411"><ele>242.0</ele><time>2026-05-01T08:31:09.999Z</time></trkpt><trkpt lat="46.129090547324964" lon="12.699353720017502"><ele>241.99999999999997</ele><time>2026-05-01T08:31:12.999Z</time></trkpt><trkpt lat="46.12911040638076" lon="12.699264608176813"><ele>242.0</ele><time>2026-05-01T08:31:21.999Z</time></trkpt><trkpt lat="46.1291460547303" lon="12.699187731506822"><ele>242.0</ele><time>2026-05-01T08:31:25.999Z</time></trkpt><trkpt lat="46.1291868206449" lon="12.699102417852288"><ele>241.7142857142857</ele><time>2026-05-01T08:31:54Z</time></trkpt><trkpt lat="46.12922228179572" lon="12.699015992344112"><ele>241.4285714285714</ele><time>2026-05-01T08:32:04Z</time></trkpt><trkpt lat="46.12925119645067" lon="12.698932875439986"><ele>241.14285714285714</ele><time>2026-05-01T08:32:14Z</time></trkpt><trkpt lat="46.12927424547357" lon="12.698838199952291"><ele>240.85714285714283</ele><time>2026-05-01T08:32:21Z</time></trkpt><trkpt lat="46.12928612245895" lon="12.698743717598106"><ele>240.57142857142856</ele><time>2026-05-01T08:32:25Z</time></trkpt><trkpt lat="46.129275991225" lon="12.698652976038852"><ele>240.28571428571428</ele><time>2026-05-01T08:32:28Z</time></trkpt><trkpt lat="46.129251474619124" lon="12.698501919065004"><ele>240.0</ele><time>2026-05-01T08:32:31Z</time></trkpt><trkpt lat="46.12920379810597" lon="12.698414034829531"><ele>239.4</ele><time>2026-05-01T08:32:34Z</time></trkpt><trkpt lat="46.129111987938806" lon="12.698346585655496"><ele>238.8</ele><time>2026-05-01T08:32:37Z</time></trkpt><trkpt lat="46.12901140378043" lon="12.69829225413293"><ele>238.2</ele><time>2026-05-01T08:32:39Z</time></trkpt><trkpt lat="46.1288899902512" lon="12.69823713814037"><ele>237.6</ele><time>2026-05-01T08:32:41Z</time></trkpt><trkpt lat="46.12880803289607" lon="12.698198679718278"><ele>237.0</ele><time>2026-05-01T08:32:42Z</time></trkpt><trkpt lat="46.12872911847287" lon="12.698169813182854"><ele>236.5</ele><time>2026-05-01T08:32:43Z</time></trkpt><trkpt lat="46.12864512575734" lon="12.698136553046933"><ele>236.0</ele><time>2026-05-01T08:32:44Z</time></trkpt><trkpt lat="46.12855003311243" lon="12.698099282718495"><ele>235.5</ele><time>2026-05-01T08:32:45Z</time></trkpt><trkpt lat="46.12846841445703" lon="12.698063718230923"><ele>235.0</ele><time>2026-05-01T08:32:46Z</time></trkpt><trkpt lat="46.12839505302489" lon="12.69803203306204"><ele>234.5</ele><time>2026-05-01T08:32:47Z</time></trkpt><trkpt lat="46.128321403557" lon="12.697997649383504"><ele>234.0</ele><time>2026-05-01T08:32:48Z</time></trkpt><trkpt lat="46.128253931029974" lon="12.697958565402562"><ele>233.83333333333334</ele><time>2026-05-01T08:32:49Z</time></trkpt><trkpt lat="46.12817974001899" lon="12.697926906878"><ele>233.66666666666669</ele><time>2026-05-01T08:32:50Z</time></trkpt><trkpt lat="46.128115110070496" lon="12.697901083885252"><ele>233.5</ele><time>2026-05-01T08:32:51Z</time></trkpt><trkpt lat="46.12798539622284" lon="12.697859663688464"><ele>233.33333333333334</ele><time>2026-05-01T08:32:53Z</time></trkpt><trkpt lat="46.12792134799567" lon="12.697849288206301"><ele>233.16666666666669</ele><time>2026-05-01T08:32:54Z</time></trkpt><trkpt lat="46.12784921508266" lon="12.697840643197654"><ele>233.0</ele><time>2026-05-01T08:32:55Z</time></trkpt><trkpt lat="46.12778670504977" lon="12.69782802865249"><ele>233.00000000000003</ele><time>2026-05-01T08:32:56Z</time></trkpt><trkpt lat="46.12766543551232" lon="12.697816868410278"><ele>233.0</ele><time>2026-05-01T08:32:58Z</time></trkpt><trkpt lat="46.127591777997736" lon="12.697809830336652"><ele>233.0</ele><time>2026-05-01T08:32:59Z</time></trkpt><trkpt lat="46.127510710692505" lon="12.69780340315717"><ele>233.0</ele><time>2026-05-01T08:33:00Z</time></trkpt><trkpt lat="46.12742634029796" lon="12.697799178983445"><ele>233.00000000000003</ele><time>2026-05-01T08:33:01Z</time></trkpt><trkpt lat="46.127338308089" lon="12.69780073184868"><ele>233.0</ele><time>2026-05-01T08:33:02Z</time></trkpt><trkpt lat="46.127245151106095" lon="12.697791897173312"><ele>233.00000000000003</ele><time>2026-05-01T08:33:03Z</time></trkpt><trkpt lat="46.127151588792294" lon="12.697781571739851"><ele>233.0</ele><time>2026-05-01T08:33:04Z</time></trkpt><trkpt lat="46.12705713910614" lon="12.697776449150588"><ele>233.0</ele><time>2026-05-01T08:33:05Z</time></trkpt><trkpt lat="46.126974884622996" lon="12.697774671054047"><ele>233.0</ele><time>2026-05-01T08:33:06Z</time></trkpt><trkpt lat="46.12689284562219" lon="12.697771633155238"><ele>233.00000000000003</ele><time>2026-05-01T08:33:07Z</time></trkpt><trkpt lat="46.12680543232152" lon="12.697769279955763"><ele>233.0</ele><time>2026-05-01T08:33:07.999Z</time></trkpt><trkpt lat="46.12671496897547" lon="12.697768484719678"><ele>233.00000000000003</ele><time>2026-05-01T08:33:08.999Z</time></trkpt><trkpt lat="46.126629239266094" lon="12.697760484290331"><ele>233.0</ele><time>2026-05-01T08:33:09.999Z</time></trkpt><trkpt lat="46.126546019995864" lon="12.69776315785784"><ele>233.0</ele><time>2026-05-01T08:33:10.999Z</time></trkpt><trkpt lat="46.126461446067594" lon="12.697772045943625"><ele>233.0</ele><time>2026-05-01T08:33:11.999Z</time></trkpt><trkpt lat="46.12637558176743" lon="12.697786192428698"><ele>233.00000000000003</ele><time>2026-05-01T08:33:12.999Z</time></trkpt><trkpt lat="46.12628495844221" lon="12.697803922301876"><ele>233.0</ele><time>2026-05-01T08:33:13.999Z</time></trkpt><trkpt lat="46.12620696466411" lon="12.697810102333568"><ele>232.66666666666669</ele><time>2026-05-01T08:33:14.999Z</time></trkpt><trkpt lat="46.126128244114604" lon="12.697814484455597"><ele>232.33333333333334</ele><time>2026-05-01T08:33:15.999Z</time></trkpt><trkpt lat="46.12599923702713" lon="12.697815500030806"><ele>232.0</ele><time>2026-05-01T08:33:17.999Z</time></trkpt><trkpt lat="46.12591800003372" lon="12.697830481648596"><ele>231.66666666666669</ele><time>2026-05-01T08:33:19.999Z</time></trkpt><trkpt lat="46.1258372999473" lon="12.697820284070005"><ele>231.33333333333334</ele><time>2026-05-01T08:33:21.999Z</time></trkpt><trkpt lat="46.12576887266103" lon="12.69780066481878"><ele>231.0</ele><time>2026-05-01T08:33:23.999Z</time></trkpt><trkpt lat="46.12571622315278" lon="12.697743292967019"><ele>230.71428571428572</ele><time>2026-05-01T08:33:28.999Z</time></trkpt><trkpt lat="46.125727518774504" lon="12.697647792193193"><ele>230.42857142857144</ele><time>2026-05-01T08:33:31.999Z</time></trkpt><trkpt lat="46.125684751879376" lon="12.697580209913973"><ele>230.14285714285714</ele><time>2026-05-01T08:34:27Z</time></trkpt><trkpt lat="46.12561181988862" lon="12.697606082466265"><ele>229.85714285714286</ele><time>2026-05-01T08:34:30Z</time></trkpt><trkpt lat="46.125554847045144" lon="12.697664485004145"><ele>229.57142857142858</ele><time>2026-05-01T08:34:32Z</time></trkpt><trkpt lat="46.125496245124566" lon="12.697705696730324"><ele>229.28571428571428</ele><time>2026-05-01T08:34:35Z</time></trkpt><trkpt lat="46.12546377027938" lon="12.697616776640364"><ele>229.0</ele><time>2026-05-01T08:34:43Z</time></trkpt><trkpt lat="46.12546905219707" lon="12.697513383561153"><ele>229.0</ele><time>2026-05-01T08:34:47Z</time></trkpt><trkpt lat="46.12546195908699" lon="12.69738899717493"><ele>229.0</ele><time>2026-05-01T08:34:50Z</time></trkpt><trkpt lat="46.1254951649479" lon="12.69726921192202"><ele>229.0</ele><time>2026-05-01T08:34:53Z</time></trkpt><trkpt lat="46.125505299360945" lon="12.69714605588275"><ele>229.0</ele><time>2026-05-01T08:34:56Z</time></trkpt><trkpt lat="46.12549167145729" lon="12.697049937864499"><ele>229.0</ele><time>2026-05-01T08:34:58Z</time></trkpt><trkpt lat="46.12549823820174" lon="12.696950546809354"><ele>229.0</ele><time>2026-05-01T08:35:01Z</time></trkpt></trkseg><trkseg><trkpt lat="46.125498221786344" lon="12.69679637692442"><ele>228.99999999999997</ele><time>2026-05-01T08:47:37.999Z</time></trkpt><trkpt lat="46.12551902111676" lon="12.696676483382278"><ele>229.0</ele><time>2026-05-01T08:47:40.999Z</time></trkpt><trkpt lat="46.12552177542355" lon="12.696525579247371"><ele>229.0</ele><time>2026-05-01T08:47:43.999Z</time></trkpt><trkpt lat="46.12550209622726" lon="12.69641035776138"><ele>229.0</ele><time>2026-05-01T08:47:46.999Z</time></trkpt><trkpt lat="46.12547832967891" lon="12.696313875972074"><ele>228.99999999999997</ele><time>2026-05-01T08:47:48.999Z</time></trkpt><trkpt lat="46.125431392057024" lon="12.696247557310372"><ele>229.0</ele><time>2026-05-01T08:47:50.999Z</time></trkpt><trkpt lat="46.12538648165305" lon="12.69614923345828"><ele>229.0</ele><time>2026-05-01T08:47:52.999Z</time></trkpt><trkpt lat="46.125326461895725" lon="12.696049702892035"><ele>229.0</ele><time>2026-05-01T08:47:55.999Z</time></trkpt><trkpt lat="46.1252713914639" lon="12.695976994833941"><ele>229.0</ele><time>2026-05-01T08:47:57.999Z</time></trkpt><trkpt lat="46.12522887740794" lon="12.695902646884852"><ele>229.0</ele><time>2026-05-01T08:48:06.999Z</time></trkpt><trkpt lat="46.12521138367733" lon="12.695789090994262"><ele>229.0</ele><time>2026-05-01T08:48:11Z</time></trkpt><trkpt lat="46.12523241634024" lon="12.695702507893449"><ele>229.0</ele><time>2026-05-01T08:48:13Z</time></trkpt><trkpt lat="46.12525407143184" lon="12.695614775237578"><ele>229.0</ele><time>2026-05-01T08:48:15Z</time></trkpt><trkpt lat="46.12527684934926" lon="12.695527959055736"><ele>228.99999999999997</ele><time>2026-05-01T08:48:17Z</time></trkpt><trkpt lat="46.12527586808666" lon="12.695430379160884"><ele>229.0</ele><time>2026-05-01T08:48:19Z</time></trkpt><trkpt lat="46.12527253741601" lon="12.695312214305465"><ele>229.0</ele><time>2026-05-01T08:48:22Z</time></trkpt><trkpt lat="46.125229960156105" lon="12.695192913175944"><ele>229.0</ele><time>2026-05-01T08:48:25Z</time></trkpt><trkpt lat="46.12518812931531" lon="12.695080484229752"><ele>228.99999999999997</ele><time>2026-05-01T08:48:28Z</time></trkpt><trkpt lat="46.125143431042844" lon="12.694980398728674"><ele>229.0</ele><time>2026-05-01T08:48:31Z</time></trkpt><trkpt lat="46.12511116207288" lon="12.694875049531348"><ele>228.99999999999997</ele><time>2026-05-01T08:48:34Z</time></trkpt><trkpt lat="46.12517047679438" lon="12.6948227670482"><ele>229.0</ele><time>2026-05-01T08:48:52Z</time></trkpt><trkpt lat="46.12525558470308" lon="12.694802806774241"><ele>229.0</ele><time>2026-05-01T08:49:04Z</time></trkpt><trkpt lat="46.12533881480905" lon="12.694818803020723"><ele>229.0</ele><time>2026-05-01T08:49:07Z</time></trkpt><trkpt lat="46.125398869465165" lon="12.694744378412313"><ele>228.99999999999997</ele><time>2026-05-01T08:49:10.999Z</time></trkpt><trkpt lat="46.12540576194617" lon="12.694625145610427"><ele>229.0</ele><time>2026-05-01T08:49:13.999Z</time></trkpt><trkpt lat="46.125415129781125" lon="12.694507023074431"><ele>228.99999999999997</ele><time>2026-05-01T08:49:16.999Z</time></trkpt><trkpt lat="46.125430040331764" lon="12.694411017824487"><ele>229.0</ele><time>2026-05-01T08:49:18.999Z</time></trkpt><trkpt lat="46.125432998894055" lon="12.694296440439294"><ele>229.0</ele><time>2026-05-01T08:49:21.999Z</time></trkpt><trkpt lat="46.12541849823682" lon="12.69416534347709"><ele>229.0</ele><time>2026-05-01T08:49:24.999Z</time></trkpt><trkpt lat="46.12541759108348" lon="12.694070335872652"><ele>228.99999999999997</ele><time>2026-05-01T08:49:26.999Z</time></trkpt><trkpt lat="46.12541969082999" lon="12.693940144715272"><ele>229.0</ele><time>2026-05-01T08:49:29.999Z</time></trkpt><trkpt lat="46.12542994261168" lon="12.69384933553757"><ele>228.99999999999997</ele><time>2026-05-01T08:49:31.999Z</time></trkpt><trkpt lat="46.12544828100053" lon="12.693761347710566"><ele>229.0</ele><time>2026-05-01T08:49:33.999Z</time></trkpt><trkpt lat="46.125477887424275" lon="12.693649363434213"><ele>229.0</ele><time>2026-05-01T08:49:36.999Z</time></trkpt><trkpt lat="46.125511114123775" lon="12.693538164783163"><ele>229.0</ele><time>2026-05-01T08:49:39.999Z</time></trkpt><trkpt lat="46.12552911483111" lon="12.693423812200448"><ele>228.99999999999997</ele><time>2026-05-01T08:49:41.999Z</time></trkpt><trkpt lat="46.125539067516385" lon="12.693317780048416"><ele>229.0</ele><time>2026-05-01T08:49:43.999Z</time></trkpt><trkpt lat="46.125536275503315" lon="12.69321370837632"><ele>229.16666666666666</ele><time>2026-05-01T08:49:45.999Z</time></trkpt><trkpt lat="46.12551869472537" lon="12.693074500006798"><ele>229.33333333333331</ele><time>2026-05-01T08:49:48.999Z</time></trkpt><trkpt lat="46.12551334633767" lon="12.692983152777094"><ele>229.5</ele><time>2026-05-01T08:49:50.999Z</time></trkpt><trkpt lat="46.125518751180294" lon="12.692890441631812"><ele>229.66666666666669</ele><time>2026-05-01T08:49:52.999Z</time></trkpt><trkpt lat="46.12551521927708" lon="12.692784013580315"><ele>229.83333333333334</ele><time>2026-05-01T08:49:54.999Z</time></trkpt><trkpt lat="46.12552845011166" lon="12.692650855322551"><ele>230.0</ele><time>2026-05-01T08:49:57.999Z</time></trkpt><trkpt lat="46.12553484537929" lon="12.692537611993876"><ele>230.16666666666669</ele><time>2026-05-01T08:49:59.999Z</time></trkpt><trkpt lat="46.125549444927074" lon="12.692443404276931"><ele>230.33333333333334</ele><time>2026-05-01T08:50:01.999Z</time></trkpt><trkpt lat="46.12556492553191" lon="12.692341913636984"><ele>230.5</ele><time>2026-05-01T08:50:03.999Z</time></trkpt><trkpt lat="46.12557373778974" lon="12.692233803512435"><ele>230.66666666666669</ele><time>2026-05-01T08:50:05.999Z</time></trkpt><trkpt lat="46.12558791619454" lon="12.692135437146089"><ele>230.83333333333334</ele><time>2026-05-01T08:50:07.999Z</time></trkpt><trkpt lat="46.12557641434848" lon="12.692016473519304"><ele>231.0</ele><time>2026-05-01T08:50:10.999Z</time></trkpt><trkpt lat="46.12553587596185" lon="12.691900148462654"><ele>231.16666666666666</ele><time>2026-05-01T08:50:13.999Z</time></trkpt><trkpt lat="46.12550011709787" lon="12.69180193006098"><ele>231.33333333333331</ele><time>2026-05-01T08:50:16Z</time></trkpt><trkpt lat="46.12549120669634" lon="12.691681573562766"><ele>231.5</ele><time>2026-05-01T08:50:19Z</time></trkpt><trkpt lat="46.12545181921801" lon="12.691579480427293"><ele>231.66666666666666</ele><time>2026-05-01T08:50:20.999Z</time></trkpt><trkpt lat="46.125383179820965" lon="12.691476824665042"><ele>231.83333333333331</ele><time>2026-05-01T08:50:22.999Z</time></trkpt><trkpt lat="46.125310358729585" lon="12.69139866805089"><ele>232.0</ele><time>2026-05-01T08:50:24.999Z</time></trkpt><trkpt lat="46.12531452827158" lon="12.69129705983902"><ele>231.99999999999997</ele><time>2026-05-01T08:50:27.999Z</time></trkpt><trkpt lat="46.12536938494674" lon="12.69124223726094"><ele>232.0</ele><time>2026-05-01T08:50:28.999Z</time></trkpt><trkpt lat="46.12545211939932" lon="12.691183911108563"><ele>232.0</ele><time>2026-05-01T08:50:30.999Z</time></trkpt><trkpt lat="46.125528972661336" lon="12.69109491855349"><ele>232.0</ele><time>2026-05-01T08:50:32.999Z</time></trkpt><trkpt lat="46.12560148702811" lon="12.691035275566165"><ele>231.99999999999997</ele><time>2026-05-01T08:50:33.999Z</time></trkpt><trkpt lat="46.12569042246318" lon="12.690959972637788"><ele>232.0</ele><time>2026-05-01T08:50:34.999Z</time></trkpt><trkpt lat="46.125765393010035" lon="12.690888684776565"><ele>232.0</ele><time>2026-05-01T08:50:35.999Z</time></trkpt><trkpt lat="46.12584332060655" lon="12.690815509385581"><ele>232.0</ele><time>2026-05-01T08:50:36.999Z</time></trkpt><trkpt lat="46.125909216617146" lon="12.69075347580601"><ele>232.0</ele><time>2026-05-01T08:50:37.999Z</time></trkpt><trkpt lat="46.125980920267196" lon="12.690681662590476"><ele>232.0</ele><time>2026-05-01T08:50:38.999Z</time></trkpt><trkpt lat="46.126133286378646" lon="12.690535079367939"><ele>232.0</ele><time>2026-05-01T08:50:40.999Z</time></trkpt><trkpt lat="46.12620627800628" lon="12.69045034415848"><ele>232.0</ele><time>2026-05-01T08:50:41.999Z</time></trkpt><trkpt lat="46.12629192659847" lon="12.690350018867187"><ele>232.0</ele><time>2026-05-01T08:50:42.999Z</time></trkpt><trkpt lat="46.126352601555105" lon="12.690274886612947"><ele>232.0</ele><time>2026-05-01T08:50:43.999Z</time></trkpt><trkpt lat="46.12643347529088" lon="12.690163862583557"><ele>233.0</ele><time>2026-05-01T08:50:45.999Z</time></trkpt><trkpt lat="46.126491834100015" lon="12.690088422375108"><ele>233.0</ele><time>2026-05-01T08:50:47.999Z</time></trkpt></trkseg><trkseg><trkpt lat="46.126576174199286" lon="12.68995219727707"><ele>234.0</ele><time>2026-05-01T09:05:14.999Z</time></trkpt><trkpt lat="46.12665889059828" lon="12.689855271857141"><ele>233.99999999999997</ele><time>2026-05-01T09:05:16.999Z</time></trkpt><trkpt lat="46.12673684720972" lon="12.689773219144584"><ele>233.99999999999997</ele><time>2026-05-01T09:05:18.999Z</time></trkpt><trkpt lat="46.126831479881865" lon="12.689698273163165"><ele>234.0</ele><time>2026-05-01T09:05:20.999Z</time></trkpt><trkpt lat="46.126940048470175" lon="12.689621779008764"><ele>234.0</ele><time>2026-05-01T09:05:22.999Z</time></trkpt><trkpt lat="46.126996397537" lon="12.689578328699575"><ele>234.0</ele><time>2026-05-01T09:05:23.999Z</time></trkpt><trkpt lat="46.127090077541034" lon="12.689515143245753"><ele>233.99999999999997</ele><time>2026-05-01T09:05:25.999Z</time></trkpt><trkpt lat="46.12717378887066" lon="12.689454217237286"><ele>233.99999999999997</ele><time>2026-05-01T09:05:27.999Z</time></trkpt><trkpt lat="46.12724590240592" lon="12.689393456303911"><ele>234.0</ele><time>2026-05-01T09:05:29.999Z</time></trkpt><trkpt lat="46.12736069545422" lon="12.689321897904401"><ele>234.0</ele><time>2026-05-01T09:05:31.999Z</time></trkpt><trkpt lat="46.127421405399815" lon="12.689283920917209"><ele>234.14285714285717</ele><time>2026-05-01T09:05:32.999Z</time></trkpt><trkpt lat="46.12748003833902" lon="12.689238981956727"><ele>234.2857142857143</ele><time>2026-05-01T09:05:33.999Z</time></trkpt><trkpt lat="46.127546120797845" lon="12.689198516920776"><ele>234.42857142857144</ele><time>2026-05-01T09:05:34.999Z</time></trkpt><trkpt lat="46.1276123721218" lon="12.689154000441114"><ele>234.57142857142856</ele><time>2026-05-01T09:05:35.999Z</time></trkpt><trkpt lat="46.127682654619534" lon="12.68911076128687"><ele>234.7142857142857</ele><time>2026-05-01T09:05:36.999Z</time></trkpt><trkpt lat="46.12775205865229" lon="12.68905533652889"><ele>234.85714285714283</ele><time>2026-05-01T09:05:37.999Z</time></trkpt><trkpt lat="46.12781605594076" lon="12.689010044772147"><ele>235.0</ele><time>2026-05-01T09:05:38.999Z</time></trkpt><trkpt lat="46.127926873445396" lon="12.688936048286404"><ele>234.99999999999997</ele><time>2026-05-01T09:05:40.999Z</time></trkpt><trkpt lat="46.128000128008736" lon="12.688893396638969"><ele>235.0</ele><time>2026-05-01T09:05:41.999Z</time></trkpt><trkpt lat="46.128074302870296" lon="12.688843570264556"><ele>235.0</ele><time>2026-05-01T09:05:42.999Z</time></trkpt><trkpt lat="46.12815040698646" lon="12.688793473610673"><ele>235.0</ele><time>2026-05-01T09:05:43.999Z</time></trkpt><trkpt lat="46.128230902989934" lon="12.688748174404983"><ele>234.99999999999997</ele><time>2026-05-01T09:05:44.999Z</time></trkpt><trkpt lat="46.128299353373365" lon="12.688710919417895"><ele>235.0</ele><time>2026-05-01T09:05:45.999Z</time></trkpt><trkpt lat="46.128358864364266" lon="12.688677898136524"><ele>234.99999999999997</ele><time>2026-05-01T09:05:46.999Z</time></trkpt><trkpt lat="46.12841927482887" lon="12.688642749788276"><ele>235.0</ele><time>2026-05-01T09:05:47.999Z</time></trkpt><trkpt lat="46.12853982510912" lon="12.688589214109252"><ele>235.0</ele><time>2026-05-01T09:05:49.999Z</time></trkpt><trkpt lat="46.128604345979355" lon="12.688558804370052"><ele>235.0</ele><time>2026-05-01T09:05:50.999Z</time></trkpt><trkpt lat="46.128668653676804" lon="12.688517793664873"><ele>234.99999999999997</ele><time>2026-05-01T09:05:51.999Z</time></trkpt><trkpt lat="46.128732014405" lon="12.6884771012116"><ele>235.0</ele><time>2026-05-01T09:05:52.999Z</time></trkpt><trkpt lat="46.12880591015755" lon="12.688423498594485"><ele>235.49999999999997</ele><time>2026-05-01T09:05:53.999Z</time></trkpt><trkpt lat="46.1288743782644" lon="12.688367707002932"><ele>236.0</ele><time>2026-05-01T09:05:54.999Z</time></trkpt><trkpt lat="46.12899830205288" lon="12.688282627574623"><ele>236.5</ele><time>2026-05-01T09:05:56.999Z</time></trkpt><trkpt lat="46.129068826416386" lon="12.688240084632696"><ele>237.0</ele><time>2026-05-01T09:05:57.999Z</time></trkpt><trkpt lat="46.129137840617545" lon="12.688193051743726"><ele>237.49999999999997</ele><time>2026-05-01T09:05:58.999Z</time></trkpt><trkpt lat="46.12920179629255" lon="12.688154524235571"><ele>238.0</ele><time>2026-05-01T09:05:59.999Z</time></trkpt><trkpt lat="46.12926109190108" lon="12.688122207708563"><ele>238.16666666666666</ele><time>2026-05-01T09:06:00.999Z</time></trkpt><trkpt lat="46.12932163808013" lon="12.68809137871076"><ele>238.33333333333331</ele><time>2026-05-01T09:06:01.999Z</time></trkpt><trkpt lat="46.129427518728825" lon="12.688048770345096"><ele>238.5</ele><time>2026-05-01T09:06:03.999Z</time></trkpt><trkpt lat="46.129543446297916" lon="12.68801672097494"><ele>238.66666666666669</ele><time>2026-05-01T09:06:05.999Z</time></trkpt><trkpt lat="46.1296089608359" lon="12.687996230627604"><ele>238.83333333333334</ele><time>2026-05-01T09:06:06.999Z</time></trkpt><trkpt lat="46.129683117806" lon="12.68796725621466"><ele>239.0</ele><time>2026-05-01T09:06:07.999Z</time></trkpt><trkpt lat="46.12974932584034" lon="12.687939279170083"><ele>239.0</ele><time>2026-05-01T09:06:08.999Z</time></trkpt><trkpt lat="46.129839870564595" lon="12.68790455322772"><ele>238.99999999999997</ele><time>2026-05-01T09:06:10.999Z</time></trkpt><trkpt lat="46.12993771550995" lon="12.687875087123219"><ele>238.99999999999997</ele><time>2026-05-01T09:06:12.999Z</time></trkpt><trkpt lat="46.13003635241064" lon="12.687862183418924"><ele>239.0</ele><time>2026-05-01T09:06:15Z</time></trkpt><trkpt lat="46.13015537225003" lon="12.687803609639877"><ele>239.0</ele><time>2026-05-01T09:06:17Z</time></trkpt><trkpt lat="46.13022540056473" lon="12.687766227992507"><ele>239.0</ele><time>2026-05-01T09:06:18Z</time></trkpt><trkpt lat="46.13031354021666" lon="12.687738118214698"><ele>238.99999999999997</ele><time>2026-05-01T09:06:20Z</time></trkpt><trkpt lat="46.13043825578349" lon="12.687690313346422"><ele>238.99999999999997</ele><time>2026-05-01T09:06:22Z</time></trkpt><trkpt lat="46.13051868469806" lon="12.68766433656328"><ele>239.0</ele><time>2026-05-01T09:06:23Z</time></trkpt><trkpt lat="46.130593972018794" lon="12.687641316332302"><ele>239.0</ele><time>2026-05-01T09:06:24Z</time></trkpt><trkpt lat="46.13066477393313" lon="12.68762776619111"><ele>239.16666666666669</ele><time>2026-05-01T09:06:25Z</time></trkpt><trkpt lat="46.130744032445875" lon="12.68761512521958"><ele>239.33333333333334</ele><time>2026-05-01T09:06:26Z</time></trkpt><trkpt lat="46.13081937403473" lon="12.687609963452273"><ele>239.5</ele><time>2026-05-01T09:06:27Z</time></trkpt><trkpt lat="46.13089018672928" lon="12.68760767395818"><ele>239.66666666666669</ele><time>2026-05-01T09:06:28Z</time></trkpt><trkpt lat="46.13097983827987" lon="12.6875907679282"><ele>239.83333333333334</ele><time>2026-05-01T09:06:30Z</time></trkpt><trkpt lat="46.13103746615537" lon="12.687503859859163"><ele>240.0</ele><time>2026-05-01T09:06:32Z</time></trkpt><trkpt lat="46.13104235432777" lon="12.687372924399902"><ele>240.0</ele><time>2026-05-01T09:06:34Z</time></trkpt><trkpt lat="46.130994931996646" lon="12.687231501214463"><ele>240.0</ele><time>2026-05-01T09:06:36Z</time></trkpt><trkpt lat="46.130983337631186" lon="12.687136264880708"><ele>240.0</ele><time>2026-05-01T09:06:37Z</time></trkpt><trkpt lat="46.130989395833524" lon="12.687027367342127"><ele>240.0</ele><time>2026-05-01T09:06:38Z</time></trkpt><trkpt lat="46.13100314881957" lon="12.686925125171687"><ele>240.0</ele><time>2026-05-01T09:06:39Z</time></trkpt><trkpt lat="46.13103964830554" lon="12.686742484510756"><ele>240.0</ele><time>2026-05-01T09:06:41Z</time></trkpt><trkpt lat="46.131055194670765" lon="12.686644842515966"><ele>240.0</ele><time>2026-05-01T09:06:42Z</time></trkpt><trkpt lat="46.131065564525564" lon="12.686533818872265"><ele>240.0</ele><time>2026-05-01T09:06:43Z</time></trkpt><trkpt lat="46.131076803075715" lon="12.686425506227764"><ele>240.0</ele><time>2026-05-01T09:06:44Z</time></trkpt><trkpt lat="46.131090338409514" lon="12.686310501637418"><ele>240.0</ele><time>2026-05-01T09:06:45Z</time></trkpt><trkpt lat="46.131102597696696" lon="12.686210121739087"><ele>240.0</ele><time>2026-05-01T09:06:46Z</time></trkpt><trkpt lat="46.13115985649743" lon="12.686028485454536"><ele>240.5</ele><time>2026-05-01T09:06:48Z</time></trkpt><trkpt lat="46.1311683634479" lon="12.685930655555913"><ele>241.0</ele><time>2026-05-01T09:06:49Z</time></trkpt><trkpt lat="46.131183988178044" lon="12.685750971199193"><ele>241.5</ele><time>2026-05-01T09:06:51Z</time></trkpt><trkpt lat="46.13110871244957" lon="12.685594824861887"><ele>242.0</ele><time>2026-05-01T09:06:53Z</time></trkpt><trkpt lat="46.13107293845377" lon="12.685417875281688"><ele>242.2</ele><time>2026-05-01T09:06:55Z</time></trkpt><trkpt lat="46.13105028560975" lon="12.685261473913242"><ele>242.39999999999998</ele><time>2026-05-01T09:06:57Z</time></trkpt><trkpt lat="46.1310449875917" lon="12.685136683786675"><ele>242.60000000000002</ele><time>2026-05-01T09:06:59Z</time></trkpt><trkpt lat="46.13100053734935" lon="12.684963464346287"><ele>242.8</ele><time>2026-05-01T09:07:01Z</time></trkpt><trkpt lat="46.13097849279012" lon="12.684871430323351"><ele>243.0</ele><time>2026-05-01T09:07:02Z</time></trkpt><trkpt lat="46.130966439135584" lon="12.684729629308075"><ele>243.0</ele><time>2026-05-01T09:07:03.999Z</time></trkpt><trkpt lat="46.130956208037524" lon="12.684624865035365"><ele>243.0</ele><time>2026-05-01T09:07:05.999Z</time></trkpt><trkpt lat="46.13093544017077" lon="12.684502855954616"><ele>243.0</ele><time>2026-05-01T09:07:08.999Z</time></trkpt><trkpt lat="46.130916792215444" lon="12.684382843073843"><ele>243.0</ele><time>2026-05-01T09:07:11.999Z</time></trkpt><trkpt lat="46.13096270791647" lon="12.684287114388983"><ele>243.0</ele><time>2026-05-01T09:07:14.999Z</time></trkpt><trkpt lat="46.13106707734099" lon="12.684242726059964"><ele>243.0</ele><time>2026-05-01T09:07:16.999Z</time></trkpt><trkpt lat="46.131130717518246" lon="12.684199422344227"><ele>243.16666666666666</ele><time>2026-05-01T09:07:17.999Z</time></trkpt><trkpt lat="46.13119666974803" lon="12.684147599830238"><ele>243.33333333333331</ele><time>2026-05-01T09:07:18.999Z</time></trkpt><trkpt lat="46.1312717928162" lon="12.684098682947054"><ele>243.5</ele><time>2026-05-01T09:07:19.999Z</time></trkpt><trkpt lat="46.13135395369303" lon="12.684055063384351"><ele>243.66666666666666</ele><time>2026-05-01T09:07:20.999Z</time></trkpt><trkpt lat="46.131437476822846" lon="12.684013597450502"><ele>243.83333333333331</ele><time>2026-05-01T09:07:21.999Z</time></trkpt><trkpt lat="46.131530517483505" lon="12.683967783840247"><ele>244.0</ele><time>2026-05-01T09:07:22.999Z</time></trkpt><trkpt lat="46.131627991693534" lon="12.683919300099813"><ele>243.99999999999997</ele><time>2026-05-01T09:07:23.999Z</time></trkpt><trkpt lat="46.13172202712636" lon="12.683875401036776"><ele>244.0</ele><time>2026-05-01T09:07:24.999Z</time></trkpt><trkpt lat="46.13181274889714" lon="12.683837224350057"><ele>244.0</ele><time>2026-05-01T09:07:25.999Z</time></trkpt><trkpt lat="46.13189750900241" lon="12.683808642997144"><ele>244.0</ele><time>2026-05-01T09:07:26.999Z</time></trkpt><trkpt lat="46.13197920452795" lon="12.683786023449368"><ele>243.99999999999997</ele><time>2026-05-01T09:07:27.999Z</time></trkpt><trkpt lat="46.13205909483925" lon="12.683762870760741"><ele>244.0</ele><time>2026-05-01T09:07:28.999Z</time></trkpt><trkpt lat="46.13214033049796" lon="12.68373654882377"><ele>243.99999999999997</ele><time>2026-05-01T09:07:30Z</time></trkpt><trkpt lat="46.13222434956592" lon="12.683707724936351"><ele>244.0</ele><time>2026-05-01T09:07:31Z</time></trkpt><trkpt lat="46.132295839124936" lon="12.68368745235862"><ele>244.0</ele><time>2026-05-01T09:07:32Z</time></trkpt><trkpt lat="46.132397335477364" lon="12.683672329235906"><ele>244.0</ele><time>2026-05-01T09:07:34Z</time></trkpt><trkpt lat="46.13247523825189" lon="12.6836773450214"><ele>243.99999999999997</ele><time>2026-05-01T09:07:36Z</time></trkpt><trkpt lat="46.132572120646785" lon="12.683699056129088"><ele>244.0</ele><time>2026-05-01T09:07:39Z</time></trkpt><trkpt lat="46.13265108221913" lon="12.683748114297794"><ele>244.16666666666666</ele><time>2026-05-01T09:07:41Z</time></trkpt><trkpt lat="46.13271848680304" lon="12.683868124054436"><ele>244.33333333333331</ele><time>2026-05-01T09:07:43Z</time></trkpt><trkpt lat="46.132750277242245" lon="12.683948037795318"><ele>244.5</ele><time>2026-05-01T09:07:44Z</time></trkpt><trkpt lat="46.13278881141725" lon="12.684042980516855"><ele>244.66666666666669</ele><time>2026-05-01T09:07:45Z</time></trkpt><trkpt lat="46.13281822968934" lon="12.684127714900905"><ele>244.83333333333334</ele><time>2026-05-01T09:07:46Z</time></trkpt><trkpt lat="46.13286337707661" lon="12.684255065104209"><ele>245.0</ele><time>2026-05-01T09:07:48Z</time></trkpt><trkpt lat="46.13293280410672" lon="12.684274345113737"><ele>245.0</ele><time>2026-05-01T09:07:51Z</time></trkpt><trkpt lat="46.13299405521171" lon="12.684147357983234"><ele>245.0</ele><time>2026-05-01T09:07:55Z</time></trkpt><trkpt lat="46.132939537253314" lon="12.684235512075754"><ele>245.0</ele><time>2026-05-01T09:07:56Z</time></trkpt><trkpt lat="46.13295277235871" lon="12.684129224210444"><ele>245.0</ele><time>2026-05-01T09:09:23.999Z</time></trkpt><trkpt lat="46.13290477831736" lon="12.683994726825988"><ele>245.0</ele><time>2026-05-01T09:09:25.999Z</time></trkpt><trkpt lat="46.13285881766353" lon="12.683828228814564"><ele>245.0</ele><time>2026-05-01T09:09:27.999Z</time></trkpt><trkpt lat="46.132823249227606" lon="12.683674998799837"><ele>245.0</ele><time>2026-05-01T09:09:29.999Z</time></trkpt><trkpt lat="46.13279925533047" lon="12.683580129744241"><ele>245.0</ele><time>2026-05-01T09:09:31.999Z</time></trkpt><trkpt lat="46.13277124355043" lon="12.683462961037261"><ele>245.0</ele><time>2026-05-01T09:09:42.999Z</time></trkpt><trkpt lat="46.13275702491565" lon="12.683329495987808"><ele>245.0</ele><time>2026-05-01T09:10:06Z</time></trkpt><trkpt lat="46.13270740477855" lon="12.683149528349906"><ele>245.66666666666669</ele><time>2026-05-01T09:10:08Z</time></trkpt><trkpt lat="46.13266557560816" lon="12.68306673528107"><ele>246.33333333333334</ele><time>2026-05-01T09:10:09Z</time></trkpt><trkpt lat="46.132606545754236" lon="12.682989246136346"><ele>247.0</ele><time>2026-05-01T09:10:10Z</time></trkpt><trkpt lat="46.132538775505125" lon="12.682934709517713"><ele>247.66666666666669</ele><time>2026-05-01T09:10:11Z</time></trkpt><trkpt lat="46.13246331179972" lon="12.682905381743034"><ele>248.33333333333334</ele><time>2026-05-01T09:10:12Z</time></trkpt><trkpt lat="46.13236801372092" lon="12.682905126169024"><ele>249.0</ele><time>2026-05-01T09:10:13Z</time></trkpt><trkpt lat="46.13225140889866" lon="12.682931554846789"><ele>249.75</ele><time>2026-05-01T09:10:14Z</time></trkpt><trkpt lat="46.1321344024569" lon="12.682967651020537"><ele>250.5</ele><time>2026-05-01T09:10:15Z</time></trkpt><trkpt lat="46.13200710378006" lon="12.682982007039442"><ele>251.25</ele><time>2026-05-01T09:10:16Z</time></trkpt><trkpt lat="46.131873934655744" lon="12.683025767337687"><ele>252.0</ele><time>2026-05-01T09:10:17Z</time></trkpt><trkpt lat="46.131741648414" lon="12.683075794267756"><ele>252.0</ele><time>2026-05-01T09:10:18Z</time></trkpt><trkpt lat="46.131606433752474" lon="12.683129880135045"><ele>252.0</ele><time>2026-05-01T09:10:19Z</time></trkpt><trkpt lat="46.131459752161064" lon="12.683192101233047"><ele>252.0</ele><time>2026-05-01T09:10:20Z</time></trkpt><trkpt lat="46.13129850849791" lon="12.683263681052983"><ele>255.66666666666669</ele><time>2026-05-01T09:10:21Z</time></trkpt><trkpt lat="46.13114099894308" lon="12.683335638513507"><ele>259.33333333333337</ele><time>2026-05-01T09:10:22Z</time></trkpt><trkpt lat="46.130972686569116" lon="12.683412531188218"><ele>263.0</ele><time>2026-05-01T09:10:23Z</time></trkpt><trkpt lat="46.130804227980285" lon="12.68348949066114"><ele>261.0</ele><time>2026-05-01T09:10:24Z</time></trkpt><trkpt lat="46.13062922244572" lon="12.683569391576196"><ele>259.0</ele><time>2026-05-01T09:10:25Z</time></trkpt><trkpt lat="46.13045600667105" lon="12.683648287807417"><ele>257.0</ele><time>2026-05-01T09:10:26Z</time></trkpt><trkpt lat="46.13027550075858" lon="12.683730748367193"><ele>257.0</ele><time>2026-05-01T09:10:27Z</time></trkpt><trkpt lat="46.13009528803425" lon="12.683813942731145"><ele>257.0</ele><time>2026-05-01T09:10:28Z</time></trkpt><trkpt lat="46.12990873042948" lon="12.683900066179822"><ele>257.0</ele><time>2026-05-01T09:10:29Z</time></trkpt><trkpt lat="46.12972819324641" lon="12.684007002476452"><ele>259.33333333333337</ele><time>2026-05-01T09:10:30Z</time></trkpt><trkpt lat="46.12955268333196" lon="12.684089766900785"><ele>261.6666666666667</ele><time>2026-05-01T09:10:31Z</time></trkpt><trkpt lat="46.12939174209757" lon="12.684164249601109"><ele>264.0</ele><time>2026-05-01T09:10:32Z</time></trkpt><trkpt lat="46.12923885538422" lon="12.68423434030141"><ele>264.0</ele><time>2026-05-01T09:10:33Z</time></trkpt><trkpt lat="46.129102720626335" lon="12.68429562498032"><ele>264.0</ele><time>2026-05-01T09:10:34Z</time></trkpt><trkpt lat="46.128989080837066" lon="12.6843446791995"><ele>264.0</ele><time>2026-05-01T09:10:35Z</time></trkpt><trkpt lat="46.12886774649552" lon="12.684386459933195"><ele>264.0</ele><time>2026-05-01T09:10:36Z</time></trkpt><trkpt lat="46.128744109141195" lon="12.684404052468633"><ele>264.75</ele><time>2026-05-01T09:10:37Z</time></trkpt><trkpt lat="46.128616326866954" lon="12.684392537646614"><ele>265.5</ele><time>2026-05-01T09:10:38Z</time></trkpt><trkpt lat="46.128482127674836" lon="12.68436545837179"><ele>266.25</ele><time>2026-05-01T09:10:39Z</time></trkpt><trkpt lat="46.128335286495954" lon="12.684328756924678"><ele>267.0</ele><time>2026-05-01T09:10:40Z</time></trkpt><trkpt lat="46.12817351388083" lon="12.684293976203573"><ele>267.0</ele><time>2026-05-01T09:10:41Z</time></trkpt><trkpt lat="46.127996423328256" lon="12.684253346702727"><ele>267.0</ele><time>2026-05-01T09:10:42Z</time></trkpt><trkpt lat="46.127808348521825" lon="12.684210014417454"><ele>267.0</ele><time>2026-05-01T09:10:43Z</time></trkpt><trkpt lat="46.12762485581818" lon="12.68415618088293"><ele>267.0</ele><time>2026-05-01T09:10:44Z</time></trkpt><trkpt lat="46.12741960487587" lon="12.68410037216037"><ele>267.0</ele><time>2026-05-01T09:10:45Z</time></trkpt><trkpt lat="46.12721614455192" lon="12.684050785043754"><ele>267.0</ele><time>2026-05-01T09:10:46Z</time></trkpt><trkpt lat="46.12701487753899" lon="12.683997589539654"><ele>267.0</ele><time>2026-05-01T09:10:47Z</time></trkpt><trkpt lat="46.12681034362723" lon="12.683944883909573"><ele>267.0</ele><time>2026-05-01T09:10:48Z</time></trkpt><trkpt lat="46.12660882752611" lon="12.68389210821188"><ele>267.0</ele><time>2026-05-01T09:10:49Z</time></trkpt><trkpt lat="46.126401688529945" lon="12.6838419811429"><ele>267.0</ele><time>2026-05-01T09:10:50Z</time></trkpt><trkpt lat="46.126194436431746" lon="12.683794041442964"><ele>267.0</ele><time>2026-05-01T09:10:51Z</time></trkpt><trkpt lat="46.12599734732442" lon="12.683744168101027"><ele>267.0</ele><time>2026-05-01T09:10:52Z</time></trkpt><trkpt lat="46.12581604119863" lon="12.683697836667623"><ele>265.5</ele><time>2026-05-01T09:10:53Z</time></trkpt><trkpt lat="46.12548678878042" lon="12.68361523039902"><ele>264.0</ele><time>2026-05-01T09:10:55Z</time></trkpt><trkpt lat="46.12533417435377" lon="12.683579200806289"><ele>264.0</ele><time>2026-05-01T09:10:56Z</time></trkpt><trkpt lat="46.12518894711036" lon="12.683550746234776"><ele>264.0</ele><time>2026-05-01T09:10:57Z</time></trkpt><trkpt lat="46.125055717904665" lon="12.683517396622996"><ele>264.0</ele><time>2026-05-01T09:10:58Z</time></trkpt><trkpt lat="46.12492862813529" lon="12.68348925617656"><ele>264.0</ele><time>2026-05-01T09:10:59Z</time></trkpt><trkpt lat="46.12480741349824" lon="12.683458654753647"><ele>263.3333333333333</ele><time>2026-05-01T09:11:00Z</time></trkpt><trkpt lat="46.12467465498221" lon="12.683424057849166"><ele>262.66666666666663</ele><time>2026-05-01T09:11:01Z</time></trkpt><trkpt lat="46.124514246339395" lon="12.683382303469106"><ele>262.0</ele><time>2026-05-01T09:11:02Z</time></trkpt><trkpt lat="46.12433487108197" lon="12.68333785474023"><ele>262.0</ele><time>2026-05-01T09:11:03Z</time></trkpt><trkpt lat="46.12413775549329" lon="12.683286176002028"><ele>262.0</ele><time>2026-05-01T09:11:04Z</time></trkpt><trkpt lat="46.123929271398396" lon="12.683234962192298"><ele>262.0</ele><time>2026-05-01T09:11:05Z</time></trkpt><trkpt lat="46.123709768416965" lon="12.683175013578731"><ele>262.0</ele><time>2026-05-01T09:11:06Z</time></trkpt><trkpt lat="46.12350035819143" lon="12.683121353332844"><ele>262.0</ele><time>2026-05-01T09:11:07Z</time></trkpt><trkpt lat="46.12328979131219" lon="12.68306884456756"><ele>262.0</ele><time>2026-05-01T09:11:08Z</time></trkpt><trkpt lat="46.12308030183001" lon="12.683015981573782"><ele>261.5</ele><time>2026-05-01T09:11:09Z</time></trkpt><trkpt lat="46.12286246707038" lon="12.682962527012943"><ele>261.0</ele><time>2026-05-01T09:11:10Z</time></trkpt><trkpt lat="46.1226336485711" lon="12.682907304179277"><ele>259.5</ele><time>2026-05-01T09:11:11Z</time></trkpt><trkpt lat="46.12239498174256" lon="12.68284943208921"><ele>258.0</ele><time>2026-05-01T09:11:12Z</time></trkpt><trkpt lat="46.12215459381357" lon="12.682792799069878"><ele>258.0</ele><time>2026-05-01T09:11:13Z</time></trkpt><trkpt lat="46.12190780269252" lon="12.68273354952245"><ele>258.0</ele><time>2026-05-01T09:11:14Z</time></trkpt><trkpt lat="46.12166125141422" lon="12.68267219945782"><ele>258.0</ele><time>2026-05-01T09:11:15Z</time></trkpt><trkpt lat="46.12142084719227" lon="12.682612505776927"><ele>258.0</ele><time>2026-05-01T09:11:16Z</time></trkpt><trkpt lat="46.12118444608502" lon="12.682550370427956"><ele>258.0</ele><time>2026-05-01T09:11:17Z</time></trkpt><trkpt lat="46.120952446340596" lon="12.682491577044663"><ele>258.0</ele><time>2026-05-01T09:11:18Z</time></trkpt><trkpt lat="46.120720799694446" lon="12.682433224995075"><ele>257.5</ele><time>2026-05-01T09:11:19Z</time></trkpt><trkpt lat="46.12048825678173" lon="12.682373693262035"><ele>257.0</ele><time>2026-05-01T09:11:20Z</time></trkpt><trkpt lat="46.12025350223651" lon="12.682313527451878"><ele>257.0</ele><time>2026-05-01T09:11:21Z</time></trkpt><trkpt lat="46.12001248573963" lon="12.682252811063499"><ele>257.0</ele><time>2026-05-01T09:11:22Z</time></trkpt><trkpt lat="46.11977502818528" lon="12.682192253356755"><ele>256.0</ele><time>2026-05-01T09:11:23Z</time></trkpt><trkpt lat="46.119534217727285" lon="12.682128620951339"><ele>255.0</ele><time>2026-05-01T09:11:24Z</time></trkpt><trkpt lat="46.1192953962359" lon="12.682066322972888"><ele>255.0</ele><time>2026-05-01T09:11:25Z</time></trkpt><trkpt lat="46.11905334217479" lon="12.682005316874912"><ele>255.0</ele><time>2026-05-01T09:11:26Z</time></trkpt><trkpt lat="46.118812224034755" lon="12.681944549097107"><ele>254.0</ele><time>2026-05-01T09:11:27Z</time></trkpt><trkpt lat="46.11856897657678" lon="12.681880917439722"><ele>253.0</ele><time>2026-05-01T09:11:28Z</time></trkpt><trkpt lat="46.118323229921316" lon="12.681820947075648"><ele>252.5</ele><time>2026-05-01T09:11:29Z</time></trkpt><trkpt lat="46.118073790610765" lon="12.68175891756213"><ele>252.0</ele><time>2026-05-01T09:11:30Z</time></trkpt><trkpt lat="46.11782545960978" lon="12.681695743120168"><ele>252.0</ele><time>2026-05-01T09:11:31Z</time></trkpt><trkpt lat="46.11757406794324" lon="12.681631802334243"><ele>252.0</ele><time>2026-05-01T09:11:32Z</time></trkpt><trkpt lat="46.11731930416194" lon="12.681566354032281"><ele>251.0</ele><time>2026-05-01T09:11:33Z</time></trkpt><trkpt lat="46.117066073978336" lon="12.68150206332653"><ele>250.0</ele><time>2026-05-01T09:11:34Z</time></trkpt><trkpt lat="46.11681061827751" lon="12.681438701749345"><ele>250.0</ele><time>2026-05-01T09:11:35Z</time></trkpt><trkpt lat="46.116558436486535" lon="12.681376016577227"><ele>250.0</ele><time>2026-05-01T09:11:36Z</time></trkpt><trkpt lat="46.11630791166808" lon="12.6813123038392"><ele>250.0</ele><time>2026-05-01T09:11:37Z</time></trkpt><trkpt lat="46.11606326742468" lon="12.681249763731124"><ele>250.0</ele><time>2026-05-01T09:11:38Z</time></trkpt><trkpt lat="46.11581750040532" lon="12.68118536793746"><ele>250.0</ele><time>2026-05-01T09:11:39Z</time></trkpt><trkpt lat="46.115580379575114" lon="12.681122496888532"><ele>250.0</ele><time>2026-05-01T09:11:40Z</time></trkpt><trkpt lat="46.115343577819175" lon="12.681060017811763"><ele>249.5</ele><time>2026-05-01T09:11:41Z</time></trkpt><trkpt lat="46.11511248909298" lon="12.68100004304284"><ele>249.0</ele><time>2026-05-01T09:11:42Z</time></trkpt><trkpt lat="46.11488529100555" lon="12.680942271542277"><ele>247.5</ele><time>2026-05-01T09:11:43Z</time></trkpt><trkpt lat="46.11465676131985" lon="12.680886265384563"><ele>246.0</ele><time>2026-05-01T09:11:44Z</time></trkpt><trkpt lat="46.11442843175987" lon="12.68083162508771"><ele>246.0</ele><time>2026-05-01T09:11:45Z</time></trkpt><trkpt lat="46.114201800077645" lon="12.68078053130936"><ele>246.0</ele><time>2026-05-01T09:11:46Z</time></trkpt><trkpt lat="46.113972058734035" lon="12.68073282182443"><ele>245.0</ele><time>2026-05-01T09:11:47Z</time></trkpt><trkpt lat="46.113738996198805" lon="12.680691628224153"><ele>244.0</ele><time>2026-05-01T09:11:48Z</time></trkpt><trkpt lat="46.11350753287363" lon="12.680663294946548"><ele>244.0</ele><time>2026-05-01T09:11:49Z</time></trkpt><trkpt lat="46.11327203184234" lon="12.680648124765002"><ele>244.0</ele><time>2026-05-01T09:11:50Z</time></trkpt><trkpt lat="46.11303336544435" lon="12.680644437235394"><ele>244.5</ele><time>2026-05-01T09:11:51Z</time></trkpt><trkpt lat="46.11279492173837" lon="12.680652131182143"><ele>245.0</ele><time>2026-05-01T09:11:52Z</time></trkpt><trkpt lat="46.112549642123234" lon="12.680670760634342"><ele>244.0</ele><time>2026-05-01T09:11:53Z</time></trkpt><trkpt lat="46.112292997578436" lon="12.680700380072603"><ele>243.0</ele><time>2026-05-01T09:11:54Z</time></trkpt><trkpt lat="46.11203749307578" lon="12.680730236305992"><ele>243.0</ele><time>2026-05-01T09:11:55Z</time></trkpt><trkpt lat="46.1117910016904" lon="12.680774111945217"><ele>243.0</ele><time>2026-05-01T09:11:56Z</time></trkpt><trkpt lat="46.11154883122712" lon="12.680822725389309"><ele>242.5</ele><time>2026-05-01T09:11:57Z</time></trkpt><trkpt lat="46.11130695285491" lon="12.680886493130174"><ele>242.0</ele><time>2026-05-01T09:11:58Z</time></trkpt><trkpt lat="46.111060407093156" lon="12.68096641148561"><ele>242.0</ele><time>2026-05-01T09:11:59Z</time></trkpt><trkpt lat="46.110805048000195" lon="12.681054512514008"><ele>242.0</ele><time>2026-05-01T09:12:00Z</time></trkpt><trkpt lat="46.110546792836416" lon="12.681146258131724"><ele>241.5</ele><time>2026-05-01T09:12:01Z</time></trkpt><trkpt lat="46.11029024529699" lon="12.681240193153332"><ele>241.0</ele><time>2026-05-01T09:12:02Z</time></trkpt><trkpt lat="46.11003865167844" lon="12.681329898241545"><ele>240.0</ele><time>2026-05-01T09:12:03Z</time></trkpt><trkpt lat="46.10979213741007" lon="12.681418921044054"><ele>239.0</ele><time>2026-05-01T09:12:04Z</time></trkpt><trkpt lat="46.10954221268943" lon="12.681510561001835"><ele>239.0</ele><time>2026-05-01T09:12:05Z</time></trkpt><trkpt lat="46.10928673668074" lon="12.681600703270574"><ele>239.0</ele><time>2026-05-01T09:12:06Z</time></trkpt><trkpt lat="46.10903074398198" lon="12.681692336591807"><ele>238.5</ele><time>2026-05-01T09:12:07Z</time></trkpt><trkpt lat="46.108779150307306" lon="12.681781132754528"><ele>238.0</ele><time>2026-05-01T09:12:08Z</time></trkpt><trkpt lat="46.1085217244707" lon="12.681871520827064"><ele>238.5</ele><time>2026-05-01T09:12:09Z</time></trkpt><trkpt lat="46.1082726712304" lon="12.681961189770576"><ele>239.0</ele><time>2026-05-01T09:12:10Z</time></trkpt><trkpt lat="46.10802325054786" lon="12.682049291842104"><ele>238.0</ele><time>2026-05-01T09:12:11Z</time></trkpt><trkpt lat="46.10777590447242" lon="12.682135965685093"><ele>237.0</ele><time>2026-05-01T09:12:12Z</time></trkpt><trkpt lat="46.107535393714855" lon="12.682220208091465"><ele>235.5</ele><time>2026-05-01T09:12:13Z</time></trkpt><trkpt lat="46.10729744814944" lon="12.682304141765732"><ele>234.0</ele><time>2026-05-01T09:12:14Z</time></trkpt><trkpt lat="46.10706363544067" lon="12.682385508309219"><ele>234.0</ele><time>2026-05-01T09:12:15Z</time></trkpt><trkpt lat="46.1068341813547" lon="12.682467698536431"><ele>234.0</ele><time>2026-05-01T09:12:16Z</time></trkpt><trkpt lat="46.10661311636067" lon="12.682547506116284"><ele>233.0</ele><time>2026-05-01T09:12:17Z</time></trkpt><trkpt lat="46.106390457190024" lon="12.682625463907513"><ele>232.0</ele><time>2026-05-01T09:12:18Z</time></trkpt><trkpt lat="46.10617260205736" lon="12.68270106608604"><ele>232.0</ele><time>2026-05-01T09:12:19Z</time></trkpt><trkpt lat="46.105957058441696" lon="12.682775679040615"><ele>232.0</ele><time>2026-05-01T09:12:20Z</time></trkpt><trkpt lat="46.10574144988086" lon="12.682851505287877"><ele>232.0</ele><time>2026-05-01T09:12:21Z</time></trkpt><trkpt lat="46.105539976710716" lon="12.682924233903586"><ele>231.66666666666666</ele><time>2026-05-01T09:12:22Z</time></trkpt><trkpt lat="46.105346767514945" lon="12.682994113779019"><ele>231.33333333333331</ele><time>2026-05-01T09:12:23Z</time></trkpt><trkpt lat="46.105169115086305" lon="12.683058893258618"><ele>231.0</ele><time>2026-05-01T09:12:24Z</time></trkpt><trkpt lat="46.10500004807773" lon="12.683114248380894"><ele>230.66666666666669</ele><time>2026-05-01T09:12:25Z</time></trkpt><trkpt lat="46.10483625810291" lon="12.683158373213173"><ele>230.33333333333334</ele><time>2026-05-01T09:12:26Z</time></trkpt><trkpt lat="46.10467356218284" lon="12.68318557091896"><ele>230.0</ele><time>2026-05-01T09:12:27Z</time></trkpt><trkpt lat="46.104500529945184" lon="12.68320382345456"><ele>230.0</ele><time>2026-05-01T09:12:28Z</time></trkpt><trkpt lat="46.10432127829055" lon="12.683220369025442"><ele>230.0</ele><time>2026-05-01T09:12:29Z</time></trkpt><trkpt lat="46.10412727509852" lon="12.683233383351388"><ele>230.0</ele><time>2026-05-01T09:12:30Z</time></trkpt><trkpt lat="46.103920673321326" lon="12.683233539807656"><ele>229.66666666666669</ele><time>2026-05-01T09:12:31Z</time></trkpt><trkpt lat="46.10371201831263" lon="12.683221540590097"><ele>229.33333333333331</ele><time>2026-05-01T09:12:32Z</time></trkpt><trkpt lat="46.10349827197872" lon="12.68318416154447"><ele>229.0</ele><time>2026-05-01T09:12:33Z</time></trkpt><trkpt lat="46.10327962917404" lon="12.683132659523757"><ele>228.5</ele><time>2026-05-01T09:12:34Z</time></trkpt><trkpt lat="46.10305479862122" lon="12.683068882686301"><ele>228.0</ele><time>2026-05-01T09:12:35Z</time></trkpt><trkpt lat="46.102838156704756" lon="12.682992658440602"><ele>228.0</ele><time>2026-05-01T09:12:36Z</time></trkpt><trkpt lat="46.102643678069256" lon="12.682910228503655"><ele>228.0</ele><time>2026-05-01T09:12:37Z</time></trkpt><trkpt lat="46.10246019481061" lon="12.682826287059617"><ele>228.0</ele><time>2026-05-01T09:12:38Z</time></trkpt><trkpt lat="46.10229005949337" lon="12.682737324031823"><ele>227.0</ele><time>2026-05-01T09:12:39Z</time></trkpt><trkpt lat="46.10213020332204" lon="12.68263627042729"><ele>226.0</ele><time>2026-05-01T09:12:40Z</time></trkpt><trkpt lat="46.10197930668788" lon="12.682534389190398"><ele>225.0</ele><time>2026-05-01T09:12:41Z</time></trkpt><trkpt lat="46.10182623711219" lon="12.682426380240377"><ele>225.0</ele><time>2026-05-01T09:12:42Z</time></trkpt><trkpt lat="46.101661383637605" lon="12.682300362499888"><ele>225.0</ele><time>2026-05-01T09:12:43Z</time></trkpt><trkpt lat="46.10148690386226" lon="12.68215405188327"><ele>225.0</ele><time>2026-05-01T09:12:44Z</time></trkpt><trkpt lat="46.10130716585527" lon="12.681991819203857"><ele>224.5</ele><time>2026-05-01T09:12:45Z</time></trkpt><trkpt lat="46.101115928470676" lon="12.681819615844182"><ele>224.0</ele><time>2026-05-01T09:12:46Z</time></trkpt><trkpt lat="46.100917484685404" lon="12.681643584489542"><ele>223.5</ele><time>2026-05-01T09:12:47Z</time></trkpt><trkpt lat="46.10071954571052" lon="12.681470924709151"><ele>223.0</ele><time>2026-05-01T09:12:48Z</time></trkpt><trkpt lat="46.100527137924495" lon="12.681302020954389"><ele>223.0</ele><time>2026-05-01T09:12:49Z</time></trkpt><trkpt lat="46.10033812235797" lon="12.6811346885018"><ele>223.0</ele><time>2026-05-01T09:12:50Z</time></trkpt><trkpt lat="46.100154487036555" lon="12.680971911004084"><ele>223.0</ele><time>2026-05-01T09:12:51Z</time></trkpt><trkpt lat="46.09997519862476" lon="12.680812703837592"><ele>222.33333333333331</ele><time>2026-05-01T09:12:52Z</time></trkpt><trkpt lat="46.099806360363544" lon="12.680661373792148"><ele>221.66666666666669</ele><time>2026-05-01T09:12:53Z</time></trkpt><trkpt lat="46.09963767348204" lon="12.68051232540084"><ele>221.0</ele><time>2026-05-01T09:12:54Z</time></trkpt><trkpt lat="46.09946521730104" lon="12.680359753149233"><ele>221.66666666666669</ele><time>2026-05-01T09:12:55Z</time></trkpt><trkpt lat="46.09928659555646" lon="12.680203855624697"><ele>222.33333333333331</ele><time>2026-05-01T09:12:56Z</time></trkpt><trkpt lat="46.099105992408354" lon="12.680045966866032"><ele>223.0</ele><time>2026-05-01T09:12:57Z</time></trkpt><trkpt lat="46.09892319415145" lon="12.679882572179324"><ele>223.0</ele><time>2026-05-01T09:12:58Z</time></trkpt><trkpt lat="46.098741685170694" lon="12.679721090547982"><ele>223.0</ele><time>2026-05-01T09:12:59Z</time></trkpt><trkpt lat="46.09856182756132" lon="12.679555920574407"><ele>223.0</ele><time>2026-05-01T09:13:00Z</time></trkpt><trkpt lat="46.09838511245416" lon="12.679395985907332"><ele>221.66666666666666</ele><time>2026-05-01T09:13:01Z</time></trkpt><trkpt lat="46.098203391792865" lon="12.679234739167768"><ele>220.33333333333331</ele><time>2026-05-01T09:13:02Z</time></trkpt><trkpt lat="46.098027083710456" lon="12.679080383203145"><ele>219.0</ele><time>2026-05-01T09:13:03Z</time></trkpt><trkpt lat="46.09786487351307" lon="12.67893855297419"><ele>219.0</ele><time>2026-05-01T09:13:04Z</time></trkpt><trkpt lat="46.097700115908545" lon="12.678793708007777"><ele>219.0</ele><time>2026-05-01T09:13:05Z</time></trkpt><trkpt lat="46.09753092146673" lon="12.678638206473735"><ele>219.0</ele><time>2026-05-01T09:13:06Z</time></trkpt><trkpt lat="46.09735742402202" lon="12.678464142081681"><ele>218.0</ele><time>2026-05-01T09:13:07Z</time></trkpt><trkpt lat="46.09717667315168" lon="12.678278485400611"><ele>217.0</ele><time>2026-05-01T09:13:08Z</time></trkpt><trkpt lat="46.0969954127329" lon="12.678079202174889"><ele>217.0</ele><time>2026-05-01T09:13:09Z</time></trkpt><trkpt lat="46.09682070865036" lon="12.677875508241037"><ele>217.0</ele><time>2026-05-01T09:13:10Z</time></trkpt><trkpt lat="46.09664634505779" lon="12.677663471170433"><ele>216.0</ele><time>2026-05-01T09:13:11Z</time></trkpt><trkpt lat="46.09647742838626" lon="12.67744560132027"><ele>215.0</ele><time>2026-05-01T09:13:12Z</time></trkpt><trkpt lat="46.09631524027255" lon="12.677224235876613"><ele>215.0</ele><time>2026-05-01T09:13:13Z</time></trkpt><trkpt lat="46.096160413817465" lon="12.676995823527314"><ele>215.0</ele><time>2026-05-01T09:13:14Z</time></trkpt><trkpt lat="46.096006208032655" lon="12.676758739438228"><ele>215.0</ele><time>2026-05-01T09:13:15Z</time></trkpt><trkpt lat="46.0958547099235" lon="12.676511139239116"><ele>214.66666666666669</ele><time>2026-05-01T09:13:16Z</time></trkpt><trkpt lat="46.09570638966283" lon="12.676261703826603"><ele>214.33333333333331</ele><time>2026-05-01T09:13:17Z</time></trkpt><trkpt lat="46.09556513471396" lon="12.676016031956715"><ele>214.0</ele><time>2026-05-01T09:13:18Z</time></trkpt><trkpt lat="46.09543920393441" lon="12.675784391467648"><ele>214.0</ele><time>2026-05-01T09:13:19Z</time></trkpt><trkpt lat="46.09532040448456" lon="12.675558836248209"><ele>214.0</ele><time>2026-05-01T09:13:20.001Z</time></trkpt><trkpt lat="46.095203295344255" lon="12.675334262192212"><ele>214.0</ele><time>2026-05-01T09:13:21.001Z</time></trkpt><trkpt lat="46.09508273082448" lon="12.675100900571664"><ele>213.66666666666666</ele><time>2026-05-01T09:13:22.001Z</time></trkpt><trkpt lat="46.09495930607116" lon="12.674858582775796"><ele>213.33333333333331</ele><time>2026-05-01T09:13:23.001Z</time></trkpt><trkpt lat="46.09483629153804" lon="12.674622198626658"><ele>213.0</ele><time>2026-05-01T09:13:24.001Z</time></trkpt><trkpt lat="46.094714368957526" lon="12.674386371769415"><ele>212.66666666666669</ele><time>2026-05-01T09:13:25.001Z</time></trkpt><trkpt lat="46.09458920367536" lon="12.674142705653123"><ele>212.33333333333334</ele><time>2026-05-01T09:13:26.001Z</time></trkpt><trkpt lat="46.09446195175319" lon="12.673895677424786"><ele>212.0</ele><time>2026-05-01T09:13:27.001Z</time></trkpt><trkpt lat="46.09433428371226" lon="12.67365203012349"><ele>212.0</ele><time>2026-05-01T09:13:28.001Z</time></trkpt><trkpt lat="46.09420811427739" lon="12.673409481056032"><ele>212.0</ele><time>2026-05-01T09:13:29.001Z</time></trkpt><trkpt lat="46.09407912939939" lon="12.673159723566744"><ele>212.0</ele><time>2026-05-01T09:13:30.001Z</time></trkpt><trkpt lat="46.09394841279594" lon="12.672905513675202"><ele>212.0</ele><time>2026-05-01T09:13:31.001Z</time></trkpt><trkpt lat="46.09381877015145" lon="12.672653757354622"><ele>212.0</ele><time>2026-05-01T09:13:32.001Z</time></trkpt><trkpt lat="46.09368758727921" lon="12.67240201935132"><ele>212.0</ele><time>2026-05-01T09:13:33.001Z</time></trkpt><trkpt lat="46.093554518275596" lon="12.672146479097224"><ele>212.0</ele><time>2026-05-01T09:13:34.001Z</time></trkpt><trkpt lat="46.09341939516921" lon="12.671886088774727"><ele>212.0</ele><time>2026-05-01T09:13:35.001Z</time></trkpt><trkpt lat="46.09328401365638" lon="12.671623366416163"><ele>211.0</ele><time>2026-05-01T09:13:36.001Z</time></trkpt><trkpt lat="46.09314601033668" lon="12.671355086427663"><ele>210.0</ele><time>2026-05-01T09:13:37.001Z</time></trkpt><trkpt lat="46.093007234273884" lon="12.671086248747885"><ele>209.5</ele><time>2026-05-01T09:13:38.001Z</time></trkpt><trkpt lat="46.09286664597159" lon="12.670815307454037"><ele>209.0</ele><time>2026-05-01T09:13:39.001Z</time></trkpt><trkpt lat="46.09272280943967" lon="12.670544301022298"><ele>209.5</ele><time>2026-05-01T09:13:40.001Z</time></trkpt><trkpt lat="46.09257895142353" lon="12.67026992988429"><ele>210.0</ele><time>2026-05-01T09:13:41.001Z</time></trkpt><trkpt lat="46.09243614305082" lon="12.669981845395592"><ele>210.0</ele><time>2026-05-01T09:13:42.001Z</time></trkpt><trkpt lat="46.09229120381138" lon="12.669694862535993"><ele>210.0</ele><time>2026-05-01T09:13:43.001Z</time></trkpt><trkpt lat="46.09214152900253" lon="12.669402689904366"><ele>209.5</ele><time>2026-05-01T09:13:44.001Z</time></trkpt><trkpt lat="46.091990179880504" lon="12.669106151995944"><ele>209.0</ele><time>2026-05-01T09:13:45.001Z</time></trkpt><trkpt lat="46.09183475325466" lon="12.668804908602516"><ele>209.0</ele><time>2026-05-01T09:13:46.001Z</time></trkpt><trkpt lat="46.09167617429185" lon="12.668498247499773"><ele>209.0</ele><time>2026-05-01T09:13:47.001Z</time></trkpt><trkpt lat="46.09151403698966" lon="12.668189912010886"><ele>209.0</ele><time>2026-05-01T09:13:48.001Z</time></trkpt><trkpt lat="46.09135532292302" lon="12.667883325810983"><ele>209.0</ele><time>2026-05-01T09:13:49.001Z</time></trkpt><trkpt lat="46.091196526238555" lon="12.667575753076198"><ele>208.5</ele><time>2026-05-01T09:13:50.001Z</time></trkpt><trkpt lat="46.091035509923536" lon="12.66726344414495"><ele>208.0</ele><time>2026-05-01T09:13:51.001Z</time></trkpt><trkpt lat="46.090875425467054" lon="12.666950645875524"><ele>207.0</ele><time>2026-05-01T09:13:52.001Z</time></trkpt><trkpt lat="46.0907157602132" lon="12.66663759266958"><ele>206.0</ele><time>2026-05-01T09:13:53.001Z</time></trkpt><trkpt lat="46.09055410367637" lon="12.666328188540877"><ele>206.5</ele><time>2026-05-01T09:13:54.001Z</time></trkpt><trkpt lat="46.09040454961263" lon="12.666025172643952"><ele>207.0</ele><time>2026-05-01T09:13:55.001Z</time></trkpt><trkpt lat="46.090267511476" lon="12.665722704803127"><ele>207.0</ele><time>2026-05-01T09:13:56.001Z</time></trkpt><trkpt lat="46.09013647213303" lon="12.665422245602233"><ele>207.0</ele><time>2026-05-01T09:13:57.001Z</time></trkpt><trkpt lat="46.08998096315705" lon="12.66522237707096"><ele>206.33333333333331</ele><time>2026-05-01T09:13:58.001Z</time></trkpt><trkpt lat="46.089852025856516" lon="12.66497281136371"><ele>205.66666666666666</ele><time>2026-05-01T09:13:59.001Z</time></trkpt><trkpt lat="46.08972056675938" lon="12.664722625693528"><ele>205.0</ele><time>2026-05-01T09:14:00.001Z</time></trkpt><trkpt lat="46.089593469504806" lon="12.664466418434403"><ele>205.0</ele><time>2026-05-01T09:14:01.001Z</time></trkpt><trkpt lat="46.08946230286063" lon="12.664206703666967"><ele>205.0</ele><time>2026-05-01T09:14:02.001Z</time></trkpt><trkpt lat="46.08932718193032" lon="12.663946609424173"><ele>205.0</ele><time>2026-05-01T09:14:03.001Z</time></trkpt><trkpt lat="46.089181376528956" lon="12.663671556750915"><ele>204.0</ele><time>2026-05-01T09:14:04.001Z</time></trkpt><trkpt lat="46.08902911314446" lon="12.663390825156391"><ele>203.0</ele><time>2026-05-01T09:14:05.001Z</time></trkpt><trkpt lat="46.08887454678898" lon="12.663115370614392"><ele>203.0</ele><time>2026-05-01T09:14:06.001Z</time></trkpt><trkpt lat="46.08871733497619" lon="12.662832243361692"><ele>203.0</ele><time>2026-05-01T09:14:07.001Z</time></trkpt><trkpt lat="46.08854729885085" lon="12.662544056661535"><ele>203.0</ele><time>2026-05-01T09:14:08.001Z</time></trkpt><trkpt lat="46.08837314068213" lon="12.662253436433973"><ele>203.0</ele><time>2026-05-01T09:14:09.001Z</time></trkpt><trkpt lat="46.08819580436111" lon="12.661960709842555"><ele>202.5</ele><time>2026-05-01T09:14:10.001Z</time></trkpt><trkpt lat="46.08801907189442" lon="12.661665818120758"><ele>202.0</ele><time>2026-05-01T09:14:11.001Z</time></trkpt><trkpt lat="46.087843493952086" lon="12.661372165612327"><ele>201.5</ele><time>2026-05-01T09:14:12.001Z</time></trkpt><trkpt lat="46.0876705132006" lon="12.661081503647473"><ele>201.0</ele><time>2026-05-01T09:14:13.001Z</time></trkpt><trkpt lat="46.087498343553705" lon="12.660795531645327"><ele>201.0</ele><time>2026-05-01T09:14:14.001Z</time></trkpt><trkpt lat="46.08732451957393" lon="12.660511573734224"><ele>201.0</ele><time>2026-05-01T09:14:15.001Z</time></trkpt><trkpt lat="46.087156261664965" lon="12.660230149541121"><ele>201.0</ele><time>2026-05-01T09:14:16.001Z</time></trkpt><trkpt lat="46.086985012617966" lon="12.659941845342653"><ele>201.0</ele><time>2026-05-01T09:14:17.001Z</time></trkpt><trkpt lat="46.08680882930336" lon="12.659646161351821"><ele>200.5</ele><time>2026-05-01T09:14:18.001Z</time></trkpt><trkpt lat="46.086632773765665" lon="12.659350311332446"><ele>200.0</ele><time>2026-05-01T09:14:19.001Z</time></trkpt><trkpt lat="46.08648181351246" lon="12.659101032241827"><ele>199.33333333333334</ele><time>2026-05-01T09:14:20.001Z</time></trkpt><trkpt lat="46.086341338818976" lon="12.65883657768634"><ele>198.66666666666669</ele><time>2026-05-01T09:14:21.001Z</time></trkpt><trkpt lat="46.08619020376901" lon="12.658614254177426"><ele>198.0</ele><time>2026-05-01T09:14:22.001Z</time></trkpt><trkpt lat="46.08605337061702" lon="12.658381911795592"><ele>198.0</ele><time>2026-05-01T09:14:23.001Z</time></trkpt><trkpt lat="46.085927947188395" lon="12.658172152974936"><ele>198.0</ele><time>2026-05-01T09:14:24.001Z</time></trkpt><trkpt lat="46.08580244120061" lon="12.657960266307834"><ele>198.0</ele><time>2026-05-01T09:14:25.001Z</time></trkpt><trkpt lat="46.085675898107645" lon="12.657751560661819"><ele>197.33333333333331</ele><time>2026-05-01T09:14:26.001Z</time></trkpt><trkpt lat="46.085560806231555" lon="12.657524241457985"><ele>196.66666666666666</ele><time>2026-05-01T09:14:27.001Z</time></trkpt><trkpt lat="46.08543409034268" lon="12.657311015062556"><ele>196.0</ele><time>2026-05-01T09:14:28.001Z</time></trkpt><trkpt lat="46.08529483223414" lon="12.657111314483226"><ele>195.66666666666666</ele><time>2026-05-01T09:14:29.001Z</time></trkpt><trkpt lat="46.0851578620491" lon="12.65688315148221"><ele>195.33333333333331</ele><time>2026-05-01T09:14:30.001Z</time></trkpt><trkpt lat="46.085012426922006" lon="12.656641331849798"><ele>195.0</ele><time>2026-05-01T09:14:31.001Z</time></trkpt><trkpt lat="46.0848539826397" lon="12.656371964518963"><ele>194.5</ele><time>2026-05-01T09:14:32.001Z</time></trkpt><trkpt lat="46.08469164740213" lon="12.656096484517041"><ele>194.0</ele><time>2026-05-01T09:14:33.001Z</time></trkpt><trkpt lat="46.08454102038315" lon="12.655842460360223"><ele>194.0</ele><time>2026-05-01T09:14:34.001Z</time></trkpt><trkpt lat="46.08440311074973" lon="12.655613139341321"><ele>194.0</ele><time>2026-05-01T09:14:35.001Z</time></trkpt><trkpt lat="46.084274831302906" lon="12.655395895626073"><ele>194.0</ele><time>2026-05-01T09:14:36.001Z</time></trkpt><trkpt lat="46.08415071231368" lon="12.65518218245956"><ele>194.0</ele><time>2026-05-01T09:14:37.001Z</time></trkpt><trkpt lat="46.08403377888485" lon="12.654983477764038"><ele>194.0</ele><time>2026-05-01T09:14:38.001Z</time></trkpt><trkpt lat="46.08392127366302" lon="12.65479377595223"><ele>194.0</ele><time>2026-05-01T09:14:39.001Z</time></trkpt><trkpt lat="46.08380317426284" lon="12.654598604368283"><ele>193.66666666666669</ele><time>2026-05-01T09:14:40.001Z</time></trkpt><trkpt lat="46.08368395379256" lon="12.65440258367952"><ele>193.33333333333331</ele><time>2026-05-01T09:14:41.001Z</time></trkpt><trkpt lat="46.08357273466263" lon="12.654217311750147"><ele>193.0</ele><time>2026-05-01T09:14:42.001Z</time></trkpt><trkpt lat="46.08347588646731" lon="12.654056967665584"><ele>193.0</ele><time>2026-05-01T09:14:43.001Z</time></trkpt><trkpt lat="46.08338655042402" lon="12.653904961224045"><ele>193.0</ele><time>2026-05-01T09:14:44.001Z</time></trkpt><trkpt lat="46.083305133070986" lon="12.653755010028776"><ele>193.0</ele><time>2026-05-01T09:14:45.001Z</time></trkpt><trkpt lat="46.083241102655656" lon="12.653605288309967"><ele>193.0</ele><time>2026-05-01T09:14:46.001Z</time></trkpt><trkpt lat="46.08318498169507" lon="12.653463076282263"><ele>193.0</ele><time>2026-05-01T09:14:47.001Z</time></trkpt><trkpt lat="46.08313935655554" lon="12.653339594386953"><ele>193.0</ele><time>2026-05-01T09:14:48.001Z</time></trkpt><trkpt lat="46.08310989907426" lon="12.65323666826941"><ele>193.0</ele><time>2026-05-01T09:14:49.001Z</time></trkpt><trkpt lat="46.08309714865304" lon="12.65308675363157"><ele>193.0</ele><time>2026-05-01T09:14:51.001Z</time></trkpt><trkpt lat="46.083129405917454" lon="12.652886290510773"><ele>193.0</ele><time>2026-05-01T09:14:53.001Z</time></trkpt><trkpt lat="46.08316453690758" lon="12.6527394779707"><ele>193.0</ele><time>2026-05-01T09:14:54.001Z</time></trkpt><trkpt lat="46.08318593300024" lon="12.652597885424157"><ele>193.0</ele><time>2026-05-01T09:14:55.001Z</time></trkpt><trkpt lat="46.08317784466229" lon="12.652476361191212"><ele>193.0</ele><time>2026-05-01T09:14:56.001Z</time></trkpt><trkpt lat="46.083142691950115" lon="12.65236396747789"><ele>193.0</ele><time>2026-05-01T09:14:57.001Z</time></trkpt><trkpt lat="46.08309002337822" lon="12.652254689369979"><ele>193.0</ele><time>2026-05-01T09:14:58.001Z</time></trkpt><trkpt lat="46.08302242704274" lon="12.652172202487636"><ele>193.0</ele><time>2026-05-01T09:14:59.001Z</time></trkpt><trkpt lat="46.08293980488965" lon="12.652119290945583"><ele>193.0</ele><time>2026-05-01T09:15:00.001Z</time></trkpt><trkpt lat="46.08284575136571" lon="12.652093448866673"><ele>193.0</ele><time>2026-05-01T09:15:01.001Z</time></trkpt><trkpt lat="46.08274738435338" lon="12.652106755318194"><ele>193.0</ele><time>2026-05-01T09:15:02.001Z</time></trkpt><trkpt lat="46.08265961827074" lon="12.652145846258046"><ele>193.0</ele><time>2026-05-01T09:15:03.001Z</time></trkpt><trkpt lat="46.08258439677524" lon="12.652220609493659"><ele>193.0</ele><time>2026-05-01T09:15:04.001Z</time></trkpt><trkpt lat="46.08253581032026" lon="12.652341555738781"><ele>193.0</ele><time>2026-05-01T09:15:05.001Z</time></trkpt><trkpt lat="46.082501128228145" lon="12.652468399122903"><ele>193.0</ele><time>2026-05-01T09:15:06.001Z</time></trkpt><trkpt lat="46.08248565306635" lon="12.65261928105858"><ele>193.0</ele><time>2026-05-01T09:15:07.001Z</time></trkpt><trkpt lat="46.08249672457181" lon="12.65277113713075"><ele>193.0</ele><time>2026-05-01T09:15:08.001Z</time></trkpt><trkpt lat="46.08252620824752" lon="12.652921627182975"><ele>192.8</ele><time>2026-05-01T09:15:09.001Z</time></trkpt><trkpt lat="46.082556816787246" lon="12.653079069154655"><ele>192.60000000000002</ele><time>2026-05-01T09:15:10.001Z</time></trkpt><trkpt lat="46.082556198138434" lon="12.65323057204151"><ele>192.39999999999998</ele><time>2026-05-01T09:15:11.001Z</time></trkpt><trkpt lat="46.08251698083065" lon="12.653366443170922"><ele>192.2</ele><time>2026-05-01T09:15:12.001Z</time></trkpt><trkpt lat="46.082453722593975" lon="12.65349604515202"><ele>192.0</ele><time>2026-05-01T09:15:13.001Z</time></trkpt><trkpt lat="46.08237250534781" lon="12.653660165032784"><ele>191.75</ele><time>2026-05-01T09:15:14.001Z</time></trkpt><trkpt lat="46.08229295570999" lon="12.653834198588084"><ele>191.5</ele><time>2026-05-01T09:15:15.001Z</time></trkpt><trkpt lat="46.082217665800506" lon="12.654007182955787"><ele>191.25</ele><time>2026-05-01T09:15:16.001Z</time></trkpt><trkpt lat="46.0821524460846" lon="12.654154489421478"><ele>191.0</ele><time>2026-05-01T09:15:17.001Z</time></trkpt><trkpt lat="46.08209805659065" lon="12.6542737236471"><ele>191.0</ele><time>2026-05-01T09:15:18.001Z</time></trkpt><trkpt lat="46.082053449996316" lon="12.65435822528653"><ele>191.0</ele><time>2026-05-01T09:15:19.001Z</time></trkpt><trkpt lat="46.08198733974887" lon="12.654470092278554"><ele>191.0</ele><time>2026-05-01T09:15:21.001Z</time></trkpt><trkpt lat="46.081948505316895" lon="12.654569179949219"><ele>191.0</ele><time>2026-05-01T09:15:55.002Z</time></trkpt><trkpt lat="46.081913787795024" lon="12.654681984909303"><ele>191.0</ele><time>2026-05-01T09:15:56.001Z</time></trkpt><trkpt lat="46.08186707656065" lon="12.654842364100663"><ele>191.0</ele><time>2026-05-01T09:15:57.001Z</time></trkpt><trkpt lat="46.08179498146409" lon="12.65504381565224"><ele>191.0</ele><time>2026-05-01T09:15:58.001Z</time></trkpt><trkpt lat="46.081723453906946" lon="12.655232312675912"><ele>191.0</ele><time>2026-05-01T09:15:59.001Z</time></trkpt><trkpt lat="46.08163290919804" lon="12.655437421662006"><ele>190.33333333333331</ele><time>2026-05-01T09:16:00.001Z</time></trkpt><trkpt lat="46.081536459397825" lon="12.655654904684116"><ele>189.66666666666666</ele><time>2026-05-01T09:16:01.001Z</time></trkpt><trkpt lat="46.081437227235426" lon="12.65587549116095"><ele>189.0</ele><time>2026-05-01T09:16:02.001Z</time></trkpt><trkpt lat="46.08133308393025" lon="12.656099940181285"><ele>188.66666666666666</ele><time>2026-05-01T09:16:03.001Z</time></trkpt><trkpt lat="46.081221033255936" lon="12.656329688050292"><ele>188.33333333333331</ele><time>2026-05-01T09:16:04.001Z</time></trkpt><trkpt lat="46.081102595448144" lon="12.656553857110024"><ele>188.0</ele><time>2026-05-01T09:16:05.001Z</time></trkpt><trkpt lat="46.08098277489509" lon="12.65676798688174"><ele>188.0</ele><time>2026-05-01T09:16:06.001Z</time></trkpt><trkpt lat="46.080857365175994" lon="12.656976476494847"><ele>188.0</ele><time>2026-05-01T09:16:07.001Z</time></trkpt><trkpt lat="46.08073229964771" lon="12.657179029560492"><ele>188.0</ele><time>2026-05-01T09:16:08.001Z</time></trkpt><trkpt lat="46.08060352465629" lon="12.657380055562184"><ele>188.33333333333331</ele><time>2026-05-01T09:16:09.001Z</time></trkpt><trkpt lat="46.080466264537236" lon="12.65758108084738"><ele>188.66666666666666</ele><time>2026-05-01T09:16:10.001Z</time></trkpt><trkpt lat="46.0803185144743" lon="12.65778376894156"><ele>189.0</ele><time>2026-05-01T09:16:11.001Z</time></trkpt><trkpt lat="46.08016042520138" lon="12.657990041745393"><ele>189.33333333333334</ele><time>2026-05-01T09:16:12.001Z</time></trkpt><trkpt lat="46.079997111916256" lon="12.658191208408804"><ele>189.66666666666669</ele><time>2026-05-01T09:16:13.001Z</time></trkpt><trkpt lat="46.07982590594845" lon="12.658385673198273"><ele>190.0</ele><time>2026-05-01T09:16:14.001Z</time></trkpt><trkpt lat="46.079644773772074" lon="12.658574720524491"><ele>188.0</ele><time>2026-05-01T09:16:15.001Z</time></trkpt><trkpt lat="46.07945552146626" lon="12.658761090498636"><ele>186.0</ele><time>2026-05-01T09:16:16.001Z</time></trkpt><trkpt lat="46.07925209711718" lon="12.658949794857623"><ele>188.5</ele><time>2026-05-01T09:16:17.001Z</time></trkpt><trkpt lat="46.07904146483235" lon="12.65912817736335"><ele>191.0</ele><time>2026-05-01T09:16:18.001Z</time></trkpt><trkpt lat="46.078827110736725" lon="12.659291675561404"><ele>191.0</ele><time>2026-05-01T09:16:19.001Z</time></trkpt><trkpt lat="46.078617705889705" lon="12.659435641832355"><ele>191.0</ele><time>2026-05-01T09:16:20.001Z</time></trkpt><trkpt lat="46.07840227554449" lon="12.65957046228872"><ele>188.5</ele><time>2026-05-01T09:16:21.001Z</time></trkpt><trkpt lat="46.0781822845819" lon="12.659697375438867"><ele>186.0</ele><time>2026-05-01T09:16:22.001Z</time></trkpt><trkpt lat="46.07795676386932" lon="12.659818513333335"><ele>186.0</ele><time>2026-05-01T09:16:23.001Z</time></trkpt><trkpt lat="46.07773161591074" lon="12.659923181350674"><ele>186.0</ele><time>2026-05-01T09:16:24.001Z</time></trkpt><trkpt lat="46.077513781907456" lon="12.660010021367391"><ele>186.0</ele><time>2026-05-01T09:16:25.001Z</time></trkpt><trkpt lat="46.07731250634224" lon="12.66007852881701"><ele>186.0</ele><time>2026-05-01T09:16:26.001Z</time></trkpt><trkpt lat="46.077122094035914" lon="12.660134458734062"><ele>186.0</ele><time>2026-05-01T09:16:27.001Z</time></trkpt><trkpt lat="46.07694048047908" lon="12.66018099941967"><ele>186.0</ele><time>2026-05-01T09:16:28.001Z</time></trkpt><trkpt lat="46.076756520854204" lon="12.660225810128306"><ele>186.0</ele><time>2026-05-01T09:16:29.001Z</time></trkpt><trkpt lat="46.07655179631518" lon="12.66026541399786"><ele>186.0</ele><time>2026-05-01T09:16:30.001Z</time></trkpt><trkpt lat="46.076334325673294" lon="12.660289700250967"><ele>185.0</ele><time>2026-05-01T09:16:31.001Z</time></trkpt><trkpt lat="46.07610628255013" lon="12.660310573999626"><ele>184.0</ele><time>2026-05-01T09:16:32.001Z</time></trkpt><trkpt lat="46.07587060642654" lon="12.66032730778471"><ele>183.0</ele><time>2026-05-01T09:16:33.001Z</time></trkpt><trkpt lat="46.07564657181208" lon="12.660331715679755"><ele>182.0</ele><time>2026-05-01T09:16:34.001Z</time></trkpt><trkpt lat="46.075434832209666" lon="12.660326882883393"><ele>181.0</ele><time>2026-05-01T09:16:35.001Z</time></trkpt><trkpt lat="46.07523715158709" lon="12.66031255215857"><ele>181.0</ele><time>2026-05-01T09:16:36.001Z</time></trkpt><trkpt lat="46.075051010063085" lon="12.660290573903586"><ele>181.0</ele><time>2026-05-01T09:16:37.001Z</time></trkpt><trkpt lat="46.074872776104364" lon="12.66026068220707"><ele>181.0</ele><time>2026-05-01T09:16:38.001Z</time></trkpt><trkpt lat="46.07468158865649" lon="12.660228027102356"><ele>180.33333333333334</ele><time>2026-05-01T09:16:39.001Z</time></trkpt><trkpt lat="46.07448203718404" lon="12.660175140435818"><ele>179.66666666666666</ele><time>2026-05-01T09:16:40.001Z</time></trkpt><trkpt lat="46.07427005071876" lon="12.660108441481341"><ele>179.0</ele><time>2026-05-01T09:16:41.001Z</time></trkpt><trkpt lat="46.074046205745496" lon="12.660040419801094"><ele>178.0</ele><time>2026-05-01T09:16:42.001Z</time></trkpt><trkpt lat="46.07381426038735" lon="12.6599678148916"><ele>177.0</ele><time>2026-05-01T09:16:43.001Z</time></trkpt><trkpt lat="46.07357319912175" lon="12.659884618970151"><ele>177.0</ele><time>2026-05-01T09:16:44.001Z</time></trkpt><trkpt lat="46.07332898904497" lon="12.659797017167277"><ele>177.0</ele><time>2026-05-01T09:16:45.001Z</time></trkpt><trkpt lat="46.07307702394908" lon="12.659703140342518"><ele>177.5</ele><time>2026-05-01T09:16:46.001Z</time></trkpt><trkpt lat="46.07281300345217" lon="12.659605334043055"><ele>178.0</ele><time>2026-05-01T09:16:47.001Z</time></trkpt><trkpt lat="46.07254718600516" lon="12.659505828995362"><ele>176.5</ele><time>2026-05-01T09:16:48.001Z</time></trkpt><trkpt lat="46.07227845666363" lon="12.65940236956048"><ele>175.0</ele><time>2026-05-01T09:16:49.001Z</time></trkpt><trkpt lat="46.07201267898879" lon="12.659294966780367"><ele>175.0</ele><time>2026-05-01T09:16:50.001Z</time></trkpt><trkpt lat="46.071747894429954" lon="12.659185583580674"><ele>175.0</ele><time>2026-05-01T09:16:51.001Z</time></trkpt><trkpt lat="46.071479529958374" lon="12.659078114477634"><ele>174.5</ele><time>2026-05-01T09:16:52.001Z</time></trkpt><trkpt lat="46.071210853325404" lon="12.658976819395258"><ele>174.0</ele><time>2026-05-01T09:16:53.001Z</time></trkpt><trkpt lat="46.070942202355205" lon="12.658868734108822"><ele>172.5</ele><time>2026-05-01T09:16:54.001Z</time></trkpt><trkpt lat="46.07067726004019" lon="12.65876014173357"><ele>171.0</ele><time>2026-05-01T09:16:55.001Z</time></trkpt><trkpt lat="46.07041126139264" lon="12.65865814275278"><ele>171.0</ele><time>2026-05-01T09:16:56.001Z</time></trkpt><trkpt lat="46.070150205896276" lon="12.658550558842549"><ele>171.0</ele><time>2026-05-01T09:16:57.001Z</time></trkpt><trkpt lat="46.06988948860187" lon="12.658454306960103"><ele>171.0</ele><time>2026-05-01T09:16:58.001Z</time></trkpt><trkpt lat="46.069628536781" lon="12.658357409885184"><ele>171.0</ele><time>2026-05-01T09:16:59.001Z</time></trkpt><trkpt lat="46.06936311566137" lon="12.65825282704385"><ele>170.0</ele><time>2026-05-01T09:17:00.001Z</time></trkpt><trkpt lat="46.0690986061257" lon="12.658150348792526"><ele>169.0</ele><time>2026-05-01T09:17:01.001Z</time></trkpt><trkpt lat="46.06883253347092" lon="12.658046807867162"><ele>169.0</ele><time>2026-05-01T09:17:02.001Z</time></trkpt><trkpt lat="46.06856326117476" lon="12.65793869275368"><ele>169.0</ele><time>2026-05-01T09:17:03.001Z</time></trkpt><trkpt lat="46.06830261646901" lon="12.657836226892664"><ele>168.0</ele><time>2026-05-01T09:17:04.001Z</time></trkpt><trkpt lat="46.06803968525934" lon="12.657736608765138"><ele>167.0</ele><time>2026-05-01T09:17:05.001Z</time></trkpt><trkpt lat="46.067774081422684" lon="12.657633557424345"><ele>167.0</ele><time>2026-05-01T09:17:06.001Z</time></trkpt><trkpt lat="46.06750710167714" lon="12.657528879957686"><ele>167.0</ele><time>2026-05-01T09:17:07.001Z</time></trkpt><trkpt lat="46.06724068817384" lon="12.657420818948573"><ele>165.5</ele><time>2026-05-01T09:17:08.001Z</time></trkpt><trkpt lat="46.066973635282196" lon="12.657314315245964"><ele>164.0</ele><time>2026-05-01T09:17:09.001Z</time></trkpt><trkpt lat="46.06671312774243" lon="12.657212007519307"><ele>163.5</ele><time>2026-05-01T09:17:10.001Z</time></trkpt><trkpt lat="46.066446108188515" lon="12.657109986536371"><ele>163.0</ele><time>2026-05-01T09:17:11.001Z</time></trkpt><trkpt lat="46.06618396034699" lon="12.657002306799393"><ele>163.0</ele><time>2026-05-01T09:17:12.001Z</time></trkpt><trkpt lat="46.06591972043223" lon="12.656902639878217"><ele>163.0</ele><time>2026-05-01T09:17:13.001Z</time></trkpt><trkpt lat="46.06565120257077" lon="12.656807354330153"><ele>163.0</ele><time>2026-05-01T09:17:14.001Z</time></trkpt><trkpt lat="46.06538307784285" lon="12.656701045987502"><ele>163.0</ele><time>2026-05-01T09:17:15.001Z</time></trkpt><trkpt lat="46.06511029844322" lon="12.656597007103677"><ele>162.5</ele><time>2026-05-01T09:17:16.001Z</time></trkpt><trkpt lat="46.06483179739519" lon="12.656492796959446"><ele>162.0</ele><time>2026-05-01T09:17:17.001Z</time></trkpt><trkpt lat="46.064558701361385" lon="12.656378703766158"><ele>162.0</ele><time>2026-05-01T09:17:18.001Z</time></trkpt><trkpt lat="46.06430263969456" lon="12.656281810795303"><ele>162.0</ele><time>2026-05-01T09:17:19.001Z</time></trkpt><trkpt lat="46.0640544767274" lon="12.656178424516698"><ele>160.5</ele><time>2026-05-01T09:17:20.001Z</time></trkpt><trkpt lat="46.06381166131164" lon="12.65607476079865"><ele>159.0</ele><time>2026-05-01T09:17:21.001Z</time></trkpt><trkpt lat="46.06357114911402" lon="12.655971187887362"><ele>159.0</ele><time>2026-05-01T09:17:22.001Z</time></trkpt><trkpt lat="46.06333236452003" lon="12.655869775400996"><ele>159.0</ele><time>2026-05-01T09:17:23.001Z</time></trkpt><trkpt lat="46.0630940084365" lon="12.655772285429231"><ele>159.0</ele><time>2026-05-01T09:17:24.001Z</time></trkpt><trkpt lat="46.062859546189244" lon="12.655675684790324"><ele>159.0</ele><time>2026-05-01T09:17:25.001Z</time></trkpt><trkpt lat="46.062629475218834" lon="12.655580562449478"><ele>157.5</ele><time>2026-05-01T09:17:26.001Z</time></trkpt><trkpt lat="46.06240151387719" lon="12.655488489012885"><ele>156.0</ele><time>2026-05-01T09:17:27.001Z</time></trkpt><trkpt lat="46.062178537389165" lon="12.655405418469163"><ele>156.0</ele><time>2026-05-01T09:17:28.001Z</time></trkpt><trkpt lat="46.061952554302856" lon="12.65532836906188"><ele>156.0</ele><time>2026-05-01T09:17:29.001Z</time></trkpt><trkpt lat="46.06172400208911" lon="12.655258503748485"><ele>156.0</ele><time>2026-05-01T09:17:30.001Z</time></trkpt><trkpt lat="46.0614916574981" lon="12.65520098254435"><ele>156.0</ele><time>2026-05-01T09:17:31.001Z</time></trkpt><trkpt lat="46.06125924632118" lon="12.655146641481824"><ele>156.0</ele><time>2026-05-01T09:17:32.002Z</time></trkpt><trkpt lat="46.06102476701327" lon="12.655106471081753"><ele>156.0</ele><time>2026-05-01T09:17:33.002Z</time></trkpt><trkpt lat="46.060785117429496" lon="12.655075068160393"><ele>156.0</ele><time>2026-05-01T09:17:34.002Z</time></trkpt><trkpt lat="46.060543989042564" lon="12.65505792878716"><ele>156.0</ele><time>2026-05-01T09:17:35.002Z</time></trkpt><trkpt lat="46.06029811561649" lon="12.655063681486578"><ele>156.0</ele><time>2026-05-01T09:17:36.002Z</time></trkpt><trkpt lat="46.060058606981485" lon="12.655084230605828"><ele>156.0</ele><time>2026-05-01T09:17:37.002Z</time></trkpt><trkpt lat="46.059808161474145" lon="12.655119596840526"><ele>155.5</ele><time>2026-05-01T09:17:38.002Z</time></trkpt><trkpt lat="46.05955455470327" lon="12.655168039886064"><ele>155.0</ele><time>2026-05-01T09:17:39.002Z</time></trkpt><trkpt lat="46.05929467361213" lon="12.655218691111832"><ele>154.0</ele><time>2026-05-01T09:17:40.002Z</time></trkpt><trkpt lat="46.05902907426258" lon="12.655270701944357"><ele>153.0</ele><time>2026-05-01T09:17:41.002Z</time></trkpt><trkpt lat="46.05875973058592" lon="12.655326299437135"><ele>153.0</ele><time>2026-05-01T09:17:42.002Z</time></trkpt><trkpt lat="46.05848307737053" lon="12.655380902869704"><ele>153.0</ele><time>2026-05-01T09:17:43.002Z</time></trkpt><trkpt lat="46.058206829110915" lon="12.655436834352301"><ele>152.0</ele><time>2026-05-01T09:17:44.002Z</time></trkpt><trkpt lat="46.05793227292783" lon="12.655488886095556"><ele>151.0</ele><time>2026-05-01T09:17:45.002Z</time></trkpt><trkpt lat="46.05766176364582" lon="12.655541476557577"><ele>150.5</ele><time>2026-05-01T09:17:46.002Z</time></trkpt><trkpt lat="46.05739271861724" lon="12.655594144585226"><ele>150.0</ele><time>2026-05-01T09:17:47.002Z</time></trkpt><trkpt lat="46.05712962251498" lon="12.655644640545056"><ele>150.0</ele><time>2026-05-01T09:17:48.002Z</time></trkpt><trkpt lat="46.0568813821076" lon="12.65568943149279"><ele>150.0</ele><time>2026-05-01T09:17:49.002Z</time></trkpt><trkpt lat="46.056646287354134" lon="12.655734645835691"><ele>149.0</ele><time>2026-05-01T09:17:50.002Z</time></trkpt><trkpt lat="46.05642455741788" lon="12.655776849526438"><ele>148.0</ele><time>2026-05-01T09:17:51.002Z</time></trkpt><trkpt lat="46.05620666736384" lon="12.655816921158634"><ele>147.0</ele><time>2026-05-01T09:17:52.002Z</time></trkpt><trkpt lat="46.05600778682275" lon="12.65585554118859"><ele>147.0</ele><time>2026-05-01T09:17:53.002Z</time></trkpt><trkpt lat="46.05581877992684" lon="12.655901444813642"><ele>147.0</ele><time>2026-05-01T09:17:54.002Z</time></trkpt><trkpt lat="46.05562628437335" lon="12.655958952553595"><ele>147.0</ele><time>2026-05-01T09:17:55.002Z</time></trkpt><trkpt lat="46.055436504995484" lon="12.656035093927862"><ele>147.0</ele><time>2026-05-01T09:17:56.002Z</time></trkpt><trkpt lat="46.05525469577479" lon="12.656119418734095"><ele>147.0</ele><time>2026-05-01T09:17:57.002Z</time></trkpt><trkpt lat="46.055085972658" lon="12.656209180871024"><ele>147.0</ele><time>2026-05-01T09:17:58.002Z</time></trkpt><trkpt lat="46.05492362229888" lon="12.656299947931537"><ele>147.25</ele><time>2026-05-01T09:17:59.002Z</time></trkpt><trkpt lat="46.05477330281342" lon="12.656385980113699"><ele>147.5</ele><time>2026-05-01T09:18:00.002Z</time></trkpt><trkpt lat="46.05463677606611" lon="12.656462800319211"><ele>147.75</ele><time>2026-05-01T09:18:01.002Z</time></trkpt><trkpt lat="46.05451653261325" lon="12.65652994493817"><ele>148.0</ele><time>2026-05-01T09:18:02.002Z</time></trkpt><trkpt lat="46.05441253800033" lon="12.656583359167538"><ele>148.0</ele><time>2026-05-01T09:18:03.002Z</time></trkpt><trkpt lat="46.05431669688699" lon="12.656624942747454"><ele>148.0</ele><time>2026-05-01T09:18:04.002Z</time></trkpt><trkpt lat="46.05422224526329" lon="12.656649800134518"><ele>148.0</ele><time>2026-05-01T09:18:05.002Z</time></trkpt><trkpt lat="46.05413323113674" lon="12.656643120919876"><ele>148.0</ele><time>2026-05-01T09:18:06.001Z</time></trkpt><trkpt lat="46.05405167403748" lon="12.656604815053758"><ele>148.0</ele><time>2026-05-01T09:18:07.001Z</time></trkpt><trkpt lat="46.05396470024024" lon="12.656543459396705"><ele>148.0</ele><time>2026-05-01T09:18:08.001Z</time></trkpt><trkpt lat="46.05387332142419" lon="12.656531966851945"><ele>148.0</ele><time>2026-05-01T09:18:09.001Z</time></trkpt><trkpt lat="46.053780000856456" lon="12.65658009434518"><ele>148.0</ele><time>2026-05-01T09:18:10.001Z</time></trkpt><trkpt lat="46.053699742781966" lon="12.656666887281432"><ele>148.0</ele><time>2026-05-01T09:18:11.001Z</time></trkpt><trkpt lat="46.053633882530136" lon="12.656808375440662"><ele>148.0</ele><time>2026-05-01T09:18:12.001Z</time></trkpt><trkpt lat="46.05354743626128" lon="12.656942239725925"><ele>147.33333333333334</ele><time>2026-05-01T09:18:13.001Z</time></trkpt><trkpt lat="46.053428927678844" lon="12.657020885523295"><ele>146.66666666666666</ele><time>2026-05-01T09:18:14.001Z</time></trkpt><trkpt lat="46.05326901062286" lon="12.657091183724418"><ele>146.0</ele><time>2026-05-01T09:18:15.001Z</time></trkpt><trkpt lat="46.05308154801806" lon="12.657155350609823"><ele>146.0</ele><time>2026-05-01T09:18:16.001Z</time></trkpt><trkpt lat="46.05289598566054" lon="12.657209967726764"><ele>146.0</ele><time>2026-05-01T09:18:17.001Z</time></trkpt><trkpt lat="46.05269071720822" lon="12.65725930207731"><ele>146.0</ele><time>2026-05-01T09:18:18.001Z</time></trkpt><trkpt lat="46.052479537404366" lon="12.657312860906664"><ele>144.66666666666666</ele><time>2026-05-01T09:18:19.001Z</time></trkpt><trkpt lat="46.05226889518425" lon="12.657366370118286"><ele>143.33333333333334</ele><time>2026-05-01T09:18:20.001Z</time></trkpt><trkpt lat="46.05204976347053" lon="12.657422875821862"><ele>142.0</ele><time>2026-05-01T09:18:21.001Z</time></trkpt><trkpt lat="46.051836666327276" lon="12.657476666333363"><ele>142.0</ele><time>2026-05-01T09:18:22.001Z</time></trkpt><trkpt lat="46.05164155947352" lon="12.657529138088469"><ele>142.0</ele><time>2026-05-01T09:18:23.001Z</time></trkpt><trkpt lat="46.051451913759834" lon="12.657579835368846"><ele>142.0</ele><time>2026-05-01T09:18:24.001Z</time></trkpt><trkpt lat="46.05126926355209" lon="12.657627846905259"><ele>142.33333333333334</ele><time>2026-05-01T09:18:25.001Z</time></trkpt><trkpt lat="46.051092699036595" lon="12.657671488811522"><ele>142.66666666666666</ele><time>2026-05-01T09:18:26.001Z</time></trkpt><trkpt lat="46.05090707628743" lon="12.657717515589894"><ele>143.0</ele><time>2026-05-01T09:18:27.001Z</time></trkpt><trkpt lat="46.05071659049135" lon="12.657763974823723"><ele>142.66666666666666</ele><time>2026-05-01T09:18:28.001Z</time></trkpt><trkpt lat="46.050519311340345" lon="12.657809445704947"><ele>142.33333333333334</ele><time>2026-05-01T09:18:29.001Z</time></trkpt><trkpt lat="46.05032122337416" lon="12.657847763999353"><ele>142.0</ele><time>2026-05-01T09:18:30.001Z</time></trkpt><trkpt lat="46.050117568589194" lon="12.657872278955193"><ele>141.66666666666669</ele><time>2026-05-01T09:18:31.001Z</time></trkpt><trkpt lat="46.049908799944234" lon="12.657889637190268"><ele>141.33333333333334</ele><time>2026-05-01T09:18:32.001Z</time></trkpt><trkpt lat="46.04969804208509" lon="12.657901538572741"><ele>141.0</ele><time>2026-05-01T09:18:33.001Z</time></trkpt><trkpt lat="46.04948842929691" lon="12.657912035859622"><ele>141.0</ele><time>2026-05-01T09:18:34.001Z</time></trkpt><trkpt lat="46.049276942271874" lon="12.657921976869028"><ele>141.0</ele><time>2026-05-01T09:18:35.001Z</time></trkpt><trkpt lat="46.04907267531617" lon="12.657932053331544"><ele>141.0</ele><time>2026-05-01T09:18:36.001Z</time></trkpt><trkpt lat="46.04886957718316" lon="12.657940448088942"><ele>140.66666666666666</ele><time>2026-05-01T09:18:37.001Z</time></trkpt><trkpt lat="46.04866411887427" lon="12.657948612377723"><ele>140.33333333333331</ele><time>2026-05-01T09:18:38.001Z</time></trkpt><trkpt lat="46.048439863931684" lon="12.657960284484286"><ele>140.0</ele><time>2026-05-01T09:18:39.001Z</time></trkpt><trkpt lat="46.04820326461359" lon="12.65797373948096"><ele>140.0</ele><time>2026-05-01T09:18:40.001Z</time></trkpt><trkpt lat="46.04796721900476" lon="12.657988352890758"><ele>140.0</ele><time>2026-05-01T09:18:41.001Z</time></trkpt><trkpt lat="46.047740418357435" lon="12.657998806429566"><ele>140.0</ele><time>2026-05-01T09:18:42.001Z</time></trkpt><trkpt lat="46.04752594266244" lon="12.658008514632527"><ele>140.0</ele><time>2026-05-01T09:18:43.001Z</time></trkpt><trkpt lat="46.047328439616344" lon="12.658019581982165"><ele>140.0</ele><time>2026-05-01T09:18:44.001Z</time></trkpt><trkpt lat="46.04714025992047" lon="12.658028900418248"><ele>139.0</ele><time>2026-05-01T09:18:45.001Z</time></trkpt><trkpt lat="46.04696434081562" lon="12.658029423816805"><ele>138.0</ele><time>2026-05-01T09:18:46.001Z</time></trkpt><trkpt lat="46.0467701159518" lon="12.658012063079063"><ele>137.0</ele><time>2026-05-01T09:18:47.001Z</time></trkpt><trkpt lat="46.04655694539048" lon="12.65796669895458"><ele>137.0</ele><time>2026-05-01T09:18:48.001Z</time></trkpt><trkpt lat="46.04634706021613" lon="12.657898493128851"><ele>137.0</ele><time>2026-05-01T09:18:49.001Z</time></trkpt><trkpt lat="46.0461460621903" lon="12.657826496798016"><ele>137.0</ele><time>2026-05-01T09:18:50.001Z</time></trkpt><trkpt lat="46.04595616936062" lon="12.657761209388818"><ele>135.66666666666666</ele><time>2026-05-01T09:18:51.001Z</time></trkpt><trkpt lat="46.04577742604339" lon="12.657703587776506"><ele>134.33333333333334</ele><time>2026-05-01T09:18:52.001Z</time></trkpt><trkpt lat="46.045600994310874" lon="12.657649778069063"><ele>133.0</ele><time>2026-05-01T09:18:53.001Z</time></trkpt><trkpt lat="46.04543814733139" lon="12.657599283711251"><ele>133.0</ele><time>2026-05-01T09:18:54.001Z</time></trkpt><trkpt lat="46.04527738472133" lon="12.657549104815777"><ele>133.0</ele><time>2026-05-01T09:18:55.001Z</time></trkpt><trkpt lat="46.04511205726009" lon="12.657497691752873"><ele>133.0</ele><time>2026-05-01T09:18:56.001Z</time></trkpt><trkpt lat="46.0449451100728" lon="12.657445150794867"><ele>133.66666666666669</ele><time>2026-05-01T09:18:57.001Z</time></trkpt><trkpt lat="46.0447884576376" lon="12.657394608631176"><ele>134.33333333333334</ele><time>2026-05-01T09:18:58.001Z</time></trkpt><trkpt lat="46.04464200497436" lon="12.657348432591238"><ele>135.0</ele><time>2026-05-01T09:18:59.001Z</time></trkpt><trkpt lat="46.04449919295332" lon="12.657304115456103"><ele>135.0</ele><time>2026-05-01T09:19:00.001Z</time></trkpt><trkpt lat="46.04434782964486" lon="12.657255344671832"><ele>135.0</ele><time>2026-05-01T09:19:01.001Z</time></trkpt><trkpt lat="46.04418388222323" lon="12.657207560475834"><ele>135.0</ele><time>2026-05-01T09:19:02.001Z</time></trkpt><trkpt lat="46.044018412738495" lon="12.657157434245624"><ele>135.33333333333334</ele><time>2026-05-01T09:19:03.001Z</time></trkpt><trkpt lat="46.04385194015869" lon="12.65710872163978"><ele>135.66666666666669</ele><time>2026-05-01T09:19:04.001Z</time></trkpt><trkpt lat="46.04368023626034" lon="12.65705627574889"><ele>136.0</ele><time>2026-05-01T09:19:05.001Z</time></trkpt><trkpt lat="46.04350962246197" lon="12.656995121714418"><ele>135.66666666666669</ele><time>2026-05-01T09:19:06.001Z</time></trkpt><trkpt lat="46.04334296727915" lon="12.656929564509921"><ele>135.33333333333334</ele><time>2026-05-01T09:19:07.001Z</time></trkpt><trkpt lat="46.043189709291795" lon="12.656865805546646"><ele>135.0</ele><time>2026-05-01T09:19:08.001Z</time></trkpt><trkpt lat="46.043046294196756" lon="12.656799240672157"><ele>134.5</ele><time>2026-05-01T09:19:09.001Z</time></trkpt><trkpt lat="46.04290466723499" lon="12.656722404192289"><ele>134.0</ele><time>2026-05-01T09:19:10.001Z</time></trkpt><trkpt lat="46.04276487646329" lon="12.656638807183473"><ele>133.5</ele><time>2026-05-01T09:19:11.001Z</time></trkpt><trkpt lat="46.042641872622575" lon="12.656555213916105"><ele>133.0</ele><time>2026-05-01T09:19:12.001Z</time></trkpt><trkpt lat="46.042523822449596" lon="12.6564805752609"><ele>132.75</ele><time>2026-05-01T09:19:13.001Z</time></trkpt><trkpt lat="46.04241312365344" lon="12.656406575526065"><ele>132.5</ele><time>2026-05-01T09:19:14.001Z</time></trkpt><trkpt lat="46.042309810344555" lon="12.6563228254805"><ele>132.25</ele><time>2026-05-01T09:19:15.001Z</time></trkpt><trkpt lat="46.04220972469683" lon="12.656219725685888"><ele>132.0</ele><time>2026-05-01T09:19:16.001Z</time></trkpt><trkpt lat="46.04212010709281" lon="12.656121464859856"><ele>132.0</ele><time>2026-05-01T09:19:17.001Z</time></trkpt><trkpt lat="46.0420264298744" lon="12.656055240487587"><ele>132.0</ele><time>2026-05-01T09:19:18.001Z</time></trkpt><trkpt lat="46.04193444552824" lon="12.656023598644254"><ele>132.0</ele><time>2026-05-01T09:19:19.001Z</time></trkpt><trkpt lat="46.04184237059807" lon="12.656023756017316"><ele>132.0</ele><time>2026-05-01T09:19:20.001Z</time></trkpt><trkpt lat="46.0417434837573" lon="12.656060857616179"><ele>132.0</ele><time>2026-05-01T09:19:21.001Z</time></trkpt><trkpt lat="46.04164717817447" lon="12.65613860517251"><ele>131.5</ele><time>2026-05-01T09:19:22.001Z</time></trkpt><trkpt lat="46.041559599721936" lon="12.656250013135203"><ele>131.0</ele><time>2026-05-01T09:19:23.001Z</time></trkpt><trkpt lat="46.04146544201955" lon="12.656347164414385"><ele>130.5</ele><time>2026-05-01T09:19:24.001Z</time></trkpt><trkpt lat="46.041352519509616" lon="12.656388685973178"><ele>130.0</ele><time>2026-05-01T09:19:25.001Z</time></trkpt><trkpt lat="46.04123732342234" lon="12.656376189754038"><ele>130.0</ele><time>2026-05-01T09:19:26.001Z</time></trkpt><trkpt lat="46.041104885682095" lon="12.656322646795285"><ele>130.0</ele><time>2026-05-01T09:19:27.001Z</time></trkpt><trkpt lat="46.04094826623255" lon="12.656225702438816"><ele>130.0</ele><time>2026-05-01T09:19:28.001Z</time></trkpt><trkpt lat="46.04079094525529" lon="12.656140307214464"><ele>130.33333333333334</ele><time>2026-05-01T09:19:29.001Z</time></trkpt><trkpt lat="46.04062182872456" lon="12.656065419457496"><ele>130.66666666666666</ele><time>2026-05-01T09:19:30.001Z</time></trkpt><trkpt lat="46.04044026174384" lon="12.655998448631504"><ele>131.0</ele><time>2026-05-01T09:19:31.001Z</time></trkpt><trkpt lat="46.04024999141902" lon="12.65593366451643"><ele>131.0</ele><time>2026-05-01T09:19:32.001Z</time></trkpt><trkpt lat="46.04005620845202" lon="12.655870253481957"><ele>131.0</ele><time>2026-05-01T09:19:33.001Z</time></trkpt><trkpt lat="46.0398625762651" lon="12.655808375110986"><ele>131.0</ele><time>2026-05-01T09:19:34.001Z</time></trkpt><trkpt lat="46.03966778924806" lon="12.655748413038184"><ele>130.33333333333331</ele><time>2026-05-01T09:19:35.001Z</time></trkpt><trkpt lat="46.039468180445446" lon="12.655682866866327"><ele>129.66666666666666</ele><time>2026-05-01T09:19:36.001Z</time></trkpt><trkpt lat="46.0392668753163" lon="12.655614514355035"><ele>129.0</ele><time>2026-05-01T09:19:37.002Z</time></trkpt><trkpt lat="46.03906550159473" lon="12.655546289907939"><ele>128.66666666666666</ele><time>2026-05-01T09:19:38.002Z</time></trkpt><trkpt lat="46.03886645857364" lon="12.655479524596547"><ele>128.33333333333331</ele><time>2026-05-01T09:19:39.002Z</time></trkpt><trkpt lat="46.03866937788626" lon="12.65541111999926"><ele>128.0</ele><time>2026-05-01T09:19:40.002Z</time></trkpt><trkpt lat="46.0384716573013" lon="12.655343859875902"><ele>127.66666666666666</ele><time>2026-05-01T09:19:41.002Z</time></trkpt><trkpt lat="46.03827337583828" lon="12.655279022525674"><ele>127.33333333333334</ele><time>2026-05-01T09:19:42.002Z</time></trkpt><trkpt lat="46.03807214996098" lon="12.655213386262192"><ele>127.0</ele><time>2026-05-01T09:19:43.002Z</time></trkpt><trkpt lat="46.037866828919796" lon="12.655146114779592"><ele>127.0</ele><time>2026-05-01T09:19:44.002Z</time></trkpt><trkpt lat="46.03765542211061" lon="12.65507745543795"><ele>127.0</ele><time>2026-05-01T09:19:45.002Z</time></trkpt><trkpt lat="46.037436306914714" lon="12.655008320257442"><ele>127.0</ele><time>2026-05-01T09:19:46.002Z</time></trkpt><trkpt lat="46.03721232534907" lon="12.654936086285046"><ele>127.0</ele><time>2026-05-01T09:19:47.002Z</time></trkpt><trkpt lat="46.036984046274625" lon="12.654858386227497"><ele>127.0</ele><time>2026-05-01T09:19:48.002Z</time></trkpt><trkpt lat="46.036745460310584" lon="12.6547725259256"><ele>126.5</ele><time>2026-05-01T09:19:49.002Z</time></trkpt><trkpt lat="46.03650150419742" lon="12.654681037459055"><ele>126.0</ele><time>2026-05-01T09:19:50.002Z</time></trkpt><trkpt lat="46.03626541253469" lon="12.654588748712607"><ele>126.0</ele><time>2026-05-01T09:19:51.002Z</time></trkpt><trkpt lat="46.036036291256536" lon="12.65449515738251"><ele>126.0</ele><time>2026-05-01T09:19:52.002Z</time></trkpt><trkpt lat="46.035811314415305" lon="12.65440375107075"><ele>125.5</ele><time>2026-05-01T09:19:53.002Z</time></trkpt><trkpt lat="46.03558715736057" lon="12.654315029621836"><ele>125.0</ele><time>2026-05-01T09:19:54.002Z</time></trkpt><trkpt lat="46.035371141251794" lon="12.654228634992652"><ele>125.0</ele><time>2026-05-01T09:19:55.002Z</time></trkpt><trkpt lat="46.035161643388875" lon="12.654144607448666"><ele>125.0</ele><time>2026-05-01T09:19:56.002Z</time></trkpt><trkpt lat="46.03494961260545" lon="12.654058894243837"><ele>125.0</ele><time>2026-05-01T09:19:57.002Z</time></trkpt><trkpt lat="46.03473630948226" lon="12.653970918784962"><ele>124.0</ele><time>2026-05-01T09:19:58.002Z</time></trkpt><trkpt lat="46.03452112037053" lon="12.653882919579306"><ele>123.0</ele><time>2026-05-01T09:19:59.002Z</time></trkpt><trkpt lat="46.03429827176293" lon="12.653793269976566"><ele>123.5</ele><time>2026-05-01T09:20:00.002Z</time></trkpt><trkpt lat="46.034066331008525" lon="12.653699605136516"><ele>124.0</ele><time>2026-05-01T09:20:01.002Z</time></trkpt><trkpt lat="46.03385360584246" lon="12.653488265408626"><ele>122.5</ele><time>2026-05-01T09:20:02.002Z</time></trkpt><trkpt lat="46.033623416376635" lon="12.653395128274472"><ele>121.0</ele><time>2026-05-01T09:20:03.002Z</time></trkpt><trkpt lat="46.03340774672335" lon="12.653304241945097"><ele>121.0</ele><time>2026-05-01T09:20:04.002Z</time></trkpt><trkpt lat="46.03320125610115" lon="12.653217986826391"><ele>121.0</ele><time>2026-05-01T09:20:05.002Z</time></trkpt><trkpt lat="46.03300717391662" lon="12.653137278711695"><ele>121.0</ele><time>2026-05-01T09:20:06.002Z</time></trkpt><trkpt lat="46.03282095817605" lon="12.653059344937779"><ele>121.0</ele><time>2026-05-01T09:20:07.001Z</time></trkpt><trkpt lat="46.0326363501218" lon="12.65298218339074"><ele>121.0</ele><time>2026-05-01T09:20:08.001Z</time></trkpt><trkpt lat="46.03246252976585" lon="12.652908691175323"><ele>121.0</ele><time>2026-05-01T09:20:09.001Z</time></trkpt><trkpt lat="46.03227209373574" lon="12.652831975590795"><ele>120.66666666666667</ele><time>2026-05-01T09:20:10.001Z</time></trkpt><trkpt lat="46.03206580716475" lon="12.652770971406103"><ele>120.33333333333334</ele><time>2026-05-01T09:20:11.001Z</time></trkpt><trkpt lat="46.03184794392287" lon="12.652731937447639"><ele>120.0</ele><time>2026-05-01T09:20:12.001Z</time></trkpt><trkpt lat="46.031619645427526" lon="12.652713706050205"><ele>119.0</ele><time>2026-05-01T09:20:13.001Z</time></trkpt><trkpt lat="46.03138975678376" lon="12.652692510495076"><ele>118.0</ele><time>2026-05-01T09:20:14.001Z</time></trkpt><trkpt lat="46.031153772156266" lon="12.652670756536294"><ele>118.0</ele><time>2026-05-01T09:20:15.001Z</time></trkpt><trkpt lat="46.030917058935735" lon="12.65264888041758"><ele>118.0</ele><time>2026-05-01T09:20:16.001Z</time></trkpt><trkpt lat="46.03068384016699" lon="12.652623894226727"><ele>118.0</ele><time>2026-05-01T09:20:17.001Z</time></trkpt><trkpt lat="46.03045010989409" lon="12.652597020546892"><ele>118.0</ele><time>2026-05-01T09:20:18.001Z</time></trkpt><trkpt lat="46.03021851678124" lon="12.652574364181993"><ele>118.0</ele><time>2026-05-01T09:20:19.001Z</time></trkpt><trkpt lat="46.02999603908902" lon="12.652561636215351"><ele>118.0</ele><time>2026-05-01T09:20:20.001Z</time></trkpt><trkpt lat="46.02977011222609" lon="12.652571162719836"><ele>118.0</ele><time>2026-05-01T09:20:21.001Z</time></trkpt><trkpt lat="46.029547894531" lon="12.652584655410095"><ele>117.0</ele><time>2026-05-01T09:20:22.001Z</time></trkpt><trkpt lat="46.02931711581663" lon="12.652605142919349"><ele>116.0</ele><time>2026-05-01T09:20:23.001Z</time></trkpt><trkpt lat="46.02907805040422" lon="12.652632414372379"><ele>116.0</ele><time>2026-05-01T09:20:24.001Z</time></trkpt><trkpt lat="46.02883939548069" lon="12.652662202838068"><ele>116.0</ele><time>2026-05-01T09:20:25.001Z</time></trkpt><trkpt lat="46.02861063309772" lon="12.652830282983905"><ele>115.5</ele><time>2026-05-01T09:20:26.001Z</time></trkpt><trkpt lat="46.02837820458784" lon="12.65285792145188"><ele>115.0</ele><time>2026-05-01T09:20:27.001Z</time></trkpt><trkpt lat="46.028146116058785" lon="12.652884815576227"><ele>114.5</ele><time>2026-05-01T09:20:28.001Z</time></trkpt><trkpt lat="46.02791272784396" lon="12.6529091373994"><ele>114.0</ele><time>2026-05-01T09:20:29.001Z</time></trkpt><trkpt lat="46.0276719371665" lon="12.652793357573307"><ele>114.5</ele><time>2026-05-01T09:20:30.001Z</time></trkpt><trkpt lat="46.02743437560277" lon="12.652807707657935"><ele>115.0</ele><time>2026-05-01T09:20:31.001Z</time></trkpt><trkpt lat="46.02719386582488" lon="12.652811468201778"><ele>115.0</ele><time>2026-05-01T09:20:32.001Z</time></trkpt><trkpt lat="46.026954597431036" lon="12.652817871492894"><ele>115.0</ele><time>2026-05-01T09:20:33.001Z</time></trkpt><trkpt lat="46.026721496894844" lon="12.65282410972747"><ele>113.5</ele><time>2026-05-01T09:20:34.001Z</time></trkpt><trkpt lat="46.02648413243397" lon="12.652831844739117"><ele>112.0</ele><time>2026-05-01T09:20:35.001Z</time></trkpt><trkpt lat="46.026243491555576" lon="12.652837529633224"><ele>112.0</ele><time>2026-05-01T09:20:36.001Z</time></trkpt><trkpt lat="46.02599971265736" lon="12.652843743329754"><ele>112.0</ele><time>2026-05-01T09:20:37.001Z</time></trkpt><trkpt lat="46.02576490338604" lon="12.652849466913997"><ele>111.66666666666667</ele><time>2026-05-01T09:20:38.001Z</time></trkpt><trkpt lat="46.025546673407376" lon="12.652851997670583"><ele>111.33333333333334</ele><time>2026-05-01T09:20:39.001Z</time></trkpt><trkpt lat="46.02534141469353" lon="12.652852807000253"><ele>111.0</ele><time>2026-05-01T09:20:40.001Z</time></trkpt><trkpt lat="46.02514847341284" lon="12.652843415488181"><ele>110.33333333333334</ele><time>2026-05-01T09:20:41.001Z</time></trkpt><trkpt lat="46.02495890784552" lon="12.652831811196283"><ele>109.66666666666667</ele><time>2026-05-01T09:20:42.001Z</time></trkpt><trkpt lat="46.02476565745706" lon="12.652822107200764"><ele>109.0</ele><time>2026-05-01T09:20:43.001Z</time></trkpt><trkpt lat="46.024581458730424" lon="12.652793706884381"><ele>109.0</ele><time>2026-05-01T09:20:44.001Z</time></trkpt><trkpt lat="46.02442845961021" lon="12.652708206670434"><ele>109.0</ele><time>2026-05-01T09:20:45.001Z</time></trkpt><trkpt lat="46.024292573401716" lon="12.652584184495828"><ele>109.0</ele><time>2026-05-01T09:20:46.001Z</time></trkpt><trkpt lat="46.02384420112693" lon="12.652307862891318"><ele>109.0</ele><time>2026-05-01T09:20:47.001Z</time></trkpt><trkpt lat="46.023688611020255" lon="12.652738711849432"><ele>109.0</ele><time>2026-05-01T09:20:48.001Z</time></trkpt><trkpt lat="46.02353741737096" lon="12.652863570198711"><ele>109.5</ele><time>2026-05-01T09:20:49.001Z</time></trkpt><trkpt lat="46.02332518406837" lon="12.652856575230093"><ele>110.0</ele><time>2026-05-01T09:20:50.001Z</time></trkpt><trkpt lat="46.02307738121113" lon="12.652840371364276"><ele>109.33333333333333</ele><time>2026-05-01T09:20:51.001Z</time></trkpt><trkpt lat="46.022870211756924" lon="12.652830759234481"><ele>108.66666666666666</ele><time>2026-05-01T09:20:52.001Z</time></trkpt><trkpt lat="46.02267476192689" lon="12.652818792287135"><ele>108.0</ele><time>2026-05-01T09:20:53.001Z</time></trkpt><trkpt lat="46.02249228824834" lon="12.652803663232895"><ele>107.33333333333334</ele><time>2026-05-01T09:20:54.001Z</time></trkpt><trkpt lat="46.022316400999365" lon="12.652771524134826"><ele>106.66666666666667</ele><time>2026-05-01T09:20:55.001Z</time></trkpt><trkpt lat="46.02213652332589" lon="12.652732670056286"><ele>106.0</ele><time>2026-05-01T09:20:56.001Z</time></trkpt><trkpt lat="46.021976453602335" lon="12.652700176982549"><ele>106.0</ele><time>2026-05-01T09:20:57.001Z</time></trkpt><trkpt lat="46.02183932118181" lon="12.652659753373458"><ele>106.0</ele><time>2026-05-01T09:20:58.001Z</time></trkpt><trkpt lat="46.02171761335179" lon="12.652611300739885"><ele>106.0</ele><time>2026-05-01T09:20:59.001Z</time></trkpt><trkpt lat="46.021594335903885" lon="12.652552415570367"><ele>106.0</ele><time>2026-05-01T09:21:00.001Z</time></trkpt><trkpt lat="46.02149454289351" lon="12.65250129562998"><ele>105.8</ele><time>2026-05-01T09:21:01.001Z</time></trkpt><trkpt lat="46.02142004769075" lon="12.65245531317829"><ele>105.6</ele><time>2026-05-01T09:21:02.001Z</time></trkpt><trkpt lat="46.02133841120964" lon="12.65239390026031"><ele>105.4</ele><time>2026-05-01T09:21:03.001Z</time></trkpt><trkpt lat="46.02126865850385" lon="12.65231633817012"><ele>105.2</ele><time>2026-05-01T09:21:04.001Z</time></trkpt><trkpt lat="46.02121616588977" lon="12.652220310588296"><ele>105.0</ele><time>2026-05-01T09:21:05.001Z</time></trkpt><trkpt lat="46.02117214162068" lon="12.652071741269888"><ele>104.8</ele><time>2026-05-01T09:21:06.001Z</time></trkpt><trkpt lat="46.02112676311789" lon="12.651906849897113"><ele>104.6</ele><time>2026-05-01T09:21:07.001Z</time></trkpt><trkpt lat="46.021065067202386" lon="12.651782203861762"><ele>104.4</ele><time>2026-05-01T09:21:08.001Z</time></trkpt><trkpt lat="46.02098242461206" lon="12.651707207683566"><ele>104.2</ele><time>2026-05-01T09:21:09.001Z</time></trkpt><trkpt lat="46.02089630215833" lon="12.651669304964344"><ele>104.0</ele><time>2026-05-01T09:21:10.001Z</time></trkpt><trkpt lat="46.020803972736964" lon="12.651668387772414"><ele>103.83333333333333</ele><time>2026-05-01T09:21:11.001Z</time></trkpt><trkpt lat="46.02071124995582" lon="12.65170621693662"><ele>103.66666666666666</ele><time>2026-05-01T09:21:12.001Z</time></trkpt><trkpt lat="46.020614983954694" lon="12.651775587403781"><ele>103.5</ele><time>2026-05-01T09:21:13.001Z</time></trkpt><trkpt lat="46.02054190772041" lon="12.651869060375729"><ele>103.33333333333334</ele><time>2026-05-01T09:21:14.001Z</time></trkpt><trkpt lat="46.0204680362623" lon="12.651890492966812"><ele>103.16666666666667</ele><time>2026-05-01T09:21:15.001Z</time></trkpt><trkpt lat="46.02040097336076" lon="12.651927525060781"><ele>103.0</ele><time>2026-05-01T09:21:16.001Z</time></trkpt><trkpt lat="46.02032573885503" lon="12.651969069509118"><ele>103.0</ele><time>2026-05-01T09:21:17.001Z</time></trkpt><trkpt lat="46.02028405441988" lon="12.652183826854193"><ele>103.0</ele><time>2026-05-01T09:21:18.001Z</time></trkpt><trkpt lat="46.02017578917363" lon="12.652181871762133"><ele>103.0</ele><time>2026-05-01T09:21:19.001Z</time></trkpt><trkpt lat="46.02004974607404" lon="12.652151949224065"><ele>103.0</ele><time>2026-05-01T09:21:20.001Z</time></trkpt><trkpt lat="46.019936821155106" lon="12.652117401514529"><ele>102.60000000000001</ele><time>2026-05-01T09:21:21.001Z</time></trkpt><trkpt lat="46.019836093270314" lon="12.652081006793853"><ele>102.2</ele><time>2026-05-01T09:21:22Z</time></trkpt><trkpt lat="46.01973650536935" lon="12.652042658851116"><ele>101.8</ele><time>2026-05-01T09:21:23Z</time></trkpt><trkpt lat="46.01962980184436" lon="12.652003477771897"><ele>101.4</ele><time>2026-05-01T09:21:24Z</time></trkpt><trkpt lat="46.01951786254647" lon="12.65195848007533"><ele>101.0</ele><time>2026-05-01T09:21:25Z</time></trkpt><trkpt lat="46.01938741561639" lon="12.651907614926275"><ele>101.0</ele><time>2026-05-01T09:21:26Z</time></trkpt><trkpt lat="46.01924682937503" lon="12.651848146356112"><ele>101.0</ele><time>2026-05-01T09:21:27Z</time></trkpt><trkpt lat="46.01910893835795" lon="12.651786581252763"><ele>101.0</ele><time>2026-05-01T09:21:28Z</time></trkpt><trkpt lat="46.018958395439846" lon="12.651721112632972"><ele>101.0</ele><time>2026-05-01T09:21:29Z</time></trkpt><trkpt lat="46.01880248410301" lon="12.651641889611627"><ele>101.0</ele><time>2026-05-01T09:21:30Z</time></trkpt><trkpt lat="46.018642237780234" lon="12.651564887487996"><ele>101.0</ele><time>2026-05-01T09:21:31Z</time></trkpt><trkpt lat="46.01848279553393" lon="12.65149037324531"><ele>101.0</ele><time>2026-05-01T09:21:32Z</time></trkpt><trkpt lat="46.01832897759037" lon="12.651414253105576"><ele>100.0</ele><time>2026-05-01T09:21:33Z</time></trkpt><trkpt lat="46.018171851281046" lon="12.651344652732801"><ele>99.0</ele><time>2026-05-01T09:21:34Z</time></trkpt><trkpt lat="46.018008461199756" lon="12.651267816654226"><ele>98.0</ele><time>2026-05-01T09:21:35Z</time></trkpt><trkpt lat="46.01784574989559" lon="12.651192895273116"><ele>98.33333333333333</ele><time>2026-05-01T09:21:36Z</time></trkpt><trkpt lat="46.01767812997438" lon="12.651111163142879"><ele>98.66666666666666</ele><time>2026-05-01T09:21:37Z</time></trkpt><trkpt lat="46.017495690424305" lon="12.651024676919425"><ele>99.0</ele><time>2026-05-01T09:21:38Z</time></trkpt><trkpt lat="46.017309389062056" lon="12.6509328723482"><ele>98.33333333333334</ele><time>2026-05-01T09:21:39Z</time></trkpt><trkpt lat="46.01712340413124" lon="12.650845757637256"><ele>97.66666666666667</ele><time>2026-05-01T09:21:40Z</time></trkpt><trkpt lat="46.01696173698619" lon="12.650766085526723"><ele>97.0</ele><time>2026-05-01T09:21:41Z</time></trkpt><trkpt lat="46.016812917363765" lon="12.650695315178199"><ele>97.0</ele><time>2026-05-01T09:21:42.002Z</time></trkpt><trkpt lat="46.0166706480763" lon="12.650625456106363"><ele>97.0</ele><time>2026-05-01T09:21:43.002Z</time></trkpt><trkpt lat="46.01653521783459" lon="12.650558949700553"><ele>97.0</ele><time>2026-05-01T09:21:44.002Z</time></trkpt><trkpt lat="46.01639354161181" lon="12.650489968635917"><ele>97.0</ele><time>2026-05-01T09:21:45.002Z</time></trkpt><trkpt lat="46.016241409130764" lon="12.650420685243741"><ele>97.0</ele><time>2026-05-01T09:21:46.002Z</time></trkpt><trkpt lat="46.016077096096794" lon="12.650346385842651"><ele>97.0</ele><time>2026-05-01T09:21:47.002Z</time></trkpt><trkpt lat="46.01590270787256" lon="12.650274219309317"><ele>97.0</ele><time>2026-05-01T09:21:48.002Z</time></trkpt><trkpt lat="46.01572478617316" lon="12.65020832251689"><ele>96.66666666666667</ele><time>2026-05-01T09:21:49.002Z</time></trkpt><trkpt lat="46.01554908921219" lon="12.65016263391942"><ele>96.33333333333334</ele><time>2026-05-01T09:21:50.002Z</time></trkpt><trkpt lat="46.015372013969134" lon="12.650126184935289"><ele>96.0</ele><time>2026-05-01T09:21:51.002Z</time></trkpt><trkpt lat="46.01518736946869" lon="12.650094550257688"><ele>96.0</ele><time>2026-05-01T09:21:52.002Z</time></trkpt><trkpt lat="46.01500063363392" lon="12.650068047243431"><ele>96.0</ele><time>2026-05-01T09:21:53.002Z</time></trkpt><trkpt lat="46.01481158323208" lon="12.650040471734227"><ele>96.0</ele><time>2026-05-01T09:21:54.002Z</time></trkpt><trkpt lat="46.01462731038481" lon="12.650008661898704"><ele>95.66666666666667</ele><time>2026-05-01T09:21:55.002Z</time></trkpt><trkpt lat="46.01444446603432" lon="12.649973533698713"><ele>95.33333333333334</ele><time>2026-05-01T09:21:56.002Z</time></trkpt><trkpt lat="46.01426245100813" lon="12.649940908371189"><ele>95.0</ele><time>2026-05-01T09:21:57.002Z</time></trkpt><trkpt lat="46.01407331033347" lon="12.649909105315238"><ele>95.0</ele><time>2026-05-01T09:21:58.002Z</time></trkpt><trkpt lat="46.013887361704754" lon="12.649878125505202"><ele>95.0</ele><time>2026-05-01T09:21:59.002Z</time></trkpt><trkpt lat="46.01370509040688" lon="12.64984744969355"><ele>95.0</ele><time>2026-05-01T09:22:00.002Z</time></trkpt><trkpt lat="46.01352415640087" lon="12.649815694321193"><ele>95.0</ele><time>2026-05-01T09:22:01.002Z</time></trkpt><trkpt lat="46.01334261577853" lon="12.649783138040466"><ele>95.0</ele><time>2026-05-01T09:22:02.002Z</time></trkpt><trkpt lat="46.01316070580708" lon="12.649751276297382"><ele>95.0</ele><time>2026-05-01T09:22:03.002Z</time></trkpt><trkpt lat="46.012975568068725" lon="12.649720172948685"><ele>94.33333333333334</ele><time>2026-05-01T09:22:04.002Z</time></trkpt><trkpt lat="46.01278810164044" lon="12.649689035255435"><ele>93.66666666666667</ele><time>2026-05-01T09:22:05.002Z</time></trkpt><trkpt lat="46.01260297765965" lon="12.649658258271742"><ele>93.0</ele><time>2026-05-01T09:22:06.001Z</time></trkpt><trkpt lat="46.01241643573139" lon="12.649626826764795"><ele>92.33333333333333</ele><time>2026-05-01T09:22:07.001Z</time></trkpt><trkpt lat="46.01222409377181" lon="12.64959270445608"><ele>91.66666666666666</ele><time>2026-05-01T09:22:08.001Z</time></trkpt><trkpt lat="46.01202399132939" lon="12.649558848412806"><ele>91.0</ele><time>2026-05-01T09:22:09.001Z</time></trkpt><trkpt lat="46.01181208623013" lon="12.649524828526307"><ele>91.0</ele><time>2026-05-01T09:22:10.001Z</time></trkpt><trkpt lat="46.01160883929826" lon="12.649489405676896"><ele>91.0</ele><time>2026-05-01T09:22:11.001Z</time></trkpt><trkpt lat="46.011411627826554" lon="12.649453766388032"><ele>91.0</ele><time>2026-05-01T09:22:12.001Z</time></trkpt><trkpt lat="46.011212671910066" lon="12.64941784521173"><ele>91.0</ele><time>2026-05-01T09:22:13.001Z</time></trkpt><trkpt lat="46.01101492678167" lon="12.649385975080776"><ele>91.0</ele><time>2026-05-01T09:22:14.001Z</time></trkpt><trkpt lat="46.01082312219668" lon="12.649350321296142"><ele>91.0</ele><time>2026-05-01T09:22:15.001Z</time></trkpt><trkpt lat="46.010641433871136" lon="12.649318914409166"><ele>91.0</ele><time>2026-05-01T09:22:16.001Z</time></trkpt><trkpt lat="46.01046560544647" lon="12.649288938743691"><ele>91.0</ele><time>2026-05-01T09:22:17.001Z</time></trkpt><trkpt lat="46.01029458426766" lon="12.649259463440965"><ele>91.0</ele><time>2026-05-01T09:22:18.001Z</time></trkpt><trkpt lat="46.010121543298375" lon="12.649232103263559"><ele>90.66666666666666</ele><time>2026-05-01T09:22:19.001Z</time></trkpt><trkpt lat="46.0099485597667" lon="12.64920392161403"><ele>90.33333333333333</ele><time>2026-05-01T09:22:20.001Z</time></trkpt><trkpt lat="46.00977293071954" lon="12.649169646231027"><ele>90.0</ele><time>2026-05-01T09:22:21.001Z</time></trkpt><trkpt lat="46.00959790118327" lon="12.649129223428925"><ele>90.0</ele><time>2026-05-01T09:22:22.001Z</time></trkpt><trkpt lat="46.00941995610879" lon="12.64907288300349"><ele>90.0</ele><time>2026-05-01T09:22:23.001Z</time></trkpt><trkpt lat="46.00922939356403" lon="12.648988504573042"><ele>90.0</ele><time>2026-05-01T09:22:24.001Z</time></trkpt><trkpt lat="46.009034031755846" lon="12.648896575017229"><ele>89.66666666666667</ele><time>2026-05-01T09:22:25.001Z</time></trkpt><trkpt lat="46.008858111569474" lon="12.648802679405204"><ele>89.33333333333334</ele><time>2026-05-01T09:22:26.001Z</time></trkpt><trkpt lat="46.008676791909494" lon="12.64870918035711"><ele>89.0</ele><time>2026-05-01T09:22:27.001Z</time></trkpt><trkpt lat="46.00850001661096" lon="12.648616932512294"><ele>89.0</ele><time>2026-05-01T09:22:28.001Z</time></trkpt><trkpt lat="46.008325052163" lon="12.648526946736697"><ele>89.0</ele><time>2026-05-01T09:22:29.001Z</time></trkpt><trkpt lat="46.00816061056883" lon="12.648441920120149"><ele>89.0</ele><time>2026-05-01T09:22:30.001Z</time></trkpt><trkpt lat="46.00800589538056" lon="12.648367153074686"><ele>89.0</ele><time>2026-05-01T09:22:31.001Z</time></trkpt><trkpt lat="46.007858805489825" lon="12.648292189602868"><ele>89.0</ele><time>2026-05-01T09:22:32.001Z</time></trkpt><trkpt lat="46.00771660402316" lon="12.648221270356503"><ele>89.0</ele><time>2026-05-01T09:22:33.001Z</time></trkpt><trkpt lat="46.00757512197978" lon="12.64814469851248"><ele>89.0</ele><time>2026-05-01T09:22:34.001Z</time></trkpt><trkpt lat="46.007433136501874" lon="12.648071807409686"><ele>89.0</ele><time>2026-05-01T09:22:35.001Z</time></trkpt><trkpt lat="46.0072902290605" lon="12.647998529691536"><ele>89.0</ele><time>2026-05-01T09:22:36.001Z</time></trkpt><trkpt lat="46.00714133997508" lon="12.647923122536643"><ele>89.0</ele><time>2026-05-01T09:22:37.001Z</time></trkpt><trkpt lat="46.00699569541855" lon="12.64785059742476"><ele>89.0</ele><time>2026-05-01T09:22:38.001Z</time></trkpt><trkpt lat="46.00686307734374" lon="12.647780878817011"><ele>89.0</ele><time>2026-05-01T09:22:39.001Z</time></trkpt><trkpt lat="46.006747759836756" lon="12.647721756613896"><ele>89.0</ele><time>2026-05-01T09:22:40.001Z</time></trkpt><trkpt lat="46.00662828208866" lon="12.647657244917584"><ele>87.66666666666667</ele><time>2026-05-01T09:22:41.001Z</time></trkpt><trkpt lat="46.00649291804536" lon="12.647593670357155"><ele>86.33333333333333</ele><time>2026-05-01T09:22:42.001Z</time></trkpt><trkpt lat="46.0063393551002" lon="12.647521856542195"><ele>85.0</ele><time>2026-05-01T09:22:43.001Z</time></trkpt><trkpt lat="46.006162176398796" lon="12.647431454394141"><ele>85.0</ele><time>2026-05-01T09:22:44.001Z</time></trkpt><trkpt lat="46.005972563143686" lon="12.647331683097917"><ele>85.0</ele><time>2026-05-01T09:22:45.001Z</time></trkpt><trkpt lat="46.005785513125865" lon="12.64723429059038"><ele>85.0</ele><time>2026-05-01T09:22:46.001Z</time></trkpt><trkpt lat="46.00559433663634" lon="12.647135938741773"><ele>85.0</ele><time>2026-05-01T09:22:47.001Z</time></trkpt><trkpt lat="46.00539913804015" lon="12.647033360212989"><ele>85.0</ele><time>2026-05-01T09:22:48.001Z</time></trkpt><trkpt lat="46.005200886959244" lon="12.646931227842842"><ele>85.0</ele><time>2026-05-01T09:22:49.001Z</time></trkpt><trkpt lat="46.00499497213916" lon="12.646828579360896"><ele>84.0</ele><time>2026-05-01T09:22:50.001Z</time></trkpt><trkpt lat="46.00479085741794" lon="12.64672474147462"><ele>83.0</ele><time>2026-05-01T09:22:51.001Z</time></trkpt><trkpt lat="46.00457369566918" lon="12.646614152597612"><ele>82.0</ele><time>2026-05-01T09:22:52.001Z</time></trkpt><trkpt lat="46.00435944419249" lon="12.646504144662796"><ele>81.66666666666666</ele><time>2026-05-01T09:22:53.001Z</time></trkpt><trkpt lat="46.00415167902962" lon="12.646398257582252"><ele>81.33333333333333</ele><time>2026-05-01T09:22:54.001Z</time></trkpt><trkpt lat="46.003945597548345" lon="12.646290197096254"><ele>81.0</ele><time>2026-05-01T09:22:55.001Z</time></trkpt><trkpt lat="46.00374325300263" lon="12.646188567951391"><ele>81.33333333333333</ele><time>2026-05-01T09:22:56.001Z</time></trkpt><trkpt lat="46.00354696088602" lon="12.64608675388801"><ele>81.66666666666666</ele><time>2026-05-01T09:22:57.001Z</time></trkpt><trkpt lat="46.00334790296837" lon="12.645986527926137"><ele>82.0</ele><time>2026-05-01T09:22:58.001Z</time></trkpt><trkpt lat="46.00315174340768" lon="12.645887395869378"><ele>82.33333333333333</ele><time>2026-05-01T09:22:59.001Z</time></trkpt><trkpt lat="46.00295724808894" lon="12.645789550722542"><ele>82.66666666666667</ele><time>2026-05-01T09:23:00Z</time></trkpt><trkpt lat="46.002764576979544" lon="12.645688836468977"><ele>83.0</ele><time>2026-05-01T09:23:01Z</time></trkpt><trkpt lat="46.00257180327321" lon="12.645588517584047"><ele>82.33333333333334</ele><time>2026-05-01T09:23:02Z</time></trkpt><trkpt lat="46.002378074615976" lon="12.645493483317114"><ele>81.66666666666667</ele><time>2026-05-01T09:23:03Z</time></trkpt><trkpt lat="46.00218292939173" lon="12.645410608307936"><ele>81.0</ele><time>2026-05-01T09:23:04Z</time></trkpt><trkpt lat="46.001988382050286" lon="12.64533591829332"><ele>81.0</ele><time>2026-05-01T09:23:05Z</time></trkpt><trkpt lat="46.00178338283519" lon="12.645277279684725"><ele>81.0</ele><time>2026-05-01T09:23:06Z</time></trkpt><trkpt lat="46.00157025932783" lon="12.645228214441746"><ele>81.0</ele><time>2026-05-01T09:23:07Z</time></trkpt><trkpt lat="46.00136275268986" lon="12.645185052787413"><ele>80.33333333333333</ele><time>2026-05-01T09:23:08Z</time></trkpt><trkpt lat="46.00117040444195" lon="12.645141325997608"><ele>79.66666666666666</ele><time>2026-05-01T09:23:09Z</time></trkpt><trkpt lat="46.00098637346997" lon="12.645098843271981"><ele>79.0</ele><time>2026-05-01T09:23:10Z</time></trkpt><trkpt lat="46.00080862719184" lon="12.64505792370279"><ele>77.33333333333333</ele><time>2026-05-01T09:23:11Z</time></trkpt><trkpt lat="46.00062469832803" lon="12.645014979471947"><ele>75.66666666666667</ele><time>2026-05-01T09:23:12Z</time></trkpt><trkpt lat="46.00043871270223" lon="12.644972071358444"><ele>74.0</ele><time>2026-05-01T09:23:13Z</time></trkpt><trkpt lat="46.00024849104855" lon="12.644928309607263"><ele>74.0</ele><time>2026-05-01T09:23:14Z</time></trkpt><trkpt lat="46.00006109534751" lon="12.644884197572427"><ele>74.0</ele><time>2026-05-01T09:23:15Z</time></trkpt><trkpt lat="45.99987379296566" lon="12.644840614061772"><ele>74.0</ele><time>2026-05-01T09:23:16Z</time></trkpt><trkpt lat="45.99968426163176" lon="12.644794546649022"><ele>74.0</ele><time>2026-05-01T09:23:17Z</time></trkpt><trkpt lat="45.99950292399042" lon="12.644751683622733"><ele>74.0</ele><time>2026-05-01T09:23:18Z</time></trkpt><trkpt lat="45.99933208267747" lon="12.644714633706307"><ele>74.0</ele><time>2026-05-01T09:23:19Z</time></trkpt><trkpt lat="45.99917140208793" lon="12.644684088906892"><ele>74.0</ele><time>2026-05-01T09:23:20Z</time></trkpt><trkpt lat="45.99901377088524" lon="12.644667348889005"><ele>74.0</ele><time>2026-05-01T09:23:21Z</time></trkpt><trkpt lat="45.998854479936774" lon="12.644673470694725"><ele>74.0</ele><time>2026-05-01T09:23:22Z</time></trkpt><trkpt lat="45.99868855183665" lon="12.644712991646909"><ele>74.0</ele><time>2026-05-01T09:23:23Z</time></trkpt><trkpt lat="45.99851308708275" lon="12.644770984883408"><ele>74.0</ele><time>2026-05-01T09:23:24Z</time></trkpt><trkpt lat="45.998327330162425" lon="12.644805290506513"><ele>74.0</ele><time>2026-05-01T09:23:25Z</time></trkpt><trkpt lat="45.99813919173633" lon="12.644851469546786"><ele>74.66666666666667</ele><time>2026-05-01T09:23:26Z</time></trkpt><trkpt lat="45.9979567974758" lon="12.644896576412238"><ele>75.33333333333333</ele><time>2026-05-01T09:23:27Z</time></trkpt><trkpt lat="45.997783849121824" lon="12.644887663085063"><ele>76.0</ele><time>2026-05-01T09:23:28Z</time></trkpt><trkpt lat="45.99761727425042" lon="12.64487266079441"><ele>75.33333333333333</ele><time>2026-05-01T09:23:29Z</time></trkpt><trkpt lat="45.99744786353438" lon="12.644852067947852"><ele>74.66666666666667</ele><time>2026-05-01T09:23:30Z</time></trkpt><trkpt lat="45.99726977431793" lon="12.644827910552467"><ele>74.0</ele><time>2026-05-01T09:23:31Z</time></trkpt><trkpt lat="45.99709011891281" lon="12.644801693653605"><ele>74.0</ele><time>2026-05-01T09:23:32Z</time></trkpt><trkpt lat="45.996903773024265" lon="12.644775792949927"><ele>74.0</ele><time>2026-05-01T09:23:33Z</time></trkpt><trkpt lat="45.996717402312505" lon="12.644746696200523"><ele>74.0</ele><time>2026-05-01T09:23:34Z</time></trkpt><trkpt lat="45.99653444445018" lon="12.6447180596585"><ele>73.33333333333334</ele><time>2026-05-01T09:23:35Z</time></trkpt><trkpt lat="45.996351563009256" lon="12.644690760476411"><ele>72.66666666666667</ele><time>2026-05-01T09:23:36Z</time></trkpt><trkpt lat="45.99616698726915" lon="12.644661090872214"><ele>72.0</ele><time>2026-05-01T09:23:37Z</time></trkpt><trkpt lat="45.99598373179114" lon="12.64463097535648"><ele>72.0</ele><time>2026-05-01T09:23:38Z</time></trkpt><trkpt lat="45.99580082828549" lon="12.644601886228267"><ele>72.0</ele><time>2026-05-01T09:23:39Z</time></trkpt><trkpt lat="45.99561910282207" lon="12.644574023888968"><ele>72.0</ele><time>2026-05-01T09:23:40Z</time></trkpt><trkpt lat="45.99543941228102" lon="12.644547508078523"><ele>72.0</ele><time>2026-05-01T09:23:41Z</time></trkpt><trkpt lat="45.995257555455275" lon="12.644521587268349"><ele>72.0</ele><time>2026-05-01T09:23:42Z</time></trkpt><trkpt lat="45.995076489159096" lon="12.644495590500895"><ele>72.0</ele><time>2026-05-01T09:23:43Z</time></trkpt><trkpt lat="45.994888539120616" lon="12.64446925015471"><ele>71.66666666666667</ele><time>2026-05-01T09:23:44Z</time></trkpt><trkpt lat="45.994701157463844" lon="12.644441180770114"><ele>71.33333333333334</ele><time>2026-05-01T09:23:45Z</time></trkpt><trkpt lat="45.9945094791867" lon="12.644414737681029"><ele>71.0</ele><time>2026-05-01T09:23:46Z</time></trkpt><trkpt lat="45.9943184098819" lon="12.644388844000868"><ele>70.66666666666667</ele><time>2026-05-01T09:23:47Z</time></trkpt><trkpt lat="45.99413598827331" lon="12.644361510408624"><ele>70.33333333333333</ele><time>2026-05-01T09:23:48.002Z</time></trkpt><trkpt lat="45.99397236452394" lon="12.644336574582448"><ele>70.0</ele><time>2026-05-01T09:23:49.002Z</time></trkpt><trkpt lat="45.99381872632764" lon="12.644312568097238"><ele>70.0</ele><time>2026-05-01T09:23:50.002Z</time></trkpt><trkpt lat="45.99367047545631" lon="12.644293076547205"><ele>70.0</ele><time>2026-05-01T09:23:51.002Z</time></trkpt><trkpt lat="45.993528431241344" lon="12.644273501956725"><ele>70.0</ele><time>2026-05-01T09:23:52.002Z</time></trkpt><trkpt lat="45.993384475855066" lon="12.644250922708027"><ele>70.0</ele><time>2026-05-01T09:23:53.002Z</time></trkpt><trkpt lat="45.993230051992946" lon="12.644227340767186"><ele>70.33333333333333</ele><time>2026-05-01T09:23:54.002Z</time></trkpt><trkpt lat="45.99304457223601" lon="12.644201146003155"><ele>70.66666666666667</ele><time>2026-05-01T09:23:55.002Z</time></trkpt><trkpt lat="45.99287303290777" lon="12.644179349729813"><ele>71.0</ele><time>2026-05-01T09:23:56.002Z</time></trkpt><trkpt lat="45.992706698816754" lon="12.644154503155812"><ele>71.0</ele><time>2026-05-01T09:23:57.002Z</time></trkpt><trkpt lat="45.992538358557546" lon="12.644131355062518"><ele>71.0</ele><time>2026-05-01T09:23:58.002Z</time></trkpt><trkpt lat="45.99236614016957" lon="12.644105145463982"><ele>71.0</ele><time>2026-05-01T09:23:59.002Z</time></trkpt><trkpt lat="45.99219007518603" lon="12.644077182569973"><ele>70.0</ele><time>2026-05-01T09:24:00.002Z</time></trkpt><trkpt lat="45.992010226033486" lon="12.644053248351394"><ele>69.0</ele><time>2026-05-01T09:24:01.002Z</time></trkpt><trkpt lat="45.991825557392396" lon="12.644026499743877"><ele>68.0</ele><time>2026-05-01T09:24:02.002Z</time></trkpt><trkpt lat="45.99163714245158" lon="12.643997685922063"><ele>67.66666666666667</ele><time>2026-05-01T09:24:03.002Z</time></trkpt><trkpt lat="45.991455661156486" lon="12.6439692618602"><ele>67.33333333333333</ele><time>2026-05-01T09:24:04.002Z</time></trkpt><trkpt lat="45.991276393991456" lon="12.64394038829753"><ele>67.0</ele><time>2026-05-01T09:24:05.002Z</time></trkpt><trkpt lat="45.99110164897012" lon="12.6439156162643"><ele>67.0</ele><time>2026-05-01T09:24:06.002Z</time></trkpt><trkpt lat="45.9909343599715" lon="12.643893252025252"><ele>67.0</ele><time>2026-05-01T09:24:07.001Z</time></trkpt><trkpt lat="45.99077446374264" lon="12.64387037644929"><ele>67.0</ele><time>2026-05-01T09:24:08.001Z</time></trkpt><trkpt lat="45.990616788693934" lon="12.643844193945062"><ele>66.66666666666666</ele><time>2026-05-01T09:24:09.001Z</time></trkpt><trkpt lat="45.990458507081996" lon="12.64381972850942"><ele>66.33333333333333</ele><time>2026-05-01T09:24:10.001Z</time></trkpt><trkpt lat="45.990298265759755" lon="12.643796663271035"><ele>66.0</ele><time>2026-05-01T09:24:11.001Z</time></trkpt><trkpt lat="45.990133694353474" lon="12.643773412333381"><ele>65.33333333333333</ele><time>2026-05-01T09:24:12.001Z</time></trkpt><trkpt lat="45.98996343776754" lon="12.643748113894885"><ele>64.66666666666666</ele><time>2026-05-01T09:24:13.001Z</time></trkpt><trkpt lat="45.9897897567344" lon="12.643722576896788"><ele>64.0</ele><time>2026-05-01T09:24:14.001Z</time></trkpt><trkpt lat="45.98961845633964" lon="12.643697368935321"><ele>64.0</ele><time>2026-05-01T09:24:15.001Z</time></trkpt><trkpt lat="45.98945044191352" lon="12.64367300641157"><ele>64.0</ele><time>2026-05-01T09:24:16.001Z</time></trkpt><trkpt lat="45.98928444698335" lon="12.6436502141987"><ele>64.0</ele><time>2026-05-01T09:24:17.001Z</time></trkpt><trkpt lat="45.989118315505976" lon="12.643627565462154"><ele>63.666666666666664</ele><time>2026-05-01T09:24:18.001Z</time></trkpt><trkpt lat="45.988951956760886" lon="12.643604586077315"><ele>63.33333333333333</ele><time>2026-05-01T09:24:19.001Z</time></trkpt><trkpt lat="45.98878860495411" lon="12.643580487748775"><ele>63.0</ele><time>2026-05-01T09:24:20.001Z</time></trkpt><trkpt lat="45.988625171037185" lon="12.64355542632105"><ele>63.0</ele><time>2026-05-01T09:24:21.001Z</time></trkpt><trkpt lat="45.98846034729808" lon="12.64352876396249"><ele>63.0</ele><time>2026-05-01T09:24:22.001Z</time></trkpt><trkpt lat="45.98829601286923" lon="12.643500679924763"><ele>63.0</ele><time>2026-05-01T09:24:23.001Z</time></trkpt><trkpt lat="45.98813416496897" lon="12.64347196362989"><ele>63.0</ele><time>2026-05-01T09:24:24.001Z</time></trkpt><trkpt lat="45.98796957682922" lon="12.643445065419074"><ele>63.0</ele><time>2026-05-01T09:24:25.001Z</time></trkpt><trkpt lat="45.98780572509976" lon="12.643419765453338"><ele>63.0</ele><time>2026-05-01T09:24:26.001Z</time></trkpt><trkpt lat="45.987641643692" lon="12.643397529088917"><ele>62.66666666666667</ele><time>2026-05-01T09:24:27.001Z</time></trkpt><trkpt lat="45.98747686207686" lon="12.643374915998422"><ele>62.333333333333336</ele><time>2026-05-01T09:24:28.001Z</time></trkpt><trkpt lat="45.987314002986224" lon="12.643351212737754"><ele>62.0</ele><time>2026-05-01T09:24:29.001Z</time></trkpt><trkpt lat="45.98714900185536" lon="12.64332773153694"><ele>62.0</ele><time>2026-05-01T09:24:30.001Z</time></trkpt><trkpt lat="45.98698822036804" lon="12.643304469023871"><ele>62.0</ele><time>2026-05-01T09:24:31.001Z</time></trkpt><trkpt lat="45.98683568252644" lon="12.643279972909136"><ele>62.0</ele><time>2026-05-01T09:24:32.001Z</time></trkpt><trkpt lat="45.98669257774446" lon="12.643253880038893"><ele>61.5</ele><time>2026-05-01T09:24:33.001Z</time></trkpt><trkpt lat="45.98655558672322" lon="12.643229807915159"><ele>61.0</ele><time>2026-05-01T09:24:34.001Z</time></trkpt><trkpt lat="45.986430910991416" lon="12.643209136731791"><ele>60.5</ele><time>2026-05-01T09:24:35.001Z</time></trkpt><trkpt lat="45.98631462231043" lon="12.643192591280773"><ele>60.0</ele><time>2026-05-01T09:24:36.001Z</time></trkpt><trkpt lat="45.98622741868246" lon="12.643179202159413"><ele>60.0</ele><time>2026-05-01T09:24:37.001Z</time></trkpt><trkpt lat="45.98616343399282" lon="12.643170660543822"><ele>60.0</ele><time>2026-05-01T09:24:38.001Z</time></trkpt><trkpt lat="45.986095891039625" lon="12.64315701161703"><ele>60.0</ele><time>2026-05-01T09:24:40.001Z</time></trkpt><trkpt lat="45.986005143161044" lon="12.643135538081532"><ele>60.0</ele><time>2026-05-01T09:25:31Z</time></trkpt><trkpt lat="45.98591264847779" lon="12.643130494221323"><ele>60.0</ele><time>2026-05-01T09:25:32Z</time></trkpt><trkpt lat="45.985803897210886" lon="12.64313236381104"><ele>60.0</ele><time>2026-05-01T09:25:33Z</time></trkpt><trkpt lat="45.98566897797509" lon="12.643143342783844"><ele>60.0</ele><time>2026-05-01T09:25:34Z</time></trkpt><trkpt lat="45.98552724802127" lon="12.643167777220775"><ele>60.0</ele><time>2026-05-01T09:25:35Z</time></trkpt><trkpt lat="45.98538831048127" lon="12.64320532565936"><ele>60.0</ele><time>2026-05-01T09:25:36Z</time></trkpt><trkpt lat="45.98525172817348" lon="12.643226301147582"><ele>60.0</ele><time>2026-05-01T09:25:37Z</time></trkpt><trkpt lat="45.98502976609402" lon="12.643267692452223"><ele>60.33333333333333</ele><time>2026-05-01T09:25:38Z</time></trkpt><trkpt lat="45.9848678645625" lon="12.643346893564107"><ele>60.666666666666664</ele><time>2026-05-01T09:25:39Z</time></trkpt><trkpt lat="45.984708618768" lon="12.643423111041407"><ele>61.0</ele><time>2026-05-01T09:25:40Z</time></trkpt><trkpt lat="45.98454796034576" lon="12.64350632025334"><ele>61.0</ele><time>2026-05-01T09:25:41Z</time></trkpt><trkpt lat="45.9843940395098" lon="12.643590035664852"><ele>61.0</ele><time>2026-05-01T09:25:42Z</time></trkpt><trkpt lat="45.984241781155646" lon="12.643670490470566"><ele>61.0</ele><time>2026-05-01T09:25:43Z</time></trkpt><trkpt lat="45.98409588888043" lon="12.643753084207805"><ele>60.25</ele><time>2026-05-01T09:25:44Z</time></trkpt><trkpt lat="45.98394926071846" lon="12.643828295725896"><ele>59.5</ele><time>2026-05-01T09:25:45Z</time></trkpt><trkpt lat="45.98382557664196" lon="12.64390073649262"><ele>58.75</ele><time>2026-05-01T09:25:46Z</time></trkpt><trkpt lat="45.983711972956826" lon="12.643972355086305"><ele>58.0</ele><time>2026-05-01T09:25:47Z</time></trkpt><trkpt lat="45.983569705678605" lon="12.644028995970594"><ele>58.0</ele><time>2026-05-01T09:25:48Z</time></trkpt><trkpt lat="45.983394088044676" lon="12.644121521102505"><ele>58.0</ele><time>2026-05-01T09:25:49Z</time></trkpt><trkpt lat="45.98318484728224" lon="12.644231679825818"><ele>58.0</ele><time>2026-05-01T09:25:50Z</time></trkpt><trkpt lat="45.98298366115597" lon="12.64435386069645"><ele>58.0</ele><time>2026-05-01T09:25:51Z</time></trkpt><trkpt lat="45.98279595848997" lon="12.644452266497177"><ele>58.0</ele><time>2026-05-01T09:25:52Z</time></trkpt><trkpt lat="45.98261460979088" lon="12.64454433805602"><ele>58.0</ele><time>2026-05-01T09:25:53Z</time></trkpt><trkpt lat="45.98244269957349" lon="12.64464057227943"><ele>56.666666666666664</ele><time>2026-05-01T09:25:54.002Z</time></trkpt><trkpt lat="45.98226666197563" lon="12.644727659535206"><ele>55.33333333333333</ele><time>2026-05-01T09:25:55.002Z</time></trkpt><trkpt lat="45.98209347772924" lon="12.64482357127147"><ele>54.0</ele><time>2026-05-01T09:25:56.002Z</time></trkpt><trkpt lat="45.98191391452827" lon="12.644913894337241"><ele>54.0</ele><time>2026-05-01T09:25:57.002Z</time></trkpt><trkpt lat="45.98173841835138" lon="12.645001936367253"><ele>54.0</ele><time>2026-05-01T09:25:58.002Z</time></trkpt><trkpt lat="45.98156130289725" lon="12.645093847689843"><ele>54.0</ele><time>2026-05-01T09:25:59.002Z</time></trkpt><trkpt lat="45.981376276370995" lon="12.645194428326983"><ele>53.33333333333333</ele><time>2026-05-01T09:26:00.002Z</time></trkpt><trkpt lat="45.981174211716606" lon="12.645301830307197"><ele>52.666666666666664</ele><time>2026-05-01T09:26:01.002Z</time></trkpt><trkpt lat="45.98096406171124" lon="12.64541653508979"><ele>52.0</ele><time>2026-05-01T09:26:02.002Z</time></trkpt><trkpt lat="45.98076862129541" lon="12.645513834952851"><ele>52.0</ele><time>2026-05-01T09:26:03.002Z</time></trkpt><trkpt lat="45.980580053257896" lon="12.645613361040276"><ele>52.0</ele><time>2026-05-01T09:26:04.002Z</time></trkpt><trkpt lat="45.98039218436124" lon="12.645711051660582"><ele>52.0</ele><time>2026-05-01T09:26:05.001Z</time></trkpt><trkpt lat="45.98020570697342" lon="12.645814843770236"><ele>52.0</ele><time>2026-05-01T09:26:06.001Z</time></trkpt><trkpt lat="45.98002333061564" lon="12.645911279027505"><ele>52.0</ele><time>2026-05-01T09:26:07.001Z</time></trkpt><trkpt lat="45.9798421673624" lon="12.64600585178874"><ele>52.0</ele><time>2026-05-01T09:26:08.001Z</time></trkpt><trkpt lat="45.97966184743934" lon="12.646095081501457"><ele>51.666666666666664</ele><time>2026-05-01T09:26:09.001Z</time></trkpt><trkpt lat="45.9794734871361" lon="12.646183629883938"><ele>51.33333333333333</ele><time>2026-05-01T09:26:10.001Z</time></trkpt><trkpt lat="45.97927687806588" lon="12.6462813446274"><ele>51.0</ele><time>2026-05-01T09:26:11.001Z</time></trkpt><trkpt lat="45.979074255038974" lon="12.646388195139377"><ele>51.0</ele><time>2026-05-01T09:26:12.001Z</time></trkpt><trkpt lat="45.978858111218074" lon="12.646500327838611"><ele>51.0</ele><time>2026-05-01T09:26:13.001Z</time></trkpt><trkpt lat="45.97864432682025" lon="12.646614517254912"><ele>51.0</ele><time>2026-05-01T09:26:14.001Z</time></trkpt><trkpt lat="45.97844255613113" lon="12.646727623801935"><ele>51.0</ele><time>2026-05-01T09:26:15.001Z</time></trkpt><trkpt lat="45.97824662510735" lon="12.646835243323425"><ele>51.0</ele><time>2026-05-01T09:26:16.001Z</time></trkpt><trkpt lat="45.97806867012104" lon="12.646935619717562"><ele>50.66666666666667</ele><time>2026-05-01T09:26:17.001Z</time></trkpt><trkpt lat="45.977892007050606" lon="12.647031770519796"><ele>50.333333333333336</ele><time>2026-05-01T09:26:18.001Z</time></trkpt><trkpt lat="45.97771821848053" lon="12.647120676796298"><ele>50.0</ele><time>2026-05-01T09:26:19.001Z</time></trkpt><trkpt lat="45.97753914699623" lon="12.647219874626622"><ele>49.333333333333336</ele><time>2026-05-01T09:26:20.001Z</time></trkpt><trkpt lat="45.97735795131481" lon="12.647317996617833"><ele>48.66666666666667</ele><time>2026-05-01T09:26:21.001Z</time></trkpt><trkpt lat="45.97717213655398" lon="12.647424003452818"><ele>48.0</ele><time>2026-05-01T09:26:22.001Z</time></trkpt><trkpt lat="45.97698010688635" lon="12.647520478081514"><ele>48.0</ele><time>2026-05-01T09:26:23.001Z</time></trkpt><trkpt lat="45.97679119073132" lon="12.647612297171653"><ele>48.0</ele><time>2026-05-01T09:26:24.001Z</time></trkpt><trkpt lat="45.97661140820776" lon="12.64770260892417"><ele>48.0</ele><time>2026-05-01T09:26:25.001Z</time></trkpt><trkpt lat="45.97643156442922" lon="12.647795465794438"><ele>47.333333333333336</ele><time>2026-05-01T09:26:26.001Z</time></trkpt><trkpt lat="45.976248141042156" lon="12.647889653765674"><ele>46.66666666666667</ele><time>2026-05-01T09:26:27.001Z</time></trkpt><trkpt lat="45.97607284830681" lon="12.647985331545899"><ele>46.0</ele><time>2026-05-01T09:26:28.001Z</time></trkpt><trkpt lat="45.97590454027399" lon="12.648070070769458"><ele>46.66666666666667</ele><time>2026-05-01T09:26:29.001Z</time></trkpt><trkpt lat="45.97574796360712" lon="12.648149413266388"><ele>47.333333333333336</ele><time>2026-05-01T09:26:30.001Z</time></trkpt><trkpt lat="45.97560433534374" lon="12.648228857211087"><ele>48.0</ele><time>2026-05-01T09:26:31.001Z</time></trkpt><trkpt lat="45.97546478517512" lon="12.648306053695105"><ele>48.0</ele><time>2026-05-01T09:26:32.001Z</time></trkpt><trkpt lat="45.975330325740046" lon="12.648375936248486"><ele>48.0</ele><time>2026-05-01T09:26:33.001Z</time></trkpt><trkpt lat="45.97519609673689" lon="12.648446500039368"><ele>48.0</ele><time>2026-05-01T09:26:34.001Z</time></trkpt><trkpt lat="45.9750638166072" lon="12.648519126660757"><ele>48.0</ele><time>2026-05-01T09:26:35.001Z</time></trkpt><trkpt lat="45.97492320158655" lon="12.648597398340643"><ele>47.5</ele><time>2026-05-01T09:26:36.001Z</time></trkpt><trkpt lat="45.9747905634677" lon="12.648661737138955"><ele>47.0</ele><time>2026-05-01T09:26:37.001Z</time></trkpt><trkpt lat="45.97466688548943" lon="12.64871769040966"><ele>46.5</ele><time>2026-05-01T09:26:38.001Z</time></trkpt><trkpt lat="45.97455250569248" lon="12.648768058154452"><ele>46.0</ele><time>2026-05-01T09:26:39.001Z</time></trkpt><trkpt lat="45.974441665318096" lon="12.648826293360766"><ele>46.0</ele><time>2026-05-01T09:26:40.001Z</time></trkpt><trkpt lat="45.97433869052373" lon="12.648865983305031"><ele>46.0</ele><time>2026-05-01T09:26:41.001Z</time></trkpt><trkpt lat="45.97426568146585" lon="12.648894618182627"><ele>46.0</ele><time>2026-05-01T09:26:42Z</time></trkpt><trkpt lat="45.97419179777867" lon="12.648909529775374"><ele>46.0</ele><time>2026-05-01T09:26:43Z</time></trkpt><trkpt lat="45.974113113005366" lon="12.648892209794887"><ele>46.0</ele><time>2026-05-01T09:26:44Z</time></trkpt><trkpt lat="45.97403813400861" lon="12.648832246680485"><ele>46.0</ele><time>2026-05-01T09:26:45Z</time></trkpt><trkpt lat="45.973984193830546" lon="12.64873208258428"><ele>45.66666666666667</ele><time>2026-05-01T09:26:46Z</time></trkpt><trkpt lat="45.97395913881585" lon="12.648551287786407"><ele>45.333333333333336</ele><time>2026-05-01T09:26:47Z</time></trkpt><trkpt lat="45.97391237189402" lon="12.648335467708357"><ele>45.0</ele><time>2026-05-01T09:26:48Z</time></trkpt><trkpt lat="45.97385426513503" lon="12.64808815148941"><ele>45.0</ele><time>2026-05-01T09:26:49Z</time></trkpt><trkpt lat="45.97378613460314" lon="12.647839367511256"><ele>45.0</ele><time>2026-05-01T09:26:50Z</time></trkpt><trkpt lat="45.973706409215325" lon="12.647560787812463"><ele>45.0</ele><time>2026-05-01T09:26:51Z</time></trkpt><trkpt lat="45.97363341461764" lon="12.647290670997489"><ele>45.0</ele><time>2026-05-01T09:26:52Z</time></trkpt><trkpt lat="45.973566081793244" lon="12.647046376509326"><ele>45.0</ele><time>2026-05-01T09:26:53Z</time></trkpt><trkpt lat="45.97350490799485" lon="12.646829857602981"><ele>45.0</ele><time>2026-05-01T09:26:54Z</time></trkpt><trkpt lat="45.973440392430774" lon="12.646624995946265"><ele>45.0</ele><time>2026-05-01T09:26:55Z</time></trkpt><trkpt lat="45.97336506952062" lon="12.646408990474765"><ele>45.0</ele><time>2026-05-01T09:26:56Z</time></trkpt><trkpt lat="45.973279676744546" lon="12.64614108603995"><ele>45.0</ele><time>2026-05-01T09:26:57Z</time></trkpt><trkpt lat="45.973208806487094" lon="12.64586311014542"><ele>45.0</ele><time>2026-05-01T09:26:58Z</time></trkpt><trkpt lat="45.973149820133365" lon="12.645574195857916"><ele>45.0</ele><time>2026-05-01T09:26:59Z</time></trkpt><trkpt lat="45.97308593400004" lon="12.645290702175702"><ele>45.0</ele><time>2026-05-01T09:27:00Z</time></trkpt><trkpt lat="45.973023171417545" lon="12.64503987400792"><ele>45.0</ele><time>2026-05-01T09:27:01Z</time></trkpt><trkpt lat="45.97295643632352" lon="12.64479165841374"><ele>45.0</ele><time>2026-05-01T09:27:02Z</time></trkpt><trkpt lat="45.972884651870245" lon="12.644540376598535"><ele>45.0</ele><time>2026-05-01T09:27:03Z</time></trkpt><trkpt lat="45.972816751956636" lon="12.644292003508479"><ele>45.0</ele><time>2026-05-01T09:27:04Z</time></trkpt><trkpt lat="45.97274651793371" lon="12.644043073382166"><ele>45.0</ele><time>2026-05-01T09:27:05Z</time></trkpt><trkpt lat="45.97267641328202" lon="12.643791170935545"><ele>45.0</ele><time>2026-05-01T09:27:06Z</time></trkpt><trkpt lat="45.97260876740162" lon="12.643545546102457"><ele>44.666666666666664</ele><time>2026-05-01T09:27:07Z</time></trkpt><trkpt lat="45.97254324767397" lon="12.643310339673537"><ele>44.33333333333333</ele><time>2026-05-01T09:27:08Z</time></trkpt><trkpt lat="45.972479372218686" lon="12.64307910551688"><ele>44.0</ele><time>2026-05-01T09:27:09Z</time></trkpt><trkpt lat="45.9724160120049" lon="12.64284612833859"><ele>43.666666666666664</ele><time>2026-05-01T09:27:10Z</time></trkpt><trkpt lat="45.97235195172399" lon="12.642609258548559"><ele>43.333333333333336</ele><time>2026-05-01T09:27:11Z</time></trkpt><trkpt lat="45.97229094145309" lon="12.642377873929751"><ele>43.0</ele><time>2026-05-01T09:27:12Z</time></trkpt><trkpt lat="45.972231642436185" lon="12.642163122931318"><ele>43.0</ele><time>2026-05-01T09:27:13Z</time></trkpt><trkpt lat="45.972179659526496" lon="12.641974900677418"><ele>43.0</ele><time>2026-05-01T09:27:14Z</time></trkpt><trkpt lat="45.972135135282336" lon="12.641812199443786"><ele>43.0</ele><time>2026-05-01T09:27:15Z</time></trkpt><trkpt lat="45.97209538732597" lon="12.64167058016938"><ele>43.0</ele><time>2026-05-01T09:27:16Z</time></trkpt><trkpt lat="45.97205884616875" lon="12.641543085411728"><ele>43.0</ele><time>2026-05-01T09:27:17Z</time></trkpt><trkpt lat="45.97202216911653" lon="12.641415606961449"><ele>43.0</ele><time>2026-05-01T09:27:18Z</time></trkpt><trkpt lat="45.97198758645757" lon="12.641291526974541"><ele>43.0</ele><time>2026-05-01T09:27:19Z</time></trkpt><trkpt lat="45.97195775637413" lon="12.641168141103012"><ele>43.0</ele><time>2026-05-01T09:27:20Z</time></trkpt><trkpt lat="45.971929298045225" lon="12.641062653450609"><ele>43.0</ele><time>2026-05-01T09:27:21Z</time></trkpt><trkpt lat="45.97190600768506" lon="12.64097309101358"><ele>43.0</ele><time>2026-05-01T09:27:22Z</time></trkpt><trkpt lat="45.97187829824193" lon="12.640876690851796"><ele>42.833333333333336</ele><time>2026-05-01T09:27:23Z</time></trkpt><trkpt lat="45.97184751368119" lon="12.640763806454567"><ele>42.66666666666667</ele><time>2026-05-01T09:27:24Z</time></trkpt><trkpt lat="45.97181936411159" lon="12.640652476549064"><ele>42.5</ele><time>2026-05-01T09:27:25Z</time></trkpt><trkpt lat="45.971799318567626" lon="12.640561405891452"><ele>42.333333333333336</ele><time>2026-05-01T09:27:26Z</time></trkpt><trkpt lat="45.97178790667037" lon="12.640456148610655"><ele>42.166666666666664</ele><time>2026-05-01T09:27:27Z</time></trkpt><trkpt lat="45.97177916277333" lon="12.64032966306274"><ele>42.0</ele><time>2026-05-01T09:27:28Z</time></trkpt><trkpt lat="45.97176164633844" lon="12.640214221698978"><ele>42.0</ele><time>2026-05-01T09:27:29Z</time></trkpt><trkpt lat="45.97171831696858" lon="12.640124682725096"><ele>42.0</ele><time>2026-05-01T09:27:30Z</time></trkpt><trkpt lat="45.97166482372414" lon="12.640026788331467"><ele>42.0</ele><time>2026-05-01T09:27:31Z</time></trkpt><trkpt lat="45.97161863754596" lon="12.639900609893507"><ele>42.0</ele><time>2026-05-01T09:27:32Z</time></trkpt><trkpt lat="45.97157382770722" lon="12.639757915136352"><ele>42.0</ele><time>2026-05-01T09:27:33Z</time></trkpt><trkpt lat="45.971533235445136" lon="12.639607840971806"><ele>41.75</ele><time>2026-05-01T09:27:34Z</time></trkpt><trkpt lat="45.9714887419129" lon="12.639460514817705"><ele>41.5</ele><time>2026-05-01T09:27:35Z</time></trkpt><trkpt lat="45.97144444986632" lon="12.639299631681062"><ele>41.25</ele><time>2026-05-01T09:27:36Z</time></trkpt><trkpt lat="45.971400871650395" lon="12.639135542608454"><ele>41.0</ele><time>2026-05-01T09:27:37Z</time></trkpt><trkpt lat="45.97135225037469" lon="12.638964556471604"><ele>41.0</ele><time>2026-05-01T09:27:37.999Z</time></trkpt><trkpt lat="45.97131026090182" lon="12.638806932217385"><ele>41.0</ele><time>2026-05-01T09:27:38.999Z</time></trkpt><trkpt lat="45.97127117388034" lon="12.63865549293788"><ele>41.0</ele><time>2026-05-01T09:27:39.999Z</time></trkpt><trkpt lat="45.97122754038429" lon="12.638499589846257"><ele>41.0</ele><time>2026-05-01T09:27:40.999Z</time></trkpt><trkpt lat="45.97118234483242" lon="12.638344517960624"><ele>41.0</ele><time>2026-05-01T09:27:41.999Z</time></trkpt><trkpt lat="45.971139487198" lon="12.638181860218799"><ele>41.0</ele><time>2026-05-01T09:27:42.999Z</time></trkpt><trkpt lat="45.9710958314677" lon="12.638022060006536"><ele>41.0</ele><time>2026-05-01T09:27:43.999Z</time></trkpt><trkpt lat="45.97105019187916" lon="12.63786041585258"><ele>41.0</ele><time>2026-05-01T09:27:44.999Z</time></trkpt><trkpt lat="45.97100239572511" lon="12.637691421468162"><ele>41.5</ele><time>2026-05-01T09:27:45.999Z</time></trkpt><trkpt lat="45.970958737698815" lon="12.637525007533702"><ele>42.0</ele><time>2026-05-01T09:27:46.999Z</time></trkpt><trkpt lat="45.9709187529051" lon="12.637372729603072"><ele>42.5</ele><time>2026-05-01T09:27:47.999Z</time></trkpt><trkpt lat="45.970880580409144" lon="12.63722643843995"><ele>43.0</ele><time>2026-05-01T09:27:48.999Z</time></trkpt><trkpt lat="45.970839502446914" lon="12.63708124279652"><ele>43.0</ele><time>2026-05-01T09:27:49.999Z</time></trkpt><trkpt lat="45.970795729062736" lon="12.636933215271107"><ele>43.0</ele><time>2026-05-01T09:27:50.999Z</time></trkpt><trkpt lat="45.97075448268792" lon="12.636790752789766"><ele>43.0</ele><time>2026-05-01T09:27:51.999Z</time></trkpt><trkpt lat="45.97071825091416" lon="12.636662203586493"><ele>43.0</ele><time>2026-05-01T09:27:52.999Z</time></trkpt><trkpt lat="45.970683911668345" lon="12.636537865020005"><ele>43.0</ele><time>2026-05-01T09:27:53.999Z</time></trkpt><trkpt lat="45.97065464802037" lon="12.63642268806548"><ele>43.0</ele><time>2026-05-01T09:27:54.999Z</time></trkpt><trkpt lat="45.9706243692929" lon="12.636316445423896"><ele>43.0</ele><time>2026-05-01T09:27:55.999Z</time></trkpt><trkpt lat="45.97059368969378" lon="12.636218633989547"><ele>43.0</ele><time>2026-05-01T09:27:56.999Z</time></trkpt><trkpt lat="45.97055572333797" lon="12.636070005792627"><ele>43.0</ele><time>2026-05-01T09:27:58.999Z</time></trkpt><trkpt lat="45.97053692477179" lon="12.635979762264396"><ele>43.0</ele><time>2026-05-01T09:28:00.001Z</time></trkpt><trkpt lat="45.97051179117498" lon="12.635871724161591"><ele>43.0</ele><time>2026-05-01T09:28:01.001Z</time></trkpt><trkpt lat="45.97048441028493" lon="12.635767537251086"><ele>42.66666666666667</ele><time>2026-05-01T09:28:02.001Z</time></trkpt><trkpt lat="45.97045405297863" lon="12.635661834446207"><ele>42.333333333333336</ele><time>2026-05-01T09:28:03.001Z</time></trkpt><trkpt lat="45.97042523194001" lon="12.635549821581497"><ele>42.0</ele><time>2026-05-01T09:28:04.001Z</time></trkpt><trkpt lat="45.97039766658108" lon="12.635444590270653"><ele>41.666666666666664</ele><time>2026-05-01T09:28:05.001Z</time></trkpt><trkpt lat="45.97037105457918" lon="12.635345207805333"><ele>41.33333333333333</ele><time>2026-05-01T09:28:06.001Z</time></trkpt><trkpt lat="45.9703458491603" lon="12.635239020457796"><ele>41.0</ele><time>2026-05-01T09:28:07.001Z</time></trkpt><trkpt lat="45.97032001031752" lon="12.635118573952465"><ele>41.0</ele><time>2026-05-01T09:28:08.001Z</time></trkpt><trkpt lat="45.970287925546714" lon="12.634992053398022"><ele>41.0</ele><time>2026-05-01T09:28:09.001Z</time></trkpt><trkpt lat="45.97025434114971" lon="12.634876639800263"><ele>41.0</ele><time>2026-05-01T09:28:10.001Z</time></trkpt><trkpt lat="45.97022586855849" lon="12.634769229288072"><ele>41.0</ele><time>2026-05-01T09:28:11.001Z</time></trkpt><trkpt lat="45.970201557502904" lon="12.634675996199771"><ele>41.0</ele><time>2026-05-01T09:28:12.001Z</time></trkpt><trkpt lat="45.97017576763486" lon="12.634579718345075"><ele>41.0</ele><time>2026-05-01T09:28:13.001Z</time></trkpt><trkpt lat="45.9701490917465" lon="12.634480211780595"><ele>41.0</ele><time>2026-05-01T09:28:14.001Z</time></trkpt><trkpt lat="45.97011582604559" lon="12.634374564428212"><ele>41.0</ele><time>2026-05-01T09:28:15.001Z</time></trkpt><trkpt lat="45.97009723742485" lon="12.634286281745004"><ele>41.0</ele><time>2026-05-01T09:28:20.001Z</time></trkpt><trkpt lat="45.97005000414217" lon="12.634121092861418"><ele>41.0</ele><time>2026-05-01T09:28:22.001Z</time></trkpt><trkpt lat="45.969987864592845" lon="12.633978497290618"><ele>41.0</ele><time>2026-05-01T09:28:23.001Z</time></trkpt><trkpt lat="45.9699266832475" lon="12.633793934869026"><ele>40.0</ele><time>2026-05-01T09:28:24.001Z</time></trkpt><trkpt lat="45.96986778400945" lon="12.633542193954424"><ele>39.0</ele><time>2026-05-01T09:28:25.001Z</time></trkpt><trkpt lat="45.96980477674913" lon="12.633293549455964"><ele>38.0</ele><time>2026-05-01T09:28:26.001Z</time></trkpt><trkpt lat="45.969746966544264" lon="12.633054272221639"><ele>38.0</ele><time>2026-05-01T09:28:27.001Z</time></trkpt><trkpt lat="45.969695657764774" lon="12.63285907636288"><ele>38.0</ele><time>2026-05-01T09:28:28.001Z</time></trkpt><trkpt lat="45.96964573344508" lon="12.632677932485672"><ele>38.0</ele><time>2026-05-01T09:28:29.001Z</time></trkpt><trkpt lat="45.969599663392664" lon="12.632509571322004"><ele>38.0</ele><time>2026-05-01T09:28:30.001Z</time></trkpt><trkpt lat="45.969555758542434" lon="12.632346687335346"><ele>38.199999999999996</ele><time>2026-05-01T09:28:31.001Z</time></trkpt><trkpt lat="45.969511198529354" lon="12.632188753690029"><ele>38.4</ele><time>2026-05-01T09:28:32.001Z</time></trkpt><trkpt lat="45.96947019081198" lon="12.632039787322675"><ele>38.599999999999994</ele><time>2026-05-01T09:28:33Z</time></trkpt><trkpt lat="45.96943452890106" lon="12.631903200339007"><ele>38.8</ele><time>2026-05-01T09:28:34Z</time></trkpt><trkpt lat="45.969400441019935" lon="12.631772603108198"><ele>39.0</ele><time>2026-05-01T09:28:35Z</time></trkpt><trkpt lat="45.969366913714374" lon="12.631650965729529"><ele>39.0</ele><time>2026-05-01T09:28:36Z</time></trkpt><trkpt lat="45.96934165784904" lon="12.631563924456286"><ele>39.0</ele><time>2026-05-01T09:28:37Z</time></trkpt><trkpt lat="45.96931666476161" lon="12.631465477517475"><ele>39.0</ele><time>2026-05-01T09:28:39Z</time></trkpt><trkpt lat="45.96929105892268" lon="12.63138221491688"><ele>39.0</ele><time>2026-05-01T09:28:42Z</time></trkpt><trkpt lat="45.9692568871521" lon="12.631248928903432"><ele>39.0</ele><time>2026-05-01T09:29:09Z</time></trkpt><trkpt lat="45.96922121220023" lon="12.631120776212287"><ele>39.0</ele><time>2026-05-01T09:29:11Z</time></trkpt><trkpt lat="45.96918735371214" lon="12.63099908336679"><ele>39.0</ele><time>2026-05-01T09:29:13Z</time></trkpt><trkpt lat="45.96914203468738" lon="12.630838908791244"><ele>39.0</ele><time>2026-05-01T09:29:15Z</time></trkpt><trkpt lat="45.969096910642705" lon="12.630661134717906"><ele>39.0</ele><time>2026-05-01T09:29:17Z</time></trkpt><trkpt lat="45.96906911496574" lon="12.630555427332256"><ele>39.0</ele><time>2026-05-01T09:29:18Z</time></trkpt><trkpt lat="45.96903698703872" lon="12.630438986792191"><ele>39.0</ele><time>2026-05-01T09:29:19Z</time></trkpt><trkpt lat="45.969000371901586" lon="12.630313280324168"><ele>38.8</ele><time>2026-05-01T09:29:20Z</time></trkpt><trkpt lat="45.96896571471051" lon="12.630193081358817"><ele>38.599999999999994</ele><time>2026-05-01T09:29:21Z</time></trkpt><trkpt lat="45.96892575750011" lon="12.630055676254903"><ele>38.4</ele><time>2026-05-01T09:29:21.999Z</time></trkpt><trkpt lat="45.9688832458685" lon="12.629902802400808"><ele>38.199999999999996</ele><time>2026-05-01T09:29:22.999Z</time></trkpt><trkpt lat="45.96883822122733" lon="12.629735008455222"><ele>38.0</ele><time>2026-05-01T09:29:23.999Z</time></trkpt><trkpt lat="45.968792691465254" lon="12.629562731109345"><ele>38.5</ele><time>2026-05-01T09:29:24.999Z</time></trkpt><trkpt lat="45.96875369901754" lon="12.62940914644706"><ele>39.0</ele><time>2026-05-01T09:29:25.999Z</time></trkpt><trkpt lat="45.96870920510488" lon="12.629285578528364"><ele>39.5</ele><time>2026-05-01T09:29:26.999Z</time></trkpt><trkpt lat="45.96864756201369" lon="12.629039050571551"><ele>40.0</ele><time>2026-05-01T09:29:27.999Z</time></trkpt><trkpt lat="45.96860691199489" lon="12.62888704445508"><ele>40.0</ele><time>2026-05-01T09:29:28.999Z</time></trkpt><trkpt lat="45.96856158613259" lon="12.628738136947375"><ele>40.0</ele><time>2026-05-01T09:29:29.999Z</time></trkpt><trkpt lat="45.968522319840766" lon="12.628586642247782"><ele>40.0</ele><time>2026-05-01T09:29:30.999Z</time></trkpt><trkpt lat="45.96848195789163" lon="12.628437818187543"><ele>40.0</ele><time>2026-05-01T09:29:31.999Z</time></trkpt><trkpt lat="45.96844065313828" lon="12.628292901749337"><ele>40.0</ele><time>2026-05-01T09:29:32.999Z</time></trkpt><trkpt lat="45.968396445137984" lon="12.628149558064024"><ele>39.8</ele><time>2026-05-01T09:29:33.999Z</time></trkpt><trkpt lat="45.96835276702682" lon="12.62799548672676"><ele>39.6</ele><time>2026-05-01T09:29:34.999Z</time></trkpt><trkpt lat="45.96831565376598" lon="12.627840993033717"><ele>39.4</ele><time>2026-05-01T09:29:35.999Z</time></trkpt><trkpt lat="45.968274968697955" lon="12.627687502247747"><ele>39.2</ele><time>2026-05-01T09:29:36.999Z</time></trkpt><trkpt lat="45.96824037862646" lon="12.627551378383956"><ele>39.0</ele><time>2026-05-01T09:29:37.999Z</time></trkpt><trkpt lat="45.96821126046543" lon="12.627431380747675"><ele>39.0</ele><time>2026-05-01T09:29:38.999Z</time></trkpt><trkpt lat="45.968189054941114" lon="12.62733033005365"><ele>39.0</ele><time>2026-05-01T09:29:39.999Z</time></trkpt><trkpt lat="45.96813143881727" lon="12.627143548094821"><ele>39.0</ele><time>2026-05-01T09:29:41.999Z</time></trkpt><trkpt lat="45.968093561616904" lon="12.627009270946257"><ele>39.0</ele><time>2026-05-01T09:29:42.999Z</time></trkpt><trkpt lat="45.96806167105949" lon="12.626870743367949"><ele>39.0</ele><time>2026-05-01T09:29:43.999Z</time></trkpt><trkpt lat="45.96802377761552" lon="12.626751536034224"><ele>38.833333333333336</ele><time>2026-05-01T09:29:44.999Z</time></trkpt><trkpt lat="45.9679927102927" lon="12.626667829733773"><ele>38.666666666666664</ele><time>2026-05-01T09:29:45.999Z</time></trkpt><trkpt lat="45.967959830690155" lon="12.626522035339862"><ele>38.5</ele><time>2026-05-01T09:29:47.999Z</time></trkpt><trkpt lat="45.96796705349292" lon="12.626414834549612"><ele>38.33333333333333</ele><time>2026-05-01T09:29:48.999Z</time></trkpt><trkpt lat="45.96791028097256" lon="12.626267210633761"><ele>38.166666666666664</ele><time>2026-05-01T09:29:50.998Z</time></trkpt><trkpt lat="45.967829514268594" lon="12.626235608551768"><ele>38.0</ele><time>2026-05-01T09:29:51.998Z</time></trkpt><trkpt lat="45.967743862138164" lon="12.62625175625459"><ele>38.0</ele><time>2026-05-01T09:29:52.998Z</time></trkpt><trkpt lat="45.967673352107234" lon="12.62632803466185"><ele>38.0</ele><time>2026-05-01T09:29:53.998Z</time></trkpt><trkpt lat="45.967612737194976" lon="12.626436767777863"><ele>38.0</ele><time>2026-05-01T09:29:54.998Z</time></trkpt><trkpt lat="45.96754507177499" lon="12.626557978673299"><ele>38.0</ele><time>2026-05-01T09:29:55.998Z</time></trkpt><trkpt lat="45.967451802447975" lon="12.626658469439716"><ele>38.0</ele><time>2026-05-01T09:29:56.998Z</time></trkpt><trkpt lat="45.96733823683447" lon="12.626741513119445"><ele>38.0</ele><time>2026-05-01T09:29:57.998Z</time></trkpt><trkpt lat="45.96720009788389" lon="12.62679897268776"><ele>38.0</ele><time>2026-05-01T09:29:58.998Z</time></trkpt><trkpt lat="45.967058999482326" lon="12.626842529860713"><ele>38.0</ele><time>2026-05-01T09:29:59.998Z</time></trkpt><trkpt lat="45.96692554961317" lon="12.626874577103923"><ele>38.0</ele><time>2026-05-01T09:30:00.998Z</time></trkpt><trkpt lat="45.96680405315634" lon="12.626909076663733"><ele>38.0</ele><time>2026-05-01T09:30:01.998Z</time></trkpt><trkpt lat="45.966691659746076" lon="12.626943632601044"><ele>38.0</ele><time>2026-05-01T09:30:02.998Z</time></trkpt><trkpt lat="45.966580896275076" lon="12.626944558820313"><ele>38.0</ele><time>2026-05-01T09:30:03.998Z</time></trkpt><trkpt lat="45.96647535167632" lon="12.626955723135175"><ele>38.0</ele><time>2026-05-01T09:30:05Z</time></trkpt><trkpt lat="45.96636531246553" lon="12.62698375524816"><ele>38.0</ele><time>2026-05-01T09:30:06Z</time></trkpt><trkpt lat="45.96624835845016" lon="12.626979540418088"><ele>37.75</ele><time>2026-05-01T09:30:07Z</time></trkpt><trkpt lat="45.96612869017623" lon="12.62697554894441"><ele>37.5</ele><time>2026-05-01T09:30:08Z</time></trkpt><trkpt lat="45.96600452341429" lon="12.626972723501757"><ele>37.25</ele><time>2026-05-01T09:30:09Z</time></trkpt><trkpt lat="45.96587616094353" lon="12.626969926873214"><ele>37.0</ele><time>2026-05-01T09:30:10Z</time></trkpt><trkpt lat="45.96574423729931" lon="12.626965328043863"><ele>36.66666666666667</ele><time>2026-05-01T09:30:11Z</time></trkpt><trkpt lat="45.96560721491095" lon="12.626959212223696"><ele>36.333333333333336</ele><time>2026-05-01T09:30:12Z</time></trkpt><trkpt lat="45.96545428827934" lon="12.626951045670278"><ele>36.0</ele><time>2026-05-01T09:30:13Z</time></trkpt><trkpt lat="45.96528633287604" lon="12.626941210865406"><ele>36.0</ele><time>2026-05-01T09:30:14Z</time></trkpt><trkpt lat="45.96512816922755" lon="12.626930920446556"><ele>36.0</ele><time>2026-05-01T09:30:15Z</time></trkpt><trkpt lat="45.96497755241607" lon="12.62692042937828"><ele>36.0</ele><time>2026-05-01T09:30:16Z</time></trkpt><trkpt lat="45.96483039634807" lon="12.626905895579888"><ele>35.5</ele><time>2026-05-01T09:30:17Z</time></trkpt><trkpt lat="45.96468751372322" lon="12.626887979530904"><ele>35.0</ele><time>2026-05-01T09:30:18Z</time></trkpt><trkpt lat="45.96455841639356" lon="12.626848086608465"><ele>34.5</ele><time>2026-05-01T09:30:19Z</time></trkpt><trkpt lat="45.964437769774406" lon="12.62683903609416"><ele>34.0</ele><time>2026-05-01T09:30:20Z</time></trkpt><trkpt lat="45.96428506902888" lon="12.626813503807327"><ele>34.5</ele><time>2026-05-01T09:30:21Z</time></trkpt><trkpt lat="45.96415580894396" lon="12.626779831138487"><ele>35.0</ele><time>2026-05-01T09:30:22Z</time></trkpt><trkpt lat="45.96404969014026" lon="12.6267805856834"><ele>35.5</ele><time>2026-05-01T09:30:23Z</time></trkpt><trkpt lat="45.96394616775899" lon="12.626776231507447"><ele>36.0</ele><time>2026-05-01T09:30:24Z</time></trkpt><trkpt lat="45.963836648590224" lon="12.626774890501796"><ele>36.0</ele><time>2026-05-01T09:30:25Z</time></trkpt><trkpt lat="45.96371546623745" lon="12.62676889172187"><ele>36.0</ele><time>2026-05-01T09:30:26Z</time></trkpt><trkpt lat="45.963583289435164" lon="12.626769650344716"><ele>36.0</ele><time>2026-05-01T09:30:26.999Z</time></trkpt><trkpt lat="45.96344656659916" lon="12.626776647719762"><ele>36.0</ele><time>2026-05-01T09:30:27.999Z</time></trkpt><trkpt lat="45.96331485711662" lon="12.626779813343699"><ele>35.5</ele><time>2026-05-01T09:30:28.999Z</time></trkpt><trkpt lat="45.96317602729484" lon="12.62677974093276"><ele>35.0</ele><time>2026-05-01T09:30:29.999Z</time></trkpt><trkpt lat="45.963046601101155" lon="12.6267766565028"><ele>34.5</ele><time>2026-05-01T09:30:30.999Z</time></trkpt><trkpt lat="45.96291511826831" lon="12.626777612995664"><ele>34.0</ele><time>2026-05-01T09:30:31.999Z</time></trkpt><trkpt lat="45.96278666818059" lon="12.626788345394203"><ele>34.0</ele><time>2026-05-01T09:30:32.999Z</time></trkpt><trkpt lat="45.9626602257881" lon="12.626804013471412"><ele>34.0</ele><time>2026-05-01T09:30:33.999Z</time></trkpt><trkpt lat="45.962528838222454" lon="12.626822489073653"><ele>34.0</ele><time>2026-05-01T09:30:34.999Z</time></trkpt><trkpt lat="45.962390845769704" lon="12.626843844247727"><ele>34.0</ele><time>2026-05-01T09:30:35.999Z</time></trkpt><trkpt lat="45.96225869268806" lon="12.626871349334136"><ele>33.75</ele><time>2026-05-01T09:30:36.999Z</time></trkpt><trkpt lat="45.962138853851826" lon="12.626898572793994"><ele>33.5</ele><time>2026-05-01T09:30:37.999Z</time></trkpt><trkpt lat="45.962026400479736" lon="12.626922299038238"><ele>33.25</ele><time>2026-05-01T09:30:38.999Z</time></trkpt><trkpt lat="45.96191967959938" lon="12.626948280915151"><ele>33.0</ele><time>2026-05-01T09:30:39.999Z</time></trkpt><trkpt lat="45.96181417148372" lon="12.626984290767579"><ele>32.75</ele><time>2026-05-01T09:30:40.999Z</time></trkpt><trkpt lat="45.96170813792991" lon="12.627030042568768"><ele>32.5</ele><time>2026-05-01T09:30:41.999Z</time></trkpt><trkpt lat="45.961602814284724" lon="12.627088338939314"><ele>32.25</ele><time>2026-05-01T09:30:42.999Z</time></trkpt><trkpt lat="45.961496654343364" lon="12.627144694861462"><ele>32.0</ele><time>2026-05-01T09:30:43.999Z</time></trkpt><trkpt lat="45.96138668670099" lon="12.627201200981188"><ele>32.0</ele><time>2026-05-01T09:30:44.999Z</time></trkpt><trkpt lat="45.961276422282445" lon="12.627255827590117"><ele>32.0</ele><time>2026-05-01T09:30:45.999Z</time></trkpt><trkpt lat="45.961166741577166" lon="12.627305507273027"><ele>32.0</ele><time>2026-05-01T09:30:46.999Z</time></trkpt><trkpt lat="45.96105427920646" lon="12.627326320115035"><ele>32.0</ele><time>2026-05-01T09:30:47.999Z</time></trkpt><trkpt lat="45.96094871386502" lon="12.627380923135954"><ele>32.25</ele><time>2026-05-01T09:30:48.999Z</time></trkpt><trkpt lat="45.96084485249504" lon="12.627451314453396"><ele>32.5</ele><time>2026-05-01T09:30:49.999Z</time></trkpt><trkpt lat="45.96073983845947" lon="12.627530336339335"><ele>32.75</ele><time>2026-05-01T09:30:50.999Z</time></trkpt><trkpt lat="45.96063729106972" lon="12.627607500311575"><ele>33.0</ele><time>2026-05-01T09:30:51.999Z</time></trkpt><trkpt lat="45.96053849180949" lon="12.627681746956508"><ele>33.0</ele><time>2026-05-01T09:30:52.999Z</time></trkpt><trkpt lat="45.9604504011974" lon="12.627769482093415"><ele>33.0</ele><time>2026-05-01T09:30:53.999Z</time></trkpt><trkpt lat="45.960359256546965" lon="12.62783513137055"><ele>33.0</ele><time>2026-05-01T09:30:54.999Z</time></trkpt><trkpt lat="45.960269903197855" lon="12.627896137113504"><ele>33.0</ele><time>2026-05-01T09:30:55.999Z</time></trkpt><trkpt lat="45.960183705319075" lon="12.627950532833585"><ele>33.0</ele><time>2026-05-01T09:30:56.999Z</time></trkpt><trkpt lat="45.96010780755156" lon="12.62800340915328"><ele>32.833333333333336</ele><time>2026-05-01T09:30:57.999Z</time></trkpt><trkpt lat="45.96003915937378" lon="12.628054082987166"><ele>32.666666666666664</ele><time>2026-05-01T09:30:58.999Z</time></trkpt><trkpt lat="45.95993553054197" lon="12.628122613227822"><ele>32.5</ele><time>2026-05-01T09:31:00.999Z</time></trkpt><trkpt lat="45.95981726299068" lon="12.628111278530147"><ele>32.33333333333333</ele><time>2026-05-01T09:31:02.999Z</time></trkpt><trkpt lat="45.95977002859706" lon="12.628050728528079"><ele>32.166666666666664</ele><time>2026-05-01T09:31:03.999Z</time></trkpt><trkpt lat="45.95974138958221" lon="12.627968266235587"><ele>32.0</ele><time>2026-05-01T09:31:04.999Z</time></trkpt><trkpt lat="45.95971782236921" lon="12.62784669157167"><ele>32.33333333333333</ele><time>2026-05-01T09:31:05.999Z</time></trkpt><trkpt lat="45.959690877262325" lon="12.627720022192252"><ele>32.666666666666664</ele><time>2026-05-01T09:31:06.999Z</time></trkpt><trkpt lat="45.959670113565906" lon="12.627593564089338"><ele>33.0</ele><time>2026-05-01T09:31:07.999Z</time></trkpt><trkpt lat="45.95965631315448" lon="12.627462631211818"><ele>33.333333333333336</ele><time>2026-05-01T09:31:08.999Z</time></trkpt><trkpt lat="45.95964645727479" lon="12.627332412217942"><ele>33.66666666666667</ele><time>2026-05-01T09:31:09.999Z</time></trkpt><trkpt lat="45.959626279314755" lon="12.627222907691658"><ele>34.0</ele><time>2026-05-01T09:31:10.999Z</time></trkpt><trkpt lat="45.95954673974066" lon="12.627099048233921"><ele>34.0</ele><time>2026-05-01T09:31:12.999Z</time></trkpt><trkpt lat="45.959415323153706" lon="12.627082316404936"><ele>34.0</ele><time>2026-05-01T09:31:14.999Z</time></trkpt><trkpt lat="45.9593314643033" lon="12.62708591551108"><ele>34.0</ele><time>2026-05-01T09:31:15.999Z</time></trkpt><trkpt lat="45.959256605946" lon="12.627075243314838"><ele>34.0</ele><time>2026-05-01T09:31:16.999Z</time></trkpt><trkpt lat="45.95919303069778" lon="12.627042272311748"><ele>34.0</ele><time>2026-05-01T09:31:17.999Z</time></trkpt><trkpt lat="45.95911701807437" lon="12.626882583756089"><ele>33.4</ele><time>2026-05-01T09:31:19.998Z</time></trkpt><trkpt lat="45.95908696141976" lon="12.626752696650021"><ele>32.8</ele><time>2026-05-01T09:31:20.998Z</time></trkpt><trkpt lat="45.95905911960166" lon="12.62661741388394"><ele>32.2</ele><time>2026-05-01T09:31:21.998Z</time></trkpt><trkpt lat="45.959036093100735" lon="12.626476522539468"><ele>31.6</ele><time>2026-05-01T09:31:22.998Z</time></trkpt><trkpt lat="45.95900983046694" lon="12.626342894042205"><ele>31.0</ele><time>2026-05-01T09:31:23.998Z</time></trkpt><trkpt lat="45.95897967495286" lon="12.626210909339477"><ele>30.25</ele><time>2026-05-01T09:31:24.998Z</time></trkpt><trkpt lat="45.95893971947207" lon="12.626075075754091"><ele>29.5</ele><time>2026-05-01T09:31:25.998Z</time></trkpt><trkpt lat="45.95889688461858" lon="12.625929181964448"><ele>28.75</ele><time>2026-05-01T09:31:26.998Z</time></trkpt><trkpt lat="45.95885372417083" lon="12.625767846320876"><ele>28.0</ele><time>2026-05-01T09:31:27.998Z</time></trkpt><trkpt lat="45.95880785055558" lon="12.625602765688358"><ele>28.0</ele><time>2026-05-01T09:31:28.998Z</time></trkpt><trkpt lat="45.9587612260359" lon="12.625445690821786"><ele>28.0</ele><time>2026-05-01T09:31:29.998Z</time></trkpt><trkpt lat="45.958715342321554" lon="12.625295500403501"><ele>28.0</ele><time>2026-05-01T09:31:30.998Z</time></trkpt><trkpt lat="45.958671245904604" lon="12.625143192438705"><ele>28.0</ele><time>2026-05-01T09:31:31.998Z</time></trkpt><trkpt lat="45.958625738049804" lon="12.62498650500806"><ele>28.0</ele><time>2026-05-01T09:31:32.998Z</time></trkpt><trkpt lat="45.95858045230067" lon="12.624825816265405"><ele>28.0</ele><time>2026-05-01T09:31:33.998Z</time></trkpt><trkpt lat="45.958536419179026" lon="12.624670850233702"><ele>28.0</ele><time>2026-05-01T09:31:34.998Z</time></trkpt><trkpt lat="45.958489204030215" lon="12.62451105541316"><ele>28.0</ele><time>2026-05-01T09:31:35.998Z</time></trkpt><trkpt lat="45.95843635088813" lon="12.624339184710696"><ele>28.25</ele><time>2026-05-01T09:31:36.998Z</time></trkpt><trkpt lat="45.9583872625264" lon="12.624172691504345"><ele>28.5</ele><time>2026-05-01T09:31:37.998Z</time></trkpt><trkpt lat="45.95834169666931" lon="12.624016644063321"><ele>28.75</ele><time>2026-05-01T09:31:38.998Z</time></trkpt><trkpt lat="45.95829803947896" lon="12.623872926448852"><ele>29.0</ele><time>2026-05-01T09:31:39.998Z</time></trkpt><trkpt lat="45.95825574361651" lon="12.623738956971687"><ele>28.75</ele><time>2026-05-01T09:31:40.998Z</time></trkpt><trkpt lat="45.958213695911" lon="12.623599451088579"><ele>28.5</ele><time>2026-05-01T09:31:41.998Z</time></trkpt><trkpt lat="45.95817012757547" lon="12.623446505878901"><ele>28.25</ele><time>2026-05-01T09:31:42.998Z</time></trkpt><trkpt lat="45.95812200581346" lon="12.623276045994775"><ele>28.0</ele><time>2026-05-01T09:31:43.998Z</time></trkpt><trkpt lat="45.95807167026791" lon="12.623104266793607"><ele>28.0</ele><time>2026-05-01T09:31:44.998Z</time></trkpt><trkpt lat="45.95802475151603" lon="12.622948273169076"><ele>28.0</ele><time>2026-05-01T09:31:45.998Z</time></trkpt><trkpt lat="45.957980196056894" lon="12.622800354450304"><ele>28.0</ele><time>2026-05-01T09:31:46.998Z</time></trkpt><trkpt lat="45.957934267208586" lon="12.622645076806222"><ele>28.0</ele><time>2026-05-01T09:31:47.998Z</time></trkpt><trkpt lat="45.9578837355495" lon="12.622472060659389"><ele>28.25</ele><time>2026-05-01T09:31:48.998Z</time></trkpt><trkpt lat="45.957829025911934" lon="12.622287968776996"><ele>28.5</ele><time>2026-05-01T09:31:49.998Z</time></trkpt><trkpt lat="45.95778041604637" lon="12.62211658733068"><ele>28.75</ele><time>2026-05-01T09:31:50.998Z</time></trkpt><trkpt lat="45.957735287062334" lon="12.621955975592478"><ele>29.0</ele><time>2026-05-01T09:31:51.998Z</time></trkpt><trkpt lat="45.95768498993001" lon="12.62178883963424"><ele>29.0</ele><time>2026-05-01T09:31:52.998Z</time></trkpt><trkpt lat="45.95763410473076" lon="12.621620751460187"><ele>29.0</ele><time>2026-05-01T09:31:53.998Z</time></trkpt><trkpt lat="45.957581050394104" lon="12.621442248615418"><ele>29.0</ele><time>2026-05-01T09:31:54.998Z</time></trkpt><trkpt lat="45.95753002039745" lon="12.621269554166972"><ele>29.0</ele><time>2026-05-01T09:31:55.998Z</time></trkpt><trkpt lat="45.95747836332499" lon="12.621091157710714"><ele>29.0</ele><time>2026-05-01T09:31:56.998Z</time></trkpt><trkpt lat="45.95742535872947" lon="12.620917493732499"><ele>29.0</ele><time>2026-05-01T09:31:57.998Z</time></trkpt><trkpt lat="45.957376794319174" lon="12.620754873879216"><ele>29.0</ele><time>2026-05-01T09:31:58.998Z</time></trkpt><trkpt lat="45.957327941048376" lon="12.620598150354576"><ele>29.0</ele><time>2026-05-01T09:31:59.998Z</time></trkpt><trkpt lat="45.95727779071792" lon="12.620434749971066"><ele>29.0</ele><time>2026-05-01T09:32:00.998Z</time></trkpt><trkpt lat="45.95723751958965" lon="12.620282817156188"><ele>29.0</ele><time>2026-05-01T09:32:01.998Z</time></trkpt><trkpt lat="45.957207892854264" lon="12.620135813490696"><ele>29.0</ele><time>2026-05-01T09:32:02.998Z</time></trkpt><trkpt lat="45.957186824976446" lon="12.61998788745435"><ele>29.0</ele><time>2026-05-01T09:32:03.998Z</time></trkpt><trkpt lat="45.95718257414857" lon="12.61982860561368"><ele>29.0</ele><time>2026-05-01T09:32:04.998Z</time></trkpt><trkpt lat="45.95719374666383" lon="12.6196673222784"><ele>29.0</ele><time>2026-05-01T09:32:05.998Z</time></trkpt><trkpt lat="45.95720869634536" lon="12.619519323984886"><ele>29.0</ele><time>2026-05-01T09:32:06.998Z</time></trkpt><trkpt lat="45.957224822400875" lon="12.619374856639693"><ele>29.0</ele><time>2026-05-01T09:32:07.998Z</time></trkpt><trkpt lat="45.957244995841855" lon="12.619227151803079"><ele>29.0</ele><time>2026-05-01T09:32:08.998Z</time></trkpt><trkpt lat="45.95726869713835" lon="12.619070489531357"><ele>29.0</ele><time>2026-05-01T09:32:09.998Z</time></trkpt><trkpt lat="45.95729040118945" lon="12.618923629769023"><ele>28.666666666666664</ele><time>2026-05-01T09:32:10.999Z</time></trkpt><trkpt lat="45.95731030644111" lon="12.618791681196019"><ele>28.333333333333332</ele><time>2026-05-01T09:32:11.999Z</time></trkpt><trkpt lat="45.95733152809762" lon="12.618686286806748"><ele>28.0</ele><time>2026-05-01T09:32:12.999Z</time></trkpt><trkpt lat="45.95736360280454" lon="12.61859868354753"><ele>27.666666666666664</ele><time>2026-05-01T09:32:13.999Z</time></trkpt><trkpt lat="45.95740189901501" lon="12.618524806761314"><ele>27.333333333333332</ele><time>2026-05-01T09:32:14.999Z</time></trkpt><trkpt lat="45.957383091930126" lon="12.618388198579732"><ele>27.0</ele><time>2026-05-01T09:32:16.999Z</time></trkpt><trkpt lat="45.95724472116533" lon="12.618374124318093"><ele>27.0</ele><time>2026-05-01T09:32:18.999Z</time></trkpt><trkpt lat="45.95715694112195" lon="12.618407913374366"><ele>27.0</ele><time>2026-05-01T09:32:19.999Z</time></trkpt><trkpt lat="45.957053116186145" lon="12.618458888568155"><ele>27.0</ele><time>2026-05-01T09:32:20.999Z</time></trkpt><trkpt lat="45.95691802225636" lon="12.618439426281187"><ele>27.0</ele><time>2026-05-01T09:32:21.999Z</time></trkpt><trkpt lat="45.95677703046437" lon="12.61844273966123"><ele>28.333333333333336</ele><time>2026-05-01T09:32:22.999Z</time></trkpt><trkpt lat="45.95661629006474" lon="12.618449775315987"><ele>29.666666666666668</ele><time>2026-05-01T09:32:23.999Z</time></trkpt><trkpt lat="45.956455474589134" lon="12.618458771783287"><ele>31.0</ele><time>2026-05-01T09:32:24.999Z</time></trkpt><trkpt lat="45.956291052315414" lon="12.618467734543543"><ele>31.0</ele><time>2026-05-01T09:32:25.999Z</time></trkpt><trkpt lat="45.95611347429732" lon="12.618478459656451"><ele>31.0</ele><time>2026-05-01T09:32:26.999Z</time></trkpt><trkpt lat="45.95593796999133" lon="12.618490450166421"><ele>31.0</ele><time>2026-05-01T09:32:27.999Z</time></trkpt><trkpt lat="45.955770166830874" lon="12.618501179424984"><ele>29.666666666666668</ele><time>2026-05-01T09:32:28.999Z</time></trkpt><trkpt lat="45.9556052252399" lon="12.618509830058793"><ele>28.333333333333336</ele><time>2026-05-01T09:32:29.999Z</time></trkpt><trkpt lat="45.955442420665676" lon="12.618512017889959"><ele>27.0</ele><time>2026-05-01T09:32:30.999Z</time></trkpt><trkpt lat="45.9552698313515" lon="12.61850998195473"><ele>27.0</ele><time>2026-05-01T09:32:31.999Z</time></trkpt><trkpt lat="45.95509116764328" lon="12.618500122214144"><ele>27.0</ele><time>2026-05-01T09:32:32.999Z</time></trkpt><trkpt lat="45.95490975241387" lon="12.618481126450654"><ele>27.0</ele><time>2026-05-01T09:32:33.999Z</time></trkpt><trkpt lat="45.95472471109147" lon="12.618452538501696"><ele>26.666666666666664</ele><time>2026-05-01T09:32:34.999Z</time></trkpt><trkpt lat="45.95453315404887" lon="12.61841439556367"><ele>26.333333333333332</ele><time>2026-05-01T09:32:35.999Z</time></trkpt><trkpt lat="45.954327773036354" lon="12.618370716977081"><ele>26.0</ele><time>2026-05-01T09:32:36.999Z</time></trkpt><trkpt lat="45.954136459629346" lon="12.618325915631521"><ele>26.0</ele><time>2026-05-01T09:32:37.999Z</time></trkpt><trkpt lat="45.9539401981776" lon="12.618281299955182"><ele>26.0</ele><time>2026-05-01T09:32:38.999Z</time></trkpt><trkpt lat="45.95375381272416" lon="12.618238275677896"><ele>26.0</ele><time>2026-05-01T09:32:39.999Z</time></trkpt><trkpt lat="45.95355456950604" lon="12.61819531756019"><ele>26.0</ele><time>2026-05-01T09:32:40.999Z</time></trkpt><trkpt lat="45.953343170348504" lon="12.618129600071589"><ele>26.0</ele><time>2026-05-01T09:32:41.999Z</time></trkpt><trkpt lat="45.95320874226136" lon="12.618112232463316"><ele>26.0</ele><time>2026-05-01T09:32:42.999Z</time></trkpt><trkpt lat="45.953048897264566" lon="12.618079263873359"><ele>26.0</ele><time>2026-05-01T09:32:43.999Z</time></trkpt><trkpt lat="45.952886124226644" lon="12.618049498089388"><ele>26.0</ele><time>2026-05-01T09:32:44.999Z</time></trkpt><trkpt lat="45.95271705965327" lon="12.618028304532944"><ele>26.0</ele><time>2026-05-01T09:32:45.999Z</time></trkpt><trkpt lat="45.95253853123892" lon="12.61801726094455"><ele>25.666666666666664</ele><time>2026-05-01T09:32:46.999Z</time></trkpt><trkpt lat="45.9523568052207" lon="12.618022122265796"><ele>25.333333333333336</ele><time>2026-05-01T09:32:47.999Z</time></trkpt><trkpt lat="45.9521583802949" lon="12.61804854169239"><ele>25.0</ele><time>2026-05-01T09:32:48.999Z</time></trkpt><trkpt lat="45.95194960646341" lon="12.618089749784222"><ele>25.0</ele><time>2026-05-01T09:32:49.999Z</time></trkpt><trkpt lat="45.95174744550441" lon="12.618143089940315"><ele>25.0</ele><time>2026-05-01T09:32:50.999Z</time></trkpt><trkpt lat="45.951554552767156" lon="12.618195331422283"><ele>25.0</ele><time>2026-05-01T09:32:51.999Z</time></trkpt><trkpt lat="45.95136878726269" lon="12.618241153464272"><ele>25.0</ele><time>2026-05-01T09:32:52.999Z</time></trkpt><trkpt lat="45.95118145910722" lon="12.618285053175505"><ele>25.0</ele><time>2026-05-01T09:32:53.999Z</time></trkpt><trkpt lat="45.950985933683185" lon="12.618329432005902"><ele>25.0</ele><time>2026-05-01T09:32:54.999Z</time></trkpt><trkpt lat="45.95079435104421" lon="12.618378402865373"><ele>25.0</ele><time>2026-05-01T09:32:55.999Z</time></trkpt><trkpt lat="45.950587619917854" lon="12.61842813004838"><ele>25.0</ele><time>2026-05-01T09:32:56.999Z</time></trkpt><trkpt lat="45.95037378451952" lon="12.618480724474873"><ele>25.0</ele><time>2026-05-01T09:32:57.999Z</time></trkpt><trkpt lat="45.95016357119693" lon="12.618532634581683"><ele>24.666666666666668</ele><time>2026-05-01T09:32:58.999Z</time></trkpt><trkpt lat="45.94995909776453" lon="12.618583272169436"><ele>24.333333333333336</ele><time>2026-05-01T09:32:59.999Z</time></trkpt><trkpt lat="45.94976436664505" lon="12.618631585999122"><ele>24.0</ele><time>2026-05-01T09:33:00.999Z</time></trkpt><trkpt lat="45.94957243845475" lon="12.61867984932892"><ele>24.0</ele><time>2026-05-01T09:33:01.999Z</time></trkpt><trkpt lat="45.94938077295031" lon="12.618725207005829"><ele>24.0</ele><time>2026-05-01T09:33:02.999Z</time></trkpt><trkpt lat="45.949189501047684" lon="12.61876537690787"><ele>24.0</ele><time>2026-05-01T09:33:03.999Z</time></trkpt><trkpt lat="45.94899625430541" lon="12.618794323152215"><ele>23.666666666666668</ele><time>2026-05-01T09:33:04.999Z</time></trkpt><trkpt lat="45.9487945848001" lon="12.618808752905204"><ele>23.333333333333336</ele><time>2026-05-01T09:33:05.999Z</time></trkpt><trkpt lat="45.94858566267948" lon="12.618812386530022"><ele>23.0</ele><time>2026-05-01T09:33:06.999Z</time></trkpt><trkpt lat="45.94836911318244" lon="12.618803928155952"><ele>23.0</ele><time>2026-05-01T09:33:07.999Z</time></trkpt><trkpt lat="45.94815035238081" lon="12.618791172726636"><ele>23.0</ele><time>2026-05-01T09:33:08.999Z</time></trkpt><trkpt lat="45.94793345518514" lon="12.618778326957067"><ele>23.0</ele><time>2026-05-01T09:33:09.999Z</time></trkpt><trkpt lat="45.947717302185545" lon="12.618766000271705"><ele>23.0</ele><time>2026-05-01T09:33:10.999Z</time></trkpt><trkpt lat="45.94750007888446" lon="12.618758790943348"><ele>23.0</ele><time>2026-05-01T09:33:11.999Z</time></trkpt><trkpt lat="45.94729190051446" lon="12.618753240042158"><ele>23.0</ele><time>2026-05-01T09:33:12.999Z</time></trkpt><trkpt lat="45.94709387124614" lon="12.618751746084868"><ele>23.0</ele><time>2026-05-01T09:33:13.999Z</time></trkpt><trkpt lat="45.946905940253004" lon="12.618752467773092"><ele>23.0</ele><time>2026-05-01T09:33:14.999Z</time></trkpt><trkpt lat="45.946723500344135" lon="12.618755488286082"><ele>23.0</ele><time>2026-05-01T09:33:15.999Z</time></trkpt><trkpt lat="45.94655097635588" lon="12.618760974108309"><ele>22.666666666666668</ele><time>2026-05-01T09:33:16.998Z</time></trkpt><trkpt lat="45.94638734747081" lon="12.618770699866904"><ele>22.333333333333332</ele><time>2026-05-01T09:33:17.998Z</time></trkpt><trkpt lat="45.94623262989679" lon="12.61878229531268"><ele>22.0</ele><time>2026-05-01T09:33:18.998Z</time></trkpt><trkpt lat="45.94608773286074" lon="12.618792686374242"><ele>22.0</ele><time>2026-05-01T09:33:19.998Z</time></trkpt><trkpt lat="45.94594930946743" lon="12.618804600679445"><ele>22.0</ele><time>2026-05-01T09:33:20.998Z</time></trkpt><trkpt lat="45.945813257513855" lon="12.618819248006208"><ele>22.0</ele><time>2026-05-01T09:33:21.998Z</time></trkpt><trkpt lat="45.94566621150201" lon="12.61883494940441"><ele>22.0</ele><time>2026-05-01T09:33:22.998Z</time></trkpt><trkpt lat="45.94551443727252" lon="12.61884734969931"><ele>21.666666666666664</ele><time>2026-05-01T09:33:23.998Z</time></trkpt><trkpt lat="45.94535789016644" lon="12.618858049914962"><ele>21.333333333333332</ele><time>2026-05-01T09:33:24.998Z</time></trkpt><trkpt lat="45.94519659070221" lon="12.618870406292189"><ele>21.0</ele><time>2026-05-01T09:33:25.998Z</time></trkpt><trkpt lat="45.94503284796096" lon="12.618883975723381"><ele>21.0</ele><time>2026-05-01T09:33:26.998Z</time></trkpt><trkpt lat="45.94486712624904" lon="12.618897640578728"><ele>21.0</ele><time>2026-05-01T09:33:27.998Z</time></trkpt><trkpt lat="45.9446999397892" lon="12.618906092024543"><ele>21.0</ele><time>2026-05-01T09:33:28.998Z</time></trkpt><trkpt lat="45.944535236496066" lon="12.618908939910664"><ele>21.0</ele><time>2026-05-01T09:33:29.998Z</time></trkpt><trkpt lat="45.94437069655239" lon="12.618906697119822"><ele>21.0</ele><time>2026-05-01T09:33:30.998Z</time></trkpt><trkpt lat="45.94420964701744" lon="12.61889500581884"><ele>21.0</ele><time>2026-05-01T09:33:31.998Z</time></trkpt><trkpt lat="45.94405205195732" lon="12.618873624048415"><ele>21.333333333333332</ele><time>2026-05-01T09:33:32.998Z</time></trkpt><trkpt lat="45.943896865344186" lon="12.618846078862529"><ele>21.666666666666664</ele><time>2026-05-01T09:33:33.998Z</time></trkpt><trkpt lat="45.943743662480834" lon="12.61881082188194"><ele>22.0</ele><time>2026-05-01T09:33:34.998Z</time></trkpt><trkpt lat="45.943591791303234" lon="12.618769521422017"><ele>22.0</ele><time>2026-05-01T09:33:35.998Z</time></trkpt><trkpt lat="45.94344095699183" lon="12.6187201761512"><ele>22.0</ele><time>2026-05-01T09:33:36.998Z</time></trkpt><trkpt lat="45.94328913888531" lon="12.61866105892544"><ele>22.0</ele><time>2026-05-01T09:33:37.998Z</time></trkpt><trkpt lat="45.94313933480691" lon="12.618599088081565"><ele>21.333333333333332</ele><time>2026-05-01T09:33:38.998Z</time></trkpt><trkpt lat="45.942988415394225" lon="12.61853620576416"><ele>20.666666666666668</ele><time>2026-05-01T09:33:39.998Z</time></trkpt><trkpt lat="45.94283500614123" lon="12.618470679552187"><ele>20.0</ele><time>2026-05-01T09:33:40.998Z</time></trkpt><trkpt lat="45.94268066577553" lon="12.618402979923143"><ele>20.333333333333336</ele><time>2026-05-01T09:33:41.998Z</time></trkpt><trkpt lat="45.942524106043265" lon="12.618332802186083"><ele>20.666666666666668</ele><time>2026-05-01T09:33:42.998Z</time></trkpt><trkpt lat="45.942364065377944" lon="12.618261412331545"><ele>21.0</ele><time>2026-05-01T09:33:43.998Z</time></trkpt><trkpt lat="45.94220466252866" lon="12.6181832487914"><ele>21.0</ele><time>2026-05-01T09:33:44.998Z</time></trkpt><trkpt lat="45.94203831590353" lon="12.618087386741657"><ele>21.0</ele><time>2026-05-01T09:33:45.998Z</time></trkpt><trkpt lat="45.941874009155036" lon="12.617986862947221"><ele>21.0</ele><time>2026-05-01T09:33:46.998Z</time></trkpt><trkpt lat="45.94170513669187" lon="12.617879042808198"><ele>21.0</ele><time>2026-05-01T09:33:47.998Z</time></trkpt><trkpt lat="45.94152951614124" lon="12.617768489537369"><ele>21.0</ele><time>2026-05-01T09:33:48.998Z</time></trkpt><trkpt lat="45.941346347763975" lon="12.617654117069398"><ele>21.0</ele><time>2026-05-01T09:33:49.998Z</time></trkpt><trkpt lat="45.94115883022594" lon="12.617533802065335"><ele>21.0</ele><time>2026-05-01T09:33:50.998Z</time></trkpt><trkpt lat="45.940965396249815" lon="12.617408861818483"><ele>21.0</ele><time>2026-05-01T09:33:51.998Z</time></trkpt><trkpt lat="45.94076770156518" lon="12.617281302510946"><ele>21.0</ele><time>2026-05-01T09:33:52.998Z</time></trkpt><trkpt lat="45.940571681014696" lon="12.617155887061319"><ele>21.0</ele><time>2026-05-01T09:33:53.998Z</time></trkpt><trkpt lat="45.94037371475752" lon="12.6170286830244"><ele>21.0</ele><time>2026-05-01T09:33:54.998Z</time></trkpt><trkpt lat="45.94017578268297" lon="12.616901747597135"><ele>21.0</ele><time>2026-05-01T09:33:55.998Z</time></trkpt><trkpt lat="45.93997903433216" lon="12.616774565301437"><ele>20.5</ele><time>2026-05-01T09:33:56.998Z</time></trkpt><trkpt lat="45.93977925989032" lon="12.616645988292685"><ele>20.0</ele><time>2026-05-01T09:33:57.998Z</time></trkpt><trkpt lat="45.93956499672442" lon="12.616509510901365"><ele>20.0</ele><time>2026-05-01T09:33:58.998Z</time></trkpt><trkpt lat="45.939354169881" lon="12.616346694391614"><ele>20.0</ele><time>2026-05-01T09:33:59.998Z</time></trkpt><trkpt lat="45.93918688272716" lon="12.616261079263616"><ele>20.0</ele><time>2026-05-01T09:34:00.998Z</time></trkpt><trkpt lat="45.938986213833125" lon="12.616126454099076"><ele>19.666666666666668</ele><time>2026-05-01T09:34:01.998Z</time></trkpt><trkpt lat="45.93879466228197" lon="12.615997884252975"><ele>19.333333333333332</ele><time>2026-05-01T09:34:02.998Z</time></trkpt><trkpt lat="45.93861986581005" lon="12.615880883979242"><ele>19.0</ele><time>2026-05-01T09:34:03.998Z</time></trkpt><trkpt lat="45.93844887353658" lon="12.615772586405797"><ele>19.666666666666664</ele><time>2026-05-01T09:34:04.998Z</time></trkpt><trkpt lat="45.93828566816896" lon="12.615671448078032"><ele>20.333333333333332</ele><time>2026-05-01T09:34:05.998Z</time></trkpt><trkpt lat="45.938117119429805" lon="12.615588903749916"><ele>21.0</ele><time>2026-05-01T09:34:06.998Z</time></trkpt><trkpt lat="45.93794083261864" lon="12.615519581925847"><ele>21.0</ele><time>2026-05-01T09:34:07.998Z</time></trkpt><trkpt lat="45.937744407690744" lon="12.61546508166436"><ele>21.0</ele><time>2026-05-01T09:34:08.998Z</time></trkpt><trkpt lat="45.937535140475184" lon="12.615420872071926"><ele>21.0</ele><time>2026-05-01T09:34:09.998Z</time></trkpt><trkpt lat="45.93730957182302" lon="12.615382326396851"><ele>21.0</ele><time>2026-05-01T09:34:10.997Z</time></trkpt><trkpt lat="45.93707117705946" lon="12.615347095115197"><ele>21.0</ele><time>2026-05-01T09:34:11.997Z</time></trkpt><trkpt lat="45.936827416940524" lon="12.615305988401742"><ele>19.0</ele><time>2026-05-01T09:34:12.997Z</time></trkpt><trkpt lat="45.93657768530908" lon="12.615259991298629"><ele>17.0</ele><time>2026-05-01T09:34:13.997Z</time></trkpt><trkpt lat="45.93633740029131" lon="12.615215174268597"><ele>17.0</ele><time>2026-05-01T09:34:14.997Z</time></trkpt><trkpt lat="45.93611728156574" lon="12.615180476005465"><ele>17.0</ele><time>2026-05-01T09:34:15.997Z</time></trkpt><trkpt lat="45.935908878327766" lon="12.615120268844155"><ele>17.0</ele><time>2026-05-01T09:34:16.999Z</time></trkpt><trkpt lat="45.93570789798593" lon="12.615107661766745"><ele>17.0</ele><time>2026-05-01T09:34:17.999Z</time></trkpt><trkpt lat="45.93550940950705" lon="12.615072306402146"><ele>17.0</ele><time>2026-05-01T09:34:18.999Z</time></trkpt><trkpt lat="45.935309564523294" lon="12.61503305657366"><ele>17.0</ele><time>2026-05-01T09:34:19.999Z</time></trkpt><trkpt lat="45.935113400147465" lon="12.614998946565269"><ele>17.333333333333336</ele><time>2026-05-01T09:34:20.999Z</time></trkpt><trkpt lat="45.934918220986354" lon="12.614934199202292"><ele>17.666666666666668</ele><time>2026-05-01T09:34:21.999Z</time></trkpt><trkpt lat="45.93473583551663" lon="12.614904537414851"><ele>18.0</ele><time>2026-05-01T09:34:22.999Z</time></trkpt><trkpt lat="45.93455858615282" lon="12.614807827725572"><ele>18.0</ele><time>2026-05-01T09:34:23.999Z</time></trkpt><trkpt lat="45.93437544841013" lon="12.614716877480442"><ele>18.0</ele><time>2026-05-01T09:34:24.999Z</time></trkpt><trkpt lat="45.93418257007851" lon="12.614615440939037"><ele>18.0</ele><time>2026-05-01T09:34:25.999Z</time></trkpt><trkpt lat="45.93397503799801" lon="12.614527888551837"><ele>17.666666666666668</ele><time>2026-05-01T09:34:26.999Z</time></trkpt><trkpt lat="45.93377538395263" lon="12.614419467394814"><ele>17.333333333333336</ele><time>2026-05-01T09:34:27.999Z</time></trkpt><trkpt lat="45.93357707142287" lon="12.61431340522868"><ele>17.0</ele><time>2026-05-01T09:34:28.999Z</time></trkpt><trkpt lat="45.933381589756905" lon="12.614207309926318"><ele>17.666666666666668</ele><time>2026-05-01T09:34:29.999Z</time></trkpt><trkpt lat="45.93319623391273" lon="12.614107013147377"><ele>18.333333333333332</ele><time>2026-05-01T09:34:30.999Z</time></trkpt><trkpt lat="45.93302741432738" lon="12.614020084407686"><ele>19.0</ele><time>2026-05-01T09:34:31.999Z</time></trkpt><trkpt lat="45.93287124489608" lon="12.61394379717353"><ele>19.0</ele><time>2026-05-01T09:34:32.999Z</time></trkpt><trkpt lat="45.93272208184383" lon="12.613885126137365"><ele>19.0</ele><time>2026-05-01T09:34:33.999Z</time></trkpt><trkpt lat="45.93256577674137" lon="12.61384214371859"><ele>19.0</ele><time>2026-05-01T09:34:34.999Z</time></trkpt><trkpt lat="45.93239710188098" lon="12.613818229211939"><ele>18.666666666666664</ele><time>2026-05-01T09:34:35.999Z</time></trkpt><trkpt lat="45.93221100661069" lon="12.61381943056467"><ele>18.333333333333332</ele><time>2026-05-01T09:34:36.999Z</time></trkpt><trkpt lat="45.93201202281451" lon="12.61383957131691"><ele>18.0</ele><time>2026-05-01T09:34:37.999Z</time></trkpt><trkpt lat="45.93180059561987" lon="12.613879779003543"><ele>18.0</ele><time>2026-05-01T09:34:38.999Z</time></trkpt><trkpt lat="45.931568100106965" lon="12.613931221280852"><ele>18.0</ele><time>2026-05-01T09:34:39.999Z</time></trkpt><trkpt lat="45.93134655344597" lon="12.613977376360857"><ele>18.0</ele><time>2026-05-01T09:34:40.999Z</time></trkpt><trkpt lat="45.93113400971575" lon="12.614018746516878"><ele>18.0</ele><time>2026-05-01T09:34:41.999Z</time></trkpt><trkpt lat="45.930933113115564" lon="12.614059453991926"><ele>18.0</ele><time>2026-05-01T09:34:42.999Z</time></trkpt><trkpt lat="45.930732705762026" lon="12.614102132210075"><ele>18.0</ele><time>2026-05-01T09:34:43.999Z</time></trkpt><trkpt lat="45.93053371974694" lon="12.614140256097325"><ele>18.0</ele><time>2026-05-01T09:34:44.999Z</time></trkpt><trkpt lat="45.93033698738945" lon="12.614174574186109"><ele>18.0</ele><time>2026-05-01T09:34:45.999Z</time></trkpt><trkpt lat="45.93014217545004" lon="12.614210296730384"><ele>17.666666666666668</ele><time>2026-05-01T09:34:46.999Z</time></trkpt><trkpt lat="45.92994788630553" lon="12.614246989317772"><ele>17.333333333333336</ele><time>2026-05-01T09:34:47.999Z</time></trkpt><trkpt lat="45.92975135199539" lon="12.61428468800684"><ele>17.0</ele><time>2026-05-01T09:34:48.999Z</time></trkpt><trkpt lat="45.929555408428214" lon="12.614321774178611"><ele>17.0</ele><time>2026-05-01T09:34:49.999Z</time></trkpt><trkpt lat="45.92935833826157" lon="12.614353145486922"><ele>17.0</ele><time>2026-05-01T09:34:50.999Z</time></trkpt><trkpt lat="45.929158440655044" lon="12.614374124125815"><ele>17.0</ele><time>2026-05-01T09:34:51.999Z</time></trkpt><trkpt lat="45.92894853442443" lon="12.614377626182458"><ele>16.5</ele><time>2026-05-01T09:34:52.999Z</time></trkpt><trkpt lat="45.92872474461276" lon="12.614360904417559"><ele>16.0</ele><time>2026-05-01T09:34:53.999Z</time></trkpt><trkpt lat="45.92849346683095" lon="12.614332746606228"><ele>15.5</ele><time>2026-05-01T09:34:54.999Z</time></trkpt><trkpt lat="45.92826286685766" lon="12.614298182785022"><ele>15.0</ele><time>2026-05-01T09:34:55.999Z</time></trkpt><trkpt lat="45.92803283302056" lon="12.614267310019185"><ele>15.0</ele><time>2026-05-01T09:34:56.999Z</time></trkpt><trkpt lat="45.927801803423925" lon="12.614239977610758"><ele>15.0</ele><time>2026-05-01T09:34:57.999Z</time></trkpt><trkpt lat="45.92757361150047" lon="12.614212704142291"><ele>16.0</ele><time>2026-05-01T09:34:58.999Z</time></trkpt><trkpt lat="45.927347850582265" lon="12.61418513623204"><ele>17.0</ele><time>2026-05-01T09:34:59.999Z</time></trkpt><trkpt lat="45.92712536211441" lon="12.614158110386024"><ele>17.0</ele><time>2026-05-01T09:35:00.999Z</time></trkpt><trkpt lat="45.92691424131483" lon="12.614129626972813"><ele>17.0</ele><time>2026-05-01T09:35:01.999Z</time></trkpt><trkpt lat="45.92670654488214" lon="12.614103213460215"><ele>17.0</ele><time>2026-05-01T09:35:02.999Z</time></trkpt><trkpt lat="45.92650388669969" lon="12.61407893778075"><ele>17.0</ele><time>2026-05-01T09:35:03.999Z</time></trkpt><trkpt lat="45.926301583785985" lon="12.614054924237173"><ele>17.0</ele><time>2026-05-01T09:35:04.999Z</time></trkpt><trkpt lat="45.9260954367906" lon="12.614030305341664"><ele>17.0</ele><time>2026-05-01T09:35:05.999Z</time></trkpt><trkpt lat="45.925882741668154" lon="12.614007064025106"><ele>17.0</ele><time>2026-05-01T09:35:06.999Z</time></trkpt><trkpt lat="45.92565394974148" lon="12.613983680623717"><ele>17.0</ele><time>2026-05-01T09:35:07.999Z</time></trkpt><trkpt lat="45.92541048236144" lon="12.613959105306064"><ele>17.0</ele><time>2026-05-01T09:35:08.999Z</time></trkpt><trkpt lat="45.92516343744272" lon="12.613930248064008"><ele>17.0</ele><time>2026-05-01T09:35:09.999Z</time></trkpt><trkpt lat="45.9249106568552" lon="12.613900604149183"><ele>16.5</ele><time>2026-05-01T09:35:10.999Z</time></trkpt><trkpt lat="45.92465308929867" lon="12.613868801091922"><ele>16.0</ele><time>2026-05-01T09:35:11.999Z</time></trkpt><trkpt lat="45.92439418370868" lon="12.613837215687463"><ele>15.5</ele><time>2026-05-01T09:35:12.999Z</time></trkpt><trkpt lat="45.924130720110895" lon="12.613806897996042"><ele>15.0</ele><time>2026-05-01T09:35:13.999Z</time></trkpt><trkpt lat="45.92388863239244" lon="12.613777080591264"><ele>15.0</ele><time>2026-05-01T09:35:14.999Z</time></trkpt><trkpt lat="45.92366478237536" lon="12.613748692196438"><ele>15.0</ele><time>2026-05-01T09:35:15.999Z</time></trkpt><trkpt lat="45.92344957349898" lon="12.613720718746713"><ele>15.0</ele><time>2026-05-01T09:35:16.999Z</time></trkpt><trkpt lat="45.92323578157726" lon="12.613692821375777"><ele>15.0</ele><time>2026-05-01T09:35:17.999Z</time></trkpt><trkpt lat="45.92302785221125" lon="12.613666605878088"><ele>15.0</ele><time>2026-05-01T09:35:18.999Z</time></trkpt><trkpt lat="45.92282811690726" lon="12.613644218282856"><ele>15.0</ele><time>2026-05-01T09:35:19.999Z</time></trkpt><trkpt lat="45.92264186735093" lon="12.613623557809571"><ele>15.333333333333332</ele><time>2026-05-01T09:35:20.998Z</time></trkpt><trkpt lat="45.922463044796835" lon="12.613610544605564"><ele>15.666666666666666</ele><time>2026-05-01T09:35:21.998Z</time></trkpt><trkpt lat="45.92227957641116" lon="12.613610640038138"><ele>16.0</ele><time>2026-05-01T09:35:22.998Z</time></trkpt><trkpt lat="45.922083500900314" lon="12.613628462644346"><ele>15.666666666666666</ele><time>2026-05-01T09:35:23.998Z</time></trkpt><trkpt lat="45.92186920246787" lon="12.613661843673427"><ele>15.333333333333332</ele><time>2026-05-01T09:35:24.998Z</time></trkpt><trkpt lat="45.921641200585775" lon="12.613709198054943"><ele>15.0</ele><time>2026-05-01T09:35:25.998Z</time></trkpt><trkpt lat="45.92140432218726" lon="12.613759479949175"><ele>15.333333333333332</ele><time>2026-05-01T09:35:26.998Z</time></trkpt><trkpt lat="45.921178039591865" lon="12.613805373299556"><ele>15.666666666666666</ele><time>2026-05-01T09:35:27.998Z</time></trkpt><trkpt lat="45.920960416525666" lon="12.61384866582892"><ele>16.0</ele><time>2026-05-01T09:35:28.998Z</time></trkpt><trkpt lat="45.92074783059251" lon="12.613890878516541"><ele>16.0</ele><time>2026-05-01T09:35:29.998Z</time></trkpt><trkpt lat="45.92054574958564" lon="12.613932295786954"><ele>16.0</ele><time>2026-05-01T09:35:30.998Z</time></trkpt><trkpt lat="45.92034466297884" lon="12.613974383529852"><ele>16.0</ele><time>2026-05-01T09:35:31.998Z</time></trkpt><trkpt lat="45.920145553704664" lon="12.614019255182937"><ele>15.666666666666666</ele><time>2026-05-01T09:35:32.998Z</time></trkpt><trkpt lat="45.91995082666535" lon="12.614058950041468"><ele>15.333333333333332</ele><time>2026-05-01T09:35:33.998Z</time></trkpt><trkpt lat="45.919757312827166" lon="12.614088672566504"><ele>15.0</ele><time>2026-05-01T09:35:34.998Z</time></trkpt><trkpt lat="45.91955511025669" lon="12.614104033090806"><ele>15.0</ele><time>2026-05-01T09:35:35.998Z</time></trkpt><trkpt lat="45.91934941155975" lon="12.614099768723895"><ele>15.0</ele><time>2026-05-01T09:35:36.998Z</time></trkpt><trkpt lat="45.91913977294843" lon="12.614078365346508"><ele>15.0</ele><time>2026-05-01T09:35:37.998Z</time></trkpt><trkpt lat="45.918919091060125" lon="12.614043245791732"><ele>15.0</ele><time>2026-05-01T09:35:38.998Z</time></trkpt><trkpt lat="45.9186931039788" lon="12.614001841981533"><ele>15.0</ele><time>2026-05-01T09:35:39.998Z</time></trkpt><trkpt lat="45.91846196826244" lon="12.61395497327345"><ele>15.5</ele><time>2026-05-01T09:35:40.998Z</time></trkpt><trkpt lat="45.9182211093008" lon="12.613909629471896"><ele>16.0</ele><time>2026-05-01T09:35:41.998Z</time></trkpt><trkpt lat="45.91797021572293" lon="12.613865727494035"><ele>16.0</ele><time>2026-05-01T09:35:42.998Z</time></trkpt><trkpt lat="45.917721821368765" lon="12.613819995082077"><ele>16.0</ele><time>2026-05-01T09:35:43.998Z</time></trkpt><trkpt lat="45.91748842993839" lon="12.613772383742955"><ele>16.0</ele><time>2026-05-01T09:35:44.998Z</time></trkpt><trkpt lat="45.91727607243008" lon="12.613731795812297"><ele>16.0</ele><time>2026-05-01T09:35:45.998Z</time></trkpt><trkpt lat="45.91707612391557" lon="12.613693449831748"><ele>16.0</ele><time>2026-05-01T09:35:46.998Z</time></trkpt><trkpt lat="45.916884969573296" lon="12.613653718806592"><ele>15.666666666666666</ele><time>2026-05-01T09:35:47.998Z</time></trkpt><trkpt lat="45.91669841051882" lon="12.613611210240265"><ele>15.333333333333332</ele><time>2026-05-01T09:35:48.998Z</time></trkpt><trkpt lat="45.91650727284199" lon="12.613575523361343"><ele>15.0</ele><time>2026-05-01T09:35:49.998Z</time></trkpt><trkpt lat="45.916313632185386" lon="12.613548449920184"><ele>15.0</ele><time>2026-05-01T09:35:50.998Z</time></trkpt><trkpt lat="45.91611333784526" lon="12.613533194556508"><ele>15.0</ele><time>2026-05-01T09:35:51.998Z</time></trkpt><trkpt lat="45.915906597508034" lon="12.613527130440628"><ele>15.0</ele><time>2026-05-01T09:35:52.998Z</time></trkpt><trkpt lat="45.91569456331045" lon="12.613530938298439"><ele>15.333333333333332</ele><time>2026-05-01T09:35:53.998Z</time></trkpt><trkpt lat="45.91547664282668" lon="12.61353124604366"><ele>15.666666666666666</ele><time>2026-05-01T09:35:54.998Z</time></trkpt><trkpt lat="45.9152563136203" lon="12.613531236142627"><ele>16.0</ele><time>2026-05-01T09:35:55.998Z</time></trkpt><trkpt lat="45.915036394751475" lon="12.613530862008924"><ele>15.333333333333332</ele><time>2026-05-01T09:35:56.998Z</time></trkpt><trkpt lat="45.914816353571545" lon="12.613529707510795"><ele>14.666666666666668</ele><time>2026-05-01T09:35:57.998Z</time></trkpt><trkpt lat="45.914594354724066" lon="12.613529252507103"><ele>14.0</ele><time>2026-05-01T09:35:58.998Z</time></trkpt><trkpt lat="45.914379534686795" lon="12.613532635635405"><ele>14.333333333333334</ele><time>2026-05-01T09:35:59.998Z</time></trkpt><trkpt lat="45.914157730974004" lon="12.61353523755404"><ele>14.666666666666668</ele><time>2026-05-01T09:36:00.998Z</time></trkpt><trkpt lat="45.913941030448136" lon="12.613537440783094"><ele>15.0</ele><time>2026-05-01T09:36:01.998Z</time></trkpt><trkpt lat="45.91373712505521" lon="12.613537756989215"><ele>15.0</ele><time>2026-05-01T09:36:02.998Z</time></trkpt><trkpt lat="45.91354296643107" lon="12.613538277631493"><ele>15.0</ele><time>2026-05-01T09:36:03.998Z</time></trkpt><trkpt lat="45.913364141045726" lon="12.613539412884926"><ele>15.0</ele><time>2026-05-01T09:36:04.998Z</time></trkpt><trkpt lat="45.91319019612364" lon="12.613533346532313"><ele>14.666666666666668</ele><time>2026-05-01T09:36:05.998Z</time></trkpt><trkpt lat="45.9130176712348" lon="12.613479322744034"><ele>14.333333333333334</ele><time>2026-05-01T09:36:06.998Z</time></trkpt><trkpt lat="45.91284033097896" lon="12.613426980492795"><ele>14.0</ele><time>2026-05-01T09:36:07.998Z</time></trkpt><trkpt lat="45.91266064654477" lon="12.613350740483375"><ele>14.333333333333334</ele><time>2026-05-01T09:36:08.998Z</time></trkpt><trkpt lat="45.9124642588077" lon="12.613282011768113"><ele>14.666666666666668</ele><time>2026-05-01T09:36:09.998Z</time></trkpt><trkpt lat="45.91229063846782" lon="12.613198032865363"><ele>15.0</ele><time>2026-05-01T09:36:10.998Z</time></trkpt><trkpt lat="45.912126918332476" lon="12.613114616715087"><ele>15.0</ele><time>2026-05-01T09:36:11.998Z</time></trkpt><trkpt lat="45.91197106170148" lon="12.61303861389551"><ele>15.0</ele><time>2026-05-01T09:36:12.998Z</time></trkpt><trkpt lat="45.911826333074316" lon="12.612967401131254"><ele>15.0</ele><time>2026-05-01T09:36:13.998Z</time></trkpt><trkpt lat="45.911684707424826" lon="12.612893346973069"><ele>15.25</ele><time>2026-05-01T09:36:14.998Z</time></trkpt><trkpt lat="45.91155073277842" lon="12.612806804984228"><ele>15.5</ele><time>2026-05-01T09:36:15.997Z</time></trkpt><trkpt lat="45.911433148318764" lon="12.612716081989946"><ele>15.75</ele><time>2026-05-01T09:36:16.997Z</time></trkpt><trkpt lat="45.91132688490148" lon="12.612616635561233"><ele>16.0</ele><time>2026-05-01T09:36:17.997Z</time></trkpt><trkpt lat="45.91122784201595" lon="12.612510797620052"><ele>16.0</ele><time>2026-05-01T09:36:18.997Z</time></trkpt><trkpt lat="45.911122859191735" lon="12.612393413657669"><ele>16.0</ele><time>2026-05-01T09:36:19.997Z</time></trkpt><trkpt lat="45.91100571433433" lon="12.612257293863793"><ele>16.0</ele><time>2026-05-01T09:36:20.997Z</time></trkpt><trkpt lat="45.91088742823026" lon="12.61211009270593"><ele>16.0</ele><time>2026-05-01T09:36:21.999Z</time></trkpt><trkpt lat="45.91076580081292" lon="12.611969089757142"><ele>15.333333333333332</ele><time>2026-05-01T09:36:22.999Z</time></trkpt><trkpt lat="45.91063958533661" lon="12.611834276634843"><ele>14.666666666666668</ele><time>2026-05-01T09:36:23.999Z</time></trkpt><trkpt lat="45.91050273649329" lon="12.611717544312015"><ele>14.0</ele><time>2026-05-01T09:36:24.999Z</time></trkpt><trkpt lat="45.91035895147266" lon="12.611620153260336"><ele>14.0</ele><time>2026-05-01T09:36:25.999Z</time></trkpt><trkpt lat="45.91020141131532" lon="12.611554337488284"><ele>14.0</ele><time>2026-05-01T09:36:26.999Z</time></trkpt><trkpt lat="45.91003860548872" lon="12.611513605199953"><ele>14.0</ele><time>2026-05-01T09:36:27.999Z</time></trkpt><trkpt lat="45.90986473557603" lon="12.611472623250034"><ele>14.333333333333334</ele><time>2026-05-01T09:36:28.999Z</time></trkpt><trkpt lat="45.90967694513388" lon="12.611439742823688"><ele>14.666666666666668</ele><time>2026-05-01T09:36:29.999Z</time></trkpt><trkpt lat="45.90947755959022" lon="12.611401531380483"><ele>15.0</ele><time>2026-05-01T09:36:30.999Z</time></trkpt><trkpt lat="45.90927347613069" lon="12.61136098746366"><ele>14.333333333333332</ele><time>2026-05-01T09:36:31.999Z</time></trkpt><trkpt lat="45.90906674381373" lon="12.611320814989469"><ele>13.666666666666666</ele><time>2026-05-01T09:36:32.999Z</time></trkpt><trkpt lat="45.90884841401155" lon="12.61127536753852"><ele>13.0</ele><time>2026-05-01T09:36:33.999Z</time></trkpt><trkpt lat="45.90863432756496" lon="12.611236689209038"><ele>13.0</ele><time>2026-05-01T09:36:34.999Z</time></trkpt><trkpt lat="45.90842243438309" lon="12.61119228184672"><ele>13.0</ele><time>2026-05-01T09:36:35.999Z</time></trkpt><trkpt lat="45.90820737797342" lon="12.611157297487905"><ele>13.0</ele><time>2026-05-01T09:36:36.999Z</time></trkpt><trkpt lat="45.907999795787305" lon="12.611099422951739"><ele>12.333333333333332</ele><time>2026-05-01T09:36:37.999Z</time></trkpt><trkpt lat="45.90780008691568" lon="12.611061496136303"><ele>11.666666666666666</ele><time>2026-05-01T09:36:38.999Z</time></trkpt><trkpt lat="45.90762988274048" lon="12.61105440700448"><ele>11.0</ele><time>2026-05-01T09:36:39.999Z</time></trkpt><trkpt lat="45.907493885211785" lon="12.611023759307574"><ele>11.0</ele><time>2026-05-01T09:36:40.999Z</time></trkpt><trkpt lat="45.90737626723566" lon="12.610956516146892"><ele>11.0</ele><time>2026-05-01T09:36:41.999Z</time></trkpt><trkpt lat="45.907269263981426" lon="12.610894618583991"><ele>11.0</ele><time>2026-05-01T09:36:42.999Z</time></trkpt><trkpt lat="45.90717708107458" lon="12.610797177730085"><ele>11.0</ele><time>2026-05-01T09:36:43.999Z</time></trkpt><trkpt lat="45.90709164125724" lon="12.610684257593606"><ele>11.0</ele><time>2026-05-01T09:36:44.999Z</time></trkpt><trkpt lat="45.907020323043916" lon="12.610546946278555"><ele>11.0</ele><time>2026-05-01T09:36:45.999Z</time></trkpt><trkpt lat="45.90695808181516" lon="12.610361536804522"><ele>11.0</ele><time>2026-05-01T09:36:46.999Z</time></trkpt><trkpt lat="45.90690784429898" lon="12.61014984544663"><ele>11.0</ele><time>2026-05-01T09:36:47.999Z</time></trkpt><trkpt lat="45.90685726882483" lon="12.609898159868571"><ele>11.0</ele><time>2026-05-01T09:36:48.999Z</time></trkpt><trkpt lat="45.906787085729555" lon="12.609626023616007"><ele>11.0</ele><time>2026-05-01T09:36:49.999Z</time></trkpt><trkpt lat="45.906735829827994" lon="12.609320215724576"><ele>11.0</ele><time>2026-05-01T09:36:50.999Z</time></trkpt><trkpt lat="45.90667873566239" lon="12.609011211762068"><ele>11.333333333333332</ele><time>2026-05-01T09:36:51.999Z</time></trkpt><trkpt lat="45.90662199199786" lon="12.608709041176267"><ele>11.666666666666666</ele><time>2026-05-01T09:36:52.999Z</time></trkpt><trkpt lat="45.90656269856034" lon="12.608413062218673"><ele>12.0</ele><time>2026-05-01T09:36:53.999Z</time></trkpt><trkpt lat="45.90650691032278" lon="12.608110957271673"><ele>12.0</ele><time>2026-05-01T09:36:54.999Z</time></trkpt><trkpt lat="45.906451533821496" lon="12.607824581308716"><ele>12.0</ele><time>2026-05-01T09:36:55.999Z</time></trkpt><trkpt lat="45.906395799107244" lon="12.60754425612861"><ele>12.0</ele><time>2026-05-01T09:36:56.999Z</time></trkpt><trkpt lat="45.90634259215414" lon="12.607269679326336"><ele>12.0</ele><time>2026-05-01T09:36:57.999Z</time></trkpt><trkpt lat="45.90629532593458" lon="12.607023180643571"><ele>12.0</ele><time>2026-05-01T09:36:58.999Z</time></trkpt><trkpt lat="45.90624891522691" lon="12.606788937199084"><ele>12.0</ele><time>2026-05-01T09:36:59.999Z</time></trkpt><trkpt lat="45.906203606216856" lon="12.606570916172705"><ele>12.0</ele><time>2026-05-01T09:37:00.999Z</time></trkpt><trkpt lat="45.9061542422744" lon="12.6063713924044"><ele>12.0</ele><time>2026-05-01T09:37:01.999Z</time></trkpt><trkpt lat="45.906096219961334" lon="12.606195666626617"><ele>12.0</ele><time>2026-05-01T09:37:02.999Z</time></trkpt><trkpt lat="45.90601766206046" lon="12.60604656145734"><ele>12.0</ele><time>2026-05-01T09:37:03.999Z</time></trkpt><trkpt lat="45.90591400430396" lon="12.605913696418552"><ele>12.0</ele><time>2026-05-01T09:37:04.999Z</time></trkpt><trkpt lat="45.90579327731012" lon="12.605789344964014"><ele>12.0</ele><time>2026-05-01T09:37:05.999Z</time></trkpt><trkpt lat="45.905664121397066" lon="12.605663232766517"><ele>12.0</ele><time>2026-05-01T09:37:06.999Z</time></trkpt><trkpt lat="45.90553189435256" lon="12.605537561733412"><ele>12.0</ele><time>2026-05-01T09:37:07.999Z</time></trkpt><trkpt lat="45.905398666295525" lon="12.60540368990853"><ele>12.0</ele><time>2026-05-01T09:37:08.999Z</time></trkpt><trkpt lat="45.90526595400097" lon="12.60526018071632"><ele>12.0</ele><time>2026-05-01T09:37:09.999Z</time></trkpt><trkpt lat="45.90513410815091" lon="12.605102214593925"><ele>12.0</ele><time>2026-05-01T09:37:10.999Z</time></trkpt><trkpt lat="45.90502182422191" lon="12.604913694272458"><ele>12.0</ele><time>2026-05-01T09:37:11.999Z</time></trkpt><trkpt lat="45.904909795468264" lon="12.604752029186209"><ele>12.0</ele><time>2026-05-01T09:37:12.999Z</time></trkpt><trkpt lat="45.90479468499387" lon="12.604611684172678"><ele>12.0</ele><time>2026-05-01T09:37:13.999Z</time></trkpt><trkpt lat="45.90469614016083" lon="12.604465208849357"><ele>12.0</ele><time>2026-05-01T09:37:14.999Z</time></trkpt><trkpt lat="45.90459697863839" lon="12.604314372868222"><ele>12.0</ele><time>2026-05-01T09:37:15.999Z</time></trkpt><trkpt lat="45.904500101718774" lon="12.604149776169498"><ele>12.0</ele><time>2026-05-01T09:37:16.999Z</time></trkpt><trkpt lat="45.90441309735605" lon="12.603970289107417"><ele>12.0</ele><time>2026-05-01T09:37:17.999Z</time></trkpt><trkpt lat="45.90435924419869" lon="12.60376024779894"><ele>12.0</ele><time>2026-05-01T09:37:18.999Z</time></trkpt><trkpt lat="45.90430324863431" lon="12.603547656854776"><ele>12.0</ele><time>2026-05-01T09:37:19.999Z</time></trkpt><trkpt lat="45.90423982175967" lon="12.60333859274053"><ele>12.0</ele><time>2026-05-01T09:37:20.999Z</time></trkpt><trkpt lat="45.90420059057705" lon="12.603126458648948"><ele>12.0</ele><time>2026-05-01T09:37:21.999Z</time></trkpt><trkpt lat="45.904159902486825" lon="12.602945982716047"><ele>12.0</ele><time>2026-05-01T09:37:22.999Z</time></trkpt><trkpt lat="45.90412301100173" lon="12.602791704397449"><ele>12.0</ele><time>2026-05-01T09:37:23.999Z</time></trkpt><trkpt lat="45.90407696905562" lon="12.602658284121082"><ele>12.75</ele><time>2026-05-01T09:37:24.999Z</time></trkpt><trkpt lat="45.90400935624417" lon="12.602553902889156"><ele>13.5</ele><time>2026-05-01T09:37:25.999Z</time></trkpt><trkpt lat="45.90391562761942" lon="12.602472357655213"><ele>14.25</ele><time>2026-05-01T09:37:26.999Z</time></trkpt><trkpt lat="45.903804243790056" lon="12.602421684231318"><ele>15.0</ele><time>2026-05-01T09:37:27.999Z</time></trkpt><trkpt lat="45.90368047027588" lon="12.602403796806348"><ele>15.0</ele><time>2026-05-01T09:37:28.999Z</time></trkpt><trkpt lat="45.903534460207894" lon="12.602409855027112"><ele>15.0</ele><time>2026-05-01T09:37:29.999Z</time></trkpt><trkpt lat="45.903374868124665" lon="12.602420783947402"><ele>15.0</ele><time>2026-05-01T09:37:30.998Z</time></trkpt><trkpt lat="45.90324030938192" lon="12.60239975747267"><ele>15.0</ele><time>2026-05-01T09:37:31.998Z</time></trkpt><trkpt lat="45.90313472430926" lon="12.602396369898285"><ele>15.0</ele><time>2026-05-01T09:37:32.998Z</time></trkpt><trkpt lat="45.90304764601784" lon="12.6023810748962"><ele>15.0</ele><time>2026-05-01T09:37:33.998Z</time></trkpt><trkpt lat="45.90297918190923" lon="12.6023168492691"><ele>15.0</ele><time>2026-05-01T09:37:34.998Z</time></trkpt><trkpt lat="45.90292024021085" lon="12.602218587707162"><ele>15.0</ele><time>2026-05-01T09:37:35.998Z</time></trkpt><trkpt lat="45.90281937331212" lon="12.60208185116451"><ele>15.0</ele><time>2026-05-01T09:37:36.998Z</time></trkpt><trkpt lat="45.9027225689463" lon="12.601901618751935"><ele>15.0</ele><time>2026-05-01T09:37:37.998Z</time></trkpt><trkpt lat="45.902604203589505" lon="12.601703637585613"><ele>15.0</ele><time>2026-05-01T09:37:38.998Z</time></trkpt><trkpt lat="45.90249734093567" lon="12.6015279851429"><ele>15.0</ele><time>2026-05-01T09:37:39.998Z</time></trkpt><trkpt lat="45.90240601124919" lon="12.601374481764308"><ele>15.0</ele><time>2026-05-01T09:37:40.998Z</time></trkpt><trkpt lat="45.9023241176002" lon="12.601232756754078"><ele>15.0</ele><time>2026-05-01T09:37:41.998Z</time></trkpt><trkpt lat="45.90225191570179" lon="12.60110699334734"><ele>15.0</ele><time>2026-05-01T09:37:42.998Z</time></trkpt><trkpt lat="45.90219121535682" lon="12.600999599164764"><ele>15.0</ele><time>2026-05-01T09:37:43.998Z</time></trkpt><trkpt lat="45.902139046217265" lon="12.60091321871644"><ele>15.0</ele><time>2026-05-01T09:37:44.998Z</time></trkpt><trkpt lat="45.902064104068145" lon="12.600772769974204"><ele>14.75</ele><time>2026-05-01T09:37:46.998Z</time></trkpt><trkpt lat="45.901920189739755" lon="12.60075540436552"><ele>14.5</ele><time>2026-05-01T09:37:48.998Z</time></trkpt><trkpt lat="45.90179160962584" lon="12.600777726852904"><ele>14.25</ele><time>2026-05-01T09:37:49.998Z</time></trkpt><trkpt lat="45.90163382170202" lon="12.600746100306955"><ele>14.0</ele><time>2026-05-01T09:37:50.998Z</time></trkpt><trkpt lat="45.90146158164098" lon="12.600725191867097"><ele>15.0</ele><time>2026-05-01T09:37:51.998Z</time></trkpt><trkpt lat="45.90127976671831" lon="12.600722944701964"><ele>16.0</ele><time>2026-05-01T09:37:52.998Z</time></trkpt><trkpt lat="45.90111357528611" lon="12.600696157022599"><ele>17.0</ele><time>2026-05-01T09:37:53.998Z</time></trkpt><trkpt lat="45.90097068679981" lon="12.600687099845928"><ele>17.0</ele><time>2026-05-01T09:37:54.998Z</time></trkpt><trkpt lat="45.900840201719376" lon="12.60070824638236"><ele>17.0</ele><time>2026-05-01T09:37:55.998Z</time></trkpt><trkpt lat="45.90071550459102" lon="12.600754845111613"><ele>17.0</ele><time>2026-05-01T09:37:56.998Z</time></trkpt><trkpt lat="45.900589691249586" lon="12.600811431970435"><ele>17.0</ele><time>2026-05-01T09:37:57.998Z</time></trkpt><trkpt lat="45.9004531367697" lon="12.600880754154788"><ele>17.0</ele><time>2026-05-01T09:37:58.998Z</time></trkpt><trkpt lat="45.90029782080039" lon="12.60095154415224"><ele>17.0</ele><time>2026-05-01T09:37:59.998Z</time></trkpt><trkpt lat="45.90011730756628" lon="12.601038521436317"><ele>17.0</ele><time>2026-05-01T09:38:00.998Z</time></trkpt><trkpt lat="45.899947434631464" lon="12.601121671591676"><ele>16.0</ele><time>2026-05-01T09:38:01.998Z</time></trkpt><trkpt lat="45.89979570381461" lon="12.601197072974422"><ele>15.0</ele><time>2026-05-01T09:38:02.998Z</time></trkpt><trkpt lat="45.89966513682833" lon="12.601262184071732"><ele>14.0</ele><time>2026-05-01T09:38:03.998Z</time></trkpt><trkpt lat="45.89953939571042" lon="12.601322248428808"><ele>13.0</ele><time>2026-05-01T09:38:04.998Z</time></trkpt><trkpt lat="45.89943650873069" lon="12.601379783300414"><ele>13.0</ele><time>2026-05-01T09:38:05.998Z</time></trkpt><trkpt lat="45.899346140243544" lon="12.601436954307717"><ele>13.0</ele><time>2026-05-01T09:38:06.998Z</time></trkpt><trkpt lat="45.89927149253417" lon="12.601483394234988"><ele>13.0</ele><time>2026-05-01T09:38:07.998Z</time></trkpt><trkpt lat="45.899194530825646" lon="12.601478617211264"><ele>13.0</ele><time>2026-05-01T09:38:08.998Z</time></trkpt><trkpt lat="45.89920829435616" lon="12.601278518154615"><ele>13.0</ele><time>2026-05-01T09:38:09.998Z</time></trkpt><trkpt lat="45.8990642910381" lon="12.601152975618655"><ele>13.666666666666666</ele><time>2026-05-01T09:38:11.998Z</time></trkpt><trkpt lat="45.898999860501306" lon="12.600961363155168"><ele>14.333333333333332</ele><time>2026-05-01T09:38:12.998Z</time></trkpt><trkpt lat="45.89891109035981" lon="12.60076461866067"><ele>15.0</ele><time>2026-05-01T09:38:13.998Z</time></trkpt><trkpt lat="45.89881684139547" lon="12.600588042366384"><ele>15.0</ele><time>2026-05-01T09:38:14.998Z</time></trkpt><trkpt lat="45.89872119456237" lon="12.600433535923472"><ele>15.0</ele><time>2026-05-01T09:38:15.998Z</time></trkpt><trkpt lat="45.89861608177565" lon="12.600306138514165"><ele>15.0</ele><time>2026-05-01T09:38:16.998Z</time></trkpt><trkpt lat="45.898493993997924" lon="12.60020456141526"><ele>15.0</ele><time>2026-05-01T09:38:17.998Z</time></trkpt><trkpt lat="45.89836186216134" lon="12.60012186927438"><ele>14.5</ele><time>2026-05-01T09:38:18.998Z</time></trkpt><trkpt lat="45.89823031930209" lon="12.600060212310844"><ele>14.0</ele><time>2026-05-01T09:38:19.998Z</time></trkpt><trkpt lat="45.89811851736212" lon="12.600010275044685"><ele>13.5</ele><time>2026-05-01T09:38:20.998Z</time></trkpt><trkpt lat="45.89801142287898" lon="12.599980433836368"><ele>13.0</ele><time>2026-05-01T09:38:21.998Z</time></trkpt><trkpt lat="45.8978987426026" lon="12.59999081948903"><ele>13.0</ele><time>2026-05-01T09:38:22.998Z</time></trkpt><trkpt lat="45.897778976366546" lon="12.600038113941538"><ele>13.0</ele><time>2026-05-01T09:38:23.998Z</time></trkpt><trkpt lat="45.89766730907949" lon="12.600080718601651"><ele>13.0</ele><time>2026-05-01T09:38:24.998Z</time></trkpt><trkpt lat="45.8975778647351" lon="12.600099552827672"><ele>13.0</ele><time>2026-05-01T09:38:25.997Z</time></trkpt><trkpt lat="45.89750870345049" lon="12.600076697913428"><ele>13.0</ele><time>2026-05-01T09:38:27Z</time></trkpt><trkpt lat="45.89744113159113" lon="12.600005252611432"><ele>12.75</ele><time>2026-05-01T09:38:28Z</time></trkpt><trkpt lat="45.89736766379408" lon="12.599887115494019"><ele>12.5</ele><time>2026-05-01T09:38:29Z</time></trkpt><trkpt lat="45.89727507038483" lon="12.599798985493727"><ele>12.25</ele><time>2026-05-01T09:38:30Z</time></trkpt><trkpt lat="45.897156693804234" lon="12.599771494448952"><ele>12.0</ele><time>2026-05-01T09:38:31Z</time></trkpt><trkpt lat="45.897017455720835" lon="12.599779765698765"><ele>12.0</ele><time>2026-05-01T09:38:32Z</time></trkpt><trkpt lat="45.896896300455516" lon="12.599783722651432"><ele>12.0</ele><time>2026-05-01T09:38:33Z</time></trkpt><trkpt lat="45.89679492549627" lon="12.59974281405285"><ele>12.0</ele><time>2026-05-01T09:38:34Z</time></trkpt><trkpt lat="45.896714666273276" lon="12.599676103514964"><ele>12.0</ele><time>2026-05-01T09:38:34.999Z</time></trkpt><trkpt lat="45.896650093381275" lon="12.599589831245238"><ele>12.0</ele><time>2026-05-01T09:38:36Z</time></trkpt><trkpt lat="45.896590961105886" lon="12.599479934597937"><ele>12.2</ele><time>2026-05-01T09:38:37Z</time></trkpt><trkpt lat="45.89652640943482" lon="12.599360568950766"><ele>12.399999999999999</ele><time>2026-05-01T09:38:38Z</time></trkpt><trkpt lat="45.89645729948222" lon="12.599237795792451"><ele>12.600000000000001</ele><time>2026-05-01T09:38:39Z</time></trkpt><trkpt lat="45.89638865913262" lon="12.599119348619896"><ele>12.8</ele><time>2026-05-01T09:38:40Z</time></trkpt><trkpt lat="45.89632439646354" lon="12.59899792614077"><ele>13.0</ele><time>2026-05-01T09:38:41Z</time></trkpt><trkpt lat="45.896263364734146" lon="12.59886125721386"><ele>13.0</ele><time>2026-05-01T09:38:41.999Z</time></trkpt><trkpt lat="45.89619447918804" lon="12.59871394468712"><ele>13.0</ele><time>2026-05-01T09:38:42.999Z</time></trkpt><trkpt lat="45.89611558402663" lon="12.59855385255943"><ele>13.0</ele><time>2026-05-01T09:38:43.999Z</time></trkpt><trkpt lat="45.896034490012035" lon="12.59839347938354"><ele>13.0</ele><time>2026-05-01T09:38:44.999Z</time></trkpt><trkpt lat="45.89595699746117" lon="12.598247927834354"><ele>13.25</ele><time>2026-05-01T09:38:45.999Z</time></trkpt><trkpt lat="45.89588373753251" lon="12.598100230314904"><ele>13.5</ele><time>2026-05-01T09:38:46.999Z</time></trkpt><trkpt lat="45.89581047461635" lon="12.597943728842267"><ele>13.75</ele><time>2026-05-01T09:38:47.999Z</time></trkpt><trkpt lat="45.89573404887712" lon="12.597786298620372"><ele>14.0</ele><time>2026-05-01T09:38:48.999Z</time></trkpt><trkpt lat="45.89566344632669" lon="12.597638917396473"><ele>14.0</ele><time>2026-05-01T09:38:49.999Z</time></trkpt><trkpt lat="45.89559726715661" lon="12.597504190093291"><ele>14.0</ele><time>2026-05-01T09:38:50.999Z</time></trkpt><trkpt lat="45.89553053091504" lon="12.597369148727823"><ele>14.0</ele><time>2026-05-01T09:38:51.999Z</time></trkpt><trkpt lat="45.89546351294667" lon="12.59723532498897"><ele>14.0</ele><time>2026-05-01T09:38:52.999Z</time></trkpt><trkpt lat="45.895392600936894" lon="12.597105359181192"><ele>13.75</ele><time>2026-05-01T09:38:53.999Z</time></trkpt><trkpt lat="45.89532268381039" lon="12.59696482789655"><ele>13.5</ele><time>2026-05-01T09:38:54.999Z</time></trkpt><trkpt lat="45.89524747250003" lon="12.596811170268975"><ele>13.25</ele><time>2026-05-01T09:38:55.999Z</time></trkpt><trkpt lat="45.89516589103052" lon="12.596644742706566"><ele>13.0</ele><time>2026-05-01T09:38:56.999Z</time></trkpt><trkpt lat="45.895079559778196" lon="12.596472499963427"><ele>13.75</ele><time>2026-05-01T09:38:57.999Z</time></trkpt><trkpt lat="45.894993832575786" lon="12.596297720991954"><ele>14.5</ele><time>2026-05-01T09:38:58.999Z</time></trkpt><trkpt lat="45.8949140249848" lon="12.596133376309652"><ele>15.25</ele><time>2026-05-01T09:38:59.999Z</time></trkpt><trkpt lat="45.894840969603756" lon="12.59598044462467"><ele>16.0</ele><time>2026-05-01T09:39:00.999Z</time></trkpt><trkpt lat="45.89477361962051" lon="12.595835864991463"><ele>16.0</ele><time>2026-05-01T09:39:01.999Z</time></trkpt><trkpt lat="45.894708531540545" lon="12.595697603990617"><ele>16.0</ele><time>2026-05-01T09:39:02.999Z</time></trkpt><trkpt lat="45.89464397879404" lon="12.595567807199313"><ele>16.0</ele><time>2026-05-01T09:39:03.999Z</time></trkpt><trkpt lat="45.89457440305466" lon="12.595435968342494"><ele>16.0</ele><time>2026-05-01T09:39:04.999Z</time></trkpt><trkpt lat="45.894497016296896" lon="12.59529046478253"><ele>16.0</ele><time>2026-05-01T09:39:05.999Z</time></trkpt><trkpt lat="45.89442538824064" lon="12.595143027578665"><ele>16.0</ele><time>2026-05-01T09:39:06.999Z</time></trkpt><trkpt lat="45.89434804696528" lon="12.594993407160455"><ele>16.0</ele><time>2026-05-01T09:39:07.999Z</time></trkpt><trkpt lat="45.894265353218834" lon="12.594838455088833"><ele>16.0</ele><time>2026-05-01T09:39:08.999Z</time></trkpt><trkpt lat="45.89418383985154" lon="12.594681046740416"><ele>16.0</ele><time>2026-05-01T09:39:09.999Z</time></trkpt><trkpt lat="45.894111355968285" lon="12.594535277138794"><ele>16.0</ele><time>2026-05-01T09:39:10.999Z</time></trkpt><trkpt lat="45.89404349129834" lon="12.59439287876029"><ele>16.0</ele><time>2026-05-01T09:39:11.999Z</time></trkpt><trkpt lat="45.893978739240204" lon="12.59425809413574"><ele>16.0</ele><time>2026-05-01T09:39:12.999Z</time></trkpt><trkpt lat="45.89391809973197" lon="12.59412754515188"><ele>16.0</ele><time>2026-05-01T09:39:13.999Z</time></trkpt><trkpt lat="45.89385954491268" lon="12.593999445616692"><ele>16.0</ele><time>2026-05-01T09:39:14.999Z</time></trkpt><trkpt lat="45.89379277216847" lon="12.59386267000289"><ele>16.0</ele><time>2026-05-01T09:39:15.999Z</time></trkpt><trkpt lat="45.893724470476954" lon="12.593719481329659"><ele>16.0</ele><time>2026-05-01T09:39:16.999Z</time></trkpt><trkpt lat="45.89365298243338" lon="12.593566345172867"><ele>16.0</ele><time>2026-05-01T09:39:17.999Z</time></trkpt><trkpt lat="45.89357472093027" lon="12.59340220665139"><ele>16.0</ele><time>2026-05-01T09:39:18.999Z</time></trkpt><trkpt lat="45.893490708533115" lon="12.593224502965887"><ele>16.0</ele><time>2026-05-01T09:39:19.999Z</time></trkpt><trkpt lat="45.89340335240662" lon="12.593044433523852"><ele>16.0</ele><time>2026-05-01T09:39:20.999Z</time></trkpt><trkpt lat="45.89331179445874" lon="12.592859712501287"><ele>16.0</ele><time>2026-05-01T09:39:21.999Z</time></trkpt><trkpt lat="45.89321715927872" lon="12.592676990224643"><ele>16.0</ele><time>2026-05-01T09:39:22.999Z</time></trkpt><trkpt lat="45.893126673766496" lon="12.592499265241981"><ele>16.0</ele><time>2026-05-01T09:39:23.999Z</time></trkpt><trkpt lat="45.89303914056224" lon="12.592329658718441"><ele>16.0</ele><time>2026-05-01T09:39:24.999Z</time></trkpt><trkpt lat="45.89295852366782" lon="12.592170895489156"><ele>16.0</ele><time>2026-05-01T09:39:25.999Z</time></trkpt><trkpt lat="45.89288194631412" lon="12.592013989484204"><ele>16.0</ele><time>2026-05-01T09:39:26.999Z</time></trkpt><trkpt lat="45.892814133770436" lon="12.591864311157488"><ele>16.0</ele><time>2026-05-01T09:39:27.999Z</time></trkpt><trkpt lat="45.8927456041651" lon="12.591716408249608"><ele>16.0</ele><time>2026-05-01T09:39:28.999Z</time></trkpt><trkpt lat="45.89267291980642" lon="12.59157627397716"><ele>16.0</ele><time>2026-05-01T09:39:29.999Z</time></trkpt><trkpt lat="45.89259877101226" lon="12.591438841130365"><ele>16.0</ele><time>2026-05-01T09:39:30.999Z</time></trkpt><trkpt lat="45.89252846503414" lon="12.591300879403162"><ele>16.0</ele><time>2026-05-01T09:39:31.999Z</time></trkpt><trkpt lat="45.89246099428534" lon="12.591165654178798"><ele>15.8</ele><time>2026-05-01T09:39:32.999Z</time></trkpt><trkpt lat="45.89239599124662" lon="12.591032006011844"><ele>15.600000000000001</ele><time>2026-05-01T09:39:33.999Z</time></trkpt><trkpt lat="45.89233219805315" lon="12.590899331888634"><ele>15.4</ele><time>2026-05-01T09:39:34.999Z</time></trkpt><trkpt lat="45.89227109874624" lon="12.590766829751226"><ele>15.2</ele><time>2026-05-01T09:39:35.999Z</time></trkpt><trkpt lat="45.89221335257078" lon="12.590636620305652"><ele>15.0</ele><time>2026-05-01T09:39:36.998Z</time></trkpt><trkpt lat="45.892152978766354" lon="12.590512413461438"><ele>15.0</ele><time>2026-05-01T09:39:37.998Z</time></trkpt><trkpt lat="45.89209183142178" lon="12.590391074794029"><ele>15.0</ele><time>2026-05-01T09:39:38.998Z</time></trkpt><trkpt lat="45.8920320969896" lon="12.59027349391649"><ele>15.0</ele><time>2026-05-01T09:39:39.998Z</time></trkpt><trkpt lat="45.891979308180616" lon="12.590158958144945"><ele>15.0</ele><time>2026-05-01T09:39:40.998Z</time></trkpt><trkpt lat="45.8919365038629" lon="12.590061351035533"><ele>15.0</ele><time>2026-05-01T09:39:41.998Z</time></trkpt><trkpt lat="45.891889114591066" lon="12.589919529110947"><ele>15.0</ele><time>2026-05-01T09:39:43.998Z</time></trkpt><trkpt lat="45.8918518941167" lon="12.589758926609676"><ele>15.0</ele><time>2026-05-01T09:39:45.998Z</time></trkpt><trkpt lat="45.89179770499379" lon="12.58960899555557"><ele>15.0</ele><time>2026-05-01T09:39:47.998Z</time></trkpt><trkpt lat="45.89169005377334" lon="12.5894921622964"><ele>15.0</ele><time>2026-05-01T09:39:49.998Z</time></trkpt><trkpt lat="45.89162642934555" lon="12.589410859154398"><ele>15.2</ele><time>2026-05-01T09:39:50.998Z</time></trkpt><trkpt lat="45.891564921354075" lon="12.589309676040099"><ele>15.4</ele><time>2026-05-01T09:39:51.998Z</time></trkpt><trkpt lat="45.891501816568066" lon="12.589187651656207"><ele>15.600000000000001</ele><time>2026-05-01T09:39:52.998Z</time></trkpt><trkpt lat="45.891434910407526" lon="12.58905590861147"><ele>15.8</ele><time>2026-05-01T09:39:53.998Z</time></trkpt><trkpt lat="45.891362701580036" lon="12.58891535769261"><ele>16.0</ele><time>2026-05-01T09:39:54.998Z</time></trkpt><trkpt lat="45.89128830141782" lon="12.588768903675042"><ele>16.0</ele><time>2026-05-01T09:39:55.998Z</time></trkpt><trkpt lat="45.89120610108084" lon="12.588609120460246"><ele>16.0</ele><time>2026-05-01T09:39:56.998Z</time></trkpt><trkpt lat="45.891124838657426" lon="12.588450479767332"><ele>16.0</ele><time>2026-05-01T09:39:57.998Z</time></trkpt><trkpt lat="45.891044386408176" lon="12.588290845985732"><ele>16.0</ele><time>2026-05-01T09:39:58.998Z</time></trkpt><trkpt lat="45.890961909859996" lon="12.588128368116587"><ele>16.333333333333332</ele><time>2026-05-01T09:39:59.998Z</time></trkpt><trkpt lat="45.89087824992555" lon="12.587962822117733"><ele>16.666666666666668</ele><time>2026-05-01T09:40:00.998Z</time></trkpt><trkpt lat="45.89079197406925" lon="12.58778923178533"><ele>17.0</ele><time>2026-05-01T09:40:01.998Z</time></trkpt><trkpt lat="45.89069971227953" lon="12.587603561972431"><ele>16.5</ele><time>2026-05-01T09:40:02.998Z</time></trkpt><trkpt lat="45.890613742274574" lon="12.587429858548786"><ele>16.0</ele><time>2026-05-01T09:40:03.998Z</time></trkpt><trkpt lat="45.8905318811326" lon="12.587264929804661"><ele>15.5</ele><time>2026-05-01T09:40:04.998Z</time></trkpt><trkpt lat="45.89045336814332" lon="12.587109906303576"><ele>15.0</ele><time>2026-05-01T09:40:05.998Z</time></trkpt><trkpt lat="45.8903740658294" lon="12.586949338356938"><ele>14.5</ele><time>2026-05-01T09:40:06.998Z</time></trkpt><trkpt lat="45.8902950641303" lon="12.586781460088526"><ele>14.0</ele><time>2026-05-01T09:40:07.998Z</time></trkpt><trkpt lat="45.890211866546295" lon="12.586610561103381"><ele>13.5</ele><time>2026-05-01T09:40:08.998Z</time></trkpt><trkpt lat="45.890125753030375" lon="12.586438204840137"><ele>13.0</ele><time>2026-05-01T09:40:09.998Z</time></trkpt><trkpt lat="45.89003708275177" lon="12.586260956295423"><ele>13.75</ele><time>2026-05-01T09:40:10.998Z</time></trkpt><trkpt lat="45.88994782535462" lon="12.586083440386782"><ele>14.5</ele><time>2026-05-01T09:40:11.998Z</time></trkpt><trkpt lat="45.8898645697451" lon="12.585912531736339"><ele>15.25</ele><time>2026-05-01T09:40:12.998Z</time></trkpt><trkpt lat="45.889786726275304" lon="12.585752058002772"><ele>16.0</ele><time>2026-05-01T09:40:13.998Z</time></trkpt><trkpt lat="45.88971179238734" lon="12.585599500316684"><ele>16.0</ele><time>2026-05-01T09:40:14.998Z</time></trkpt><trkpt lat="45.88963642525594" lon="12.585449567160422"><ele>16.0</ele><time>2026-05-01T09:40:15.998Z</time></trkpt><trkpt lat="45.889558078300375" lon="12.585293509532882"><ele>16.0</ele><time>2026-05-01T09:40:16.998Z</time></trkpt><trkpt lat="45.88947785392214" lon="12.5851343248215"><ele>16.0</ele><time>2026-05-01T09:40:17.998Z</time></trkpt><trkpt lat="45.88939770130131" lon="12.58496930375335"><ele>16.0</ele><time>2026-05-01T09:40:18.998Z</time></trkpt><trkpt lat="45.88932121438684" lon="12.584809902207253"><ele>16.0</ele><time>2026-05-01T09:40:19.998Z</time></trkpt><trkpt lat="45.88925036658639" lon="12.58466170730244"><ele>16.0</ele><time>2026-05-01T09:40:20.998Z</time></trkpt><trkpt lat="45.889184035403865" lon="12.584523201914456"><ele>16.0</ele><time>2026-05-01T09:40:21.998Z</time></trkpt><trkpt lat="45.8891222435172" lon="12.584394265513895"><ele>16.0</ele><time>2026-05-01T09:40:22.998Z</time></trkpt><trkpt lat="45.88906289435445" lon="12.584272607204122"><ele>16.0</ele><time>2026-05-01T09:40:23.998Z</time></trkpt><trkpt lat="45.88900474484825" lon="12.584152886317355"><ele>16.0</ele><time>2026-05-01T09:40:24.998Z</time></trkpt><trkpt lat="45.888944352626936" lon="12.584025537918112"><ele>16.0</ele><time>2026-05-01T09:40:25.998Z</time></trkpt><trkpt lat="45.88888010055787" lon="12.583891561852864"><ele>16.0</ele><time>2026-05-01T09:40:26.998Z</time></trkpt><trkpt lat="45.88881789131026" lon="12.583757869755594"><ele>15.666666666666666</ele><time>2026-05-01T09:40:27.998Z</time></trkpt><trkpt lat="45.88876925838258" lon="12.583639021162835"><ele>15.333333333333332</ele><time>2026-05-01T09:40:28.998Z</time></trkpt><trkpt lat="45.888729955024075" lon="12.583527445771296"><ele>15.0</ele><time>2026-05-01T09:40:29.998Z</time></trkpt><trkpt lat="45.88871517904077" lon="12.583403928081964"><ele>14.666666666666668</ele><time>2026-05-01T09:40:30.997Z</time></trkpt><trkpt lat="45.88871548070323" lon="12.583279083053931"><ele>14.333333333333334</ele><time>2026-05-01T09:40:31.997Z</time></trkpt><trkpt lat="45.888713526369855" lon="12.583151603031775"><ele>14.0</ele><time>2026-05-01T09:40:33Z</time></trkpt><trkpt lat="45.88868841167333" lon="12.583046865373415"><ele>14.000000000000002</ele><time>2026-05-01T09:40:34Z</time></trkpt><trkpt lat="45.88863765696973" lon="12.582970216701872"><ele>14.0</ele><time>2026-05-01T09:40:35Z</time></trkpt><trkpt lat="45.88857636665761" lon="12.582914853988031"><ele>14.0</ele><time>2026-05-01T09:40:36Z</time></trkpt><trkpt lat="45.88849469509304" lon="12.58289419227317"><ele>14.0</ele><time>2026-05-01T09:40:37Z</time></trkpt><trkpt lat="45.888399508398074" lon="12.582872128492088"><ele>14.000000000000002</ele><time>2026-05-01T09:40:38Z</time></trkpt><trkpt lat="45.8883122837962" lon="12.58281632998383"><ele>14.0</ele><time>2026-05-01T09:40:39Z</time></trkpt><trkpt lat="45.88823197961519" lon="12.582729726802205"><ele>14.25</ele><time>2026-05-01T09:40:40Z</time></trkpt><trkpt lat="45.888151295954714" lon="12.582624120940459"><ele>14.5</ele><time>2026-05-01T09:40:41Z</time></trkpt><trkpt lat="45.888053022716456" lon="12.582534932989601"><ele>14.75</ele><time>2026-05-01T09:40:42Z</time></trkpt><trkpt lat="45.887978162311676" lon="12.582389142663782"><ele>15.0</ele><time>2026-05-01T09:40:43Z</time></trkpt><trkpt lat="45.88789519163323" lon="12.582264949115272"><ele>15.0</ele><time>2026-05-01T09:40:44Z</time></trkpt><trkpt lat="45.88781002436276" lon="12.582137084340543"><ele>15.0</ele><time>2026-05-01T09:40:45Z</time></trkpt><trkpt lat="45.88772242438458" lon="12.582007617077181"><ele>15.0</ele><time>2026-05-01T09:40:46Z</time></trkpt><trkpt lat="45.88763475777775" lon="12.58187298787428"><ele>15.0</ele><time>2026-05-01T09:40:47Z</time></trkpt><trkpt lat="45.88754710314852" lon="12.581735523831485"><ele>15.5</ele><time>2026-05-01T09:40:48Z</time></trkpt><trkpt lat="45.88745828798224" lon="12.581599206577216"><ele>16.0</ele><time>2026-05-01T09:40:49Z</time></trkpt><trkpt lat="45.88737091397659" lon="12.5814619713193"><ele>16.5</ele><time>2026-05-01T09:40:50Z</time></trkpt><trkpt lat="45.88728456378631" lon="12.581330711317209"><ele>17.0</ele><time>2026-05-01T09:40:50.999Z</time></trkpt><trkpt lat="45.887204102158044" lon="12.581210497965127"><ele>16.75</ele><time>2026-05-01T09:40:51.999Z</time></trkpt><trkpt lat="45.88713090768254" lon="12.581096771740228"><ele>16.5</ele><time>2026-05-01T09:40:52.999Z</time></trkpt><trkpt lat="45.887062191037245" lon="12.58098426392664"><ele>16.25</ele><time>2026-05-01T09:40:53.999Z</time></trkpt><trkpt lat="45.886982831971395" lon="12.58085980991039"><ele>16.0</ele><time>2026-05-01T09:40:54.999Z</time></trkpt><trkpt lat="45.886896863308124" lon="12.580727700035151"><ele>16.0</ele><time>2026-05-01T09:40:55.999Z</time></trkpt><trkpt lat="45.886807225284315" lon="12.580591459885683"><ele>16.0</ele><time>2026-05-01T09:40:56.999Z</time></trkpt><trkpt lat="45.88672698574571" lon="12.580470051094064"><ele>16.0</ele><time>2026-05-01T09:40:57.999Z</time></trkpt><trkpt lat="45.88665200157511" lon="12.58035572412713"><ele>16.0</ele><time>2026-05-01T09:40:58.999Z</time></trkpt><trkpt lat="45.886583179233256" lon="12.580249229378184"><ele>15.4</ele><time>2026-05-01T09:40:59.999Z</time></trkpt><trkpt lat="45.88650832736735" lon="12.58013350580604"><ele>14.8</ele><time>2026-05-01T09:41:00.999Z</time></trkpt><trkpt lat="45.88642670245725" lon="12.580007023653476"><ele>14.200000000000001</ele><time>2026-05-01T09:41:01.999Z</time></trkpt><trkpt lat="45.88635326573659" lon="12.579897901060047"><ele>13.600000000000001</ele><time>2026-05-01T09:41:02.999Z</time></trkpt><trkpt lat="45.88627974951452" lon="12.57979009821854"><ele>13.0</ele><time>2026-05-01T09:41:03.999Z</time></trkpt><trkpt lat="45.88620344407994" lon="12.579668961430745"><ele>13.0</ele><time>2026-05-01T09:41:04.999Z</time></trkpt><trkpt lat="45.88612431510123" lon="12.579542898168016"><ele>13.0</ele><time>2026-05-01T09:41:05.999Z</time></trkpt><trkpt lat="45.886040808881766" lon="12.579412789609016"><ele>13.0</ele><time>2026-05-01T09:41:06.999Z</time></trkpt><trkpt lat="45.885955105409906" lon="12.579277706106259"><ele>13.0</ele><time>2026-05-01T09:41:07.999Z</time></trkpt><trkpt lat="45.885868355629825" lon="12.579138516041814"><ele>13.25</ele><time>2026-05-01T09:41:08.999Z</time></trkpt><trkpt lat="45.88577861724009" lon="12.578995923220239"><ele>13.5</ele><time>2026-05-01T09:41:09.999Z</time></trkpt><trkpt lat="45.88568467823379" lon="12.578850873188115"><ele>13.75</ele><time>2026-05-01T09:41:10.999Z</time></trkpt><trkpt lat="45.885589533743556" lon="12.578703637168237"><ele>14.0</ele><time>2026-05-01T09:41:11.999Z</time></trkpt><trkpt lat="45.88549471146548" lon="12.578550086476985"><ele>14.25</ele><time>2026-05-01T09:41:12.999Z</time></trkpt><trkpt lat="45.88539956368113" lon="12.578392785399563"><ele>14.5</ele><time>2026-05-01T09:41:13.999Z</time></trkpt><trkpt lat="45.885304737326635" lon="12.57823436855924"><ele>14.75</ele><time>2026-05-01T09:41:14.999Z</time></trkpt><trkpt lat="45.88521320183537" lon="12.578073042306816"><ele>15.0</ele><time>2026-05-01T09:41:15.999Z</time></trkpt><trkpt lat="45.88512447769711" lon="12.57790600751691"><ele>15.0</ele><time>2026-05-01T09:41:16.999Z</time></trkpt><trkpt lat="45.88503750651368" lon="12.577743203034416"><ele>15.0</ele><time>2026-05-01T09:41:17.999Z</time></trkpt><trkpt lat="45.88495067971397" lon="12.577581272466382"><ele>15.0</ele><time>2026-05-01T09:41:18.999Z</time></trkpt><trkpt lat="45.88486423548472" lon="12.577419184512518"><ele>15.0</ele><time>2026-05-01T09:41:19.999Z</time></trkpt><trkpt lat="45.88477790627557" lon="12.577258613965059"><ele>15.0</ele><time>2026-05-01T09:41:20.999Z</time></trkpt><trkpt lat="45.884693008280856" lon="12.577098713972953"><ele>15.0</ele><time>2026-05-01T09:41:21.999Z</time></trkpt><trkpt lat="45.8846092678153" lon="12.57694184011075"><ele>15.0</ele><time>2026-05-01T09:41:22.999Z</time></trkpt><trkpt lat="45.88452540513803" lon="12.576789925454163"><ele>15.0</ele><time>2026-05-01T09:41:23.999Z</time></trkpt><trkpt lat="45.88444246226418" lon="12.576637793420762"><ele>14.75</ele><time>2026-05-01T09:41:24.999Z</time></trkpt><trkpt lat="45.884361812700156" lon="12.576484123968099"><ele>14.5</ele><time>2026-05-01T09:41:25.999Z</time></trkpt><trkpt lat="45.88428236095435" lon="12.576330671609904"><ele>14.25</ele><time>2026-05-01T09:41:26.999Z</time></trkpt><trkpt lat="45.88420642787844" lon="12.57618788755353"><ele>14.0</ele><time>2026-05-01T09:41:27.999Z</time></trkpt><trkpt lat="45.88413304126715" lon="12.576055542887234"><ele>14.0</ele><time>2026-05-01T09:41:28.999Z</time></trkpt><trkpt lat="45.88405690615379" lon="12.575912320340493"><ele>14.0</ele><time>2026-05-01T09:41:29.999Z</time></trkpt><trkpt lat="45.883981357481865" lon="12.575769174154068"><ele>14.0</ele><time>2026-05-01T09:41:30.999Z</time></trkpt><trkpt lat="45.883904726843234" lon="12.575622320339043"><ele>14.0</ele><time>2026-05-01T09:41:31.999Z</time></trkpt><trkpt lat="45.883835541023075" lon="12.575489560759516"><ele>14.0</ele><time>2026-05-01T09:41:32.999Z</time></trkpt><trkpt lat="45.8837736641041" lon="12.575360447729018"><ele>13.999999999999998</ele><time>2026-05-01T09:41:33.999Z</time></trkpt><trkpt lat="45.883724039570005" lon="12.57523269388635"><ele>13.999999999999998</ele><time>2026-05-01T09:41:34.999Z</time></trkpt><trkpt lat="45.88368896563448" lon="12.57510704005328"><ele>14.0</ele><time>2026-05-01T09:41:35.999Z</time></trkpt><trkpt lat="45.88367242546219" lon="12.574983861617177"><ele>14.0</ele><time>2026-05-01T09:41:36.999Z</time></trkpt><trkpt lat="45.88366003041067" lon="12.574867534678912"><ele>14.000000000000002</ele><time>2026-05-01T09:41:37.999Z</time></trkpt><trkpt lat="45.88363880865354" lon="12.574748235738921"><ele>14.0</ele><time>2026-05-01T09:41:38.999Z</time></trkpt><trkpt lat="45.883608392525474" lon="12.57463114749736"><ele>14.0</ele><time>2026-05-01T09:41:39.999Z</time></trkpt><trkpt lat="45.88353534858065" lon="12.574561741739613"><ele>14.0</ele><time>2026-05-01T09:41:40.999Z</time></trkpt><trkpt lat="45.88345750041737" lon="12.57449975516995"><ele>14.000000000000002</ele><time>2026-05-01T09:41:41.999Z</time></trkpt><trkpt lat="45.88336698906605" lon="12.574450257945424"><ele>14.0</ele><time>2026-05-01T09:41:42.999Z</time></trkpt><trkpt lat="45.88326737026725" lon="12.574382452663198"><ele>13.5</ele><time>2026-05-01T09:41:43.998Z</time></trkpt><trkpt lat="45.88318439151861" lon="12.574274536414421"><ele>13.0</ele><time>2026-05-01T09:41:44.998Z</time></trkpt><trkpt lat="45.8831120411559" lon="12.574138507892764"><ele>12.5</ele><time>2026-05-01T09:41:45.998Z</time></trkpt><trkpt lat="45.88303490391503" lon="12.57398446821081"><ele>12.0</ele><time>2026-05-01T09:41:46.998Z</time></trkpt><trkpt lat="45.88294783875623" lon="12.573822376708401"><ele>11.5</ele><time>2026-05-01T09:41:47.998Z</time></trkpt><trkpt lat="45.882863948565046" lon="12.573663865707152"><ele>11.0</ele><time>2026-05-01T09:41:48.998Z</time></trkpt><trkpt lat="45.882776327192325" lon="12.573496632709253"><ele>10.5</ele><time>2026-05-01T09:41:49.998Z</time></trkpt><trkpt lat="45.882689279573285" lon="12.573331804887586"><ele>10.0</ele><time>2026-05-01T09:41:50.998Z</time></trkpt><trkpt lat="45.88260869366851" lon="12.573177825592584"><ele>10.8</ele><time>2026-05-01T09:41:51.998Z</time></trkpt><trkpt lat="45.88254555701583" lon="12.573064362212998"><ele>11.6</ele><time>2026-05-01T09:41:52.998Z</time></trkpt><trkpt lat="45.882480619752656" lon="12.57295275844093"><ele>12.399999999999999</ele><time>2026-05-01T09:41:53.998Z</time></trkpt><trkpt lat="45.88241932737963" lon="12.572845675575733"><ele>13.2</ele><time>2026-05-01T09:41:54.998Z</time></trkpt><trkpt lat="45.88236770403422" lon="12.572752676812316"><ele>14.0</ele><time>2026-05-01T09:41:55.998Z</time></trkpt><trkpt lat="45.88231255440096" lon="12.572656504652086"><ele>14.0</ele><time>2026-05-01T09:41:56.998Z</time></trkpt><trkpt lat="45.88226978588265" lon="12.572550024653328"><ele>14.0</ele><time>2026-05-01T09:41:57.998Z</time></trkpt><trkpt lat="45.88216549862074" lon="12.572371916140487"><ele>14.0</ele><time>2026-05-01T09:41:58.998Z</time></trkpt><trkpt lat="45.88207586092936" lon="12.572226550535778"><ele>14.0</ele><time>2026-05-01T09:41:59.998Z</time></trkpt><trkpt lat="45.88197876749036" lon="12.572071266308194"><ele>14.0</ele><time>2026-05-01T09:42:00.998Z</time></trkpt><trkpt lat="45.88187634506801" lon="12.571912845054031"><ele>14.0</ele><time>2026-05-01T09:42:01.998Z</time></trkpt><trkpt lat="45.88176901192052" lon="12.571763959775671"><ele>14.0</ele><time>2026-05-01T09:42:02.998Z</time></trkpt><trkpt lat="45.88166301094111" lon="12.571618183121434"><ele>14.0</ele><time>2026-05-01T09:42:03.998Z</time></trkpt><trkpt lat="45.88155909032782" lon="12.571494589061126"><ele>14.0</ele><time>2026-05-01T09:42:04.998Z</time></trkpt><trkpt lat="45.88144767102356" lon="12.571362596208427"><ele>14.0</ele><time>2026-05-01T09:42:05.998Z</time></trkpt><trkpt lat="45.88132830578387" lon="12.571244079731041"><ele>14.0</ele><time>2026-05-01T09:42:06.998Z</time></trkpt><trkpt lat="45.88120445285448" lon="12.571125948367598"><ele>14.0</ele><time>2026-05-01T09:42:07.998Z</time></trkpt><trkpt lat="45.88108029388909" lon="12.571009089115165"><ele>14.0</ele><time>2026-05-01T09:42:08.998Z</time></trkpt><trkpt lat="45.88095499317827" lon="12.570890896100519"><ele>14.0</ele><time>2026-05-01T09:42:09.998Z</time></trkpt><trkpt lat="45.880825562860025" lon="12.57078208805316"><ele>14.0</ele><time>2026-05-01T09:42:10.998Z</time></trkpt><trkpt lat="45.880697766446275" lon="12.57069046662078"><ele>14.0</ele><time>2026-05-01T09:42:11.998Z</time></trkpt><trkpt lat="45.88057023240012" lon="12.570610161948991"><ele>14.0</ele><time>2026-05-01T09:42:12.998Z</time></trkpt><trkpt lat="45.88044136228495" lon="12.570539143379667"><ele>14.0</ele><time>2026-05-01T09:42:13.998Z</time></trkpt><trkpt lat="45.88031021554534" lon="12.570456535473603"><ele>14.0</ele><time>2026-05-01T09:42:14.998Z</time></trkpt><trkpt lat="45.8801756994375" lon="12.5703863122488"><ele>14.0</ele><time>2026-05-01T09:42:15.998Z</time></trkpt><trkpt lat="45.88003779150053" lon="12.570308662977816"><ele>13.75</ele><time>2026-05-01T09:42:16.998Z</time></trkpt><trkpt lat="45.87989767199652" lon="12.570241696535419"><ele>13.5</ele><time>2026-05-01T09:42:17.998Z</time></trkpt><trkpt lat="45.879755924953166" lon="12.570175292266143"><ele>13.25</ele><time>2026-05-01T09:42:18.998Z</time></trkpt><trkpt lat="45.87961417117419" lon="12.570108115549937"><ele>13.0</ele><time>2026-05-01T09:42:19.998Z</time></trkpt><trkpt lat="45.879487536748584" lon="12.570051250042322"><ele>13.0</ele><time>2026-05-01T09:42:20.998Z</time></trkpt><trkpt lat="45.87937484774716" lon="12.569997359109815"><ele>13.0</ele><time>2026-05-01T09:42:21.998Z</time></trkpt><trkpt lat="45.87925621313028" lon="12.569937753270617"><ele>13.0</ele><time>2026-05-01T09:42:22.998Z</time></trkpt><trkpt lat="45.87913564184418" lon="12.56988315451321"><ele>13.0</ele><time>2026-05-01T09:42:23.998Z</time></trkpt><trkpt lat="45.87901090004393" lon="12.569822093304715"><ele>13.25</ele><time>2026-05-01T09:42:24.998Z</time></trkpt><trkpt lat="45.878885240399924" lon="12.569756052379969"><ele>13.5</ele><time>2026-05-01T09:42:25.998Z</time></trkpt><trkpt lat="45.87875482087954" lon="12.569692193097922"><ele>13.75</ele><time>2026-05-01T09:42:26.998Z</time></trkpt><trkpt lat="45.878622832753365" lon="12.56962966838388"><ele>14.0</ele><time>2026-05-01T09:42:27.998Z</time></trkpt><trkpt lat="45.878487333234894" lon="12.569561643173026"><ele>14.333333333333334</ele><time>2026-05-01T09:42:28.998Z</time></trkpt><trkpt lat="45.87834826791232" lon="12.569491163645385"><ele>14.666666666666668</ele><time>2026-05-01T09:42:29.998Z</time></trkpt><trkpt lat="45.87819879542246" lon="12.569414940216449"><ele>15.0</ele><time>2026-05-01T09:42:30.998Z</time></trkpt><trkpt lat="45.87804998323413" lon="12.569341448640362"><ele>15.0</ele><time>2026-05-01T09:42:31.998Z</time></trkpt><trkpt lat="45.87789649257811" lon="12.56926476687513"><ele>15.0</ele><time>2026-05-01T09:42:32.998Z</time></trkpt><trkpt lat="45.87775555570598" lon="12.569193519990039"><ele>15.0</ele><time>2026-05-01T09:42:33.998Z</time></trkpt><trkpt lat="45.877611818241256" lon="12.569121095745217"><ele>14.0</ele><time>2026-05-01T09:42:34.998Z</time></trkpt><trkpt lat="45.8774633491535" lon="12.569047454905757"><ele>13.0</ele><time>2026-05-01T09:42:35.998Z</time></trkpt><trkpt lat="45.8773073502779" lon="12.568971437026272"><ele>12.0</ele><time>2026-05-01T09:42:36.998Z</time></trkpt><trkpt lat="45.87714926062028" lon="12.568892490338719"><ele>12.0</ele><time>2026-05-01T09:42:37.997Z</time></trkpt><trkpt lat="45.877005471501455" lon="12.56881826731952"><ele>12.0</ele><time>2026-05-01T09:42:39Z</time></trkpt><trkpt lat="45.876869179701536" lon="12.56875168667198"><ele>12.0</ele><time>2026-05-01T09:42:40Z</time></trkpt><trkpt lat="45.87673144844218" lon="12.568682829571578"><ele>12.0</ele><time>2026-05-01T09:42:41Z</time></trkpt><trkpt lat="45.876589472898466" lon="12.5686173674167"><ele>13.0</ele><time>2026-05-01T09:42:42Z</time></trkpt><trkpt lat="45.87644402536996" lon="12.568548770064414"><ele>14.0</ele><time>2026-05-01T09:42:43Z</time></trkpt><trkpt lat="45.876294464193684" lon="12.568475692582647"><ele>15.0</ele><time>2026-05-01T09:42:44Z</time></trkpt><trkpt lat="45.87613922933256" lon="12.56840086979154"><ele>15.0</ele><time>2026-05-01T09:42:45Z</time></trkpt><trkpt lat="45.8759841961007" lon="12.568323789864028"><ele>15.0</ele><time>2026-05-01T09:42:46Z</time></trkpt><trkpt lat="45.87582846043055" lon="12.568246486994331"><ele>15.0</ele><time>2026-05-01T09:42:47Z</time></trkpt><trkpt lat="45.87566670269614" lon="12.56816721087949"><ele>14.0</ele><time>2026-05-01T09:42:48Z</time></trkpt><trkpt lat="45.87550433387327" lon="12.56808218616664"><ele>13.0</ele><time>2026-05-01T09:42:49Z</time></trkpt><trkpt lat="45.87534244100857" lon="12.56799386986556"><ele>12.0</ele><time>2026-05-01T09:42:50Z</time></trkpt><trkpt lat="45.875181452229526" lon="12.567902936610972"><ele>13.0</ele><time>2026-05-01T09:42:51Z</time></trkpt><trkpt lat="45.87501784352016" lon="12.567802902654178"><ele>14.0</ele><time>2026-05-01T09:42:52Z</time></trkpt><trkpt lat="45.87486049704586" lon="12.567696415536277"><ele>15.0</ele><time>2026-05-01T09:42:53Z</time></trkpt><trkpt lat="45.87470312769363" lon="12.567582432110408"><ele>15.0</ele><time>2026-05-01T09:42:54Z</time></trkpt><trkpt lat="45.87454924201526" lon="12.567464665692835"><ele>15.0</ele><time>2026-05-01T09:42:55Z</time></trkpt><trkpt lat="45.87440216821229" lon="12.567350295764784"><ele>15.0</ele><time>2026-05-01T09:42:56Z</time></trkpt><trkpt lat="45.87425874702928" lon="12.56723327752606"><ele>14.0</ele><time>2026-05-01T09:42:57Z</time></trkpt><trkpt lat="45.87412557396843" lon="12.567116233738359"><ele>13.0</ele><time>2026-05-01T09:42:58Z</time></trkpt><trkpt lat="45.87399923791156" lon="12.566994731537624"><ele>12.0</ele><time>2026-05-01T09:42:58.999Z</time></trkpt><trkpt lat="45.87387194971451" lon="12.566864568581087"><ele>11.666666666666666</ele><time>2026-05-01T09:42:59.999Z</time></trkpt><trkpt lat="45.87374563017653" lon="12.566728339152728"><ele>11.333333333333332</ele><time>2026-05-01T09:43:00.999Z</time></trkpt><trkpt lat="45.87361869649542" lon="12.56659023557848"><ele>11.0</ele><time>2026-05-01T09:43:01.999Z</time></trkpt><trkpt lat="45.87349150748438" lon="12.566449501497226"><ele>11.0</ele><time>2026-05-01T09:43:02.999Z</time></trkpt><trkpt lat="45.873365931606344" lon="12.56629760496706"><ele>11.0</ele><time>2026-05-01T09:43:03.999Z</time></trkpt><trkpt lat="45.873240310648455" lon="12.5661425533408"><ele>11.0</ele><time>2026-05-01T09:43:04.999Z</time></trkpt><trkpt lat="45.87311706075827" lon="12.565983086093109"><ele>11.333333333333332</ele><time>2026-05-01T09:43:05.999Z</time></trkpt><trkpt lat="45.87299620745856" lon="12.565828434413886"><ele>11.666666666666666</ele><time>2026-05-01T09:43:06.999Z</time></trkpt><trkpt lat="45.8728715892188" lon="12.565670654108642"><ele>12.0</ele><time>2026-05-01T09:43:07.999Z</time></trkpt><trkpt lat="45.872746656061906" lon="12.565513084116064"><ele>12.0</ele><time>2026-05-01T09:43:08.999Z</time></trkpt><trkpt lat="45.87263018792793" lon="12.565363744601273"><ele>12.0</ele><time>2026-05-01T09:43:09.999Z</time></trkpt><trkpt lat="45.87252039436427" lon="12.565222845417647"><ele>12.0</ele><time>2026-05-01T09:43:10.999Z</time></trkpt><trkpt lat="45.87241411262514" lon="12.565089155478748"><ele>12.0</ele><time>2026-05-01T09:43:11.999Z</time></trkpt><trkpt lat="45.872305356825876" lon="12.564950300101978"><ele>11.333333333333334</ele><time>2026-05-01T09:43:12.999Z</time></trkpt><trkpt lat="45.872200318928805" lon="12.564802258066086"><ele>10.666666666666668</ele><time>2026-05-01T09:43:13.999Z</time></trkpt><trkpt lat="45.87209167811501" lon="12.56465197511072"><ele>10.0</ele><time>2026-05-01T09:43:14.999Z</time></trkpt><trkpt lat="45.871975408390874" lon="12.564499817650635"><ele>10.0</ele><time>2026-05-01T09:43:15.999Z</time></trkpt><trkpt lat="45.871857401901195" lon="12.564343135315074"><ele>10.0</ele><time>2026-05-01T09:43:16.999Z</time></trkpt><trkpt lat="45.87172805154259" lon="12.564178161815063"><ele>10.0</ele><time>2026-05-01T09:43:17.999Z</time></trkpt><trkpt lat="45.87159708461351" lon="12.564010779121961"><ele>9.666666666666668</ele><time>2026-05-01T09:43:18.999Z</time></trkpt><trkpt lat="45.87146329785028" lon="12.56383429249055"><ele>9.333333333333334</ele><time>2026-05-01T09:43:19.999Z</time></trkpt><trkpt lat="45.871331801450246" lon="12.56366994829088"><ele>9.0</ele><time>2026-05-01T09:43:20.999Z</time></trkpt><trkpt lat="45.871210498924306" lon="12.563513982922974"><ele>9.0</ele><time>2026-05-01T09:43:21.999Z</time></trkpt><trkpt lat="45.871095230486894" lon="12.563365182584382"><ele>9.0</ele><time>2026-05-01T09:43:22.999Z</time></trkpt><trkpt lat="45.87097677086713" lon="12.563219276650969"><ele>9.0</ele><time>2026-05-01T09:43:23.999Z</time></trkpt><trkpt lat="45.87085808575872" lon="12.56306244070156"><ele>9.333333333333334</ele><time>2026-05-01T09:43:24.999Z</time></trkpt><trkpt lat="45.870740335274625" lon="12.562909406601301"><ele>9.666666666666668</ele><time>2026-05-01T09:43:25.999Z</time></trkpt><trkpt lat="45.87062325942251" lon="12.562759268454656"><ele>10.0</ele><time>2026-05-01T09:43:26.999Z</time></trkpt><trkpt lat="45.87050224497517" lon="12.562605105415287"><ele>9.0</ele><time>2026-05-01T09:43:27.999Z</time></trkpt><trkpt lat="45.87038450591406" lon="12.562450075563861"><ele>8.0</ele><time>2026-05-01T09:43:28.999Z</time></trkpt><trkpt lat="45.87026425299813" lon="12.562297190142262"><ele>7.0</ele><time>2026-05-01T09:43:29.999Z</time></trkpt><trkpt lat="45.870148359772024" lon="12.562143462373577"><ele>7.666666666666667</ele><time>2026-05-01T09:43:30.999Z</time></trkpt><trkpt lat="45.87003356612428" lon="12.562000757783599"><ele>8.333333333333334</ele><time>2026-05-01T09:43:31.999Z</time></trkpt><trkpt lat="45.869924687859665" lon="12.561861556230033"><ele>9.0</ele><time>2026-05-01T09:43:32.999Z</time></trkpt><trkpt lat="45.86980994736147" lon="12.561710456734017"><ele>9.0</ele><time>2026-05-01T09:43:33.999Z</time></trkpt><trkpt lat="45.86969628763795" lon="12.5615642105674"><ele>9.0</ele><time>2026-05-01T09:43:34.999Z</time></trkpt><trkpt lat="45.869580686067636" lon="12.561414630107448"><ele>9.0</ele><time>2026-05-01T09:43:35.999Z</time></trkpt><trkpt lat="45.86946193895448" lon="12.561266069908433"><ele>9.666666666666666</ele><time>2026-05-01T09:43:36.999Z</time></trkpt><trkpt lat="45.86934099116202" lon="12.561114478793806"><ele>10.333333333333332</ele><time>2026-05-01T09:43:37.999Z</time></trkpt><trkpt lat="45.869211496457524" lon="12.56096566196009"><ele>11.0</ele><time>2026-05-01T09:43:38.999Z</time></trkpt><trkpt lat="45.86907906054433" lon="12.560822896102398"><ele>11.333333333333332</ele><time>2026-05-01T09:43:39.999Z</time></trkpt><trkpt lat="45.86893752400805" lon="12.56068032690481"><ele>11.666666666666666</ele><time>2026-05-01T09:43:40.999Z</time></trkpt><trkpt lat="45.868791598892216" lon="12.560544018687851"><ele>12.0</ele><time>2026-05-01T09:43:41.999Z</time></trkpt><trkpt lat="45.86862691490894" lon="12.560399944809594"><ele>12.0</ele><time>2026-05-01T09:43:42.999Z</time></trkpt><trkpt lat="45.86845309448548" lon="12.560256632204316"><ele>12.0</ele><time>2026-05-01T09:43:43.999Z</time></trkpt><trkpt lat="45.86826863421201" lon="12.560078619762699"><ele>12.0</ele><time>2026-05-01T09:43:44.999Z</time></trkpt><trkpt lat="45.86805899523888" lon="12.559913921532692"><ele>12.5</ele><time>2026-05-01T09:43:45.999Z</time></trkpt><trkpt lat="45.867845124736405" lon="12.559744783041863"><ele>13.0</ele><time>2026-05-01T09:43:46.999Z</time></trkpt><trkpt lat="45.867619426601934" lon="12.559566292624"><ele>12.5</ele><time>2026-05-01T09:43:47.999Z</time></trkpt><trkpt lat="45.867394428809696" lon="12.55938961900094"><ele>12.0</ele><time>2026-05-01T09:43:48.999Z</time></trkpt><trkpt lat="45.867173768698386" lon="12.559215875788913"><ele>12.0</ele><time>2026-05-01T09:43:49.999Z</time></trkpt><trkpt lat="45.86695488521651" lon="12.559043693665425"><ele>12.0</ele><time>2026-05-01T09:43:50.999Z</time></trkpt><trkpt lat="45.866734365095695" lon="12.558896095135163"><ele>12.0</ele><time>2026-05-01T09:43:51.998Z</time></trkpt><trkpt lat="45.866528186584226" lon="12.558729039367417"><ele>12.0</ele><time>2026-05-01T09:43:52.998Z</time></trkpt><trkpt lat="45.86632547284871" lon="12.558564727770932"><ele>12.0</ele><time>2026-05-01T09:43:53.998Z</time></trkpt><trkpt lat="45.86612932399071" lon="12.55840523733043"><ele>12.0</ele><time>2026-05-01T09:43:54.998Z</time></trkpt><trkpt lat="45.86593599712008" lon="12.558250933241327"><ele>12.0</ele><time>2026-05-01T09:43:55.998Z</time></trkpt><trkpt lat="45.86574388152457" lon="12.558100932802148"><ele>12.333333333333332</ele><time>2026-05-01T09:43:56.998Z</time></trkpt><trkpt lat="45.86555108869093" lon="12.557948843075192"><ele>12.666666666666666</ele><time>2026-05-01T09:43:57.998Z</time></trkpt><trkpt lat="45.86535071803165" lon="12.557791487562602"><ele>13.0</ele><time>2026-05-01T09:43:58.998Z</time></trkpt><trkpt lat="45.865160376240866" lon="12.557641999923677"><ele>13.666666666666666</ele><time>2026-05-01T09:43:59.998Z</time></trkpt><trkpt lat="45.86498543617959" lon="12.557506630077407"><ele>14.333333333333332</ele><time>2026-05-01T09:44:00.998Z</time></trkpt><trkpt lat="45.86482374109076" lon="12.557379890966434"><ele>15.0</ele><time>2026-05-01T09:44:01.998Z</time></trkpt><trkpt lat="45.86466718287127" lon="12.557255067206473"><ele>15.0</ele><time>2026-05-01T09:44:02.998Z</time></trkpt><trkpt lat="45.86451308266525" lon="12.557130527039837"><ele>15.0</ele><time>2026-05-01T09:44:03.998Z</time></trkpt><trkpt lat="45.86435864138898" lon="12.557006943765364"><ele>15.0</ele><time>2026-05-01T09:44:04.998Z</time></trkpt><trkpt lat="45.86420383486754" lon="12.55688487257209"><ele>14.666666666666668</ele><time>2026-05-01T09:44:05.998Z</time></trkpt><trkpt lat="45.86404417692827" lon="12.556761572099756"><ele>14.333333333333334</ele><time>2026-05-01T09:44:06.998Z</time></trkpt><trkpt lat="45.86388398536957" lon="12.55663378563004"><ele>14.0</ele><time>2026-05-01T09:44:07.998Z</time></trkpt><trkpt lat="45.863725001826474" lon="12.556501935626219"><ele>14.0</ele><time>2026-05-01T09:44:08.998Z</time></trkpt><trkpt lat="45.86356856023158" lon="12.556362878533308"><ele>14.0</ele><time>2026-05-01T09:44:09.998Z</time></trkpt><trkpt lat="45.86341666792631" lon="12.556216819557257"><ele>14.0</ele><time>2026-05-01T09:44:10.998Z</time></trkpt><trkpt lat="45.86326799569291" lon="12.556059645775397"><ele>13.666666666666668</ele><time>2026-05-01T09:44:11.998Z</time></trkpt><trkpt lat="45.863126309878325" lon="12.555899063298844"><ele>13.333333333333332</ele><time>2026-05-01T09:44:12.998Z</time></trkpt><trkpt lat="45.862987141105464" lon="12.55573329488423"><ele>13.0</ele><time>2026-05-01T09:44:13.998Z</time></trkpt><trkpt lat="45.862851947191395" lon="12.555560566081295"><ele>13.0</ele><time>2026-05-01T09:44:14.998Z</time></trkpt><trkpt lat="45.862728027269156" lon="12.55538183818086"><ele>13.0</ele><time>2026-05-01T09:44:15.998Z</time></trkpt><trkpt lat="45.86261337483522" lon="12.555208882876531"><ele>13.0</ele><time>2026-05-01T09:44:16.998Z</time></trkpt><trkpt lat="45.862508483527954" lon="12.555047063262709"><ele>12.25</ele><time>2026-05-01T09:44:17.998Z</time></trkpt><trkpt lat="45.86240941224987" lon="12.554888922829198"><ele>11.5</ele><time>2026-05-01T09:44:18.998Z</time></trkpt><trkpt lat="45.862322527197904" lon="12.554735234606083"><ele>10.75</ele><time>2026-05-01T09:44:19.998Z</time></trkpt><trkpt lat="45.86223897352751" lon="12.554574650547163"><ele>10.0</ele><time>2026-05-01T09:44:20.998Z</time></trkpt><trkpt lat="45.86215979120854" lon="12.554409178614256"><ele>10.0</ele><time>2026-05-01T09:44:21.998Z</time></trkpt><trkpt lat="45.862086078103964" lon="12.554248236781048"><ele>10.0</ele><time>2026-05-01T09:44:22.998Z</time></trkpt><trkpt lat="45.862023417300854" lon="12.554102437650407"><ele>10.0</ele><time>2026-05-01T09:44:23.998Z</time></trkpt><trkpt lat="45.86197091343127" lon="12.553966989921362"><ele>10.0</ele><time>2026-05-01T09:44:24.998Z</time></trkpt><trkpt lat="45.861936453347674" lon="12.553824506327732"><ele>10.0</ele><time>2026-05-01T09:44:25.998Z</time></trkpt><trkpt lat="45.86191636009749" lon="12.553666738213945"><ele>10.0</ele><time>2026-05-01T09:44:26.998Z</time></trkpt><trkpt lat="45.86189785565805" lon="12.553513367184486"><ele>10.0</ele><time>2026-05-01T09:44:27.998Z</time></trkpt><trkpt lat="45.861846806126636" lon="12.553403046778257"><ele>10.0</ele><time>2026-05-01T09:44:28.998Z</time></trkpt><trkpt lat="45.861768968714756" lon="12.553321097916333"><ele>10.0</ele><time>2026-05-01T09:44:29.998Z</time></trkpt><trkpt lat="45.861685531708936" lon="12.553229790395271"><ele>9.75</ele><time>2026-05-01T09:44:30.998Z</time></trkpt><trkpt lat="45.86162776186051" lon="12.553089549709874"><ele>9.5</ele><time>2026-05-01T09:44:31.998Z</time></trkpt><trkpt lat="45.86158608109861" lon="12.5529156234196"><ele>9.25</ele><time>2026-05-01T09:44:32.998Z</time></trkpt><trkpt lat="45.861532956791194" lon="12.552711715773135"><ele>9.0</ele><time>2026-05-01T09:44:33.998Z</time></trkpt><trkpt lat="45.86147014435676" lon="12.552476402948297"><ele>8.666666666666666</ele><time>2026-05-01T09:44:34.998Z</time></trkpt><trkpt lat="45.86140746601206" lon="12.552220032436912"><ele>8.333333333333332</ele><time>2026-05-01T09:44:35.998Z</time></trkpt><trkpt lat="45.86134502958072" lon="12.55193582102105"><ele>8.0</ele><time>2026-05-01T09:44:36.998Z</time></trkpt><trkpt lat="45.86128580441195" lon="12.551654892427614"><ele>8.0</ele><time>2026-05-01T09:44:37.998Z</time></trkpt><trkpt lat="45.86122045369546" lon="12.55135962765112"><ele>8.0</ele><time>2026-05-01T09:44:38.998Z</time></trkpt><trkpt lat="45.86115658114515" lon="12.551059260474737"><ele>8.0</ele><time>2026-05-01T09:44:39.998Z</time></trkpt><trkpt lat="45.86109310045035" lon="12.550754271156725"><ele>7.666666666666666</ele><time>2026-05-01T09:44:40.998Z</time></trkpt><trkpt lat="45.86102950912688" lon="12.550452149851663"><ele>7.333333333333334</ele><time>2026-05-01T09:44:41.998Z</time></trkpt><trkpt lat="45.8609634893935" lon="12.550147029074761"><ele>7.0</ele><time>2026-05-01T09:44:42.998Z</time></trkpt><trkpt lat="45.86089854880041" lon="12.549842977402177"><ele>6.666666666666667</ele><time>2026-05-01T09:44:43.998Z</time></trkpt><trkpt lat="45.86083868490318" lon="12.549555787660553"><ele>6.333333333333334</ele><time>2026-05-01T09:44:45Z</time></trkpt><trkpt lat="45.860784474689865" lon="12.549290614530827"><ele>6.0</ele><time>2026-05-01T09:44:46Z</time></trkpt><trkpt lat="45.860723238296444" lon="12.54900391238403"><ele>6.0</ele><time>2026-05-01T09:44:47Z</time></trkpt><trkpt lat="45.860664781117535" lon="12.548727766874977"><ele>6.0</ele><time>2026-05-01T09:44:48Z</time></trkpt><trkpt lat="45.86060681616518" lon="12.548450542190404"><ele>6.0</ele><time>2026-05-01T09:44:49Z</time></trkpt><trkpt lat="45.86054372269417" lon="12.548166892062829"><ele>5.666666666666667</ele><time>2026-05-01T09:44:50Z</time></trkpt><trkpt lat="45.86048012835524" lon="12.547879948676465"><ele>5.333333333333334</ele><time>2026-05-01T09:44:51Z</time></trkpt><trkpt lat="45.86042220444405" lon="12.547598423426678"><ele>5.0</ele><time>2026-05-01T09:44:52Z</time></trkpt><trkpt lat="45.86036794874453" lon="12.547322296675306"><ele>5.666666666666667</ele><time>2026-05-01T09:44:53Z</time></trkpt><trkpt lat="45.86031040990758" lon="12.547045214973238"><ele>6.333333333333334</ele><time>2026-05-01T09:44:54Z</time></trkpt><trkpt lat="45.86024976671281" lon="12.54676724920926"><ele>7.0</ele><time>2026-05-01T09:44:55Z</time></trkpt><trkpt lat="45.86018711683807" lon="12.54648167498501"><ele>8.333333333333334</ele><time>2026-05-01T09:44:56Z</time></trkpt><trkpt lat="45.860125464179454" lon="12.546191192503455"><ele>9.666666666666666</ele><time>2026-05-01T09:44:57Z</time></trkpt><trkpt lat="45.86006488735039" lon="12.545904552320819"><ele>11.0</ele><time>2026-05-01T09:44:58Z</time></trkpt><trkpt lat="45.86000285236353" lon="12.545604683594464"><ele>11.333333333333332</ele><time>2026-05-01T09:44:59Z</time></trkpt><trkpt lat="45.85994609751596" lon="12.545320547425176"><ele>11.666666666666666</ele><time>2026-05-01T09:45:00Z</time></trkpt><trkpt lat="45.85989358380856" lon="12.545068405354565"><ele>12.0</ele><time>2026-05-01T09:45:01Z</time></trkpt><trkpt lat="45.85984800139998" lon="12.544852158165119"><ele>12.0</ele><time>2026-05-01T09:45:02Z</time></trkpt><trkpt lat="45.8598031155107" lon="12.544646843436626"><ele>12.0</ele><time>2026-05-01T09:45:03Z</time></trkpt><trkpt lat="45.85976195147896" lon="12.54445003776298"><ele>12.0</ele><time>2026-05-01T09:45:04Z</time></trkpt><trkpt lat="45.85972302931403" lon="12.544272291942045"><ele>12.0</ele><time>2026-05-01T09:45:05Z</time></trkpt><trkpt lat="45.85968815460226" lon="12.544109772644733"><ele>12.0</ele><time>2026-05-01T09:45:06Z</time></trkpt><trkpt lat="45.8596635763176" lon="12.5439662882115"><ele>12.0</ele><time>2026-05-01T09:45:07Z</time></trkpt><trkpt lat="45.85966279124879" lon="12.543826757066629"><ele>12.0</ele><time>2026-05-01T09:45:08Z</time></trkpt><trkpt lat="45.85968656938577" lon="12.543681613061912"><ele>12.0</ele><time>2026-05-01T09:45:09Z</time></trkpt><trkpt lat="45.859689069481234" lon="12.54352846391458"><ele>12.0</ele><time>2026-05-01T09:45:09.999Z</time></trkpt><trkpt lat="45.859666018031746" lon="12.54337891025158"><ele>11.75</ele><time>2026-05-01T09:45:10.999Z</time></trkpt><trkpt lat="45.85960614643784" lon="12.543240564114814"><ele>11.5</ele><time>2026-05-01T09:45:11.999Z</time></trkpt><trkpt lat="45.85952554233475" lon="12.54308605582754"><ele>11.25</ele><time>2026-05-01T09:45:12.999Z</time></trkpt><trkpt lat="45.85942562584709" lon="12.54292806337281"><ele>11.0</ele><time>2026-05-01T09:45:13.999Z</time></trkpt><trkpt lat="45.85939042944084" lon="12.542651705473542"><ele>11.0</ele><time>2026-05-01T09:45:14.999Z</time></trkpt><trkpt lat="45.85932821474142" lon="12.542370335772837"><ele>11.0</ele><time>2026-05-01T09:45:15.999Z</time></trkpt><trkpt lat="45.85926071636314" lon="12.542076961666334"><ele>11.0</ele><time>2026-05-01T09:45:16.999Z</time></trkpt><trkpt lat="45.85919604641575" lon="12.541782128988528"><ele>11.0</ele><time>2026-05-01T09:45:17.999Z</time></trkpt><trkpt lat="45.8591293744843" lon="12.541479685920471"><ele>11.0</ele><time>2026-05-01T09:45:18.999Z</time></trkpt><trkpt lat="45.85906397645052" lon="12.541169231950988"><ele>11.0</ele><time>2026-05-01T09:45:19.999Z</time></trkpt><trkpt lat="45.85900120875059" lon="12.540874721873049"><ele>11.0</ele><time>2026-05-01T09:45:20.999Z</time></trkpt><trkpt lat="45.85894206126287" lon="12.540596906645401"><ele>11.0</ele><time>2026-05-01T09:45:21.999Z</time></trkpt><trkpt lat="45.858883379341854" lon="12.54033101061673"><ele>11.0</ele><time>2026-05-01T09:45:22.999Z</time></trkpt><trkpt lat="45.85882220419226" lon="12.54005927003098"><ele>11.333333333333332</ele><time>2026-05-01T09:45:23.999Z</time></trkpt><trkpt lat="45.85876310596211" lon="12.539786675394671"><ele>11.666666666666666</ele><time>2026-05-01T09:45:24.999Z</time></trkpt><trkpt lat="45.85870662260507" lon="12.539520424247371"><ele>12.0</ele><time>2026-05-01T09:45:25.999Z</time></trkpt><trkpt lat="45.858650986554345" lon="12.539271999910943"><ele>11.666666666666666</ele><time>2026-05-01T09:45:26.999Z</time></trkpt><trkpt lat="45.85859202140337" lon="12.539036840783494"><ele>11.333333333333332</ele><time>2026-05-01T09:45:27.999Z</time></trkpt><trkpt lat="45.85852224051585" lon="12.538811002054993"><ele>11.0</ele><time>2026-05-01T09:45:28.999Z</time></trkpt><trkpt lat="45.85844488329883" lon="12.538588538464301"><ele>11.0</ele><time>2026-05-01T09:45:29.999Z</time></trkpt><trkpt lat="45.85834064078893" lon="12.538365757853562"><ele>11.0</ele><time>2026-05-01T09:45:30.999Z</time></trkpt><trkpt lat="45.85824074445952" lon="12.538134808737787"><ele>11.0</ele><time>2026-05-01T09:45:31.999Z</time></trkpt><trkpt lat="45.85811830904518" lon="12.537900395373187"><ele>11.333333333333332</ele><time>2026-05-01T09:45:32.999Z</time></trkpt><trkpt lat="45.85799220627857" lon="12.537675196671687"><ele>11.666666666666666</ele><time>2026-05-01T09:45:33.999Z</time></trkpt><trkpt lat="45.85786527471047" lon="12.537470951440277"><ele>12.0</ele><time>2026-05-01T09:45:34.999Z</time></trkpt><trkpt lat="45.85773289884838" lon="12.537260762974148"><ele>12.0</ele><time>2026-05-01T09:45:35.999Z</time></trkpt><trkpt lat="45.85760798896983" lon="12.53709358207022"><ele>12.0</ele><time>2026-05-01T09:45:36.999Z</time></trkpt><trkpt lat="45.85746823749268" lon="12.536925349417636"><ele>12.0</ele><time>2026-05-01T09:45:37.999Z</time></trkpt><trkpt lat="45.85731723775472" lon="12.536770222475955"><ele>12.0</ele><time>2026-05-01T09:45:38.999Z</time></trkpt><trkpt lat="45.857153435961784" lon="12.53661768222437"><ele>12.0</ele><time>2026-05-01T09:45:39.999Z</time></trkpt><trkpt lat="45.856987691836" lon="12.536479821546363"><ele>12.0</ele><time>2026-05-01T09:45:40.999Z</time></trkpt><trkpt lat="45.856823012623344" lon="12.536366877164033"><ele>11.666666666666666</ele><time>2026-05-01T09:45:41.999Z</time></trkpt><trkpt lat="45.85664954671754" lon="12.536260832158368"><ele>11.333333333333332</ele><time>2026-05-01T09:45:42.999Z</time></trkpt><trkpt lat="45.85646403586725" lon="12.536172111980898"><ele>11.0</ele><time>2026-05-01T09:45:43.999Z</time></trkpt><trkpt lat="45.856257381963445" lon="12.536102601098804"><ele>10.5</ele><time>2026-05-01T09:45:44.999Z</time></trkpt><trkpt lat="45.85602522029655" lon="12.536041551696371"><ele>10.0</ele><time>2026-05-01T09:45:45.999Z</time></trkpt><trkpt lat="45.8557917968316" lon="12.535974649464093"><ele>10.0</ele><time>2026-05-01T09:45:46.999Z</time></trkpt><trkpt lat="45.85558435857736" lon="12.535911460327043"><ele>10.0</ele><time>2026-05-01T09:45:47.999Z</time></trkpt><trkpt lat="45.855388243713335" lon="12.535860401303784"><ele>10.0</ele><time>2026-05-01T09:45:48.999Z</time></trkpt><trkpt lat="45.855188923707075" lon="12.53579145026397"><ele>9.0</ele><time>2026-05-01T09:45:49.999Z</time></trkpt><trkpt lat="45.854990531532955" lon="12.535734497048503"><ele>8.0</ele><time>2026-05-01T09:45:50.999Z</time></trkpt><trkpt lat="45.85478927532325" lon="12.535690932653836"><ele>7.0</ele><time>2026-05-01T09:45:51.999Z</time></trkpt><trkpt lat="45.85458656502818" lon="12.535666387071643"><ele>7.0</ele><time>2026-05-01T09:45:52.999Z</time></trkpt><trkpt lat="45.854373371832395" lon="12.535659194305431"><ele>7.0</ele><time>2026-05-01T09:45:53.999Z</time></trkpt><trkpt lat="45.85414250300857" lon="12.535669023686935"><ele>7.0</ele><time>2026-05-01T09:45:54.999Z</time></trkpt><trkpt lat="45.85389972940993" lon="12.535697072505064"><ele>7.0</ele><time>2026-05-01T09:45:55.999Z</time></trkpt><trkpt lat="45.8536709878893" lon="12.535746907980245"><ele>7.0</ele><time>2026-05-01T09:45:56.999Z</time></trkpt><trkpt lat="45.85345875808612" lon="12.535772863162654"><ele>7.0</ele><time>2026-05-01T09:45:57.999Z</time></trkpt><trkpt lat="45.85325501412482" lon="12.535809762543327"><ele>7.333333333333334</ele><time>2026-05-01T09:45:58.999Z</time></trkpt><trkpt lat="45.85305686653438" lon="12.535843947103894"><ele>7.666666666666666</ele><time>2026-05-01T09:45:59.998Z</time></trkpt><trkpt lat="45.85285909087561" lon="12.535877383273657"><ele>8.0</ele><time>2026-05-01T09:46:00.998Z</time></trkpt><trkpt lat="45.8526702137317" lon="12.535915440663853"><ele>8.0</ele><time>2026-05-01T09:46:01.998Z</time></trkpt><trkpt lat="45.85249776855445" lon="12.53594638069593"><ele>8.0</ele><time>2026-05-01T09:46:02.998Z</time></trkpt><trkpt lat="45.852336666942996" lon="12.53598527226022"><ele>8.0</ele><time>2026-05-01T09:46:03.998Z</time></trkpt><trkpt lat="45.852188484371126" lon="12.536011164315346"><ele>8.0</ele><time>2026-05-01T09:46:04.998Z</time></trkpt><trkpt lat="45.852036942462306" lon="12.536038524373334"><ele>8.0</ele><time>2026-05-01T09:46:05.998Z</time></trkpt><trkpt lat="45.85187915660565" lon="12.536068934377129"><ele>8.0</ele><time>2026-05-01T09:46:06.998Z</time></trkpt><trkpt lat="45.85171425556508" lon="12.536107389353203"><ele>7.666666666666666</ele><time>2026-05-01T09:46:07.998Z</time></trkpt><trkpt lat="45.85155385851337" lon="12.53613305694205"><ele>7.333333333333334</ele><time>2026-05-01T09:46:08.998Z</time></trkpt><trkpt lat="45.85140776233074" lon="12.536151989494577"><ele>7.0</ele><time>2026-05-01T09:46:09.998Z</time></trkpt><trkpt lat="45.851263874320146" lon="12.53618156843934"><ele>7.0</ele><time>2026-05-01T09:46:10.998Z</time></trkpt><trkpt lat="45.85112150111874" lon="12.536207338203527"><ele>7.0</ele><time>2026-05-01T09:46:11.998Z</time></trkpt><trkpt lat="45.85098283432814" lon="12.536228030820027"><ele>7.0</ele><time>2026-05-01T09:46:12.998Z</time></trkpt><trkpt lat="45.85083082754968" lon="12.536253841985888"><ele>7.0</ele><time>2026-05-01T09:46:13.998Z</time></trkpt><trkpt lat="45.85068253314207" lon="12.53627997874239"><ele>6.8</ele><time>2026-05-01T09:46:14.998Z</time></trkpt><trkpt lat="45.85055520675502" lon="12.536311531860115"><ele>6.6</ele><time>2026-05-01T09:46:15.998Z</time></trkpt><trkpt lat="45.85043750586152" lon="12.53632951825146"><ele>6.3999999999999995</ele><time>2026-05-01T09:46:16.998Z</time></trkpt><trkpt lat="45.850350256547564" lon="12.53634495133055"><ele>6.199999999999999</ele><time>2026-05-01T09:46:17.998Z</time></trkpt><trkpt lat="45.85026049501888" lon="12.536334626807713"><ele>6.0</ele><time>2026-05-01T09:46:18.998Z</time></trkpt><trkpt lat="45.850194995816054" lon="12.536262701713337"><ele>6.0</ele><time>2026-05-01T09:46:19.998Z</time></trkpt><trkpt lat="45.85012159767874" lon="12.536182342421853"><ele>6.0</ele><time>2026-05-01T09:46:20.998Z</time></trkpt><trkpt lat="45.850042770953216" lon="12.536136747273144"><ele>6.0</ele><time>2026-05-01T09:46:21.998Z</time></trkpt><trkpt lat="45.84995994472881" lon="12.536152713349573"><ele>6.0</ele><time>2026-05-01T09:46:22.998Z</time></trkpt><trkpt lat="45.8498776462686" lon="12.536225483440893"><ele>6.0</ele><time>2026-05-01T09:46:23.998Z</time></trkpt><trkpt lat="45.84979603213979" lon="12.53632993824717"><ele>6.0</ele><time>2026-05-01T09:46:24.998Z</time></trkpt><trkpt lat="45.8496952659985" lon="12.536426844515763"><ele>6.0</ele><time>2026-05-01T09:46:25.998Z</time></trkpt><trkpt lat="45.849555982825684" lon="12.536498963501078"><ele>6.0</ele><time>2026-05-01T09:46:26.998Z</time></trkpt><trkpt lat="45.849377337154564" lon="12.536517181798981"><ele>6.0</ele><time>2026-05-01T09:46:27.998Z</time></trkpt><trkpt lat="45.8491666409033" lon="12.536580202352798"><ele>6.0</ele><time>2026-05-01T09:46:28.998Z</time></trkpt><trkpt lat="45.84895262227507" lon="12.536610981534377"><ele>6.0</ele><time>2026-05-01T09:46:29.998Z</time></trkpt><trkpt lat="45.848709317817885" lon="12.536648519294543"><ele>5.0</ele><time>2026-05-01T09:46:30.998Z</time></trkpt><trkpt lat="45.848440211100936" lon="12.5366869851848"><ele>4.0</ele><time>2026-05-01T09:46:31.998Z</time></trkpt><trkpt lat="45.84816570037949" lon="12.5367262436697"><ele>4.0</ele><time>2026-05-01T09:46:32.998Z</time></trkpt><trkpt lat="45.84787783641551" lon="12.536766644952142"><ele>4.0</ele><time>2026-05-01T09:46:33.998Z</time></trkpt><trkpt lat="45.84757484922169" lon="12.536804783839845"><ele>5.0</ele><time>2026-05-01T09:46:34.998Z</time></trkpt><trkpt lat="45.847263315854725" lon="12.536846922462393"><ele>6.0</ele><time>2026-05-01T09:46:35.998Z</time></trkpt><trkpt lat="45.84695319035823" lon="12.5368895905981"><ele>5.5</ele><time>2026-05-01T09:46:36.998Z</time></trkpt><trkpt lat="45.846639645287546" lon="12.536931174201147"><ele>5.0</ele><time>2026-05-01T09:46:37.998Z</time></trkpt><trkpt lat="45.846327303802155" lon="12.536971557105504"><ele>5.0</ele><time>2026-05-01T09:46:38.998Z</time></trkpt><trkpt lat="45.846028447899634" lon="12.537008410452698"><ele>5.0</ele><time>2026-05-01T09:46:39.998Z</time></trkpt><trkpt lat="45.84575251938371" lon="12.537046362703444"><ele>4.5</ele><time>2026-05-01T09:46:40.998Z</time></trkpt><trkpt lat="45.84548333484566" lon="12.537081616384214"><ele>4.0</ele><time>2026-05-01T09:46:41.998Z</time></trkpt><trkpt lat="45.84522533764142" lon="12.537114791202569"><ele>4.0</ele><time>2026-05-01T09:46:42.998Z</time></trkpt><trkpt lat="45.84496917256834" lon="12.537147012989493"><ele>4.0</ele><time>2026-05-01T09:46:43.998Z</time></trkpt><trkpt lat="45.844713568232244" lon="12.537169270954642"><ele>4.0</ele><time>2026-05-01T09:46:44.998Z</time></trkpt><trkpt lat="45.84446251207443" lon="12.53718605159768"><ele>4.0</ele><time>2026-05-01T09:46:45.998Z</time></trkpt><trkpt lat="45.84421160323181" lon="12.537198074059965"><ele>6.0</ele><time>2026-05-01T09:46:46.998Z</time></trkpt><trkpt lat="45.84395272602312" lon="12.53716567910312"><ele>8.0</ele><time>2026-05-01T09:46:47.998Z</time></trkpt><trkpt lat="45.843683767680815" lon="12.537167335239296"><ele>7.0</ele><time>2026-05-01T09:46:48.998Z</time></trkpt><trkpt lat="45.84343321238169" lon="12.537140313616913"><ele>6.0</ele><time>2026-05-01T09:46:49.998Z</time></trkpt><trkpt lat="45.84320400509412" lon="12.537122082582265"><ele>6.0</ele><time>2026-05-01T09:46:51Z</time></trkpt><trkpt lat="45.842989550574615" lon="12.537083513757796"><ele>6.0</ele><time>2026-05-01T09:46:52Z</time></trkpt><trkpt lat="45.84278127913225" lon="12.537066700816387"><ele>6.0</ele><time>2026-05-01T09:46:53Z</time></trkpt><trkpt lat="45.84257670183003" lon="12.537050622286147"><ele>7.0</ele><time>2026-05-01T09:46:54Z</time></trkpt><trkpt lat="45.84237274671806" lon="12.537034592664927"><ele>8.0</ele><time>2026-05-01T09:46:55Z</time></trkpt><trkpt lat="45.84217421889506" lon="12.537019075420325"><ele>9.0</ele><time>2026-05-01T09:46:56Z</time></trkpt><trkpt lat="45.841982360846934" lon="12.537032369003253"><ele>8.666666666666666</ele><time>2026-05-01T09:46:57Z</time></trkpt><trkpt lat="45.8417971512546" lon="12.537019587255417"><ele>8.333333333333332</ele><time>2026-05-01T09:46:58Z</time></trkpt><trkpt lat="45.84161407058072" lon="12.537002664960427"><ele>8.0</ele><time>2026-05-01T09:46:59Z</time></trkpt><trkpt lat="45.841420250691385" lon="12.536980672456046"><ele>8.0</ele><time>2026-05-01T09:47:00Z</time></trkpt><trkpt lat="45.84120593881166" lon="12.536961442301088"><ele>8.0</ele><time>2026-05-01T09:47:01Z</time></trkpt><trkpt lat="45.840986217433155" lon="12.536944705311575"><ele>8.0</ele><time>2026-05-01T09:47:02Z</time></trkpt><trkpt lat="45.84078470256838" lon="12.536929491077979"><ele>7.666666666666666</ele><time>2026-05-01T09:47:03Z</time></trkpt><trkpt lat="45.84059834513542" lon="12.536913869881559"><ele>7.333333333333334</ele><time>2026-05-01T09:47:04Z</time></trkpt><trkpt lat="45.84042362815338" lon="12.53690326833824"><ele>7.0</ele><time>2026-05-01T09:47:05Z</time></trkpt><trkpt lat="45.840255572342066" lon="12.536867536311515"><ele>7.666666666666667</ele><time>2026-05-01T09:47:06Z</time></trkpt><trkpt lat="45.84009273224477" lon="12.536878629162933"><ele>8.333333333333334</ele><time>2026-05-01T09:47:07Z</time></trkpt><trkpt lat="45.83992860010842" lon="12.53686679012596"><ele>9.0</ele><time>2026-05-01T09:47:08Z</time></trkpt><trkpt lat="45.83975906178719" lon="12.536857929592788"><ele>9.0</ele><time>2026-05-01T09:47:09Z</time></trkpt><trkpt lat="45.83959174076073" lon="12.536858881225877"><ele>9.0</ele><time>2026-05-01T09:47:10Z</time></trkpt><trkpt lat="45.83942569942853" lon="12.536875707021348"><ele>9.0</ele><time>2026-05-01T09:47:11Z</time></trkpt><trkpt lat="45.839250379194446" lon="12.536916862161407"><ele>9.333333333333334</ele><time>2026-05-01T09:47:12Z</time></trkpt><trkpt lat="45.83906856905322" lon="12.536980860890793"><ele>9.666666666666668</ele><time>2026-05-01T09:47:13Z</time></trkpt><trkpt lat="45.838880323909585" lon="12.537066803788877"><ele>10.0</ele><time>2026-05-01T09:47:14Z</time></trkpt><trkpt lat="45.8386777932875" lon="12.537157549541337"><ele>10.0</ele><time>2026-05-01T09:47:14.999Z</time></trkpt><trkpt lat="45.8384799085853" lon="12.537239118300372"><ele>10.0</ele><time>2026-05-01T09:47:15.999Z</time></trkpt><trkpt lat="45.83829346747051" lon="12.5373073848224"><ele>10.0</ele><time>2026-05-01T09:47:16.999Z</time></trkpt><trkpt lat="45.838108343224974" lon="12.537362938901264"><ele>10.0</ele><time>2026-05-01T09:47:17.999Z</time></trkpt><trkpt lat="45.83792137344819" lon="12.537396368168366"><ele>10.0</ele><time>2026-05-01T09:47:18.999Z</time></trkpt><trkpt lat="45.837717736211864" lon="12.537407971099595"><ele>10.0</ele><time>2026-05-01T09:47:19.999Z</time></trkpt><trkpt lat="45.8374978963417" lon="12.537403279541696"><ele>10.0</ele><time>2026-05-01T09:47:20.999Z</time></trkpt><trkpt lat="45.837285885549676" lon="12.537390215593206"><ele>10.0</ele><time>2026-05-01T09:47:21.999Z</time></trkpt><trkpt lat="45.83709523196559" lon="12.537369812463542"><ele>10.0</ele><time>2026-05-01T09:47:22.999Z</time></trkpt><trkpt lat="45.836922380148835" lon="12.537351780647946"><ele>10.333333333333334</ele><time>2026-05-01T09:47:23.999Z</time></trkpt><trkpt lat="45.836749398698444" lon="12.537338100532924"><ele>10.666666666666666</ele><time>2026-05-01T09:47:24.999Z</time></trkpt><trkpt lat="45.83658552177516" lon="12.537322131719998"><ele>11.0</ele><time>2026-05-01T09:47:25.999Z</time></trkpt><trkpt lat="45.83641210526807" lon="12.537307589943072"><ele>11.0</ele><time>2026-05-01T09:47:26.999Z</time></trkpt><trkpt lat="45.836216454410405" lon="12.537290738535658"><ele>11.0</ele><time>2026-05-01T09:47:27.999Z</time></trkpt><trkpt lat="45.8360143733658" lon="12.537271490877144"><ele>11.0</ele><time>2026-05-01T09:47:28.999Z</time></trkpt><trkpt lat="45.835805607817505" lon="12.537252526163705"><ele>11.0</ele><time>2026-05-01T09:47:29.999Z</time></trkpt><trkpt lat="45.835588913265155" lon="12.537234056172057"><ele>11.0</ele><time>2026-05-01T09:47:30.999Z</time></trkpt><trkpt lat="45.835371037432914" lon="12.537215392686965"><ele>11.0</ele><time>2026-05-01T09:47:31.999Z</time></trkpt><trkpt lat="45.83514701804316" lon="12.537194387940227"><ele>11.5</ele><time>2026-05-01T09:47:32.999Z</time></trkpt><trkpt lat="45.83491965994849" lon="12.537170082647439"><ele>12.0</ele><time>2026-05-01T09:47:33.999Z</time></trkpt><trkpt lat="45.83468193281394" lon="12.537144550812183"><ele>12.0</ele><time>2026-05-01T09:47:34.999Z</time></trkpt><trkpt lat="45.83444263404231" lon="12.53712379540569"><ele>12.0</ele><time>2026-05-01T09:47:35.999Z</time></trkpt><trkpt lat="45.83422233209359" lon="12.53710332223627"><ele>11.666666666666666</ele><time>2026-05-01T09:47:36.999Z</time></trkpt><trkpt lat="45.834006565107494" lon="12.537085829788635"><ele>11.333333333333332</ele><time>2026-05-01T09:47:37.999Z</time></trkpt><trkpt lat="45.8337999868728" lon="12.537069788584576"><ele>11.0</ele><time>2026-05-01T09:47:38.999Z</time></trkpt><trkpt lat="45.83359834033799" lon="12.537053063511152"><ele>10.666666666666666</ele><time>2026-05-01T09:47:39.999Z</time></trkpt><trkpt lat="45.833394900979954" lon="12.537030684385654"><ele>10.333333333333334</ele><time>2026-05-01T09:47:40.999Z</time></trkpt><trkpt lat="45.833187199312206" lon="12.537008715810803"><ele>10.0</ele><time>2026-05-01T09:47:41.999Z</time></trkpt><trkpt lat="45.83297884271686" lon="12.536991674299236"><ele>10.0</ele><time>2026-05-01T09:47:42.999Z</time></trkpt><trkpt lat="45.83276178097741" lon="12.53697468285391"><ele>10.0</ele><time>2026-05-01T09:47:43.999Z</time></trkpt><trkpt lat="45.832533023604306" lon="12.536957428182141"><ele>10.0</ele><time>2026-05-01T09:47:44.999Z</time></trkpt><trkpt lat="45.83230417831758" lon="12.536936745418418"><ele>9.666666666666668</ele><time>2026-05-01T09:47:45.999Z</time></trkpt><trkpt lat="45.83209130030551" lon="12.53691577303698"><ele>9.333333333333334</ele><time>2026-05-01T09:47:46.999Z</time></trkpt><trkpt lat="45.831892360027055" lon="12.5369009882582"><ele>9.0</ele><time>2026-05-01T09:47:47.999Z</time></trkpt><trkpt lat="45.83170181931192" lon="12.536887147798385"><ele>10.0</ele><time>2026-05-01T09:47:48.999Z</time></trkpt><trkpt lat="45.83151067241537" lon="12.536873560770296"><ele>11.0</ele><time>2026-05-01T09:47:49.999Z</time></trkpt><trkpt lat="45.831318302612466" lon="12.536859961857957"><ele>12.0</ele><time>2026-05-01T09:47:50.999Z</time></trkpt><trkpt lat="45.83112143821198" lon="12.536848979665393"><ele>12.333333333333332</ele><time>2026-05-01T09:47:51.999Z</time></trkpt><trkpt lat="45.8309225503976" lon="12.53684296999183"><ele>12.666666666666666</ele><time>2026-05-01T09:47:52.999Z</time></trkpt><trkpt lat="45.83072190073062" lon="12.536847717355007"><ele>13.0</ele><time>2026-05-01T09:47:53.999Z</time></trkpt><trkpt lat="45.83052437003706" lon="12.536863817860938"><ele>13.0</ele><time>2026-05-01T09:47:54.999Z</time></trkpt><trkpt lat="45.830331458574335" lon="12.536893872961457"><ele>13.0</ele><time>2026-05-01T09:47:55.999Z</time></trkpt><trkpt lat="45.83013237498264" lon="12.536911948143901"><ele>13.0</ele><time>2026-05-01T09:47:56.999Z</time></trkpt><trkpt lat="45.82992818775454" lon="12.536957845463064"><ele>12.666666666666666</ele><time>2026-05-01T09:47:57.999Z</time></trkpt><trkpt lat="45.82972491520003" lon="12.537031841893747"><ele>12.333333333333332</ele><time>2026-05-01T09:47:58.999Z</time></trkpt><trkpt lat="45.829526843023245" lon="12.537081976827347"><ele>12.0</ele><time>2026-05-01T09:47:59.999Z</time></trkpt><trkpt lat="45.82934442165595" lon="12.537132280247162"><ele>12.0</ele><time>2026-05-01T09:48:00.999Z</time></trkpt><trkpt lat="45.82916795706818" lon="12.53718020817288"><ele>12.0</ele><time>2026-05-01T09:48:01.999Z</time></trkpt><trkpt lat="45.828990304843266" lon="12.53722693830923"><ele>12.0</ele><time>2026-05-01T09:48:02.999Z</time></trkpt><trkpt lat="45.82881327321477" lon="12.537272787562863"><ele>12.0</ele><time>2026-05-01T09:48:03.998Z</time></trkpt><trkpt lat="45.8286325197178" lon="12.537319269289993"><ele>12.0</ele><time>2026-05-01T09:48:04.998Z</time></trkpt><trkpt lat="45.828453429123925" lon="12.537362680383573"><ele>12.0</ele><time>2026-05-01T09:48:05.998Z</time></trkpt><trkpt lat="45.828268197832664" lon="12.537409085341713"><ele>10.666666666666666</ele><time>2026-05-01T09:48:06.998Z</time></trkpt><trkpt lat="45.82807919919702" lon="12.537458079025589"><ele>9.333333333333332</ele><time>2026-05-01T09:48:07.998Z</time></trkpt><trkpt lat="45.82788850235363" lon="12.537507714767997"><ele>8.0</ele><time>2026-05-01T09:48:08.998Z</time></trkpt><trkpt lat="45.82769406824194" lon="12.537557016885417"><ele>8.666666666666666</ele><time>2026-05-01T09:48:09.998Z</time></trkpt><trkpt lat="45.827507843541774" lon="12.537605954609353"><ele>9.333333333333334</ele><time>2026-05-01T09:48:10.998Z</time></trkpt><trkpt lat="45.827324554667356" lon="12.53765488027048"><ele>10.0</ele><time>2026-05-01T09:48:11.998Z</time></trkpt><trkpt lat="45.82715310783191" lon="12.53770205934934"><ele>10.0</ele><time>2026-05-01T09:48:12.998Z</time></trkpt><trkpt lat="45.82698608499794" lon="12.537745688340435"><ele>10.0</ele><time>2026-05-01T09:48:13.998Z</time></trkpt><trkpt lat="45.82681811644384" lon="12.53778665175135"><ele>10.0</ele><time>2026-05-01T09:48:14.998Z</time></trkpt><trkpt lat="45.82664771878892" lon="12.53783194074579"><ele>10.333333333333334</ele><time>2026-05-01T09:48:15.998Z</time></trkpt><trkpt lat="45.82648080050607" lon="12.537874081021496"><ele>10.666666666666666</ele><time>2026-05-01T09:48:16.998Z</time></trkpt><trkpt lat="45.82630166843865" lon="12.537915772633767"><ele>11.0</ele><time>2026-05-01T09:48:17.998Z</time></trkpt><trkpt lat="45.82613694220055" lon="12.537942160805718"><ele>11.0</ele><time>2026-05-01T09:48:18.998Z</time></trkpt><trkpt lat="45.825982696817526" lon="12.537962122987128"><ele>11.0</ele><time>2026-05-01T09:48:19.998Z</time></trkpt><trkpt lat="45.82583825698763" lon="12.537977024225437"><ele>11.0</ele><time>2026-05-01T09:48:20.998Z</time></trkpt><trkpt lat="45.82570497345808" lon="12.537988334690963"><ele>11.0</ele><time>2026-05-01T09:48:21.998Z</time></trkpt><trkpt lat="45.82558563226601" lon="12.53799002915419"><ele>11.0</ele><time>2026-05-01T09:48:22.998Z</time></trkpt><trkpt lat="45.82547385982784" lon="12.537980156817765"><ele>11.0</ele><time>2026-05-01T09:48:23.998Z</time></trkpt><trkpt lat="45.82536826817753" lon="12.537954855263793"><ele>11.0</ele><time>2026-05-01T09:48:24.998Z</time></trkpt><trkpt lat="45.82526241014993" lon="12.537910759885134"><ele>11.0</ele><time>2026-05-01T09:48:25.998Z</time></trkpt><trkpt lat="45.82514984036343" lon="12.53786566593212"><ele>11.0</ele><time>2026-05-01T09:48:26.998Z</time></trkpt><trkpt lat="45.82501044284981" lon="12.537822238193142"><ele>11.0</ele><time>2026-05-01T09:48:27.998Z</time></trkpt><trkpt lat="45.82485543895673" lon="12.537748024841191"><ele>11.0</ele><time>2026-05-01T09:48:28.998Z</time></trkpt><trkpt lat="45.824691445269714" lon="12.537619662437116"><ele>11.0</ele><time>2026-05-01T09:48:29.998Z</time></trkpt><trkpt lat="45.82452552594934" lon="12.537471466014907"><ele>11.0</ele><time>2026-05-01T09:48:30.998Z</time></trkpt><trkpt lat="45.824373909001096" lon="12.537340791306027"><ele>11.0</ele><time>2026-05-01T09:48:31.998Z</time></trkpt><trkpt lat="45.82423331552858" lon="12.537197751029488"><ele>11.0</ele><time>2026-05-01T09:48:32.998Z</time></trkpt><trkpt lat="45.824089540996766" lon="12.537028483493586"><ele>10.333333333333332</ele><time>2026-05-01T09:48:33.998Z</time></trkpt><trkpt lat="45.82394438564926" lon="12.536829032623915"><ele>9.666666666666666</ele><time>2026-05-01T09:48:34.998Z</time></trkpt><trkpt lat="45.82380939256674" lon="12.536609988056664"><ele>9.0</ele><time>2026-05-01T09:48:35.998Z</time></trkpt><trkpt lat="45.823674547780946" lon="12.536356998738535"><ele>8.666666666666666</ele><time>2026-05-01T09:48:36.998Z</time></trkpt><trkpt lat="45.82354735266793" lon="12.536077220731947"><ele>8.333333333333332</ele><time>2026-05-01T09:48:37.998Z</time></trkpt><trkpt lat="45.823438376784175" lon="12.535824204262518"><ele>8.0</ele><time>2026-05-01T09:48:38.998Z</time></trkpt><trkpt lat="45.82333191629599" lon="12.535586344112412"><ele>7.666666666666666</ele><time>2026-05-01T09:48:39.998Z</time></trkpt><trkpt lat="45.8232299991462" lon="12.53535919232746"><ele>7.333333333333334</ele><time>2026-05-01T09:48:40.998Z</time></trkpt><trkpt lat="45.823131662787674" lon="12.53514150784252"><ele>7.0</ele><time>2026-05-01T09:48:41.998Z</time></trkpt><trkpt lat="45.82303956454807" lon="12.534936292499026"><ele>7.0</ele><time>2026-05-01T09:48:42.998Z</time></trkpt><trkpt lat="45.822951824497366" lon="12.534734557773268"><ele>7.0</ele><time>2026-05-01T09:48:43.998Z</time></trkpt><trkpt lat="45.82283105021756" lon="12.53447381047797"><ele>7.0</ele><time>2026-05-01T09:48:44.998Z</time></trkpt><trkpt lat="45.82273357988576" lon="12.534253749672482"><ele>7.333333333333334</ele><time>2026-05-01T09:48:45.998Z</time></trkpt><trkpt lat="45.82263515615004" lon="12.534032088233596"><ele>7.666666666666666</ele><time>2026-05-01T09:48:46.998Z</time></trkpt><trkpt lat="45.82253618857945" lon="12.533809367788738"><ele>8.0</ele><time>2026-05-01T09:48:47.998Z</time></trkpt><trkpt lat="45.822433719349064" lon="12.533573546757404"><ele>7.666666666666666</ele><time>2026-05-01T09:48:48.998Z</time></trkpt><trkpt lat="45.82232866832398" lon="12.533333574125045"><ele>7.333333333333334</ele><time>2026-05-01T09:48:49.998Z</time></trkpt><trkpt lat="45.82221944934827" lon="12.53309106266042"><ele>7.0</ele><time>2026-05-01T09:48:50.998Z</time></trkpt><trkpt lat="45.82211134569794" lon="12.5328429655252"><ele>7.0</ele><time>2026-05-01T09:48:51.998Z</time></trkpt><trkpt lat="45.82199714426415" lon="12.532597226594104"><ele>7.0</ele><time>2026-05-01T09:48:52.998Z</time></trkpt><trkpt lat="45.82188281315447" lon="12.532352378300661"><ele>7.0</ele><time>2026-05-01T09:48:53.998Z</time></trkpt><trkpt lat="45.82178023377131" lon="12.532119629207413"><ele>7.666666666666667</ele><time>2026-05-01T09:48:54.997Z</time></trkpt><trkpt lat="45.82168442078635" lon="12.531906312413755"><ele>8.333333333333334</ele><time>2026-05-01T09:48:55.997Z</time></trkpt><trkpt lat="45.82159104240318" lon="12.531709404574151"><ele>9.0</ele><time>2026-05-01T09:48:57Z</time></trkpt><trkpt lat="45.82150593772776" lon="12.531525513064864"><ele>9.0</ele><time>2026-05-01T09:48:58Z</time></trkpt><trkpt lat="45.821431601043095" lon="12.53135710809066"><ele>9.0</ele><time>2026-05-01T09:48:59Z</time></trkpt><trkpt lat="45.821361613171426" lon="12.531203214378623"><ele>9.0</ele><time>2026-05-01T09:49:00Z</time></trkpt><trkpt lat="45.821304154697195" lon="12.53106793468099"><ele>9.0</ele><time>2026-05-01T09:49:01Z</time></trkpt><trkpt lat="45.82125450805559" lon="12.530948062347028"><ele>8.8</ele><time>2026-05-01T09:49:02Z</time></trkpt><trkpt lat="45.821214485859876" lon="12.530831305595376"><ele>8.600000000000001</ele><time>2026-05-01T09:49:03Z</time></trkpt><trkpt lat="45.821192664765555" lon="12.530713569696852"><ele>8.4</ele><time>2026-05-01T09:49:04Z</time></trkpt><trkpt lat="45.82119562072794" lon="12.530574042830034"><ele>8.200000000000001</ele><time>2026-05-01T09:49:05Z</time></trkpt><trkpt lat="45.82122138619648" lon="12.53041718531683"><ele>8.0</ele><time>2026-05-01T09:49:06Z</time></trkpt><trkpt lat="45.8212256474304" lon="12.530284694210618"><ele>8.0</ele><time>2026-05-01T09:49:07Z</time></trkpt><trkpt lat="45.82119166032313" lon="12.530154309893692"><ele>8.0</ele><time>2026-05-01T09:49:08Z</time></trkpt><trkpt lat="45.821144970763754" lon="12.530048282555315"><ele>8.0</ele><time>2026-05-01T09:49:09Z</time></trkpt><trkpt lat="45.821067362986774" lon="12.529963551810548"><ele>8.0</ele><time>2026-05-01T09:49:10Z</time></trkpt><trkpt lat="45.82092778141494" lon="12.529940763812649"><ele>8.0</ele><time>2026-05-01T09:49:11Z</time></trkpt><trkpt lat="45.8207938647231" lon="12.529864130768171"><ele>8.333333333333332</ele><time>2026-05-01T09:49:12Z</time></trkpt><trkpt lat="45.82067809845031" lon="12.529746294376334"><ele>8.666666666666666</ele><time>2026-05-01T09:49:13Z</time></trkpt><trkpt lat="45.82057797977311" lon="12.529588948895416"><ele>9.0</ele><time>2026-05-01T09:49:14Z</time></trkpt><trkpt lat="45.82047348017105" lon="12.529391662994705"><ele>9.333333333333334</ele><time>2026-05-01T09:49:15Z</time></trkpt><trkpt lat="45.82036515539421" lon="12.529194791852872"><ele>9.666666666666668</ele><time>2026-05-01T09:49:16Z</time></trkpt><trkpt lat="45.82025798824374" lon="12.529018645122463"><ele>10.0</ele><time>2026-05-01T09:49:17Z</time></trkpt><trkpt lat="45.820157639224995" lon="12.528862347303884"><ele>9.75</ele><time>2026-05-01T09:49:18Z</time></trkpt><trkpt lat="45.82006505218514" lon="12.528722686967246"><ele>9.5</ele><time>2026-05-01T09:49:19Z</time></trkpt><trkpt lat="45.819978562554745" lon="12.528590603809462"><ele>9.25</ele><time>2026-05-01T09:49:20Z</time></trkpt><trkpt lat="45.81989477786263" lon="12.528464385134924"><ele>9.0</ele><time>2026-05-01T09:49:20.999Z</time></trkpt><trkpt lat="45.81980621752112" lon="12.52834087379561"><ele>9.0</ele><time>2026-05-01T09:49:21.999Z</time></trkpt><trkpt lat="45.81970879244865" lon="12.528209038542721"><ele>9.0</ele><time>2026-05-01T09:49:22.999Z</time></trkpt><trkpt lat="45.81960275952648" lon="12.528062548419317"><ele>9.0</ele><time>2026-05-01T09:49:23.999Z</time></trkpt><trkpt lat="45.81949400885668" lon="12.52791049565304"><ele>9.0</ele><time>2026-05-01T09:49:24.999Z</time></trkpt><trkpt lat="45.81938166939154" lon="12.527747829695715"><ele>9.0</ele><time>2026-05-01T09:49:25.999Z</time></trkpt><trkpt lat="45.81926544851732" lon="12.527582732097688"><ele>9.0</ele><time>2026-05-01T09:49:26.999Z</time></trkpt><trkpt lat="45.81914037139309" lon="12.52740935563133"><ele>9.0</ele><time>2026-05-01T09:49:27.999Z</time></trkpt><trkpt lat="45.81901749211938" lon="12.527242767943864"><ele>9.0</ele><time>2026-05-01T09:49:28.999Z</time></trkpt><trkpt lat="45.81890463409757" lon="12.527098335838028"><ele>9.0</ele><time>2026-05-01T09:49:29.999Z</time></trkpt><trkpt lat="45.8187933270138" lon="12.526973178724077"><ele>9.0</ele><time>2026-05-01T09:49:30.999Z</time></trkpt><trkpt lat="45.81868644577879" lon="12.526862379737956"><ele>9.0</ele><time>2026-05-01T09:49:31.999Z</time></trkpt><trkpt lat="45.8185814624764" lon="12.526763462782956"><ele>10.25</ele><time>2026-05-01T09:49:32.999Z</time></trkpt><trkpt lat="45.81846462875281" lon="12.52666229674726"><ele>11.5</ele><time>2026-05-01T09:49:33.999Z</time></trkpt><trkpt lat="45.81833203602045" lon="12.52656042599358"><ele>12.75</ele><time>2026-05-01T09:49:34.999Z</time></trkpt><trkpt lat="45.818188443130836" lon="12.526466069147567"><ele>14.0</ele><time>2026-05-01T09:49:35.999Z</time></trkpt><trkpt lat="45.81803177106759" lon="12.526375576040756"><ele>14.0</ele><time>2026-05-01T09:49:36.999Z</time></trkpt><trkpt lat="45.81785915896208" lon="12.526294924523231"><ele>14.0</ele><time>2026-05-01T09:49:37.999Z</time></trkpt><trkpt lat="45.81767135400754" lon="12.526230192280403"><ele>14.0</ele><time>2026-05-01T09:49:38.999Z</time></trkpt><trkpt lat="45.81747629132159" lon="12.526161938337307"><ele>12.333333333333334</ele><time>2026-05-01T09:49:39.999Z</time></trkpt><trkpt lat="45.81726246210766" lon="12.526131109809292"><ele>10.666666666666668</ele><time>2026-05-01T09:49:40.999Z</time></trkpt><trkpt lat="45.81704433250105" lon="12.526125895054466"><ele>9.0</ele><time>2026-05-01T09:49:41.999Z</time></trkpt><trkpt lat="45.81682116523893" lon="12.5261351570806"><ele>8.5</ele><time>2026-05-01T09:49:42.999Z</time></trkpt><trkpt lat="45.816586739091065" lon="12.526144136213189"><ele>8.0</ele><time>2026-05-01T09:49:43.999Z</time></trkpt><trkpt lat="45.816342223500264" lon="12.52617560102063"><ele>8.0</ele><time>2026-05-01T09:49:44.999Z</time></trkpt><trkpt lat="45.81609646608737" lon="12.526178635478256"><ele>8.0</ele><time>2026-05-01T09:49:45.999Z</time></trkpt><trkpt lat="45.81584915925677" lon="12.526181068934726"><ele>9.5</ele><time>2026-05-01T09:49:46.999Z</time></trkpt><trkpt lat="45.81560100986195" lon="12.52618843622322"><ele>11.0</ele><time>2026-05-01T09:49:47.999Z</time></trkpt><trkpt lat="45.81535550460052" lon="12.526196162757651"><ele>10.5</ele><time>2026-05-01T09:49:48.999Z</time></trkpt><trkpt lat="45.81510982208289" lon="12.526209326372555"><ele>10.0</ele><time>2026-05-01T09:49:49.999Z</time></trkpt><trkpt lat="45.81486409764315" lon="12.526221233723849"><ele>10.0</ele><time>2026-05-01T09:49:50.999Z</time></trkpt><trkpt lat="45.814623873922216" lon="12.526227406878538"><ele>10.0</ele><time>2026-05-01T09:49:51.999Z</time></trkpt><trkpt lat="45.81438852788497" lon="12.526234521565117"><ele>10.0</ele><time>2026-05-01T09:49:52.999Z</time></trkpt><trkpt lat="45.81416355893301" lon="12.526241213300793"><ele>10.0</ele><time>2026-05-01T09:49:53.999Z</time></trkpt><trkpt lat="45.81393702018706" lon="12.526251571966649"><ele>10.0</ele><time>2026-05-01T09:49:54.999Z</time></trkpt><trkpt lat="45.813710675270066" lon="12.526261039289059"><ele>10.0</ele><time>2026-05-01T09:49:55.999Z</time></trkpt><trkpt lat="45.813486084103474" lon="12.526273259888814"><ele>9.5</ele><time>2026-05-01T09:49:56.999Z</time></trkpt><trkpt lat="45.81325819249214" lon="12.526282820250874"><ele>9.0</ele><time>2026-05-01T09:49:57.999Z</time></trkpt><trkpt lat="45.81303306435028" lon="12.526291024241779"><ele>9.0</ele><time>2026-05-01T09:49:58.999Z</time></trkpt><trkpt lat="45.81280808698356" lon="12.526297036639791"><ele>9.0</ele><time>2026-05-01T09:49:59.999Z</time></trkpt><trkpt lat="45.81258109686103" lon="12.526304775075491"><ele>9.333333333333334</ele><time>2026-05-01T09:50:00.999Z</time></trkpt><trkpt lat="45.81235818246382" lon="12.526314792940044"><ele>9.666666666666668</ele><time>2026-05-01T09:50:01.999Z</time></trkpt><trkpt lat="45.81213615528318" lon="12.52632103291276"><ele>10.0</ele><time>2026-05-01T09:50:02.999Z</time></trkpt><trkpt lat="45.81192457896056" lon="12.52632533896724"><ele>10.0</ele><time>2026-05-01T09:50:03.999Z</time></trkpt><trkpt lat="45.811727279682906" lon="12.526336192968882"><ele>10.0</ele><time>2026-05-01T09:50:04.999Z</time></trkpt><trkpt lat="45.811539012979964" lon="12.526347075011172"><ele>10.0</ele><time>2026-05-01T09:50:05.999Z</time></trkpt><trkpt lat="45.81134953878276" lon="12.5263603115908"><ele>10.0</ele><time>2026-05-01T09:50:06.999Z</time></trkpt><trkpt lat="45.81114761631005" lon="12.526374224617104"><ele>10.0</ele><time>2026-05-01T09:50:07.998Z</time></trkpt><trkpt lat="45.810932833069195" lon="12.526390379912252"><ele>10.0</ele><time>2026-05-01T09:50:08.998Z</time></trkpt><trkpt lat="45.8107173953798" lon="12.52640531622826"><ele>9.333333333333334</ele><time>2026-05-01T09:50:09.998Z</time></trkpt><trkpt lat="45.81051724779777" lon="12.526419467470605"><ele>8.666666666666666</ele><time>2026-05-01T09:50:10.998Z</time></trkpt><trkpt lat="45.81033165546066" lon="12.526433638486864"><ele>8.0</ele><time>2026-05-01T09:50:11.998Z</time></trkpt><trkpt lat="45.81015279717186" lon="12.526450800708723"><ele>8.0</ele><time>2026-05-01T09:50:12.998Z</time></trkpt><trkpt lat="45.8099831798523" lon="12.526467555139133"><ele>8.0</ele><time>2026-05-01T09:50:13.998Z</time></trkpt><trkpt lat="45.80982034885049" lon="12.526486106611909"><ele>8.0</ele><time>2026-05-01T09:50:14.998Z</time></trkpt><trkpt lat="45.80966555533762" lon="12.526498862335377"><ele>8.0</ele><time>2026-05-01T09:50:15.998Z</time></trkpt><trkpt lat="45.8095050604134" lon="12.526510108489136"><ele>8.0</ele><time>2026-05-01T09:50:16.998Z</time></trkpt><trkpt lat="45.809343261909085" lon="12.526520734886157"><ele>8.0</ele><time>2026-05-01T09:50:17.998Z</time></trkpt><trkpt lat="45.80919560660113" lon="12.526531081017987"><ele>7.75</ele><time>2026-05-01T09:50:18.998Z</time></trkpt><trkpt lat="45.80905607789087" lon="12.526544158003963"><ele>7.5</ele><time>2026-05-01T09:50:19.998Z</time></trkpt><trkpt lat="45.80892578424168" lon="12.526554637235757"><ele>7.25</ele><time>2026-05-01T09:50:20.998Z</time></trkpt><trkpt lat="45.80879988342993" lon="12.526563101220171"><ele>7.0</ele><time>2026-05-01T09:50:21.998Z</time></trkpt><trkpt lat="45.80868922803408" lon="12.526568839486032"><ele>7.0</ele><time>2026-05-01T09:50:22.998Z</time></trkpt><trkpt lat="45.8085894239544" lon="12.526562304819919"><ele>6.999999999999999</ele><time>2026-05-01T09:50:23.998Z</time></trkpt><trkpt lat="45.80849171705411" lon="12.526532983051638"><ele>6.999999999999999</ele><time>2026-05-01T09:50:24.998Z</time></trkpt><trkpt lat="45.80840071115354" lon="12.526472738418873"><ele>7.0</ele><time>2026-05-01T09:50:25.998Z</time></trkpt><trkpt lat="45.80831517678614" lon="12.52637902153883"><ele>7.0</ele><time>2026-05-01T09:50:26.998Z</time></trkpt><trkpt lat="45.80822665948831" lon="12.526301412493948"><ele>7.0</ele><time>2026-05-01T09:50:27.998Z</time></trkpt><trkpt lat="45.80813753764028" lon="12.52624768353437"><ele>6.999999999999999</ele><time>2026-05-01T09:50:28.998Z</time></trkpt><trkpt lat="45.808042801741635" lon="12.526227453462887"><ele>6.999999999999999</ele><time>2026-05-01T09:50:29.998Z</time></trkpt><trkpt lat="45.80793797864222" lon="12.526343522140921"><ele>7.0</ele><time>2026-05-01T09:50:30.998Z</time></trkpt><trkpt lat="45.807835415073285" lon="12.526438584306346"><ele>7.0</ele><time>2026-05-01T09:50:31.998Z</time></trkpt><trkpt lat="45.807718223999274" lon="12.52652763834339"><ele>6.5</ele><time>2026-05-01T09:50:32.998Z</time></trkpt><trkpt lat="45.807585676014014" lon="12.526554444394026"><ele>6.0</ele><time>2026-05-01T09:50:33.998Z</time></trkpt><trkpt lat="45.80744043784629" lon="12.526537839312267"><ele>5.5</ele><time>2026-05-01T09:50:34.998Z</time></trkpt><trkpt lat="45.807285894451496" lon="12.526501939057946"><ele>5.0</ele><time>2026-05-01T09:50:35.998Z</time></trkpt><trkpt lat="45.80712085599152" lon="12.526450402918545"><ele>5.0</ele><time>2026-05-01T09:50:36.998Z</time></trkpt><trkpt lat="45.80694666258732" lon="12.526380093808111"><ele>5.0</ele><time>2026-05-01T09:50:37.998Z</time></trkpt><trkpt lat="45.80677639709942" lon="12.526299391054607"><ele>5.0</ele><time>2026-05-01T09:50:38.998Z</time></trkpt><trkpt lat="45.8066140942295" lon="12.526216614926907"><ele>5.666666666666667</ele><time>2026-05-01T09:50:39.998Z</time></trkpt><trkpt lat="45.80646224672602" lon="12.526132500195292"><ele>6.333333333333334</ele><time>2026-05-01T09:50:40.998Z</time></trkpt><trkpt lat="45.80632151988504" lon="12.526039882540633"><ele>7.0</ele><time>2026-05-01T09:50:41.998Z</time></trkpt><trkpt lat="45.80618182110539" lon="12.525941683484954"><ele>7.0</ele><time>2026-05-01T09:50:42.998Z</time></trkpt><trkpt lat="45.80602916034148" lon="12.525830142138727"><ele>7.0</ele><time>2026-05-01T09:50:43.998Z</time></trkpt><trkpt lat="45.805862988063616" lon="12.525697336330742"><ele>7.0</ele><time>2026-05-01T09:50:44.998Z</time></trkpt><trkpt lat="45.80569208160714" lon="12.525536729663514"><ele>7.666666666666667</ele><time>2026-05-01T09:50:45.998Z</time></trkpt><trkpt lat="45.805523086282925" lon="12.525355861977863"><ele>8.333333333333334</ele><time>2026-05-01T09:50:46.998Z</time></trkpt><trkpt lat="45.80536484265252" lon="12.525171950793474"><ele>9.0</ele><time>2026-05-01T09:50:47.998Z</time></trkpt><trkpt lat="45.80521202971558" lon="12.524984196625091"><ele>9.333333333333334</ele><time>2026-05-01T09:50:48.998Z</time></trkpt><trkpt lat="45.80506349233952" lon="12.524787987175358"><ele>9.666666666666668</ele><time>2026-05-01T09:50:49.998Z</time></trkpt><trkpt lat="45.80490864680081" lon="12.524580896783402"><ele>10.0</ele><time>2026-05-01T09:50:50.998Z</time></trkpt><trkpt lat="45.80475093452366" lon="12.524378463708127"><ele>10.0</ele><time>2026-05-01T09:50:51.998Z</time></trkpt><trkpt lat="45.80458743997514" lon="12.524179369613545"><ele>10.0</ele><time>2026-05-01T09:50:52.998Z</time></trkpt><trkpt lat="45.80442447687429" lon="12.523946669737066"><ele>10.0</ele><time>2026-05-01T09:50:53.998Z</time></trkpt><trkpt lat="45.80423548752322" lon="12.523702650760518"><ele>10.0</ele><time>2026-05-01T09:50:54.998Z</time></trkpt><trkpt lat="45.8040405122218" lon="12.52345120747815"><ele>10.0</ele><time>2026-05-01T09:50:55.998Z</time></trkpt><trkpt lat="45.803828106163515" lon="12.52317979289975"><ele>10.0</ele><time>2026-05-01T09:50:56.998Z</time></trkpt><trkpt lat="45.803597125865494" lon="12.522914092603772"><ele>10.0</ele><time>2026-05-01T09:50:57.997Z</time></trkpt><trkpt lat="45.80337249315841" lon="12.522611794631006"><ele>9.0</ele><time>2026-05-01T09:50:58.997Z</time></trkpt><trkpt lat="45.803152723515524" lon="12.522322675414795"><ele>8.0</ele><time>2026-05-01T09:50:59.997Z</time></trkpt><trkpt lat="45.80294421703405" lon="12.522049744678716"><ele>8.0</ele><time>2026-05-01T09:51:00.997Z</time></trkpt><trkpt lat="45.802739732475374" lon="12.521781804228077"><ele>8.0</ele><time>2026-05-01T09:51:01.997Z</time></trkpt><trkpt lat="45.8025339910349" lon="12.521512084686892"><ele>9.0</ele><time>2026-05-01T09:51:03Z</time></trkpt><trkpt lat="45.80232657256915" lon="12.521244691025919"><ele>10.0</ele><time>2026-05-01T09:51:04Z</time></trkpt><trkpt lat="45.80211825300655" lon="12.520974515872624"><ele>10.0</ele><time>2026-05-01T09:51:05Z</time></trkpt><trkpt lat="45.801908241065824" lon="12.52070297540226"><ele>10.0</ele><time>2026-05-01T09:51:06Z</time></trkpt><trkpt lat="45.801703596002376" lon="12.520440040203937"><ele>10.0</ele><time>2026-05-01T09:51:07Z</time></trkpt><trkpt lat="45.80151122212529" lon="12.520191067154709"><ele>10.0</ele><time>2026-05-01T09:51:08Z</time></trkpt><trkpt lat="45.8013209719474" lon="12.519948063065106"><ele>10.0</ele><time>2026-05-01T09:51:09Z</time></trkpt><trkpt lat="45.80113340463286" lon="12.519707173112366"><ele>10.0</ele><time>2026-05-01T09:51:10Z</time></trkpt><trkpt lat="45.80095080609089" lon="12.519467205552044"><ele>10.5</ele><time>2026-05-01T09:51:11Z</time></trkpt><trkpt lat="45.80076822638869" lon="12.519229003648762"><ele>11.0</ele><time>2026-05-01T09:51:12Z</time></trkpt><trkpt lat="45.80058482821268" lon="12.518992604860035"><ele>11.0</ele><time>2026-05-01T09:51:13Z</time></trkpt><trkpt lat="45.80040142577557" lon="12.518760036258602"><ele>11.0</ele><time>2026-05-01T09:51:14Z</time></trkpt><trkpt lat="45.80021558996325" lon="12.518524981400022"><ele>11.5</ele><time>2026-05-01T09:51:15Z</time></trkpt><trkpt lat="45.800030044747" lon="12.518283291124364"><ele>12.0</ele><time>2026-05-01T09:51:16Z</time></trkpt><trkpt lat="45.79984155810062" lon="12.518036706505075"><ele>11.0</ele><time>2026-05-01T09:51:17Z</time></trkpt><trkpt lat="45.79965212562273" lon="12.517785707736053"><ele>10.0</ele><time>2026-05-01T09:51:18Z</time></trkpt><trkpt lat="45.799462724095086" lon="12.51753052443829"><ele>10.0</ele><time>2026-05-01T09:51:19Z</time></trkpt><trkpt lat="45.7992868092968" lon="12.517283028637397"><ele>10.0</ele><time>2026-05-01T09:51:20Z</time></trkpt><trkpt lat="45.79912106951763" lon="12.51704956980037"><ele>10.333333333333334</ele><time>2026-05-01T09:51:21Z</time></trkpt><trkpt lat="45.79896761366753" lon="12.51682187276715"><ele>10.666666666666666</ele><time>2026-05-01T09:51:22Z</time></trkpt><trkpt lat="45.79881437180132" lon="12.516591072223651"><ele>11.0</ele><time>2026-05-01T09:51:23Z</time></trkpt><trkpt lat="45.798660202096166" lon="12.516357885969892"><ele>11.333333333333332</ele><time>2026-05-01T09:51:24Z</time></trkpt><trkpt lat="45.798505938171544" lon="12.51612649891801"><ele>11.666666666666666</ele><time>2026-05-01T09:51:24.999Z</time></trkpt><trkpt lat="45.79840626730836" lon="12.51598487412378"><ele>12.0</ele><time>2026-05-01T09:51:25.999Z</time></trkpt><trkpt lat="45.798280610055826" lon="12.515805259349866"><ele>11.666666666666666</ele><time>2026-05-01T09:51:26.999Z</time></trkpt><trkpt lat="45.798163212341834" lon="12.515635111856039"><ele>11.333333333333332</ele><time>2026-05-01T09:51:27.999Z</time></trkpt><trkpt lat="45.798037097761885" lon="12.51545129789779"><ele>11.0</ele><time>2026-05-01T09:51:28.999Z</time></trkpt><trkpt lat="45.79789551032738" lon="12.5152417319163"><ele>11.0</ele><time>2026-05-01T09:51:29.999Z</time></trkpt><trkpt lat="45.797754688619584" lon="12.515042772555034"><ele>11.0</ele><time>2026-05-01T09:51:30.999Z</time></trkpt><trkpt lat="45.79761382081129" lon="12.514852267021189"><ele>11.0</ele><time>2026-05-01T09:51:31.999Z</time></trkpt><trkpt lat="45.79747926540682" lon="12.514657894637331"><ele>11.0</ele><time>2026-05-01T09:51:32.999Z</time></trkpt><trkpt lat="45.79734880651637" lon="12.51445344126357"><ele>11.0</ele><time>2026-05-01T09:51:33.999Z</time></trkpt><trkpt lat="45.797221318199135" lon="12.51425425975349"><ele>11.0</ele><time>2026-05-01T09:51:34.999Z</time></trkpt><trkpt lat="45.7970932592761" lon="12.51406379433484"><ele>11.0</ele><time>2026-05-01T09:51:35.999Z</time></trkpt><trkpt lat="45.79697012784553" lon="12.513887873775612"><ele>11.0</ele><time>2026-05-01T09:51:36.999Z</time></trkpt><trkpt lat="45.796854947843066" lon="12.513731213338577"><ele>11.0</ele><time>2026-05-01T09:51:37.999Z</time></trkpt><trkpt lat="45.79674738361427" lon="12.513577546361033"><ele>11.0</ele><time>2026-05-01T09:51:38.999Z</time></trkpt><trkpt lat="45.796651997392935" lon="12.513427487054306"><ele>11.0</ele><time>2026-05-01T09:51:39.999Z</time></trkpt><trkpt lat="45.796562325914856" lon="12.513289455992394"><ele>11.0</ele><time>2026-05-01T09:51:40.999Z</time></trkpt><trkpt lat="45.79646872454996" lon="12.513157012696126"><ele>11.0</ele><time>2026-05-01T09:51:41.999Z</time></trkpt><trkpt lat="45.796373611477165" lon="12.51302299351748"><ele>11.0</ele><time>2026-05-01T09:51:42.999Z</time></trkpt><trkpt lat="45.79629620444789" lon="12.51289494471761"><ele>11.0</ele><time>2026-05-01T09:51:43.999Z</time></trkpt><trkpt lat="45.79622829500776" lon="12.512784074805046"><ele>11.0</ele><time>2026-05-01T09:51:44.999Z</time></trkpt><trkpt lat="45.796187783189716" lon="12.512712643469868"><ele>11.0</ele><time>2026-05-01T09:51:45.999Z</time></trkpt><trkpt lat="45.79614255252765" lon="12.51259005620646"><ele>11.0</ele><time>2026-05-01T09:51:47.999Z</time></trkpt><trkpt lat="45.796150225775875" lon="12.512494863716338"><ele>11.0</ele><time>2026-05-01T09:51:48.999Z</time></trkpt><trkpt lat="45.79616050655066" lon="12.51238405407157"><ele>11.0</ele><time>2026-05-01T09:51:49.999Z</time></trkpt><trkpt lat="45.79617377111828" lon="12.512272656205175"><ele>11.0</ele><time>2026-05-01T09:51:50.999Z</time></trkpt><trkpt lat="45.796173623677475" lon="12.51217325500229"><ele>11.0</ele><time>2026-05-01T09:51:51.999Z</time></trkpt><trkpt lat="45.796156871981694" lon="12.512081565875258"><ele>11.0</ele><time>2026-05-01T09:51:52.999Z</time></trkpt><trkpt lat="45.79612566622204" lon="12.511985205383068"><ele>11.0</ele><time>2026-05-01T09:51:53.999Z</time></trkpt><trkpt lat="45.79608167863492" lon="12.511894117171192"><ele>11.0</ele><time>2026-05-01T09:51:54.999Z</time></trkpt><trkpt lat="45.79602291878814" lon="12.511806297112678"><ele>10.600000000000001</ele><time>2026-05-01T09:51:55.999Z</time></trkpt><trkpt lat="45.79594940877594" lon="12.511740378767756"><ele>10.200000000000001</ele><time>2026-05-01T09:51:56.999Z</time></trkpt><trkpt lat="45.79585752791561" lon="12.511693518475894"><ele>9.8</ele><time>2026-05-01T09:51:57.999Z</time></trkpt><trkpt lat="45.795764503095555" lon="12.511666836687143"><ele>9.4</ele><time>2026-05-01T09:51:58.999Z</time></trkpt><trkpt lat="45.795668293494074" lon="12.51163556891887"><ele>9.0</ele><time>2026-05-01T09:51:59.999Z</time></trkpt><trkpt lat="45.795579778195986" lon="12.511587650125723"><ele>9.0</ele><time>2026-05-01T09:52:00.999Z</time></trkpt><trkpt lat="45.79549418757756" lon="12.511507236997305"><ele>9.0</ele><time>2026-05-01T09:52:01.999Z</time></trkpt><trkpt lat="45.79541357212753" lon="12.51140169975866"><ele>9.0</ele><time>2026-05-01T09:52:02.999Z</time></trkpt><trkpt lat="45.79533746680693" lon="12.511273601440113"><ele>9.0</ele><time>2026-05-01T09:52:03.999Z</time></trkpt><trkpt lat="45.795260082639565" lon="12.51112980453916"><ele>9.5</ele><time>2026-05-01T09:52:04.999Z</time></trkpt><trkpt lat="45.79517910349374" lon="12.510987508096932"><ele>10.0</ele><time>2026-05-01T09:52:05.999Z</time></trkpt><trkpt lat="45.79509485571742" lon="12.510842527151976"><ele>10.5</ele><time>2026-05-01T09:52:06.999Z</time></trkpt><trkpt lat="45.79500677146281" lon="12.510686243079165"><ele>11.0</ele><time>2026-05-01T09:52:07.999Z</time></trkpt><trkpt lat="45.79491270552371" lon="12.510527401626698"><ele>11.0</ele><time>2026-05-01T09:52:08.999Z</time></trkpt><trkpt lat="45.794813229319395" lon="12.51035648396782"><ele>11.0</ele><time>2026-05-01T09:52:09.999Z</time></trkpt><trkpt lat="45.79471693579558" lon="12.510183150400062"><ele>11.0</ele><time>2026-05-01T09:52:10.999Z</time></trkpt><trkpt lat="45.79462108135249" lon="12.510010689567828"><ele>11.0</ele><time>2026-05-01T09:52:11.999Z</time></trkpt><trkpt lat="45.794516558322776" lon="12.50982951396618"><ele>11.0</ele><time>2026-05-01T09:52:12.998Z</time></trkpt><trkpt lat="45.794404821472895" lon="12.509637285653852"><ele>11.0</ele><time>2026-05-01T09:52:13.998Z</time></trkpt><trkpt lat="45.79427202520869" lon="12.50942413722544"><ele>10.0</ele><time>2026-05-01T09:52:14.998Z</time></trkpt><trkpt lat="45.79411330023023" lon="12.509169777632748"><ele>9.0</ele><time>2026-05-01T09:52:15.998Z</time></trkpt><trkpt lat="45.793956459382805" lon="12.50889349547513"><ele>9.0</ele><time>2026-05-01T09:52:16.998Z</time></trkpt><trkpt lat="45.793799159651776" lon="12.508602214191983"><ele>9.0</ele><time>2026-05-01T09:52:17.998Z</time></trkpt><trkpt lat="45.79363381485074" lon="12.50829842710295"><ele>9.0</ele><time>2026-05-01T09:52:18.998Z</time></trkpt><trkpt lat="45.793475074076014" lon="12.508012117842116"><ele>9.0</ele><time>2026-05-01T09:52:19.998Z</time></trkpt><trkpt lat="45.79332592003891" lon="12.507746401476211"><ele>8.666666666666666</ele><time>2026-05-01T09:52:20.998Z</time></trkpt><trkpt lat="45.79318926538437" lon="12.507504847330663"><ele>8.333333333333332</ele><time>2026-05-01T09:52:21.998Z</time></trkpt><trkpt lat="45.79305964928488" lon="12.507271799852205"><ele>8.0</ele><time>2026-05-01T09:52:22.998Z</time></trkpt><trkpt lat="45.79293751975296" lon="12.507050811253569"><ele>8.0</ele><time>2026-05-01T09:52:23.998Z</time></trkpt><trkpt lat="45.79281640594663" lon="12.506837500686846"><ele>8.0</ele><time>2026-05-01T09:52:24.998Z</time></trkpt><trkpt lat="45.79269492543991" lon="12.506627939520843"><ele>8.0</ele><time>2026-05-01T09:52:25.998Z</time></trkpt><trkpt lat="45.79257185598668" lon="12.506432049286232"><ele>8.333333333333332</ele><time>2026-05-01T09:52:26.998Z</time></trkpt><trkpt lat="45.792450767107646" lon="12.506256979431075"><ele>8.666666666666666</ele><time>2026-05-01T09:52:27.998Z</time></trkpt><trkpt lat="45.79233059441244" lon="12.506097288505975"><ele>9.0</ele><time>2026-05-01T09:52:28.998Z</time></trkpt><trkpt lat="45.7922023071405" lon="12.505947142067264"><ele>9.0</ele><time>2026-05-01T09:52:29.998Z</time></trkpt><trkpt lat="45.79206603962213" lon="12.505809349179453"><ele>9.0</ele><time>2026-05-01T09:52:30.998Z</time></trkpt><trkpt lat="45.79191779409336" lon="12.50569148506812"><ele>9.0</ele><time>2026-05-01T09:52:31.998Z</time></trkpt><trkpt lat="45.79175797055304" lon="12.505583843366614"><ele>9.333333333333334</ele><time>2026-05-01T09:52:32.998Z</time></trkpt><trkpt lat="45.79158490636757" lon="12.505486507382306"><ele>9.666666666666668</ele><time>2026-05-01T09:52:33.998Z</time></trkpt><trkpt lat="45.7913984416617" lon="12.505400216226558"><ele>10.0</ele><time>2026-05-01T09:52:34.998Z</time></trkpt><trkpt lat="45.791189036769815" lon="12.505325004166895"><ele>10.5</ele><time>2026-05-01T09:52:35.998Z</time></trkpt><trkpt lat="45.79096220253929" lon="12.505265419183209"><ele>11.0</ele><time>2026-05-01T09:52:36.998Z</time></trkpt><trkpt lat="45.79072765001924" lon="12.505209334378629"><ele>11.0</ele><time>2026-05-01T09:52:37.998Z</time></trkpt><trkpt lat="45.790497253391315" lon="12.505153663499344"><ele>11.0</ele><time>2026-05-01T09:52:38.998Z</time></trkpt><trkpt lat="45.79027965905759" lon="12.505101095321004"><ele>10.666666666666666</ele><time>2026-05-01T09:52:39.998Z</time></trkpt><trkpt lat="45.79008423455796" lon="12.505052815862866"><ele>10.333333333333334</ele><time>2026-05-01T09:52:40.998Z</time></trkpt><trkpt lat="45.78989562266235" lon="12.505009151728743"><ele>10.0</ele><time>2026-05-01T09:52:41.998Z</time></trkpt><trkpt lat="45.7897156581158" lon="12.504967185478497"><ele>10.0</ele><time>2026-05-01T09:52:42.998Z</time></trkpt><trkpt lat="45.789541882262014" lon="12.504926268470745"><ele>10.0</ele><time>2026-05-01T09:52:43.998Z</time></trkpt><trkpt lat="45.78937563145054" lon="12.504888799770901"><ele>10.0</ele><time>2026-05-01T09:52:44.998Z</time></trkpt><trkpt lat="45.789215532561265" lon="12.504849772458215"><ele>10.25</ele><time>2026-05-01T09:52:45.998Z</time></trkpt><trkpt lat="45.78907113596074" lon="12.50481351964102"><ele>10.5</ele><time>2026-05-01T09:52:46.998Z</time></trkpt><trkpt lat="45.78893621947823" lon="12.504774135487716"><ele>10.75</ele><time>2026-05-01T09:52:47.998Z</time></trkpt><trkpt lat="45.788808351267676" lon="12.504734366671354"><ele>11.0</ele><time>2026-05-01T09:52:48.998Z</time></trkpt><trkpt lat="45.78868490094542" lon="12.504694122736177"><ele>11.0</ele><time>2026-05-01T09:52:49.998Z</time></trkpt><trkpt lat="45.788554599738546" lon="12.504631811807371"><ele>11.0</ele><time>2026-05-01T09:52:50.998Z</time></trkpt><trkpt lat="45.788403806506714" lon="12.504588131450358"><ele>11.0</ele><time>2026-05-01T09:52:51.998Z</time></trkpt><trkpt lat="45.78827497781043" lon="12.504413214163925"><ele>10.0</ele><time>2026-05-01T09:52:52.998Z</time></trkpt><trkpt lat="45.78811590451894" lon="12.504273073198485"><ele>9.0</ele><time>2026-05-01T09:52:53.998Z</time></trkpt><trkpt lat="45.78795899292104" lon="12.504130717230959"><ele>8.0</ele><time>2026-05-01T09:52:54.998Z</time></trkpt><trkpt lat="45.787813020239135" lon="12.503998844991811"><ele>8.0</ele><time>2026-05-01T09:52:55.998Z</time></trkpt><trkpt lat="45.7876755165714" lon="12.503872249606163"><ele>8.0</ele><time>2026-05-01T09:52:56.998Z</time></trkpt><trkpt lat="45.78754881835218" lon="12.503749488724413"><ele>8.0</ele><time>2026-05-01T09:52:57.998Z</time></trkpt><trkpt lat="45.78743548383665" lon="12.503622647714536"><ele>7.75</ele><time>2026-05-01T09:52:58.998Z</time></trkpt><trkpt lat="45.78733400391352" lon="12.503488291873662"><ele>7.5</ele><time>2026-05-01T09:52:59.998Z</time></trkpt><trkpt lat="45.787239375704495" lon="12.503345790700687"><ele>7.25</ele><time>2026-05-01T09:53:00.998Z</time></trkpt><trkpt lat="45.78714399915287" lon="12.503202579442673"><ele>7.0</ele><time>2026-05-01T09:53:01.998Z</time></trkpt><trkpt lat="45.787049423120266" lon="12.503061913177056"><ele>7.0</ele><time>2026-05-01T09:53:02.997Z</time></trkpt><trkpt lat="45.78696812227182" lon="12.50294084508636"><ele>6.999999999999999</ele><time>2026-05-01T09:53:03.997Z</time></trkpt><trkpt lat="45.786890620654624" lon="12.502827354592728"><ele>6.999999999999999</ele><time>2026-05-01T09:53:04.997Z</time></trkpt><trkpt lat="45.78682818270461" lon="12.502727003248525"><ele>7.0</ele><time>2026-05-01T09:53:05.997Z</time></trkpt><trkpt lat="45.78678919312469" lon="12.502632284032847"><ele>7.0</ele><time>2026-05-01T09:53:06.997Z</time></trkpt><trkpt lat="45.78677456299364" lon="12.502491375729123"><ele>7.3999999999999995</ele><time>2026-05-01T09:53:09Z</time></trkpt><trkpt lat="45.78678994353297" lon="12.502359348380093"><ele>7.799999999999999</ele><time>2026-05-01T09:53:11Z</time></trkpt><trkpt lat="45.786752645980144" lon="12.502207759157589"><ele>8.2</ele><time>2026-05-01T09:53:13Z</time></trkpt><trkpt lat="45.78664018364601" lon="12.502123786443427"><ele>8.6</ele><time>2026-05-01T09:53:15Z</time></trkpt><trkpt lat="45.78655355446558" lon="12.502109564791505"><ele>9.0</ele><time>2026-05-01T09:53:16Z</time></trkpt><trkpt lat="45.78645346537938" lon="12.502079814506153"><ele>9.2</ele><time>2026-05-01T09:53:17Z</time></trkpt><trkpt lat="45.78634855100053" lon="12.502010795222361"><ele>9.4</ele><time>2026-05-01T09:53:18Z</time></trkpt><trkpt lat="45.78625577094323" lon="12.501921572919207"><ele>9.6</ele><time>2026-05-01T09:53:19Z</time></trkpt><trkpt lat="45.786173066433435" lon="12.501826554440512"><ele>9.8</ele><time>2026-05-01T09:53:20Z</time></trkpt><trkpt lat="45.786089547196816" lon="12.50172661855027"><ele>10.0</ele><time>2026-05-01T09:53:21Z</time></trkpt><trkpt lat="45.78600918108215" lon="12.501619751655369"><ele>10.25</ele><time>2026-05-01T09:53:22Z</time></trkpt><trkpt lat="45.785923366084525" lon="12.501507010160791"><ele>10.5</ele><time>2026-05-01T09:53:23Z</time></trkpt><trkpt lat="45.7858348088887" lon="12.501385335016856"><ele>10.75</ele><time>2026-05-01T09:53:24Z</time></trkpt><trkpt lat="45.78574588869214" lon="12.501262570873225"><ele>11.0</ele><time>2026-05-01T09:53:25Z</time></trkpt><trkpt lat="45.78565521944068" lon="12.50113791782665"><ele>11.600000000000001</ele><time>2026-05-01T09:53:26Z</time></trkpt><trkpt lat="45.785572786061884" lon="12.501024914652552"><ele>12.2</ele><time>2026-05-01T09:53:27Z</time></trkpt><trkpt lat="45.78549405719982" lon="12.50091898462544"><ele>12.799999999999999</ele><time>2026-05-01T09:53:27.999Z</time></trkpt><trkpt lat="45.7854258992803" lon="12.50081786822187"><ele>13.399999999999999</ele><time>2026-05-01T09:53:28.999Z</time></trkpt><trkpt lat="45.785363420197015" lon="12.5007189584646"><ele>14.0</ele><time>2026-05-01T09:53:29.999Z</time></trkpt><trkpt lat="45.78529287055375" lon="12.500628346556686"><ele>14.0</ele><time>2026-05-01T09:53:30.999Z</time></trkpt><trkpt lat="45.78521592496796" lon="12.50056357849591"><ele>13.999999999999998</ele><time>2026-05-01T09:53:31.999Z</time></trkpt><trkpt lat="45.785127882190004" lon="12.500520094638672"><ele>13.999999999999998</ele><time>2026-05-01T09:53:32.999Z</time></trkpt><trkpt lat="45.7850351512893" lon="12.500469393464014"><ele>14.0</ele><time>2026-05-01T09:53:33.999Z</time></trkpt><trkpt lat="45.78492634851181" lon="12.500384225779996"><ele>14.0</ele><time>2026-05-01T09:53:34.999Z</time></trkpt><trkpt lat="45.78480477707977" lon="12.50025264695846"><ele>14.0</ele><time>2026-05-01T09:53:35.999Z</time></trkpt><trkpt lat="45.7846885244445" lon="12.50011680137363"><ele>14.0</ele><time>2026-05-01T09:53:36.999Z</time></trkpt><trkpt lat="45.78457290128514" lon="12.499988241107348"><ele>14.0</ele><time>2026-05-01T09:53:37.999Z</time></trkpt><trkpt lat="45.78445574557778" lon="12.499864576774481"><ele>14.0</ele><time>2026-05-01T09:53:38.999Z</time></trkpt><trkpt lat="45.78434028081012" lon="12.499740186182379"><ele>13.5</ele><time>2026-05-01T09:53:39.999Z</time></trkpt><trkpt lat="45.78422937338316" lon="12.49962264226371"><ele>13.0</ele><time>2026-05-01T09:53:40.999Z</time></trkpt><trkpt lat="45.78412992519811" lon="12.499519325688626"><ele>12.5</ele><time>2026-05-01T09:53:41.999Z</time></trkpt><trkpt lat="45.78403802574247" lon="12.499433347898474"><ele>12.0</ele><time>2026-05-01T09:53:42.999Z</time></trkpt><trkpt lat="45.783945183795254" lon="12.499360420345068"><ele>12.0</ele><time>2026-05-01T09:53:43.999Z</time></trkpt><trkpt lat="45.78385246214869" lon="12.499297409516778"><ele>12.0</ele><time>2026-05-01T09:53:44.999Z</time></trkpt><trkpt lat="45.78376538012804" lon="12.499244296996466"><ele>12.0</ele><time>2026-05-01T09:53:45.999Z</time></trkpt><trkpt lat="45.78368397663705" lon="12.499200665711586"><ele>12.0</ele><time>2026-05-01T09:53:46.999Z</time></trkpt><trkpt lat="45.78361130606186" lon="12.499170806547921"><ele>12.0</ele><time>2026-05-01T09:53:47.999Z</time></trkpt><trkpt lat="45.7835457590128" lon="12.499142554327868"><ele>12.0</ele><time>2026-05-01T09:53:48.999Z</time></trkpt><trkpt lat="45.7834802283383" lon="12.499104889359854"><ele>11.571428571428571</ele><time>2026-05-01T09:53:49.999Z</time></trkpt><trkpt lat="45.78340858623118" lon="12.499069558475473"><ele>11.142857142857142</ele><time>2026-05-01T09:53:50.999Z</time></trkpt><trkpt lat="45.78333881312317" lon="12.49906799585001"><ele>10.714285714285715</ele><time>2026-05-01T09:53:51.999Z</time></trkpt><trkpt lat="45.78327490753743" lon="12.499092103885607"><ele>10.285714285714285</ele><time>2026-05-01T09:53:52.999Z</time></trkpt><trkpt lat="45.78321029125298" lon="12.499124173178139"><ele>9.857142857142858</ele><time>2026-05-01T09:53:53.999Z</time></trkpt><trkpt lat="45.78313638449794" lon="12.499136508700163"><ele>9.428571428571429</ele><time>2026-05-01T09:53:54.999Z</time></trkpt><trkpt lat="45.78305959698879" lon="12.499135634930175"><ele>9.0</ele><time>2026-05-01T09:53:55.999Z</time></trkpt><trkpt lat="45.782977832400356" lon="12.499130538899008"><ele>9.0</ele><time>2026-05-01T09:53:56.999Z</time></trkpt><trkpt lat="45.782887046477676" lon="12.499121778994683"><ele>9.0</ele><time>2026-05-01T09:53:57.999Z</time></trkpt><trkpt lat="45.78279387092129" lon="12.499110974803356"><ele>9.0</ele><time>2026-05-01T09:53:58.999Z</time></trkpt><trkpt lat="45.782702313697676" lon="12.499097440316339"><ele>9.0</ele><time>2026-05-01T09:53:59.999Z</time></trkpt><trkpt lat="45.782607652586854" lon="12.49908479598251"><ele>9.0</ele><time>2026-05-01T09:54:00.999Z</time></trkpt><trkpt lat="45.782502300227975" lon="12.499071093038122"><ele>9.25</ele><time>2026-05-01T09:54:01.999Z</time></trkpt><trkpt lat="45.782389400292374" lon="12.499062124215916"><ele>9.5</ele><time>2026-05-01T09:54:02.999Z</time></trkpt><trkpt lat="45.78227726040146" lon="12.499047289974156"><ele>9.75</ele><time>2026-05-01T09:54:03.999Z</time></trkpt><trkpt lat="45.78216274881748" lon="12.499033589674463"><ele>10.0</ele><time>2026-05-01T09:54:04.999Z</time></trkpt><trkpt lat="45.78204669261342" lon="12.499020341224451"><ele>10.0</ele><time>2026-05-01T09:54:05.999Z</time></trkpt><trkpt lat="45.781931565666014" lon="12.499004758792397"><ele>10.0</ele><time>2026-05-01T09:54:06.999Z</time></trkpt><trkpt lat="45.781822497221796" lon="12.498988604736702"><ele>10.0</ele><time>2026-05-01T09:54:07.999Z</time></trkpt><trkpt lat="45.781717287104684" lon="12.498968895518262"><ele>10.0</ele><time>2026-05-01T09:54:08.999Z</time></trkpt><trkpt lat="45.78161484114164" lon="12.498943703811833"><ele>10.0</ele><time>2026-05-01T09:54:09.999Z</time></trkpt><trkpt lat="45.781513626032705" lon="12.498909184773952"><ele>10.0</ele><time>2026-05-01T09:54:10.999Z</time></trkpt><trkpt lat="45.781413082317876" lon="12.498862617041901"><ele>10.0</ele><time>2026-05-01T09:54:11.999Z</time></trkpt><trkpt lat="45.78131456273802" lon="12.498806074963998"><ele>10.0</ele><time>2026-05-01T09:54:12.999Z</time></trkpt><trkpt lat="45.781222843649104" lon="12.498747606024294"><ele>10.0</ele><time>2026-05-01T09:54:13.999Z</time></trkpt><trkpt lat="45.78112962565855" lon="12.49868069394027"><ele>10.0</ele><time>2026-05-01T09:54:14.998Z</time></trkpt><trkpt lat="45.78103424834874" lon="12.498604381953587"><ele>9.8</ele><time>2026-05-01T09:54:15.998Z</time></trkpt><trkpt lat="45.780938871979" lon="12.498522284832593"><ele>9.6</ele><time>2026-05-01T09:54:16.998Z</time></trkpt><trkpt lat="45.780843385016176" lon="12.498435893992168"><ele>9.4</ele><time>2026-05-01T09:54:17.998Z</time></trkpt><trkpt lat="45.78075594192194" lon="12.498355342869205"><ele>9.2</ele><time>2026-05-01T09:54:18.998Z</time></trkpt><trkpt lat="45.78067534067489" lon="12.498279065682087"><ele>9.0</ele><time>2026-05-01T09:54:19.998Z</time></trkpt><trkpt lat="45.780602002264445" lon="12.498208092363448"><ele>9.000000000000002</ele><time>2026-05-01T09:54:20.998Z</time></trkpt><trkpt lat="45.78054134183425" lon="12.49814412957184"><ele>9.0</ele><time>2026-05-01T09:54:21.998Z</time></trkpt><trkpt lat="45.780488196852794" lon="12.498085397622836"><ele>9.0</ele><time>2026-05-01T09:54:22.998Z</time></trkpt><trkpt lat="45.78043913488745" lon="12.498027167273436"><ele>9.0</ele><time>2026-05-01T09:54:23.998Z</time></trkpt><trkpt lat="45.78038449957541" lon="12.497955162421706"><ele>9.0</ele><time>2026-05-01T09:54:25.998Z</time></trkpt><trkpt lat="45.78033129473604" lon="12.49788745418566"><ele>9.000000000000002</ele><time>2026-05-01T09:54:29.998Z</time></trkpt><trkpt lat="45.78028861083228" lon="12.49780860649782"><ele>9.0</ele><time>2026-05-01T09:54:33.998Z</time></trkpt><trkpt lat="45.78023897999725" lon="12.497729228006516"><ele>9.428571428571429</ele><time>2026-05-01T09:54:35.998Z</time></trkpt><trkpt lat="45.78018392729706" lon="12.49763832761626"><ele>9.857142857142858</ele><time>2026-05-01T09:54:38.998Z</time></trkpt><trkpt lat="45.780138040699335" lon="12.497546942815715"><ele>10.285714285714285</ele><time>2026-05-01T09:54:42.998Z</time></trkpt><trkpt lat="45.78009275511547" lon="12.49747127989384"><ele>10.714285714285715</ele><time>2026-05-01T09:54:45.998Z</time></trkpt><trkpt lat="45.78004823119213" lon="12.497393220985957"><ele>11.142857142857142</ele><time>2026-05-01T09:54:52.998Z</time></trkpt><trkpt lat="45.78000581557262" lon="12.497309742574634"><ele>11.571428571428571</ele><time>2026-05-01T09:54:54.998Z</time></trkpt><trkpt lat="45.77996203562552" lon="12.497232184691335"><ele>12.0</ele><time>2026-05-01T09:55:01.998Z</time></trkpt><trkpt lat="45.779918963168384" lon="12.497149724645558"><ele>12.0</ele><time>2026-05-01T09:55:03.997Z</time></trkpt><trkpt lat="45.77986537049645" lon="12.49699821038292"><ele>12.0</ele><time>2026-05-01T09:55:05.997Z</time></trkpt><trkpt lat="45.77979012528668" lon="12.4968799363933"><ele>12.0</ele><time>2026-05-01T09:55:07.997Z</time></trkpt><trkpt lat="45.77973527738033" lon="12.496815180572964"><ele>12.0</ele><time>2026-05-01T09:55:08.997Z</time></trkpt><trkpt lat="45.77968173801648" lon="12.496730339666994"><ele>12.0</ele><time>2026-05-01T09:55:09.997Z</time></trkpt><trkpt lat="45.77962278751668" lon="12.496629782664735"><ele>12.0</ele><time>2026-05-01T09:55:10.997Z</time></trkpt><trkpt lat="45.77955327531901" lon="12.49651629935575"><ele>12.0</ele><time>2026-05-01T09:55:11.997Z</time></trkpt><trkpt lat="45.779483951108936" lon="12.496399166456998"><ele>12.0</ele><time>2026-05-01T09:55:13Z</time></trkpt><trkpt lat="45.779410815884866" lon="12.49627493182583"><ele>12.0</ele><time>2026-05-01T09:55:14Z</time></trkpt><trkpt lat="45.7793373168294" lon="12.496149189670517"><ele>12.0</ele><time>2026-05-01T09:55:15Z</time></trkpt><trkpt lat="45.77926806083139" lon="12.49603108256436"><ele>11.666666666666666</ele><time>2026-05-01T09:55:16Z</time></trkpt><trkpt lat="45.77920438541896" lon="12.495922955443143"><ele>11.333333333333334</ele><time>2026-05-01T09:55:17Z</time></trkpt><trkpt lat="45.77915162174174" lon="12.495834030621923"><ele>11.0</ele><time>2026-05-01T09:55:18Z</time></trkpt><trkpt lat="45.77910505285502" lon="12.495753892197067"><ele>10.666666666666668</ele><time>2026-05-01T09:55:19Z</time></trkpt><trkpt lat="45.7790620546129" lon="12.495679923549948"><ele>10.333333333333334</ele><time>2026-05-01T09:55:20Z</time></trkpt><trkpt lat="45.77902381052918" lon="12.495607478259616"><ele>10.0</ele><time>2026-05-01T09:55:21Z</time></trkpt><trkpt lat="45.778973732127355" lon="12.49544672816111"><ele>9.833333333333334</ele><time>2026-05-01T09:55:23Z</time></trkpt><trkpt lat="45.778949671958465" lon="12.49534975491063"><ele>9.666666666666668</ele><time>2026-05-01T09:55:24Z</time></trkpt><trkpt lat="45.778872496276634" lon="12.495227410099565"><ele>9.5</ele><time>2026-05-01T09:55:26Z</time></trkpt><trkpt lat="45.77876915085562" lon="12.49513996477553"><ele>9.333333333333334</ele><time>2026-05-01T09:55:28Z</time></trkpt><trkpt lat="45.778718599884535" lon="12.495077789292852"><ele>9.166666666666666</ele><time>2026-05-01T09:55:29Z</time></trkpt><trkpt lat="45.77866824820328" lon="12.495001674630272"><ele>9.0</ele><time>2026-05-01T09:55:30Z</time></trkpt><trkpt lat="45.77861413882077" lon="12.494914009049362"><ele>9.0</ele><time>2026-05-01T09:55:30.999Z</time></trkpt><trkpt lat="45.77855454710173" lon="12.494819750320627"><ele>9.0</ele><time>2026-05-01T09:55:31.999Z</time></trkpt><trkpt lat="45.77849869632567" lon="12.494730800569327"><ele>9.0</ele><time>2026-05-01T09:55:32.999Z</time></trkpt><trkpt lat="45.778441353611235" lon="12.49463529846526"><ele>9.0</ele><time>2026-05-01T09:55:33.999Z</time></trkpt><trkpt lat="45.77838421907193" lon="12.494536506961314"><ele>9.0</ele><time>2026-05-01T09:55:34.999Z</time></trkpt><trkpt lat="45.77832303354055" lon="12.494429446050864"><ele>9.0</ele><time>2026-05-01T09:55:35.999Z</time></trkpt><trkpt lat="45.77825587373024" lon="12.494317954098255"><ele>9.0</ele><time>2026-05-01T09:55:36.999Z</time></trkpt><trkpt lat="45.77818707294959" lon="12.494201644425948"><ele>9.0</ele><time>2026-05-01T09:55:37.999Z</time></trkpt><trkpt lat="45.77811977723526" lon="12.494085761517448"><ele>9.0</ele><time>2026-05-01T09:55:38.999Z</time></trkpt><trkpt lat="45.778060090463896" lon="12.4939821465016"><ele>9.0</ele><time>2026-05-01T09:55:39.999Z</time></trkpt><trkpt lat="45.77800404778517" lon="12.49388814548515"><ele>9.0</ele><time>2026-05-01T09:55:40.999Z</time></trkpt><trkpt lat="45.777954664113516" lon="12.493804383322699"><ele>9.166666666666666</ele><time>2026-05-01T09:55:41.999Z</time></trkpt><trkpt lat="45.7779084998306" lon="12.493722490494221"><ele>9.333333333333334</ele><time>2026-05-01T09:55:42.999Z</time></trkpt><trkpt lat="45.7778595045352" lon="12.493634148571918"><ele>9.5</ele><time>2026-05-01T09:55:43.999Z</time></trkpt><trkpt lat="45.77780857585738" lon="12.49354397099882"><ele>9.666666666666668</ele><time>2026-05-01T09:55:44.999Z</time></trkpt><trkpt lat="45.77775416137403" lon="12.493450529345969"><ele>9.833333333333334</ele><time>2026-05-01T09:55:45.999Z</time></trkpt><trkpt lat="45.777696075997234" lon="12.493353326617237"><ele>10.0</ele><time>2026-05-01T09:55:46.999Z</time></trkpt><trkpt lat="45.77763415182911" lon="12.49325353306005"><ele>9.666666666666668</ele><time>2026-05-01T09:55:47.999Z</time></trkpt><trkpt lat="45.77757056187053" lon="12.493153223268356"><ele>9.333333333333334</ele><time>2026-05-01T09:55:48.999Z</time></trkpt><trkpt lat="45.777509015797435" lon="12.493052587322383"><ele>9.0</ele><time>2026-05-01T09:55:49.999Z</time></trkpt><trkpt lat="45.777452464542584" lon="12.4929609038997"><ele>8.666666666666666</ele><time>2026-05-01T09:55:50.999Z</time></trkpt><trkpt lat="45.77740003304023" lon="12.4928699260175"><ele>8.333333333333332</ele><time>2026-05-01T09:55:51.999Z</time></trkpt><trkpt lat="45.777343810078065" lon="12.492769687659994"><ele>8.0</ele><time>2026-05-01T09:55:52.999Z</time></trkpt><trkpt lat="45.77728315553609" lon="12.492661663934891"><ele>8.0</ele><time>2026-05-01T09:55:53.999Z</time></trkpt><trkpt lat="45.7772152932596" lon="12.492547375122808"><ele>8.0</ele><time>2026-05-01T09:55:54.999Z</time></trkpt><trkpt lat="45.7771449519514" lon="12.492428320594914"><ele>8.0</ele><time>2026-05-01T09:55:55.999Z</time></trkpt><trkpt lat="45.77707400691862" lon="12.492307565215864"><ele>8.0</ele><time>2026-05-01T09:55:56.999Z</time></trkpt><trkpt lat="45.77700081579127" lon="12.492183672766746"><ele>8.0</ele><time>2026-05-01T09:55:57.999Z</time></trkpt><trkpt lat="45.77691652197699" lon="12.492040220815714"><ele>8.666666666666666</ele><time>2026-05-01T09:55:58.999Z</time></trkpt><trkpt lat="45.776818324409135" lon="12.49187482034115"><ele>9.333333333333334</ele><time>2026-05-01T09:55:59.999Z</time></trkpt><trkpt lat="45.776714671557016" lon="12.49170295903311"><ele>10.0</ele><time>2026-05-01T09:56:00.999Z</time></trkpt><trkpt lat="45.77661399731282" lon="12.491540033238598"><ele>10.0</ele><time>2026-05-01T09:56:01.999Z</time></trkpt><trkpt lat="45.77651074119821" lon="12.491375203128186"><ele>10.0</ele><time>2026-05-01T09:56:02.999Z</time></trkpt><trkpt lat="45.77642542240817" lon="12.491236650458768"><ele>10.0</ele><time>2026-05-01T09:56:03.999Z</time></trkpt><trkpt lat="45.776348302435856" lon="12.491103908319063"><ele>10.0</ele><time>2026-05-01T09:56:04.999Z</time></trkpt><trkpt lat="45.77625588670736" lon="12.49095470976929"><ele>10.25</ele><time>2026-05-01T09:56:05.999Z</time></trkpt><trkpt lat="45.776160403918496" lon="12.490812497569765"><ele>10.5</ele><time>2026-05-01T09:56:06.999Z</time></trkpt><trkpt lat="45.776076819296954" lon="12.490686175220429"><ele>10.75</ele><time>2026-05-01T09:56:07.999Z</time></trkpt><trkpt lat="45.77599814294305" lon="12.490570303514293"><ele>11.0</ele><time>2026-05-01T09:56:08.999Z</time></trkpt><trkpt lat="45.77592034844574" lon="12.490450843063673"><ele>10.75</ele><time>2026-05-01T09:56:09.999Z</time></trkpt><trkpt lat="45.77584226085222" lon="12.490326616382255"><ele>10.5</ele><time>2026-05-01T09:56:10.999Z</time></trkpt><trkpt lat="45.775757112574475" lon="12.49019217428402"><ele>10.25</ele><time>2026-05-01T09:56:11.999Z</time></trkpt><trkpt lat="45.77566419981165" lon="12.490047688829854"><ele>10.0</ele><time>2026-05-01T09:56:12.999Z</time></trkpt><trkpt lat="45.775575257754895" lon="12.48991422556568"><ele>10.0</ele><time>2026-05-01T09:56:13.999Z</time></trkpt><trkpt lat="45.775483020881346" lon="12.489783057478382"><ele>10.0</ele><time>2026-05-01T09:56:14.999Z</time></trkpt><trkpt lat="45.77538614746296" lon="12.48965209689372"><ele>10.0</ele><time>2026-05-01T09:56:15.999Z</time></trkpt><trkpt lat="45.77528291083464" lon="12.489522096124073"><ele>10.0</ele><time>2026-05-01T09:56:16.999Z</time></trkpt><trkpt lat="45.77515895119797" lon="12.489388938630707"><ele>10.666666666666668</ele><time>2026-05-01T09:56:17.998Z</time></trkpt><trkpt lat="45.77501479476031" lon="12.48924623893025"><ele>11.333333333333334</ele><time>2026-05-01T09:56:18.998Z</time></trkpt><trkpt lat="45.774835201629486" lon="12.489247938079357"><ele>12.0</ele><time>2026-05-01T09:56:19.998Z</time></trkpt><trkpt lat="45.77463944540486" lon="12.48919388887363"><ele>12.0</ele><time>2026-05-01T09:56:20.998Z</time></trkpt><trkpt lat="45.77505071661508" lon="12.489307116744959"><ele>12.0</ele><time>2026-05-01T09:56:21.998Z</time></trkpt><trkpt lat="45.7749388769455" lon="12.48925358201923"><ele>12.0</ele><time>2026-05-01T09:56:22.998Z</time></trkpt><trkpt lat="45.774738647425444" lon="12.489235834244946"><ele>12.0</ele><time>2026-05-01T09:56:23.998Z</time></trkpt><trkpt lat="45.77457573338353" lon="12.489188959525253"><ele>12.0</ele><time>2026-05-01T09:56:25.071Z</time></trkpt><trkpt lat="45.773860930000005" lon="12.48901748"><ele>11.333333333333334</ele><time>2026-05-01T09:56:26.928Z</time></trkpt><trkpt lat="45.77403952101283" lon="12.489029810420345"><ele>10.666666666666668</ele><time>2026-05-01T09:56:27.998Z</time></trkpt><trkpt lat="45.77385865849432" lon="12.488997303110981"><ele>10.0</ele><time>2026-05-01T09:56:28.998Z</time></trkpt><trkpt lat="45.77370584388764" lon="12.48896490762325"><ele>10.0</ele><time>2026-05-01T09:56:29.998Z</time></trkpt><trkpt lat="45.773565496138254" lon="12.48893662941607"><ele>10.0</ele><time>2026-05-01T09:56:30.998Z</time></trkpt><trkpt lat="45.773432620677" lon="12.488928441102887"><ele>10.0</ele><time>2026-05-01T09:56:31.998Z</time></trkpt><trkpt lat="45.773312518974436" lon="12.488909466220978"><ele>10.0</ele><time>2026-05-01T09:56:32.998Z</time></trkpt><trkpt lat="45.77319386023365" lon="12.488883832758543"><ele>10.5</ele><time>2026-05-01T09:56:33.998Z</time></trkpt><trkpt lat="45.77306865397074" lon="12.488848773788321"><ele>11.0</ele><time>2026-05-01T09:56:34.998Z</time></trkpt><trkpt lat="45.77293997006143" lon="12.488817209878928"><ele>11.5</ele><time>2026-05-01T09:56:35.998Z</time></trkpt><trkpt lat="45.77280568031759" lon="12.488781210126062"><ele>12.0</ele><time>2026-05-01T09:56:36.998Z</time></trkpt><trkpt lat="45.77266989724416" lon="12.48874714770966"><ele>12.0</ele><time>2026-05-01T09:56:37.998Z</time></trkpt><trkpt lat="45.77252060302382" lon="12.48870520527131"><ele>12.0</ele><time>2026-05-01T09:56:38.998Z</time></trkpt><trkpt lat="45.77236459333674" lon="12.488656606793112"><ele>12.0</ele><time>2026-05-01T09:56:39.998Z</time></trkpt><trkpt lat="45.77222034889179" lon="12.488619303366303"><ele>12.0</ele><time>2026-05-01T09:56:40.998Z</time></trkpt><trkpt lat="45.77208603835151" lon="12.488582153606359"><ele>12.0</ele><time>2026-05-01T09:56:41.998Z</time></trkpt><trkpt lat="45.77195496330052" lon="12.488541778860476"><ele>12.0</ele><time>2026-05-01T09:56:42.998Z</time></trkpt><trkpt lat="45.77182566052039" lon="12.488505478409582"><ele>12.0</ele><time>2026-05-01T09:56:43.998Z</time></trkpt><trkpt lat="45.77168492914473" lon="12.488476934217472"><ele>12.0</ele><time>2026-05-01T09:56:44.998Z</time></trkpt><trkpt lat="45.77155475400481" lon="12.488445194131975"><ele>12.0</ele><time>2026-05-01T09:56:45.998Z</time></trkpt><trkpt lat="45.77144273785182" lon="12.488410044823773"><ele>12.0</ele><time>2026-05-01T09:56:46.998Z</time></trkpt><trkpt lat="45.77134721149825" lon="12.488385361974624"><ele>12.0</ele><time>2026-05-01T09:56:47.998Z</time></trkpt><trkpt lat="45.77125708691941" lon="12.48836008817507"><ele>12.0</ele><time>2026-05-01T09:56:48.998Z</time></trkpt><trkpt lat="45.77116531589723" lon="12.488330044075868"><ele>12.0</ele><time>2026-05-01T09:56:49.998Z</time></trkpt><trkpt lat="45.771062682659775" lon="12.488300279477969"><ele>12.0</ele><time>2026-05-01T09:56:50.998Z</time></trkpt><trkpt lat="45.77094700258964" lon="12.488263923798513"><ele>12.0</ele><time>2026-05-01T09:56:51.998Z</time></trkpt><trkpt lat="45.77085588387399" lon="12.488237789010295"><ele>12.0</ele><time>2026-05-01T09:56:52.998Z</time></trkpt><trkpt lat="45.770771785420926" lon="12.48821542612208"><ele>12.0</ele><time>2026-05-01T09:56:53.998Z</time></trkpt><trkpt lat="45.77068575615255" lon="12.488188687669764"><ele>12.166666666666666</ele><time>2026-05-01T09:56:54.998Z</time></trkpt><trkpt lat="45.77060282899487" lon="12.488156903103228"><ele>12.333333333333332</ele><time>2026-05-01T09:56:55.998Z</time></trkpt><trkpt lat="45.770530857505605" lon="12.48811606007265"><ele>12.5</ele><time>2026-05-01T09:56:56.998Z</time></trkpt><trkpt lat="45.770462841816546" lon="12.488065186622746"><ele>12.666666666666666</ele><time>2026-05-01T09:56:57.998Z</time></trkpt><trkpt lat="45.77038224504594" lon="12.488034670911958"><ele>12.833333333333332</ele><time>2026-05-01T09:56:58.998Z</time></trkpt><trkpt lat="45.77028068684952" lon="12.488027442430823"><ele>13.0</ele><time>2026-05-01T09:56:59.998Z</time></trkpt><trkpt lat="45.77015410782088" lon="12.488024904143103"><ele>13.0</ele><time>2026-05-01T09:57:00.998Z</time></trkpt><trkpt lat="45.77001315901066" lon="12.488006101010852"><ele>13.0</ele><time>2026-05-01T09:57:01.998Z</time></trkpt><trkpt lat="45.76987646240166" lon="12.487965206408465"><ele>13.0</ele><time>2026-05-01T09:57:02.998Z</time></trkpt><trkpt lat="45.769749950630924" lon="12.487924012861582"><ele>13.0</ele><time>2026-05-01T09:57:03.998Z</time></trkpt><trkpt lat="45.76963529597314" lon="12.487895515612212"><ele>13.0</ele><time>2026-05-01T09:57:04.998Z</time></trkpt><trkpt lat="45.76952240976916" lon="12.487865126166502"><ele>13.0</ele><time>2026-05-01T09:57:05.998Z</time></trkpt><trkpt lat="45.76940559019494" lon="12.487833145550129"><ele>13.0</ele><time>2026-05-01T09:57:06.997Z</time></trkpt><trkpt lat="45.76927690317471" lon="12.487798681487805"><ele>13.0</ele><time>2026-05-01T09:57:07.997Z</time></trkpt><trkpt lat="45.76914322260318" lon="12.48776439951269"><ele>12.5</ele><time>2026-05-01T09:57:08.997Z</time></trkpt><trkpt lat="45.769012561511275" lon="12.487728913227182"><ele>12.0</ele><time>2026-05-01T09:57:09.997Z</time></trkpt><trkpt lat="45.76888800278247" lon="12.487695022888492"><ele>11.5</ele><time>2026-05-01T09:57:10.997Z</time></trkpt><trkpt lat="45.768782048704814" lon="12.487664644043498"><ele>11.0</ele><time>2026-05-01T09:57:11.997Z</time></trkpt><trkpt lat="45.76867851944525" lon="12.48763432057106"><ele>11.0</ele><time>2026-05-01T09:57:12.997Z</time></trkpt><trkpt lat="45.76858748687773" lon="12.487606729471976"><ele>11.0</ele><time>2026-05-01T09:57:13.997Z</time></trkpt><trkpt lat="45.768514716284166" lon="12.487587541066702"><ele>11.0</ele><time>2026-05-01T09:57:14.997Z</time></trkpt><trkpt lat="45.768453572042" lon="12.487564507982105"><ele>11.0</ele><time>2026-05-01T09:57:15.997Z</time></trkpt><trkpt lat="45.768370774371604" lon="12.487484294769366"><ele>11.0</ele><time>2026-05-01T09:57:17.999Z</time></trkpt><trkpt lat="45.768308785152904" lon="12.487365414686154"><ele>11.0</ele><time>2026-05-01T09:57:19.999Z</time></trkpt><trkpt lat="45.76821538723712" lon="12.487353223822195"><ele>10.600000000000001</ele><time>2026-05-01T09:57:21.999Z</time></trkpt><trkpt lat="45.76815330229919" lon="12.48740114784425"><ele>10.200000000000001</ele><time>2026-05-01T09:57:22.999Z</time></trkpt><trkpt lat="45.76808331591983" lon="12.48744950077095"><ele>9.8</ele><time>2026-05-01T09:57:23.999Z</time></trkpt><trkpt lat="45.76799062777729" lon="12.487452131662103"><ele>9.4</ele><time>2026-05-01T09:57:24.999Z</time></trkpt><trkpt lat="45.767872182654045" lon="12.487416969460856"><ele>9.0</ele><time>2026-05-01T09:57:25.999Z</time></trkpt><trkpt lat="45.76774893719883" lon="12.487369509544422"><ele>9.25</ele><time>2026-05-01T09:57:26.999Z</time></trkpt><trkpt lat="45.767633287137365" lon="12.487335624883613"><ele>9.5</ele><time>2026-05-01T09:57:27.999Z</time></trkpt><trkpt lat="45.76751954073972" lon="12.4873128935358"><ele>9.75</ele><time>2026-05-01T09:57:28.999Z</time></trkpt><trkpt lat="45.76740132195863" lon="12.487286221605338"><ele>10.0</ele><time>2026-05-01T09:57:29.999Z</time></trkpt><trkpt lat="45.767283064203845" lon="12.487248338604156"><ele>10.0</ele><time>2026-05-01T09:57:30.999Z</time></trkpt><trkpt lat="45.767169233783115" lon="12.487209586975645"><ele>10.0</ele><time>2026-05-01T09:57:31.999Z</time></trkpt><trkpt lat="45.767054170040666" lon="12.487176802314767"><ele>10.0</ele><time>2026-05-01T09:57:32.999Z</time></trkpt><trkpt lat="45.76693255852678" lon="12.487144686592186"><ele>10.0</ele><time>2026-05-01T09:57:33.999Z</time></trkpt><trkpt lat="45.76680854978818" lon="12.487109908169675"><ele>9.75</ele><time>2026-05-01T09:57:34.999Z</time></trkpt><trkpt lat="45.766679185561216" lon="12.487069915947362"><ele>9.5</ele><time>2026-05-01T09:57:35.999Z</time></trkpt><trkpt lat="45.766547765650394" lon="12.48703264077258"><ele>9.25</ele><time>2026-05-01T09:57:36.999Z</time></trkpt><trkpt lat="45.76642080070726" lon="12.486996717950095"><ele>9.0</ele><time>2026-05-01T09:57:37.999Z</time></trkpt><trkpt lat="45.76629626962192" lon="12.486959674000953"><ele>9.0</ele><time>2026-05-01T09:57:38.999Z</time></trkpt><trkpt lat="45.76617738779774" lon="12.48692171395777"><ele>9.0</ele><time>2026-05-01T09:57:39.999Z</time></trkpt><trkpt lat="45.766059305807495" lon="12.486881436411082"><ele>9.0</ele><time>2026-05-01T09:57:40.999Z</time></trkpt><trkpt lat="45.76594415046417" lon="12.486840180239112"><ele>9.0</ele><time>2026-05-01T09:57:41.999Z</time></trkpt><trkpt lat="45.76582545220888" lon="12.486791087745495"><ele>8.25</ele><time>2026-05-01T09:57:42.999Z</time></trkpt><trkpt lat="45.76569464040719" lon="12.486733631897842"><ele>7.5</ele><time>2026-05-01T09:57:43.999Z</time></trkpt><trkpt lat="45.76555123948812" lon="12.486668905850978"><ele>6.75</ele><time>2026-05-01T09:57:44.999Z</time></trkpt><trkpt lat="45.765399156614606" lon="12.486595672600387"><ele>6.0</ele><time>2026-05-01T09:57:45.999Z</time></trkpt><trkpt lat="45.76523923326273" lon="12.486516429345475"><ele>6.25</ele><time>2026-05-01T09:57:46.999Z</time></trkpt><trkpt lat="45.765096195689615" lon="12.4864440448003"><ele>6.5</ele><time>2026-05-01T09:57:47.999Z</time></trkpt><trkpt lat="45.76496486368326" lon="12.486378651780528"><ele>6.75</ele><time>2026-05-01T09:57:48.999Z</time></trkpt><trkpt lat="45.76484986351188" lon="12.486325748246882"><ele>7.0</ele><time>2026-05-01T09:57:49.999Z</time></trkpt><trkpt lat="45.7647404327731" lon="12.486273332296964"><ele>7.0</ele><time>2026-05-01T09:57:50.999Z</time></trkpt><trkpt lat="45.76462212822612" lon="12.486213122118725"><ele>7.0</ele><time>2026-05-01T09:57:51.999Z</time></trkpt><trkpt lat="45.76449003530474" lon="12.48614461375966"><ele>7.0</ele><time>2026-05-01T09:57:52.999Z</time></trkpt><trkpt lat="45.76434727862187" lon="12.486070756238654"><ele>7.0</ele><time>2026-05-01T09:57:53.999Z</time></trkpt><trkpt lat="45.76420416091737" lon="12.486003737772071"><ele>8.0</ele><time>2026-05-01T09:57:54.999Z</time></trkpt><trkpt lat="45.76405814917667" lon="12.485937092183956"><ele>9.0</ele><time>2026-05-01T09:57:55.999Z</time></trkpt><trkpt lat="45.763908294159314" lon="12.4858643699849"><ele>10.0</ele><time>2026-05-01T09:57:56.999Z</time></trkpt><trkpt lat="45.76375882691375" lon="12.485789950422841"><ele>10.0</ele><time>2026-05-01T09:57:57.999Z</time></trkpt><trkpt lat="45.763616567683634" lon="12.485717696107887"><ele>10.0</ele><time>2026-05-01T09:57:58.999Z</time></trkpt><trkpt lat="45.76348980025687" lon="12.48565348329188"><ele>10.0</ele><time>2026-05-01T09:57:59.999Z</time></trkpt><trkpt lat="45.7633788527421" lon="12.485600835618843"><ele>10.0</ele><time>2026-05-01T09:58:00.999Z</time></trkpt><trkpt lat="45.76329008115891" lon="12.485556263735422"><ele>9.666666666666668</ele><time>2026-05-01T09:58:01.999Z</time></trkpt><trkpt lat="45.76322676295271" lon="12.485520028032084"><ele>9.333333333333334</ele><time>2026-05-01T09:58:02.999Z</time></trkpt><trkpt lat="45.7631532544749" lon="12.48540714338643"><ele>9.0</ele><time>2026-05-01T09:58:04.999Z</time></trkpt><trkpt lat="45.76314486112779" lon="12.485303413083969"><ele>8.666666666666666</ele><time>2026-05-01T09:58:06.999Z</time></trkpt><trkpt lat="45.76312975868046" lon="12.48518764787326"><ele>8.333333333333332</ele><time>2026-05-01T09:58:09.999Z</time></trkpt><trkpt lat="45.76308134281237" lon="12.485128768776555"><ele>8.0</ele><time>2026-05-01T09:58:11.999Z</time></trkpt><trkpt lat="45.76301306995993" lon="12.485128945737626"><ele>7.833333333333333</ele><time>2026-05-01T09:59:48.999Z</time></trkpt><trkpt lat="45.762959511243295" lon="12.485020626981308"><ele>7.666666666666666</ele><time>2026-05-01T09:59:52.999Z</time></trkpt><trkpt lat="45.76290284431568" lon="12.4850747772345"><ele>7.5</ele><time>2026-05-01T09:59:54.999Z</time></trkpt><trkpt lat="45.762967290754744" lon="12.485134457617193"><ele>7.333333333333334</ele><time>2026-05-01T09:59:57.999Z</time></trkpt><trkpt lat="45.76303249722983" lon="12.48517519865659"><ele>7.166666666666667</ele><time>2026-05-01T10:00:00.999Z</time></trkpt><trkpt lat="45.7630745209738" lon="12.485246397792277"><ele>7.0</ele><time>2026-05-01T10:04:11.999Z</time></trkpt><trkpt lat="45.763098584074015" lon="12.485351848045017"><ele>7.0</ele><time>2026-05-01T10:04:13.999Z</time></trkpt><trkpt lat="45.76291768655329" lon="12.48539717129869"><ele>7.0</ele><time>2026-05-01T10:04:22.999Z</time></trkpt><trkpt lat="45.76283640336474" lon="12.48535026973818"><ele>7.0</ele><time>2026-05-01T10:04:23.999Z</time></trkpt><trkpt lat="45.762751857174095" lon="12.48530506203468"><ele>7.0</ele><time>2026-05-01T10:04:24.999Z</time></trkpt><trkpt lat="45.7626550432256" lon="12.485250897316236"><ele>6.75</ele><time>2026-05-01T10:04:25.999Z</time></trkpt><trkpt lat="45.762548318001656" lon="12.485199963094983"><ele>6.5</ele><time>2026-05-01T10:04:26.999Z</time></trkpt><trkpt lat="45.76243589829253" lon="12.485147970872433"><ele>6.25</ele><time>2026-05-01T10:04:27.999Z</time></trkpt><trkpt lat="45.762318224402776" lon="12.485088765077759"><ele>6.0</ele><time>2026-05-01T10:04:28.999Z</time></trkpt><trkpt lat="45.76219315015858" lon="12.48502676500714"><ele>6.0</ele><time>2026-05-01T10:04:29.999Z</time></trkpt><trkpt lat="45.76205876965043" lon="12.484960653245993"><ele>6.0</ele><time>2026-05-01T10:04:30.999Z</time></trkpt><trkpt lat="45.76191998051158" lon="12.484890593460191"><ele>6.0</ele><time>2026-05-01T10:04:31.999Z</time></trkpt><trkpt lat="45.76177927885174" lon="12.484820952627416"><ele>6.0</ele><time>2026-05-01T10:04:32.999Z</time></trkpt><trkpt lat="45.76164039582426" lon="12.484751299575397"><ele>6.0</ele><time>2026-05-01T10:04:33.999Z</time></trkpt><trkpt lat="45.761510476512086" lon="12.48468640516842"><ele>6.0</ele><time>2026-05-01T10:04:34.999Z</time></trkpt><trkpt lat="45.76140050758496" lon="12.48463100687971"><ele>6.0</ele><time>2026-05-01T10:04:35.999Z</time></trkpt><trkpt lat="45.761289774827794" lon="12.484569852791255"><ele>6.0</ele><time>2026-05-01T10:04:36.999Z</time></trkpt><trkpt lat="45.76118613840851" lon="12.48450584016957"><ele>6.0</ele><time>2026-05-01T10:04:37.999Z</time></trkpt><trkpt lat="45.7610813299012" lon="12.484440832989215"><ele>6.0</ele><time>2026-05-01T10:04:38.999Z</time></trkpt><trkpt lat="45.76098417075272" lon="12.484372191648742"><ele>6.0</ele><time>2026-05-01T10:04:39.999Z</time></trkpt><trkpt lat="45.76091186429407" lon="12.484309091257257"><ele>6.0</ele><time>2026-05-01T10:04:40.999Z</time></trkpt><trkpt lat="45.760859978174885" lon="12.48425575880372"><ele>6.0</ele><time>2026-05-01T10:04:41.998Z</time></trkpt><trkpt lat="45.760782750733625" lon="12.484141571631985"><ele>6.0</ele><time>2026-05-01T10:04:43.998Z</time></trkpt><trkpt lat="45.760745063015456" lon="12.484069028357084"><ele>6.0</ele><time>2026-05-01T10:04:44.998Z</time></trkpt><trkpt lat="45.76070443629012" lon="12.483971330072517"><ele>6.0</ele><time>2026-05-01T10:04:45.998Z</time></trkpt><trkpt lat="45.760645405246954" lon="12.483849771786227"><ele>6.0</ele><time>2026-05-01T10:04:46.998Z</time></trkpt><trkpt lat="45.76057727918355" lon="12.483723912878235"><ele>6.0</ele><time>2026-05-01T10:04:47.998Z</time></trkpt><trkpt lat="45.76049947342585" lon="12.483625272037674"><ele>6.0</ele><time>2026-05-01T10:04:48.998Z</time></trkpt><trkpt lat="45.76041136528686" lon="12.483545690787743"><ele>6.0</ele><time>2026-05-01T10:04:49.998Z</time></trkpt><trkpt lat="45.76032139511444" lon="12.483501478526023"><ele>6.0</ele><time>2026-05-01T10:04:50.998Z</time></trkpt><trkpt lat="45.76021778383525" lon="12.483491695484856"><ele>6.0</ele><time>2026-05-01T10:04:51.998Z</time></trkpt><trkpt lat="45.76009946388598" lon="12.483504725306384"><ele>6.0</ele><time>2026-05-01T10:04:52.998Z</time></trkpt><trkpt lat="45.75997013133725" lon="12.483537397517221"><ele>6.25</ele><time>2026-05-01T10:04:53.998Z</time></trkpt><trkpt lat="45.7598360515182" lon="12.483585683218385"><ele>6.5</ele><time>2026-05-01T10:04:54.998Z</time></trkpt><trkpt lat="45.75970208842172" lon="12.483624964282102"><ele>6.75</ele><time>2026-05-01T10:04:55.998Z</time></trkpt><trkpt lat="45.75956902800657" lon="12.483645036519428"><ele>7.0</ele><time>2026-05-01T10:04:56.998Z</time></trkpt><trkpt lat="45.75944649733482" lon="12.483634755461942"><ele>8.0</ele><time>2026-05-01T10:04:57.998Z</time></trkpt><trkpt lat="45.759319193033875" lon="12.483588860149403"><ele>9.0</ele><time>2026-05-01T10:04:58.998Z</time></trkpt><trkpt lat="45.75918038304392" lon="12.483512025256294"><ele>10.0</ele><time>2026-05-01T10:04:59.998Z</time></trkpt><trkpt lat="45.75903299890785" lon="12.483428016476337"><ele>11.0</ele><time>2026-05-01T10:05:00.998Z</time></trkpt><trkpt lat="45.75887151988524" lon="12.483342667245944"><ele>11.0</ele><time>2026-05-01T10:05:01.998Z</time></trkpt><trkpt lat="45.758699150826054" lon="12.48325511335198"><ele>11.0</ele><time>2026-05-01T10:05:02.998Z</time></trkpt><trkpt lat="45.75851611876642" lon="12.483157401335408"><ele>11.0</ele><time>2026-05-01T10:05:03.998Z</time></trkpt><trkpt lat="45.758319866540155" lon="12.483052955211875"><ele>9.5</ele><time>2026-05-01T10:05:04.998Z</time></trkpt><trkpt lat="45.758108090484974" lon="12.482947154785265"><ele>8.0</ele><time>2026-05-01T10:05:05.998Z</time></trkpt><trkpt lat="45.75788582530555" lon="12.482839677025716"><ele>7.333333333333333</ele><time>2026-05-01T10:05:06.998Z</time></trkpt><trkpt lat="45.75768326454039" lon="12.482739191050534"><ele>6.666666666666666</ele><time>2026-05-01T10:05:07.998Z</time></trkpt><trkpt lat="45.757490767770676" lon="12.48264490750169"><ele>6.0</ele><time>2026-05-01T10:05:08.998Z</time></trkpt><trkpt lat="45.75731052756143" lon="12.482556282395944"><ele>6.0</ele><time>2026-05-01T10:05:09.998Z</time></trkpt><trkpt lat="45.75713893692359" lon="12.482472584314769"><ele>6.0</ele><time>2026-05-01T10:05:10.998Z</time></trkpt><trkpt lat="45.75697789433373" lon="12.482394113412068"><ele>6.0</ele><time>2026-05-01T10:05:11.998Z</time></trkpt><trkpt lat="45.756823133619385" lon="12.482314734801903"><ele>6.0</ele><time>2026-05-01T10:05:12.998Z</time></trkpt><trkpt lat="45.75667409480846" lon="12.482239432591863"><ele>6.0</ele><time>2026-05-01T10:05:13.998Z</time></trkpt><trkpt lat="45.75653002978377" lon="12.48216896863227"><ele>6.0</ele><time>2026-05-01T10:05:14.998Z</time></trkpt><trkpt lat="45.756388824609445" lon="12.482100397809894"><ele>6.0</ele><time>2026-05-01T10:05:15.998Z</time></trkpt><trkpt lat="45.75625727051393" lon="12.482036180114278"><ele>6.0</ele><time>2026-05-01T10:05:16.998Z</time></trkpt><trkpt lat="45.75614216769655" lon="12.481976772301248"><ele>6.0</ele><time>2026-05-01T10:05:17.998Z</time></trkpt><trkpt lat="45.75604763289767" lon="12.481924383609599"><ele>6.0</ele><time>2026-05-01T10:05:18.998Z</time></trkpt><trkpt lat="45.75596261533721" lon="12.48186687779803"><ele>6.666666666666667</ele><time>2026-05-01T10:05:19.998Z</time></trkpt><trkpt lat="45.755891160600264" lon="12.48178695165319"><ele>7.333333333333334</ele><time>2026-05-01T10:05:20.998Z</time></trkpt><trkpt lat="45.755828725687266" lon="12.481702234490792"><ele>8.0</ele><time>2026-05-01T10:05:21.998Z</time></trkpt><trkpt lat="45.75576431006173" lon="12.481638336522442"><ele>8.666666666666668</ele><time>2026-05-01T10:05:22.998Z</time></trkpt><trkpt lat="45.75569342464389" lon="12.481608902634932"><ele>9.333333333333334</ele><time>2026-05-01T10:05:23.998Z</time></trkpt><trkpt lat="45.7556130675825" lon="12.481611559236756"><ele>10.0</ele><time>2026-05-01T10:05:24.998Z</time></trkpt><trkpt lat="45.7555250000372" lon="12.481622067416183"><ele>10.0</ele><time>2026-05-01T10:05:25.998Z</time></trkpt><trkpt lat="45.755414941242364" lon="12.481601945181906"><ele>10.0</ele><time>2026-05-01T10:05:26.998Z</time></trkpt><trkpt lat="45.755280968354285" lon="12.481549262739067"><ele>10.0</ele><time>2026-05-01T10:05:27.998Z</time></trkpt><trkpt lat="45.7551326724113" lon="12.481479649106626"><ele>10.0</ele><time>2026-05-01T10:05:28.998Z</time></trkpt><trkpt lat="45.75498433192174" lon="12.481409374221416"><ele>10.0</ele><time>2026-05-01T10:05:29.998Z</time></trkpt><trkpt lat="45.75480919019919" lon="12.481332277514081"><ele>10.0</ele><time>2026-05-01T10:05:30.997Z</time></trkpt><trkpt lat="45.75461994014581" lon="12.481241876247223"><ele>10.0</ele><time>2026-05-01T10:05:31.997Z</time></trkpt><trkpt lat="45.75445090057857" lon="12.481160723654103"><ele>10.666666666666668</ele><time>2026-05-01T10:05:32.997Z</time></trkpt><trkpt lat="45.75429321911604" lon="12.481082930658008"><ele>11.333333333333334</ele><time>2026-05-01T10:05:33.997Z</time></trkpt><trkpt lat="45.75414689819588" lon="12.481013193402706"><ele>12.0</ele><time>2026-05-01T10:05:34.997Z</time></trkpt><trkpt lat="45.75399280983631" lon="12.480937817640172"><ele>12.0</ele><time>2026-05-01T10:05:35.997Z</time></trkpt><trkpt lat="45.753841311390474" lon="12.480862308229295"><ele>12.0</ele><time>2026-05-01T10:05:36.997Z</time></trkpt><trkpt lat="45.75370334437523" lon="12.48079530701751"><ele>12.0</ele><time>2026-05-01T10:05:37.997Z</time></trkpt><trkpt lat="45.753574536026754" lon="12.480730540201282"><ele>12.0</ele><time>2026-05-01T10:05:38.997Z</time></trkpt><trkpt lat="45.75344046986236" lon="12.480666220868477"><ele>11.333333333333334</ele><time>2026-05-01T10:05:39.997Z</time></trkpt><trkpt lat="45.753289980836286" lon="12.480592297729249"><ele>10.666666666666668</ele><time>2026-05-01T10:05:41Z</time></trkpt><trkpt lat="45.75312966201737" lon="12.480513329697446"><ele>10.0</ele><time>2026-05-01T10:05:42Z</time></trkpt><trkpt lat="45.75295790517845" lon="12.480427880902758"><ele>9.333333333333334</ele><time>2026-05-01T10:05:43Z</time></trkpt><trkpt lat="45.75277585175465" lon="12.480336800885347"><ele>8.666666666666666</ele><time>2026-05-01T10:05:44Z</time></trkpt><trkpt lat="45.7525826968068" lon="12.480240828337484"><ele>8.0</ele><time>2026-05-01T10:05:45Z</time></trkpt><trkpt lat="45.75238427154596" lon="12.48014186514415"><ele>8.0</ele><time>2026-05-01T10:05:46Z</time></trkpt><trkpt lat="45.75216788072799" lon="12.480034144532896"><ele>8.0</ele><time>2026-05-01T10:05:47Z</time></trkpt><trkpt lat="45.751942515321325" lon="12.479925050224152"><ele>7.5</ele><time>2026-05-01T10:05:48Z</time></trkpt><trkpt lat="45.75170945028575" lon="12.47981376827463"><ele>7.0</ele><time>2026-05-01T10:05:49Z</time></trkpt><trkpt lat="45.751475894440816" lon="12.47970099856382"><ele>7.0</ele><time>2026-05-01T10:05:50Z</time></trkpt><trkpt lat="45.75123722985506" lon="12.479587923514584"><ele>7.0</ele><time>2026-05-01T10:05:51Z</time></trkpt><trkpt lat="45.750989807043744" lon="12.479469749233578"><ele>6.5</ele><time>2026-05-01T10:05:52Z</time></trkpt><trkpt lat="45.75074795397545" lon="12.479351333143066"><ele>6.0</ele><time>2026-05-01T10:05:53Z</time></trkpt><trkpt lat="45.75051439713319" lon="12.479238219212037"><ele>6.0</ele><time>2026-05-01T10:05:54Z</time></trkpt><trkpt lat="45.75028793160147" lon="12.47912807044644"><ele>6.0</ele><time>2026-05-01T10:05:55Z</time></trkpt><trkpt lat="45.750063695364155" lon="12.479018822197453"><ele>6.5</ele><time>2026-05-01T10:05:56Z</time></trkpt><trkpt lat="45.749842818242655" lon="12.478910371013143"><ele>7.0</ele><time>2026-05-01T10:05:57Z</time></trkpt><trkpt lat="45.74962309578316" lon="12.478803380337716"><ele>7.0</ele><time>2026-05-01T10:05:58Z</time></trkpt><trkpt lat="45.74940458879432" lon="12.478698737748019"><ele>7.0</ele><time>2026-05-01T10:05:59Z</time></trkpt><trkpt lat="45.74918170865245" lon="12.478592546256825"><ele>7.5</ele><time>2026-05-01T10:06:00Z</time></trkpt><trkpt lat="45.74895297450662" lon="12.478482142289213"><ele>8.0</ele><time>2026-05-01T10:06:01Z</time></trkpt><trkpt lat="45.74872021289029" lon="12.478369155222834"><ele>9.0</ele><time>2026-05-01T10:06:02Z</time></trkpt><trkpt lat="45.748481684264966" lon="12.478254035201791"><ele>10.0</ele><time>2026-05-01T10:06:03Z</time></trkpt><trkpt lat="45.748239681196885" lon="12.478135364679664"><ele>10.0</ele><time>2026-05-01T10:06:03.999Z</time></trkpt><trkpt lat="45.74799566639091" lon="12.478014437272108"><ele>10.0</ele><time>2026-05-01T10:06:04.999Z</time></trkpt><trkpt lat="45.74775441790191" lon="12.477895832455834"><ele>9.0</ele><time>2026-05-01T10:06:05.999Z</time></trkpt><trkpt lat="45.74752030113201" lon="12.477782063645169"><ele>8.0</ele><time>2026-05-01T10:06:06.999Z</time></trkpt><trkpt lat="45.74729067453137" lon="12.4776721907098"><ele>8.0</ele><time>2026-05-01T10:06:07.999Z</time></trkpt><trkpt lat="45.747065514314045" lon="12.477564444366406"><ele>8.0</ele><time>2026-05-01T10:06:08.999Z</time></trkpt><trkpt lat="45.746844418582754" lon="12.477458072561094"><ele>8.0</ele><time>2026-05-01T10:06:09.999Z</time></trkpt><trkpt lat="45.74662334075492" lon="12.477350772556496"><ele>8.0</ele><time>2026-05-01T10:06:10.999Z</time></trkpt><trkpt lat="45.74640402767271" lon="12.477240776724397"><ele>8.0</ele><time>2026-05-01T10:06:11.999Z</time></trkpt><trkpt lat="45.746184436510696" lon="12.477133381919236"><ele>8.0</ele><time>2026-05-01T10:06:12.999Z</time></trkpt><trkpt lat="45.74596715164443" lon="12.477027659695507"><ele>8.0</ele><time>2026-05-01T10:06:13.999Z</time></trkpt><trkpt lat="45.745755276564985" lon="12.476923565758451"><ele>8.0</ele><time>2026-05-01T10:06:14.999Z</time></trkpt><trkpt lat="45.74554541190915" lon="12.47682233318904"><ele>8.0</ele><time>2026-05-01T10:06:15.999Z</time></trkpt><trkpt lat="45.7453387605166" lon="12.476724365523673"><ele>8.0</ele><time>2026-05-01T10:06:16.999Z</time></trkpt><trkpt lat="45.74513542057586" lon="12.476631640926174"><ele>8.0</ele><time>2026-05-01T10:06:17.999Z</time></trkpt><trkpt lat="45.7449351256185" lon="12.47655115618344"><ele>8.0</ele><time>2026-05-01T10:06:18.999Z</time></trkpt><trkpt lat="45.744732486013675" lon="12.476479624676509"><ele>8.0</ele><time>2026-05-01T10:06:19.999Z</time></trkpt><trkpt lat="45.74452286906744" lon="12.476414283088895"><ele>8.0</ele><time>2026-05-01T10:06:20.999Z</time></trkpt><trkpt lat="45.74430379310435" lon="12.476358239633468"><ele>8.0</ele><time>2026-05-01T10:06:21.999Z</time></trkpt><trkpt lat="45.74408280880029" lon="12.47630974685627"><ele>8.0</ele><time>2026-05-01T10:06:22.999Z</time></trkpt><trkpt lat="45.74387423031446" lon="12.476275791175308"><ele>8.0</ele><time>2026-05-01T10:06:23.999Z</time></trkpt><trkpt lat="45.74366272260168" lon="12.476247823572873"><ele>8.0</ele><time>2026-05-01T10:06:24.999Z</time></trkpt><trkpt lat="45.743436238794146" lon="12.47621991440023"><ele>7.5</ele><time>2026-05-01T10:06:25.999Z</time></trkpt><trkpt lat="45.74319408689859" lon="12.476190129467625"><ele>7.0</ele><time>2026-05-01T10:06:26.999Z</time></trkpt><trkpt lat="45.742952591479416" lon="12.476163236486023"><ele>7.0</ele><time>2026-05-01T10:06:27.999Z</time></trkpt><trkpt lat="45.7427216927794" lon="12.476136953100418"><ele>7.0</ele><time>2026-05-01T10:06:28.999Z</time></trkpt><trkpt lat="45.74250516036503" lon="12.4761140473382"><ele>7.0</ele><time>2026-05-01T10:06:29.999Z</time></trkpt><trkpt lat="45.74229971906493" lon="12.476092789465223"><ele>7.333333333333334</ele><time>2026-05-01T10:06:30.999Z</time></trkpt><trkpt lat="45.74210440584636" lon="12.476071672776435"><ele>7.666666666666666</ele><time>2026-05-01T10:06:31.999Z</time></trkpt><trkpt lat="45.74191733565732" lon="12.476049289040356"><ele>8.0</ele><time>2026-05-01T10:06:32.999Z</time></trkpt><trkpt lat="45.74173691151714" lon="12.476029199017852"><ele>8.0</ele><time>2026-05-01T10:06:33.999Z</time></trkpt><trkpt lat="45.74155606136651" lon="12.476012478527602"><ele>8.0</ele><time>2026-05-01T10:06:34.999Z</time></trkpt><trkpt lat="45.741375846702546" lon="12.475995399701182"><ele>8.0</ele><time>2026-05-01T10:06:35.999Z</time></trkpt><trkpt lat="45.74119629863473" lon="12.475973607452653"><ele>8.666666666666666</ele><time>2026-05-01T10:06:36.999Z</time></trkpt><trkpt lat="45.7410278774491" lon="12.475947531847398"><ele>9.333333333333334</ele><time>2026-05-01T10:06:37.999Z</time></trkpt><trkpt lat="45.74086836639461" lon="12.475910527343723"><ele>10.0</ele><time>2026-05-01T10:06:38.999Z</time></trkpt><trkpt lat="45.74071665236518" lon="12.475865585701223"><ele>10.0</ele><time>2026-05-01T10:06:39.999Z</time></trkpt><trkpt lat="45.740568588976" lon="12.475818330376923"><ele>10.0</ele><time>2026-05-01T10:06:40.999Z</time></trkpt><trkpt lat="45.74041948332487" lon="12.475769748927688"><ele>10.0</ele><time>2026-05-01T10:06:41.999Z</time></trkpt><trkpt lat="45.74025860771455" lon="12.475719776976218"><ele>10.0</ele><time>2026-05-01T10:06:42.999Z</time></trkpt><trkpt lat="45.740109450640915" lon="12.47567145057692"><ele>10.0</ele><time>2026-05-01T10:06:43.999Z</time></trkpt><trkpt lat="45.73997396140185" lon="12.475627111188066"><ele>10.0</ele><time>2026-05-01T10:06:44.999Z</time></trkpt><trkpt lat="45.73985009131771" lon="12.47558327738468"><ele>10.0</ele><time>2026-05-01T10:06:45.999Z</time></trkpt><trkpt lat="45.739742489923465" lon="12.475543875236493"><ele>10.0</ele><time>2026-05-01T10:06:46.999Z</time></trkpt><trkpt lat="45.739645549613435" lon="12.475501882895394"><ele>10.0</ele><time>2026-05-01T10:06:47.999Z</time></trkpt><trkpt lat="45.73955922912531" lon="12.47543997503241"><ele>10.0</ele><time>2026-05-01T10:06:48.999Z</time></trkpt><trkpt lat="45.7394777859285" lon="12.475363942272079"><ele>10.0</ele><time>2026-05-01T10:06:49.999Z</time></trkpt><trkpt lat="45.73940237707803" lon="12.475311927891958"><ele>10.0</ele><time>2026-05-01T10:06:50.998Z</time></trkpt><trkpt lat="45.73932253033502" lon="12.47530150358524"><ele>10.25</ele><time>2026-05-01T10:06:51.998Z</time></trkpt><trkpt lat="45.73922153563154" lon="12.475319196267021"><ele>10.5</ele><time>2026-05-01T10:06:52.998Z</time></trkpt><trkpt lat="45.73909544813862" lon="12.475335582135754"><ele>10.75</ele><time>2026-05-01T10:06:53.998Z</time></trkpt><trkpt lat="45.73895708445546" lon="12.475321127679418"><ele>11.0</ele><time>2026-05-01T10:06:54.998Z</time></trkpt><trkpt lat="45.738800725160004" lon="12.475288439840778"><ele>11.0</ele><time>2026-05-01T10:06:55.998Z</time></trkpt><trkpt lat="45.7386335608043" lon="12.475253081940096"><ele>11.0</ele><time>2026-05-01T10:06:56.998Z</time></trkpt><trkpt lat="45.73847105057721" lon="12.475217825327205"><ele>11.0</ele><time>2026-05-01T10:06:57.998Z</time></trkpt><trkpt lat="45.73830914200208" lon="12.47518500769343"><ele>10.666666666666666</ele><time>2026-05-01T10:06:58.998Z</time></trkpt><trkpt lat="45.738144541242434" lon="12.475151684233857"><ele>10.333333333333334</ele><time>2026-05-01T10:06:59.998Z</time></trkpt><trkpt lat="45.73797674856364" lon="12.475120048503982"><ele>10.0</ele><time>2026-05-01T10:07:00.998Z</time></trkpt><trkpt lat="45.73780612753113" lon="12.4750859045716"><ele>9.333333333333334</ele><time>2026-05-01T10:07:01.998Z</time></trkpt><trkpt lat="45.73763184392496" lon="12.475049832860574"><ele>8.666666666666666</ele><time>2026-05-01T10:07:02.998Z</time></trkpt><trkpt lat="45.73745453927044" lon="12.47501477456139"><ele>8.0</ele><time>2026-05-01T10:07:03.998Z</time></trkpt><trkpt lat="45.73727703433908" lon="12.474982729007472"><ele>8.0</ele><time>2026-05-01T10:07:04.998Z</time></trkpt><trkpt lat="45.737100104833694" lon="12.474951483043398"><ele>8.0</ele><time>2026-05-01T10:07:05.998Z</time></trkpt><trkpt lat="45.73692486282017" lon="12.474918572509777"><ele>8.0</ele><time>2026-05-01T10:07:06.998Z</time></trkpt><trkpt lat="45.7367547186767" lon="12.474886004065556"><ele>8.0</ele><time>2026-05-01T10:07:07.998Z</time></trkpt><trkpt lat="45.73659547044383" lon="12.474853766049167"><ele>8.0</ele><time>2026-05-01T10:07:08.998Z</time></trkpt><trkpt lat="45.73643561387721" lon="12.474819014004769"><ele>8.0</ele><time>2026-05-01T10:07:09.998Z</time></trkpt><trkpt lat="45.73627253341038" lon="12.474785840050755"><ele>8.0</ele><time>2026-05-01T10:07:10.998Z</time></trkpt><trkpt lat="45.73611633024826" lon="12.474756558258514"><ele>8.0</ele><time>2026-05-01T10:07:11.998Z</time></trkpt><trkpt lat="45.735971780278426" lon="12.47472999368768"><ele>8.0</ele><time>2026-05-01T10:07:12.998Z</time></trkpt><trkpt lat="45.73583614244214" lon="12.474703045843771"><ele>8.0</ele><time>2026-05-01T10:07:13.998Z</time></trkpt><trkpt lat="45.73571299515179" lon="12.474676611336147"><ele>8.4</ele><time>2026-05-01T10:07:14.998Z</time></trkpt><trkpt lat="45.73559674522936" lon="12.474650760098903"><ele>8.8</ele><time>2026-05-01T10:07:15.998Z</time></trkpt><trkpt lat="45.73549975902878" lon="12.474631706443313"><ele>9.2</ele><time>2026-05-01T10:07:16.998Z</time></trkpt><trkpt lat="45.73542362918763" lon="12.47461721364655"><ele>9.6</ele><time>2026-05-01T10:07:17.998Z</time></trkpt><trkpt lat="45.73536433758922" lon="12.474582356089892"><ele>10.0</ele><time>2026-05-01T10:07:18.998Z</time></trkpt><trkpt lat="45.73529869624936" lon="12.474466613837127"><ele>9.666666666666668</ele><time>2026-05-01T10:07:20.998Z</time></trkpt><trkpt lat="45.73517685046904" lon="12.474436614144913"><ele>9.333333333333334</ele><time>2026-05-01T10:07:22.998Z</time></trkpt><trkpt lat="45.735165842169934" lon="12.474011953949478"><ele>9.0</ele><time>2026-05-01T10:07:24.998Z</time></trkpt><trkpt lat="45.73518379273351" lon="12.473860992002043"><ele>9.0</ele><time>2026-05-01T10:07:25.998Z</time></trkpt><trkpt lat="45.735219335580005" lon="12.473679023220177"><ele>9.0</ele><time>2026-05-01T10:07:26.998Z</time></trkpt><trkpt lat="45.7352580489262" lon="12.473529964931013"><ele>9.0</ele><time>2026-05-01T10:07:27.998Z</time></trkpt><trkpt lat="45.735287354129426" lon="12.473407548539408"><ele>9.0</ele><time>2026-05-01T10:07:28.998Z</time></trkpt><trkpt lat="45.73531919551033" lon="12.473302879739462"><ele>9.0</ele><time>2026-05-01T10:07:29.998Z</time></trkpt><trkpt lat="45.735363924009334" lon="12.473160733159835"><ele>9.0</ele><time>2026-05-01T10:07:31.998Z</time></trkpt><trkpt lat="45.735418307347125" lon="12.473089990274927"><ele>9.0</ele><time>2026-05-01T10:07:33.998Z</time></trkpt><trkpt lat="45.73549284271252" lon="12.473128717990315"><ele>9.0</ele><time>2026-05-01T10:08:35.999Z</time></trkpt></trkseg></trk></gpx>